<?xml version="1.0" encoding="UTF-8" standalone="no" ?>
<gpx xmlns="http://www.topografix.com/GPX/1/1" xmlns:xsi="http://www.w3.org/2001/XMLSchema-instance" xsi:schemaLocation="http://www.topografix.com/GPX/1/1 http://www.topografix.com/GPX/1/1/gpx.xsd" version="1.1" creator="VisuGPX - https://www.visugpx.com">
  <metadata>
    <name>ASPTT Triathlon Angers - sortie vélo</name>
    <desc><![CDATA[Sortie vélo du Jeudi 3 Novembre 2011
[b]Parcours Plat[/b]
[b]F3-ZT[/b]
Travail d\'allure]]></desc>
  </metadata>
  <trk>
    <name><![CDATA[B.iCycle Track from 2011-11-03_14.00.16]]></name>
    <trkseg>
      <trkpt lat="47.45871" lon="-0.53215">
        <ele>-7.459324</ele>
        <time>2011-11-03T13:03:57.562Z</time>
      </trkpt>
      <trkpt lat="47.45857" lon="-0.53232">
        <ele>-6.280323</ele>
        <time>2011-11-03T13:04:07.559Z</time>
      </trkpt>
      <trkpt lat="47.4585" lon="-0.53257">
        <ele>-5.161625</ele>
        <time>2011-11-03T13:04:16.564Z</time>
      </trkpt>
      <trkpt lat="47.45859" lon="-0.53281">
        <ele>-4.141178</ele>
        <time>2011-11-03T13:04:25.567Z</time>
      </trkpt>
      <trkpt lat="47.45877" lon="-0.53287">
        <ele>-3.606136</ele>
        <time>2011-11-03T13:04:30.565Z</time>
      </trkpt>
      <trkpt lat="47.45897" lon="-0.5329">
        <ele>-2.355793</ele>
        <time>2011-11-03T13:04:34.573Z</time>
      </trkpt>
      <trkpt lat="47.45916" lon="-0.53288">
        <ele>-2.520374</ele>
        <time>2011-11-03T13:04:37.580Z</time>
      </trkpt>
      <trkpt lat="47.45934" lon="-0.53285">
        <ele>-3.353748</ele>
        <time>2011-11-03T13:04:40.569Z</time>
      </trkpt>
      <trkpt lat="47.45957" lon="-0.5328">
        <ele>-4.523342</ele>
        <time>2011-11-03T13:04:44.586Z</time>
      </trkpt>
      <trkpt lat="47.45979" lon="-0.53278">
        <ele>-5.44006</ele>
        <time>2011-11-03T13:04:48.577Z</time>
      </trkpt>
      <trkpt lat="47.46" lon="-0.53274">
        <ele>-6.212517</ele>
        <time>2011-11-03T13:04:52.585Z</time>
      </trkpt>
      <trkpt lat="47.46018" lon="-0.53271">
        <ele>-6.6455</ele>
        <time>2011-11-03T13:04:56.581Z</time>
      </trkpt>
      <trkpt lat="47.4604" lon="-0.53266">
        <ele>-6.692501</ele>
        <time>2011-11-03T13:05:00.582Z</time>
      </trkpt>
      <trkpt lat="47.46059" lon="-0.53263">
        <ele>-6.645718</ele>
        <time>2011-11-03T13:05:02.578Z</time>
      </trkpt>
      <trkpt lat="47.46077" lon="-0.53261">
        <ele>-6.616951</ele>
        <time>2011-11-03T13:05:05.585Z</time>
      </trkpt>
      <trkpt lat="47.46101" lon="-0.53257">
        <ele>-6.71154</ele>
        <time>2011-11-03T13:05:09.579Z</time>
      </trkpt>
      <trkpt lat="47.46121" lon="-0.53254">
        <ele>-6.807648</ele>
        <time>2011-11-03T13:05:13.592Z</time>
      </trkpt>
      <trkpt lat="47.46139" lon="-0.53251">
        <ele>-6.910206</ele>
        <time>2011-11-03T13:05:17.624Z</time>
      </trkpt>
      <trkpt lat="47.46161" lon="-0.53248">
        <ele>-7.06105</ele>
        <time>2011-11-03T13:05:22.583Z</time>
      </trkpt>
      <trkpt lat="47.46161" lon="-0.53217">
        <ele>-7.110668</ele>
        <time>2011-11-03T13:05:29.590Z</time>
      </trkpt>
      <trkpt lat="47.46154" lon="-0.53192">
        <ele>-7.0294</ele>
        <time>2011-11-03T13:05:33.593Z</time>
      </trkpt>
      <trkpt lat="47.46146" lon="-0.53165">
        <ele>-7.030544</ele>
        <time>2011-11-03T13:05:37.583Z</time>
      </trkpt>
      <trkpt lat="47.46139" lon="-0.53136">
        <ele>-7.046841</ele>
        <time>2011-11-03T13:05:41.586Z</time>
      </trkpt>
      <trkpt lat="47.46131" lon="-0.53107">
        <ele>-6.954884</ele>
        <time>2011-11-03T13:05:45.589Z</time>
      </trkpt>
      <trkpt lat="47.46124" lon="-0.53077">
        <ele>-6.802464</ele>
        <time>2011-11-03T13:05:49.589Z</time>
      </trkpt>
      <trkpt lat="47.46117" lon="-0.53048">
        <ele>-6.849781</ele>
        <time>2011-11-03T13:05:53.581Z</time>
      </trkpt>
      <trkpt lat="47.46111" lon="-0.53018">
        <ele>-7.057278</ele>
        <time>2011-11-03T13:05:57.580Z</time>
      </trkpt>
      <trkpt lat="47.46106" lon="-0.5299">
        <ele>-7.339085</ele>
        <time>2011-11-03T13:06:01.587Z</time>
      </trkpt>
      <trkpt lat="47.46101" lon="-0.52963">
        <ele>-7.566959</ele>
        <time>2011-11-03T13:06:05.597Z</time>
      </trkpt>
      <trkpt lat="47.46098" lon="-0.52936">
        <ele>-7.453781</ele>
        <time>2011-11-03T13:06:11.579Z</time>
      </trkpt>
      <trkpt lat="47.46096" lon="-0.52907">
        <ele>-7.345737</ele>
        <time>2011-11-03T13:06:19.582Z</time>
      </trkpt>
      <trkpt lat="47.46093" lon="-0.52877">
        <ele>-7.193928</ele>
        <time>2011-11-03T13:06:24.592Z</time>
      </trkpt>
      <trkpt lat="47.46089" lon="-0.5285">
        <ele>-7.190914</ele>
        <time>2011-11-03T13:06:28.585Z</time>
      </trkpt>
      <trkpt lat="47.46086" lon="-0.5282">
        <ele>-7.329838</ele>
        <time>2011-11-03T13:06:32.593Z</time>
      </trkpt>
      <trkpt lat="47.4608" lon="-0.52789">
        <ele>-7.318249</ele>
        <time>2011-11-03T13:06:36.582Z</time>
      </trkpt>
      <trkpt lat="47.46073" lon="-0.52759">
        <ele>-7.313946</ele>
        <time>2011-11-03T13:06:40.577Z</time>
      </trkpt>
      <trkpt lat="47.46065" lon="-0.52727">
        <ele>-7.494236</ele>
        <time>2011-11-03T13:06:44.581Z</time>
      </trkpt>
      <trkpt lat="47.46056" lon="-0.52697">
        <ele>-7.568256</ele>
        <time>2011-11-03T13:06:48.576Z</time>
      </trkpt>
      <trkpt lat="47.46047" lon="-0.52666">
        <ele>-7.40453</ele>
        <time>2011-11-03T13:06:52.800Z</time>
      </trkpt>
      <trkpt lat="47.46038" lon="-0.52635">
        <ele>-7.057472</ele>
        <time>2011-11-03T13:06:56.580Z</time>
      </trkpt>
      <trkpt lat="47.46031" lon="-0.52606">
        <ele>-6.890446</ele>
        <time>2011-11-03T13:07:00.578Z</time>
      </trkpt>
      <trkpt lat="47.46026" lon="-0.52576">
        <ele>-6.767487</ele>
        <time>2011-11-03T13:07:04.584Z</time>
      </trkpt>
      <trkpt lat="47.4602" lon="-0.52546">
        <ele>-6.65723</ele>
        <time>2011-11-03T13:07:08.577Z</time>
      </trkpt>
      <trkpt lat="47.46015" lon="-0.52515">
        <ele>-6.638599</ele>
        <time>2011-11-03T13:07:12.583Z</time>
      </trkpt>
      <trkpt lat="47.46009" lon="-0.52487">
        <ele>-6.595291</ele>
        <time>2011-11-03T13:07:16.577Z</time>
      </trkpt>
      <trkpt lat="47.46001" lon="-0.52455">
        <ele>-6.644844</ele>
        <time>2011-11-03T13:07:30.603Z</time>
      </trkpt>
      <trkpt lat="47.45996" lon="-0.52425">
        <ele>-7.057919</ele>
        <time>2011-11-03T13:07:36.563Z</time>
      </trkpt>
      <trkpt lat="47.45991" lon="-0.52398">
        <ele>-7.694679</ele>
        <time>2011-11-03T13:07:40.600Z</time>
      </trkpt>
      <trkpt lat="47.45985" lon="-0.5237">
        <ele>-7.956676</ele>
        <time>2011-11-03T13:07:44.577Z</time>
      </trkpt>
      <trkpt lat="47.45981" lon="-0.52342">
        <ele>-7.846912</ele>
        <time>2011-11-03T13:07:48.575Z</time>
      </trkpt>
      <trkpt lat="47.45975" lon="-0.52314">
        <ele>-7.698769</ele>
        <time>2011-11-03T13:07:52.574Z</time>
      </trkpt>
      <trkpt lat="47.4597" lon="-0.52285">
        <ele>-7.564877</ele>
        <time>2011-11-03T13:07:56.583Z</time>
      </trkpt>
      <trkpt lat="47.45966" lon="-0.52255">
        <ele>-7.331146</ele>
        <time>2011-11-03T13:08:00.580Z</time>
      </trkpt>
      <trkpt lat="47.45962" lon="-0.52226">
        <ele>-7.154167</ele>
        <time>2011-11-03T13:08:04.577Z</time>
      </trkpt>
      <trkpt lat="47.45958" lon="-0.52198">
        <ele>-6.895229</ele>
        <time>2011-11-03T13:08:10.576Z</time>
      </trkpt>
      <trkpt lat="47.45959" lon="-0.52167">
        <ele>-7.349228</ele>
        <time>2011-11-03T13:08:40.566Z</time>
      </trkpt>
      <trkpt lat="47.45952" lon="-0.52137">
        <ele>-8.125965</ele>
        <time>2011-11-03T13:08:45.577Z</time>
      </trkpt>
      <trkpt lat="47.45946" lon="-0.52109">
        <ele>-7.899117</ele>
        <time>2011-11-03T13:08:49.631Z</time>
      </trkpt>
      <trkpt lat="47.45941" lon="-0.5208">
        <ele>-7.535744</ele>
        <time>2011-11-03T13:08:53.591Z</time>
      </trkpt>
      <trkpt lat="47.45935" lon="-0.52052">
        <ele>-7.17942</ele>
        <time>2011-11-03T13:08:57.572Z</time>
      </trkpt>
      <trkpt lat="47.45928" lon="-0.52021">
        <ele>-6.904812</ele>
        <time>2011-11-03T13:09:01.582Z</time>
      </trkpt>
      <trkpt lat="47.4592" lon="-0.51992">
        <ele>-6.853027</ele>
        <time>2011-11-03T13:09:05.573Z</time>
      </trkpt>
      <trkpt lat="47.45912" lon="-0.51963">
        <ele>-6.690479</ele>
        <time>2011-11-03T13:09:09.580Z</time>
      </trkpt>
      <trkpt lat="47.45905" lon="-0.51933">
        <ele>-6.210506</ele>
        <time>2011-11-03T13:09:13.580Z</time>
      </trkpt>
      <trkpt lat="47.45899" lon="-0.51902">
        <ele>-5.836742</ele>
        <time>2011-11-03T13:09:17.583Z</time>
      </trkpt>
      <trkpt lat="47.45892" lon="-0.51871">
        <ele>-5.588146</ele>
        <time>2011-11-03T13:09:21.579Z</time>
      </trkpt>
      <trkpt lat="47.45885" lon="-0.51841">
        <ele>-5.795238</ele>
        <time>2011-11-03T13:09:25.574Z</time>
      </trkpt>
      <trkpt lat="47.45878" lon="-0.51809">
        <ele>-5.854771</ele>
        <time>2011-11-03T13:09:29.580Z</time>
      </trkpt>
      <trkpt lat="47.4587" lon="-0.51779">
        <ele>-5.845657</ele>
        <time>2011-11-03T13:09:33.575Z</time>
      </trkpt>
      <trkpt lat="47.45863" lon="-0.51752">
        <ele>-4.128387</ele>
        <time>2011-11-03T13:09:37.612Z</time>
      </trkpt>
      <trkpt lat="47.45854" lon="-0.51721">
        <ele>-2.614201</ele>
        <time>2011-11-03T13:09:41.591Z</time>
      </trkpt>
      <trkpt lat="47.45847" lon="-0.51687">
        <ele>-2.133987</ele>
        <time>2011-11-03T13:09:45.571Z</time>
      </trkpt>
      <trkpt lat="47.45841" lon="-0.51654">
        <ele>-2.060429</ele>
        <time>2011-11-03T13:09:49.830Z</time>
      </trkpt>
      <trkpt lat="47.45836" lon="-0.51622">
        <ele>-2.522327</ele>
        <time>2011-11-03T13:09:53.560Z</time>
      </trkpt>
      <trkpt lat="47.45827" lon="-0.51591">
        <ele>-2.719139</ele>
        <time>2011-11-03T13:09:57.566Z</time>
      </trkpt>
      <trkpt lat="47.45816" lon="-0.51561">
        <ele>-2.647049</ele>
        <time>2011-11-03T13:10:01.556Z</time>
      </trkpt>
      <trkpt lat="47.45806" lon="-0.51532">
        <ele>-2.619701</ele>
        <time>2011-11-03T13:10:05.577Z</time>
      </trkpt>
      <trkpt lat="47.45795" lon="-0.51506">
        <ele>-2.644238</ele>
        <time>2011-11-03T13:10:09.565Z</time>
      </trkpt>
      <trkpt lat="47.45793" lon="-0.51478">
        <ele>-2.942562</ele>
        <time>2011-11-03T13:10:13.558Z</time>
      </trkpt>
      <trkpt lat="47.45786" lon="-0.51447">
        <ele>-3.202862</ele>
        <time>2011-11-03T13:10:17.574Z</time>
      </trkpt>
      <trkpt lat="47.45779" lon="-0.51422">
        <ele>-3.350433</ele>
        <time>2011-11-03T13:10:19.580Z</time>
      </trkpt>
      <trkpt lat="47.45772" lon="-0.51397">
        <ele>-3.719326</ele>
        <time>2011-11-03T13:10:22.576Z</time>
      </trkpt>
      <trkpt lat="47.45764" lon="-0.51373">
        <ele>-3.938065</ele>
        <time>2011-11-03T13:10:25.567Z</time>
      </trkpt>
      <trkpt lat="47.45755" lon="-0.51341">
        <ele>-4.174423</ele>
        <time>2011-11-03T13:10:29.577Z</time>
      </trkpt>
      <trkpt lat="47.45746" lon="-0.51309">
        <ele>-4.468678</ele>
        <time>2011-11-03T13:10:33.634Z</time>
      </trkpt>
      <trkpt lat="47.45737" lon="-0.51277">
        <ele>-4.556252</ele>
        <time>2011-11-03T13:10:37.575Z</time>
      </trkpt>
      <trkpt lat="47.45728" lon="-0.51246">
        <ele>-4.823711</ele>
        <time>2011-11-03T13:10:41.582Z</time>
      </trkpt>
      <trkpt lat="47.4572" lon="-0.51214">
        <ele>-5.011322</ele>
        <time>2011-11-03T13:10:45.559Z</time>
      </trkpt>
      <trkpt lat="47.45711" lon="-0.51182">
        <ele>-5.337215</ele>
        <time>2011-11-03T13:10:49.571Z</time>
      </trkpt>
      <trkpt lat="47.45702" lon="-0.51153">
        <ele>-5.370403</ele>
        <time>2011-11-03T13:10:53.572Z</time>
      </trkpt>
      <trkpt lat="47.45693" lon="-0.51124">
        <ele>-5.395458</ele>
        <time>2011-11-03T13:10:57.570Z</time>
      </trkpt>
      <trkpt lat="47.45687" lon="-0.51094">
        <ele>-5.399044</ele>
        <time>2011-11-03T13:11:01.574Z</time>
      </trkpt>
      <trkpt lat="47.45677" lon="-0.51061">
        <ele>-5.509716</ele>
        <time>2011-11-03T13:11:05.571Z</time>
      </trkpt>
      <trkpt lat="47.4567" lon="-0.51036">
        <ele>-5.761494</ele>
        <time>2011-11-03T13:11:08.576Z</time>
      </trkpt>
      <trkpt lat="47.45667" lon="-0.51009">
        <ele>-6.057934</ele>
        <time>2011-11-03T13:11:11.581Z</time>
      </trkpt>
      <trkpt lat="47.4567" lon="-0.50982">
        <ele>-6.292576</ele>
        <time>2011-11-03T13:11:14.579Z</time>
      </trkpt>
      <trkpt lat="47.45672" lon="-0.50956">
        <ele>-6.449345</ele>
        <time>2011-11-03T13:11:17.569Z</time>
      </trkpt>
      <trkpt lat="47.45658" lon="-0.50935">
        <ele>-6.652813</ele>
        <time>2011-11-03T13:11:22.578Z</time>
      </trkpt>
      <trkpt lat="47.45637" lon="-0.50924">
        <ele>-6.986866</ele>
        <time>2011-11-03T13:11:27.584Z</time>
      </trkpt>
      <trkpt lat="47.45627" lon="-0.50896">
        <ele>-7.511978</ele>
        <time>2011-11-03T13:11:32.581Z</time>
      </trkpt>
      <trkpt lat="47.45627" lon="-0.50868">
        <ele>-8.083347</ele>
        <time>2011-11-03T13:11:36.580Z</time>
      </trkpt>
      <trkpt lat="47.45631" lon="-0.50839">
        <ele>-8.419559</ele>
        <time>2011-11-03T13:11:40.572Z</time>
      </trkpt>
      <trkpt lat="47.45635" lon="-0.50809">
        <ele>-8.413273</ele>
        <time>2011-11-03T13:11:44.574Z</time>
      </trkpt>
      <trkpt lat="47.45628" lon="-0.50784">
        <ele>-8.337811</ele>
        <time>2011-11-03T13:11:47.584Z</time>
      </trkpt>
      <trkpt lat="47.45617" lon="-0.50759">
        <ele>-8.251919</ele>
        <time>2011-11-03T13:11:50.577Z</time>
      </trkpt>
      <trkpt lat="47.45606" lon="-0.50735">
        <ele>-8.355526</ele>
        <time>2011-11-03T13:11:53.580Z</time>
      </trkpt>
      <trkpt lat="47.45595" lon="-0.50712">
        <ele>-8.570126</ele>
        <time>2011-11-03T13:11:56.585Z</time>
      </trkpt>
      <trkpt lat="47.45584" lon="-0.50689">
        <ele>-8.796883</ele>
        <time>2011-11-03T13:11:59.570Z</time>
      </trkpt>
      <trkpt lat="47.45574" lon="-0.50667">
        <ele>-9.026882</ele>
        <time>2011-11-03T13:12:02.643Z</time>
      </trkpt>
      <trkpt lat="47.45564" lon="-0.50645">
        <ele>-9.121357</ele>
        <time>2011-11-03T13:12:05.572Z</time>
      </trkpt>
      <trkpt lat="47.45553" lon="-0.50614">
        <ele>-9.303154</ele>
        <time>2011-11-03T13:12:09.577Z</time>
      </trkpt>
      <trkpt lat="47.45545" lon="-0.5059">
        <ele>-9.448639</ele>
        <time>2011-11-03T13:12:12.578Z</time>
      </trkpt>
      <trkpt lat="47.45538" lon="-0.50564">
        <ele>-9.532742</ele>
        <time>2011-11-03T13:12:15.609Z</time>
      </trkpt>
      <trkpt lat="47.45532" lon="-0.50537">
        <ele>-9.527615</ele>
        <time>2011-11-03T13:12:18.580Z</time>
      </trkpt>
      <trkpt lat="47.45526" lon="-0.5051">
        <ele>-9.458302</ele>
        <time>2011-11-03T13:12:21.558Z</time>
      </trkpt>
      <trkpt lat="47.45522" lon="-0.50482">
        <ele>-9.585094</ele>
        <time>2011-11-03T13:12:24.555Z</time>
      </trkpt>
      <trkpt lat="47.45518" lon="-0.50453">
        <ele>-9.54586</ele>
        <time>2011-11-03T13:12:27.562Z</time>
      </trkpt>
      <trkpt lat="47.45515" lon="-0.50424">
        <ele>-9.574978</ele>
        <time>2011-11-03T13:12:30.561Z</time>
      </trkpt>
      <trkpt lat="47.45511" lon="-0.50395">
        <ele>-9.631268</ele>
        <time>2011-11-03T13:12:33.558Z</time>
      </trkpt>
      <trkpt lat="47.45507" lon="-0.50366">
        <ele>-9.95435</ele>
        <time>2011-11-03T13:12:36.562Z</time>
      </trkpt>
      <trkpt lat="47.45502" lon="-0.50338">
        <ele>-10.14888</ele>
        <time>2011-11-03T13:12:39.561Z</time>
      </trkpt>
      <trkpt lat="47.45496" lon="-0.50309">
        <ele>-10.272099</ele>
        <time>2011-11-03T13:12:42.598Z</time>
      </trkpt>
      <trkpt lat="47.45489" lon="-0.50282">
        <ele>-10.214516</ele>
        <time>2011-11-03T13:12:45.628Z</time>
      </trkpt>
      <trkpt lat="47.45482" lon="-0.50254">
        <ele>-10.167709</ele>
        <time>2011-11-03T13:12:48.581Z</time>
      </trkpt>
      <trkpt lat="47.45473" lon="-0.50227">
        <ele>-10.38866</ele>
        <time>2011-11-03T13:12:51.579Z</time>
      </trkpt>
      <trkpt lat="47.45464" lon="-0.502">
        <ele>-10.726219</ele>
        <time>2011-11-03T13:12:54.572Z</time>
      </trkpt>
      <trkpt lat="47.45455" lon="-0.50174">
        <ele>-11.021374</ele>
        <time>2011-11-03T13:12:57.579Z</time>
      </trkpt>
      <trkpt lat="47.45445" lon="-0.50149">
        <ele>-11.339329</ele>
        <time>2011-11-03T13:13:00.569Z</time>
      </trkpt>
      <trkpt lat="47.45436" lon="-0.50124">
        <ele>-11.605968</ele>
        <time>2011-11-03T13:13:03.631Z</time>
      </trkpt>
      <trkpt lat="47.45426" lon="-0.50098">
        <ele>-11.758881</ele>
        <time>2011-11-03T13:13:06.578Z</time>
      </trkpt>
      <trkpt lat="47.45417" lon="-0.50073">
        <ele>-12.146172</ele>
        <time>2011-11-03T13:13:09.585Z</time>
      </trkpt>
      <trkpt lat="47.45407" lon="-0.50048">
        <ele>-12.5648</ele>
        <time>2011-11-03T13:13:12.584Z</time>
      </trkpt>
      <trkpt lat="47.45398" lon="-0.50023">
        <ele>-12.354988</ele>
        <time>2011-11-03T13:13:15.589Z</time>
      </trkpt>
      <trkpt lat="47.45389" lon="-0.49998">
        <ele>-12.413212</ele>
        <time>2011-11-03T13:13:18.585Z</time>
      </trkpt>
      <trkpt lat="47.45381" lon="-0.49972">
        <ele>-11.887318</ele>
        <time>2011-11-03T13:13:21.584Z</time>
      </trkpt>
      <trkpt lat="47.45373" lon="-0.49946">
        <ele>-11.812622</ele>
        <time>2011-11-03T13:13:24.574Z</time>
      </trkpt>
      <trkpt lat="47.45366" lon="-0.49919">
        <ele>-11.697285</ele>
        <time>2011-11-03T13:13:27.580Z</time>
      </trkpt>
      <trkpt lat="47.45361" lon="-0.49892">
        <ele>-11.553448</ele>
        <time>2011-11-03T13:13:30.577Z</time>
      </trkpt>
      <trkpt lat="47.45356" lon="-0.49864">
        <ele>-11.465836</ele>
        <time>2011-11-03T13:13:33.573Z</time>
      </trkpt>
      <trkpt lat="47.45351" lon="-0.49837">
        <ele>-11.090885</ele>
        <time>2011-11-03T13:13:36.569Z</time>
      </trkpt>
      <trkpt lat="47.45346" lon="-0.4981">
        <ele>-10.90427</ele>
        <time>2011-11-03T13:13:39.569Z</time>
      </trkpt>
      <trkpt lat="47.4534" lon="-0.49782">
        <ele>-10.055378</ele>
        <time>2011-11-03T13:13:42.569Z</time>
      </trkpt>
      <trkpt lat="47.45335" lon="-0.49752">
        <ele>-9.930141</ele>
        <time>2011-11-03T13:13:45.572Z</time>
      </trkpt>
      <trkpt lat="47.45332" lon="-0.49722">
        <ele>-9.763191</ele>
        <time>2011-11-03T13:13:48.576Z</time>
      </trkpt>
      <trkpt lat="47.45327" lon="-0.49691">
        <ele>-9.459553</ele>
        <time>2011-11-03T13:13:51.573Z</time>
      </trkpt>
      <trkpt lat="47.45322" lon="-0.4966">
        <ele>-9.317604</ele>
        <time>2011-11-03T13:13:54.562Z</time>
      </trkpt>
      <trkpt lat="47.45317" lon="-0.49628">
        <ele>-9.398457</ele>
        <time>2011-11-03T13:13:57.556Z</time>
      </trkpt>
      <trkpt lat="47.45311" lon="-0.49597">
        <ele>-9.53001</ele>
        <time>2011-11-03T13:14:00.558Z</time>
      </trkpt>
      <trkpt lat="47.45305" lon="-0.49566">
        <ele>-10.906292</ele>
        <time>2011-11-03T13:14:03.560Z</time>
      </trkpt>
      <trkpt lat="47.45297" lon="-0.49536">
        <ele>-10.741779</ele>
        <time>2011-11-03T13:14:06.570Z</time>
      </trkpt>
      <trkpt lat="47.4529" lon="-0.49505">
        <ele>-12.409744</ele>
        <time>2011-11-03T13:14:09.579Z</time>
      </trkpt>
      <trkpt lat="47.45284" lon="-0.49477">
        <ele>-14.961185</ele>
        <time>2011-11-03T13:14:12.574Z</time>
      </trkpt>
      <trkpt lat="47.45276" lon="-0.4945">
        <ele>-15.766426</ele>
        <time>2011-11-03T13:14:15.584Z</time>
      </trkpt>
      <trkpt lat="47.45269" lon="-0.49423">
        <ele>-16.131741</ele>
        <time>2011-11-03T13:14:18.556Z</time>
      </trkpt>
      <trkpt lat="47.45261" lon="-0.49392">
        <ele>-19.468719</ele>
        <time>2011-11-03T13:14:21.565Z</time>
      </trkpt>
      <trkpt lat="47.45251" lon="-0.49361">
        <ele>-22.755852</ele>
        <time>2011-11-03T13:14:24.614Z</time>
      </trkpt>
      <trkpt lat="47.45242" lon="-0.49333">
        <ele>-25.192062</ele>
        <time>2011-11-03T13:14:27.566Z</time>
      </trkpt>
      <trkpt lat="47.45232" lon="-0.49305">
        <ele>-27.039165</ele>
        <time>2011-11-03T13:14:30.563Z</time>
      </trkpt>
      <trkpt lat="47.45222" lon="-0.49279">
        <ele>-28.053391</ele>
        <time>2011-11-03T13:14:33.569Z</time>
      </trkpt>
      <trkpt lat="47.45211" lon="-0.49253">
        <ele>-28.539772</ele>
        <time>2011-11-03T13:14:36.578Z</time>
      </trkpt>
      <trkpt lat="47.452" lon="-0.49228">
        <ele>-28.821911</ele>
        <time>2011-11-03T13:14:39.575Z</time>
      </trkpt>
      <trkpt lat="47.45189" lon="-0.49202">
        <ele>-28.509304</ele>
        <time>2011-11-03T13:14:42.571Z</time>
      </trkpt>
      <trkpt lat="47.45177" lon="-0.49177">
        <ele>-28.257645</ele>
        <time>2011-11-03T13:14:45.566Z</time>
      </trkpt>
      <trkpt lat="47.45164" lon="-0.49154">
        <ele>-27.926723</ele>
        <time>2011-11-03T13:14:48.565Z</time>
      </trkpt>
      <trkpt lat="47.45151" lon="-0.4913">
        <ele>-27.707333</ele>
        <time>2011-11-03T13:14:51.569Z</time>
      </trkpt>
      <trkpt lat="47.45138" lon="-0.49106">
        <ele>-27.491604</ele>
        <time>2011-11-03T13:14:54.571Z</time>
      </trkpt>
      <trkpt lat="47.45124" lon="-0.49083">
        <ele>-27.567947</ele>
        <time>2011-11-03T13:14:57.570Z</time>
      </trkpt>
      <trkpt lat="47.45111" lon="-0.49061">
        <ele>-28.437317</ele>
        <time>2011-11-03T13:15:00.569Z</time>
      </trkpt>
      <trkpt lat="47.45097" lon="-0.4904">
        <ele>-28.544125</ele>
        <time>2011-11-03T13:15:03.563Z</time>
      </trkpt>
      <trkpt lat="47.45083" lon="-0.49019">
        <ele>-29.107555</ele>
        <time>2011-11-03T13:15:06.561Z</time>
      </trkpt>
      <trkpt lat="47.4507" lon="-0.48998">
        <ele>-30.409214</ele>
        <time>2011-11-03T13:15:09.556Z</time>
      </trkpt>
      <trkpt lat="47.45051" lon="-0.48977">
        <ele>-30.832031</ele>
        <time>2011-11-03T13:15:13.563Z</time>
      </trkpt>
      <trkpt lat="47.45033" lon="-0.48971">
        <ele>-31.43277</ele>
        <time>2011-11-03T13:15:16.570Z</time>
      </trkpt>
      <trkpt lat="47.45015" lon="-0.48965">
        <ele>-31.812531</ele>
        <time>2011-11-03T13:15:19.565Z</time>
      </trkpt>
      <trkpt lat="47.45001" lon="-0.48938">
        <ele>-32.011692</ele>
        <time>2011-11-03T13:15:23.567Z</time>
      </trkpt>
      <trkpt lat="47.4499" lon="-0.48909">
        <ele>-32.307369</ele>
        <time>2011-11-03T13:15:27.579Z</time>
      </trkpt>
      <trkpt lat="47.44973" lon="-0.48887">
        <ele>-31.786938</ele>
        <time>2011-11-03T13:15:31.578Z</time>
      </trkpt>
      <trkpt lat="47.44958" lon="-0.48871">
        <ele>-31.092628</ele>
        <time>2011-11-03T13:15:34.581Z</time>
      </trkpt>
      <trkpt lat="47.44943" lon="-0.48852">
        <ele>-30.457108</ele>
        <time>2011-11-03T13:15:37.576Z</time>
      </trkpt>
      <trkpt lat="47.44929" lon="-0.48833">
        <ele>-30.179455</ele>
        <time>2011-11-03T13:15:40.597Z</time>
      </trkpt>
      <trkpt lat="47.44915" lon="-0.48813">
        <ele>-29.984341</ele>
        <time>2011-11-03T13:15:43.578Z</time>
      </trkpt>
      <trkpt lat="47.44903" lon="-0.48791">
        <ele>-29.568436</ele>
        <time>2011-11-03T13:15:46.587Z</time>
      </trkpt>
      <trkpt lat="47.44892" lon="-0.48769">
        <ele>-29.125427</ele>
        <time>2011-11-03T13:15:49.567Z</time>
      </trkpt>
      <trkpt lat="47.4488" lon="-0.48746">
        <ele>-29.374798</ele>
        <time>2011-11-03T13:15:52.581Z</time>
      </trkpt>
      <trkpt lat="47.44869" lon="-0.48723">
        <ele>-29.332775</ele>
        <time>2011-11-03T13:15:55.555Z</time>
      </trkpt>
      <trkpt lat="47.44859" lon="-0.48698">
        <ele>-29.879803</ele>
        <time>2011-11-03T13:15:58.567Z</time>
      </trkpt>
      <trkpt lat="47.44849" lon="-0.48673">
        <ele>-30.068783</ele>
        <time>2011-11-03T13:16:01.568Z</time>
      </trkpt>
      <trkpt lat="47.44838" lon="-0.4865">
        <ele>-29.657406</ele>
        <time>2011-11-03T13:16:04.584Z</time>
      </trkpt>
      <trkpt lat="47.44826" lon="-0.48623">
        <ele>-29.191277</ele>
        <time>2011-11-03T13:16:08.578Z</time>
      </trkpt>
      <trkpt lat="47.4482" lon="-0.48597">
        <ele>-29.044613</ele>
        <time>2011-11-03T13:16:13.580Z</time>
      </trkpt>
      <trkpt lat="47.44804" lon="-0.48576">
        <ele>-28.795918</ele>
        <time>2011-11-03T13:16:18.583Z</time>
      </trkpt>
      <trkpt lat="47.44787" lon="-0.48563">
        <ele>-28.695927</ele>
        <time>2011-11-03T13:16:23.587Z</time>
      </trkpt>
      <trkpt lat="47.44765" lon="-0.48564">
        <ele>-28.259827</ele>
        <time>2011-11-03T13:16:28.582Z</time>
      </trkpt>
      <trkpt lat="47.44748" lon="-0.48542">
        <ele>-28.104691</ele>
        <time>2011-11-03T13:16:32.590Z</time>
      </trkpt>
      <trkpt lat="47.44735" lon="-0.48513">
        <ele>-27.962631</ele>
        <time>2011-11-03T13:16:36.574Z</time>
      </trkpt>
      <trkpt lat="47.44716" lon="-0.48493">
        <ele>-27.804459</ele>
        <time>2011-11-03T13:16:40.587Z</time>
      </trkpt>
      <trkpt lat="47.44698" lon="-0.48481">
        <ele>-27.705341</ele>
        <time>2011-11-03T13:16:43.582Z</time>
      </trkpt>
      <trkpt lat="47.4468" lon="-0.48467">
        <ele>-27.729919</ele>
        <time>2011-11-03T13:16:46.563Z</time>
      </trkpt>
      <trkpt lat="47.44662" lon="-0.48454">
        <ele>-27.661011</ele>
        <time>2011-11-03T13:16:49.560Z</time>
      </trkpt>
      <trkpt lat="47.44645" lon="-0.48441">
        <ele>-27.680042</ele>
        <time>2011-11-03T13:16:52.565Z</time>
      </trkpt>
      <trkpt lat="47.44627" lon="-0.48431">
        <ele>-27.396034</ele>
        <time>2011-11-03T13:16:55.758Z</time>
      </trkpt>
      <trkpt lat="47.44608" lon="-0.48421">
        <ele>-27.530666</ele>
        <time>2011-11-03T13:16:58.565Z</time>
      </trkpt>
      <trkpt lat="47.4459" lon="-0.48412">
        <ele>-27.220219</ele>
        <time>2011-11-03T13:17:01.562Z</time>
      </trkpt>
      <trkpt lat="47.44572" lon="-0.48403">
        <ele>-27.666695</ele>
        <time>2011-11-03T13:17:04.559Z</time>
      </trkpt>
      <trkpt lat="47.44553" lon="-0.48394">
        <ele>-27.784977</ele>
        <time>2011-11-03T13:17:07.561Z</time>
      </trkpt>
      <trkpt lat="47.44533" lon="-0.48384">
        <ele>-27.473385</ele>
        <time>2011-11-03T13:17:10.566Z</time>
      </trkpt>
      <trkpt lat="47.44514" lon="-0.48375">
        <ele>-27.271145</ele>
        <time>2011-11-03T13:17:13.618Z</time>
      </trkpt>
      <trkpt lat="47.44496" lon="-0.48368">
        <ele>-26.854568</ele>
        <time>2011-11-03T13:17:16.568Z</time>
      </trkpt>
      <trkpt lat="47.44476" lon="-0.48363">
        <ele>-26.696754</ele>
        <time>2011-11-03T13:17:19.568Z</time>
      </trkpt>
      <trkpt lat="47.44455" lon="-0.48358">
        <ele>-27.465748</ele>
        <time>2011-11-03T13:17:22.567Z</time>
      </trkpt>
      <trkpt lat="47.44436" lon="-0.48354">
        <ele>-28.05418</ele>
        <time>2011-11-03T13:17:25.570Z</time>
      </trkpt>
      <trkpt lat="47.44417" lon="-0.48352">
        <ele>-27.943539</ele>
        <time>2011-11-03T13:17:28.569Z</time>
      </trkpt>
      <trkpt lat="47.44399" lon="-0.4835">
        <ele>-28.194206</ele>
        <time>2011-11-03T13:17:31.566Z</time>
      </trkpt>
      <trkpt lat="47.44379" lon="-0.4835">
        <ele>-27.468147</ele>
        <time>2011-11-03T13:17:34.576Z</time>
      </trkpt>
      <trkpt lat="47.44359" lon="-0.48348">
        <ele>-26.224857</ele>
        <time>2011-11-03T13:17:37.574Z</time>
      </trkpt>
      <trkpt lat="47.44339" lon="-0.48347">
        <ele>-25.621769</ele>
        <time>2011-11-03T13:17:40.580Z</time>
      </trkpt>
      <trkpt lat="47.4432" lon="-0.48348">
        <ele>-25.822571</ele>
        <time>2011-11-03T13:17:43.581Z</time>
      </trkpt>
      <trkpt lat="47.44301" lon="-0.48347">
        <ele>-26.10873</ele>
        <time>2011-11-03T13:17:46.590Z</time>
      </trkpt>
      <trkpt lat="47.44278" lon="-0.48344">
        <ele>-26.272373</ele>
        <time>2011-11-03T13:17:50.575Z</time>
      </trkpt>
      <trkpt lat="47.44256" lon="-0.4834">
        <ele>-25.977215</ele>
        <time>2011-11-03T13:17:54.583Z</time>
      </trkpt>
      <trkpt lat="47.44232" lon="-0.4834">
        <ele>-25.859951</ele>
        <time>2011-11-03T13:17:58.585Z</time>
      </trkpt>
      <trkpt lat="47.44209" lon="-0.48336">
        <ele>-25.995388</ele>
        <time>2011-11-03T13:18:02.576Z</time>
      </trkpt>
      <trkpt lat="47.44192" lon="-0.48323">
        <ele>-26.36515</ele>
        <time>2011-11-03T13:18:05.573Z</time>
      </trkpt>
      <trkpt lat="47.44174" lon="-0.48318">
        <ele>-26.594376</ele>
        <time>2011-11-03T13:18:08.580Z</time>
      </trkpt>
      <trkpt lat="47.44156" lon="-0.48326">
        <ele>-26.488243</ele>
        <time>2011-11-03T13:18:11.631Z</time>
      </trkpt>
      <trkpt lat="47.44138" lon="-0.48339">
        <ele>-26.246582</ele>
        <time>2011-11-03T13:18:14.567Z</time>
      </trkpt>
      <trkpt lat="47.44122" lon="-0.48356">
        <ele>-26.088764</ele>
        <time>2011-11-03T13:18:17.566Z</time>
      </trkpt>
      <trkpt lat="47.44107" lon="-0.48375">
        <ele>-25.985748</ele>
        <time>2011-11-03T13:18:20.579Z</time>
      </trkpt>
      <trkpt lat="47.44093" lon="-0.48394">
        <ele>-25.906593</ele>
        <time>2011-11-03T13:18:23.584Z</time>
      </trkpt>
      <trkpt lat="47.44079" lon="-0.48412">
        <ele>-25.866215</ele>
        <time>2011-11-03T13:18:26.585Z</time>
      </trkpt>
      <trkpt lat="47.44065" lon="-0.4843">
        <ele>-25.844166</ele>
        <time>2011-11-03T13:18:29.583Z</time>
      </trkpt>
      <trkpt lat="47.4405" lon="-0.48448">
        <ele>-25.78894</ele>
        <time>2011-11-03T13:18:32.581Z</time>
      </trkpt>
      <trkpt lat="47.44036" lon="-0.48465">
        <ele>-25.695946</ele>
        <time>2011-11-03T13:18:35.566Z</time>
      </trkpt>
      <trkpt lat="47.44018" lon="-0.48488">
        <ele>-25.675613</ele>
        <time>2011-11-03T13:18:39.573Z</time>
      </trkpt>
      <trkpt lat="47.44001" lon="-0.48511">
        <ele>-25.545719</ele>
        <time>2011-11-03T13:18:43.577Z</time>
      </trkpt>
      <trkpt lat="47.43984" lon="-0.48534">
        <ele>-25.373745</ele>
        <time>2011-11-03T13:18:47.584Z</time>
      </trkpt>
      <trkpt lat="47.43967" lon="-0.48557">
        <ele>-25.440952</ele>
        <time>2011-11-03T13:18:51.575Z</time>
      </trkpt>
      <trkpt lat="47.43952" lon="-0.4858">
        <ele>-25.476494</ele>
        <time>2011-11-03T13:18:55.575Z</time>
      </trkpt>
      <trkpt lat="47.43945" lon="-0.48613">
        <ele>-25.569637</ele>
        <time>2011-11-03T13:18:59.570Z</time>
      </trkpt>
      <trkpt lat="47.43938" lon="-0.48638">
        <ele>-25.898907</ele>
        <time>2011-11-03T13:19:02.593Z</time>
      </trkpt>
      <trkpt lat="47.43922" lon="-0.48651">
        <ele>-25.879108</ele>
        <time>2011-11-03T13:19:05.581Z</time>
      </trkpt>
      <trkpt lat="47.43899" lon="-0.48642">
        <ele>-25.62151</ele>
        <time>2011-11-03T13:19:09.600Z</time>
      </trkpt>
      <trkpt lat="47.43887" lon="-0.48622">
        <ele>-25.961002</ele>
        <time>2011-11-03T13:19:12.571Z</time>
      </trkpt>
      <trkpt lat="47.43874" lon="-0.486">
        <ele>-26.547386</ele>
        <time>2011-11-03T13:19:15.573Z</time>
      </trkpt>
      <trkpt lat="47.43858" lon="-0.48583">
        <ele>-26.791187</ele>
        <time>2011-11-03T13:19:18.578Z</time>
      </trkpt>
      <trkpt lat="47.43843" lon="-0.48565">
        <ele>-27.044811</ele>
        <time>2011-11-03T13:19:21.587Z</time>
      </trkpt>
      <trkpt lat="47.43831" lon="-0.48545">
        <ele>-27.363911</ele>
        <time>2011-11-03T13:19:24.581Z</time>
      </trkpt>
      <trkpt lat="47.43819" lon="-0.48524">
        <ele>-27.726902</ele>
        <time>2011-11-03T13:19:27.584Z</time>
      </trkpt>
      <trkpt lat="47.43807" lon="-0.48503">
        <ele>-27.852139</ele>
        <time>2011-11-03T13:19:30.586Z</time>
      </trkpt>
      <trkpt lat="47.43794" lon="-0.4848">
        <ele>-27.796021</ele>
        <time>2011-11-03T13:19:33.565Z</time>
      </trkpt>
      <trkpt lat="47.43781" lon="-0.48459">
        <ele>-27.909489</ele>
        <time>2011-11-03T13:19:36.568Z</time>
      </trkpt>
      <trkpt lat="47.43769" lon="-0.48437">
        <ele>-28.031055</ele>
        <time>2011-11-03T13:19:39.565Z</time>
      </trkpt>
      <trkpt lat="47.43758" lon="-0.48416">
        <ele>-27.801315</ele>
        <time>2011-11-03T13:19:42.566Z</time>
      </trkpt>
      <trkpt lat="47.43746" lon="-0.48394">
        <ele>-27.395451</ele>
        <time>2011-11-03T13:19:45.569Z</time>
      </trkpt>
      <trkpt lat="47.43734" lon="-0.48373">
        <ele>-26.698978</ele>
        <time>2011-11-03T13:19:48.573Z</time>
      </trkpt>
      <trkpt lat="47.43721" lon="-0.48349">
        <ele>-25.923519</ele>
        <time>2011-11-03T13:19:51.581Z</time>
      </trkpt>
      <trkpt lat="47.43706" lon="-0.4833">
        <ele>-25.501301</ele>
        <time>2011-11-03T13:19:54.567Z</time>
      </trkpt>
      <trkpt lat="47.43692" lon="-0.48309">
        <ele>-25.821095</ele>
        <time>2011-11-03T13:19:57.562Z</time>
      </trkpt>
      <trkpt lat="47.4368" lon="-0.48286">
        <ele>-27.07531</ele>
        <time>2011-11-03T13:20:00.586Z</time>
      </trkpt>
      <trkpt lat="47.43667" lon="-0.48264">
        <ele>-27.794231</ele>
        <time>2011-11-03T13:20:03.610Z</time>
      </trkpt>
      <trkpt lat="47.43654" lon="-0.48241">
        <ele>-27.620831</ele>
        <time>2011-11-03T13:20:06.583Z</time>
      </trkpt>
      <trkpt lat="47.43643" lon="-0.4822">
        <ele>-27.456303</ele>
        <time>2011-11-03T13:20:09.587Z</time>
      </trkpt>
      <trkpt lat="47.43632" lon="-0.48199">
        <ele>-27.389431</ele>
        <time>2011-11-03T13:20:12.583Z</time>
      </trkpt>
      <trkpt lat="47.43616" lon="-0.48173">
        <ele>-27.066006</ele>
        <time>2011-11-03T13:20:16.584Z</time>
      </trkpt>
      <trkpt lat="47.43601" lon="-0.48147">
        <ele>-26.394779</ele>
        <time>2011-11-03T13:20:20.578Z</time>
      </trkpt>
      <trkpt lat="47.43585" lon="-0.48121">
        <ele>-25.27586</ele>
        <time>2011-11-03T13:20:24.583Z</time>
      </trkpt>
      <trkpt lat="47.43573" lon="-0.481">
        <ele>-24.304028</ele>
        <time>2011-11-03T13:20:27.578Z</time>
      </trkpt>
      <trkpt lat="47.4356" lon="-0.48078">
        <ele>-22.824406</ele>
        <time>2011-11-03T13:20:30.575Z</time>
      </trkpt>
      <trkpt lat="47.43547" lon="-0.48055">
        <ele>-21.590225</ele>
        <time>2011-11-03T13:20:33.584Z</time>
      </trkpt>
      <trkpt lat="47.43534" lon="-0.48031">
        <ele>-20.213337</ele>
        <time>2011-11-03T13:20:36.584Z</time>
      </trkpt>
      <trkpt lat="47.43521" lon="-0.48007">
        <ele>-18.991627</ele>
        <time>2011-11-03T13:20:39.582Z</time>
      </trkpt>
      <trkpt lat="47.43508" lon="-0.47982">
        <ele>-18.427204</ele>
        <time>2011-11-03T13:20:42.587Z</time>
      </trkpt>
      <trkpt lat="47.43494" lon="-0.47959">
        <ele>-17.926868</ele>
        <time>2011-11-03T13:20:45.595Z</time>
      </trkpt>
      <trkpt lat="47.4348" lon="-0.47937">
        <ele>-18.021103</ele>
        <time>2011-11-03T13:20:48.601Z</time>
      </trkpt>
      <trkpt lat="47.43466" lon="-0.47914">
        <ele>-17.966434</ele>
        <time>2011-11-03T13:20:51.583Z</time>
      </trkpt>
      <trkpt lat="47.43452" lon="-0.47891">
        <ele>-17.94458</ele>
        <time>2011-11-03T13:20:54.601Z</time>
      </trkpt>
      <trkpt lat="47.43439" lon="-0.47867">
        <ele>-17.842136</ele>
        <time>2011-11-03T13:20:57.596Z</time>
      </trkpt>
      <trkpt lat="47.43425" lon="-0.47843">
        <ele>-17.624729</ele>
        <time>2011-11-03T13:21:00.643Z</time>
      </trkpt>
      <trkpt lat="47.43412" lon="-0.4782">
        <ele>-17.513103</ele>
        <time>2011-11-03T13:21:03.591Z</time>
      </trkpt>
      <trkpt lat="47.43399" lon="-0.47799">
        <ele>-17.233192</ele>
        <time>2011-11-03T13:21:06.584Z</time>
      </trkpt>
      <trkpt lat="47.43386" lon="-0.4778">
        <ele>-17.347958</ele>
        <time>2011-11-03T13:21:09.586Z</time>
      </trkpt>
      <trkpt lat="47.43373" lon="-0.47759">
        <ele>-17.399452</ele>
        <time>2011-11-03T13:21:12.607Z</time>
      </trkpt>
      <trkpt lat="47.4336" lon="-0.47738">
        <ele>-17.355923</ele>
        <time>2011-11-03T13:21:15.586Z</time>
      </trkpt>
      <trkpt lat="47.43347" lon="-0.47715">
        <ele>-16.955631</ele>
        <time>2011-11-03T13:21:18.609Z</time>
      </trkpt>
      <trkpt lat="47.43334" lon="-0.47693">
        <ele>-16.859383</ele>
        <time>2011-11-03T13:21:21.586Z</time>
      </trkpt>
      <trkpt lat="47.43322" lon="-0.47672">
        <ele>-16.858631</ele>
        <time>2011-11-03T13:21:24.586Z</time>
      </trkpt>
      <trkpt lat="47.4331" lon="-0.47649">
        <ele>-17.013092</ele>
        <time>2011-11-03T13:21:27.601Z</time>
      </trkpt>
      <trkpt lat="47.43298" lon="-0.47626">
        <ele>-16.869263</ele>
        <time>2011-11-03T13:21:30.594Z</time>
      </trkpt>
      <trkpt lat="47.43284" lon="-0.47601">
        <ele>-16.629627</ele>
        <time>2011-11-03T13:21:33.589Z</time>
      </trkpt>
      <trkpt lat="47.4327" lon="-0.47575">
        <ele>-16.531982</ele>
        <time>2011-11-03T13:21:36.590Z</time>
      </trkpt>
      <trkpt lat="47.43257" lon="-0.47551">
        <ele>-16.273586</ele>
        <time>2011-11-03T13:21:39.587Z</time>
      </trkpt>
      <trkpt lat="47.43244" lon="-0.4753">
        <ele>-16.176311</ele>
        <time>2011-11-03T13:21:42.586Z</time>
      </trkpt>
      <trkpt lat="47.43227" lon="-0.47507">
        <ele>-16.71228</ele>
        <time>2011-11-03T13:21:46.576Z</time>
      </trkpt>
      <trkpt lat="47.43212" lon="-0.47482">
        <ele>-17.165577</ele>
        <time>2011-11-03T13:21:50.587Z</time>
      </trkpt>
      <trkpt lat="47.432" lon="-0.47462">
        <ele>-17.234695</ele>
        <time>2011-11-03T13:21:53.596Z</time>
      </trkpt>
      <trkpt lat="47.43188" lon="-0.47441">
        <ele>-17.21944</ele>
        <time>2011-11-03T13:21:56.595Z</time>
      </trkpt>
      <trkpt lat="47.43176" lon="-0.47419">
        <ele>-17.065998</ele>
        <time>2011-11-03T13:21:59.588Z</time>
      </trkpt>
      <trkpt lat="47.43164" lon="-0.47396">
        <ele>-16.796906</ele>
        <time>2011-11-03T13:22:02.603Z</time>
      </trkpt>
      <trkpt lat="47.43149" lon="-0.47371">
        <ele>-15.337299</ele>
        <time>2011-11-03T13:22:05.591Z</time>
      </trkpt>
      <trkpt lat="47.43133" lon="-0.47346">
        <ele>-13.844547</ele>
        <time>2011-11-03T13:22:08.597Z</time>
      </trkpt>
      <trkpt lat="47.43116" lon="-0.47322">
        <ele>-13.842834</ele>
        <time>2011-11-03T13:22:11.588Z</time>
      </trkpt>
      <trkpt lat="47.43098" lon="-0.47301">
        <ele>-14.84079</ele>
        <time>2011-11-03T13:22:14.598Z</time>
      </trkpt>
      <trkpt lat="47.4308" lon="-0.47286">
        <ele>-16.570217</ele>
        <time>2011-11-03T13:22:17.605Z</time>
      </trkpt>
      <trkpt lat="47.43063" lon="-0.47273">
        <ele>-18.598656</ele>
        <time>2011-11-03T13:22:20.592Z</time>
      </trkpt>
      <trkpt lat="47.43045" lon="-0.47261">
        <ele>-20.274899</ele>
        <time>2011-11-03T13:22:23.622Z</time>
      </trkpt>
      <trkpt lat="47.43028" lon="-0.47247">
        <ele>-21.534771</ele>
        <time>2011-11-03T13:22:26.592Z</time>
      </trkpt>
      <trkpt lat="47.43012" lon="-0.47234">
        <ele>-22.397346</ele>
        <time>2011-11-03T13:22:29.609Z</time>
      </trkpt>
      <trkpt lat="47.42995" lon="-0.47222">
        <ele>-22.810352</ele>
        <time>2011-11-03T13:22:32.594Z</time>
      </trkpt>
      <trkpt lat="47.42975" lon="-0.47208">
        <ele>-23.102112</ele>
        <time>2011-11-03T13:22:36.595Z</time>
      </trkpt>
      <trkpt lat="47.42956" lon="-0.47194">
        <ele>-23.186241</ele>
        <time>2011-11-03T13:22:40.596Z</time>
      </trkpt>
      <trkpt lat="47.42939" lon="-0.47181">
        <ele>-23.232624</ele>
        <time>2011-11-03T13:22:43.569Z</time>
      </trkpt>
      <trkpt lat="47.4292" lon="-0.47168">
        <ele>-23.333126</ele>
        <time>2011-11-03T13:22:46.625Z</time>
      </trkpt>
      <trkpt lat="47.42901" lon="-0.47156">
        <ele>-23.595306</ele>
        <time>2011-11-03T13:22:49.641Z</time>
      </trkpt>
      <trkpt lat="47.42882" lon="-0.47144">
        <ele>-23.587536</ele>
        <time>2011-11-03T13:22:52.593Z</time>
      </trkpt>
      <trkpt lat="47.42864" lon="-0.47131">
        <ele>-23.402756</ele>
        <time>2011-11-03T13:22:55.592Z</time>
      </trkpt>
      <trkpt lat="47.42848" lon="-0.47119">
        <ele>-22.55764</ele>
        <time>2011-11-03T13:22:58.592Z</time>
      </trkpt>
      <trkpt lat="47.42831" lon="-0.47107">
        <ele>-21.979759</ele>
        <time>2011-11-03T13:23:01.578Z</time>
      </trkpt>
      <trkpt lat="47.4281" lon="-0.47091">
        <ele>-21.428207</ele>
        <time>2011-11-03T13:23:05.607Z</time>
      </trkpt>
      <trkpt lat="47.42788" lon="-0.47077">
        <ele>-21.441109</ele>
        <time>2011-11-03T13:23:09.587Z</time>
      </trkpt>
      <trkpt lat="47.42767" lon="-0.47063">
        <ele>-21.211025</ele>
        <time>2011-11-03T13:23:13.578Z</time>
      </trkpt>
      <trkpt lat="47.4275" lon="-0.47051">
        <ele>-21.000561</ele>
        <time>2011-11-03T13:23:16.659Z</time>
      </trkpt>
      <trkpt lat="47.42734" lon="-0.4704">
        <ele>-20.979607</ele>
        <time>2011-11-03T13:23:19.594Z</time>
      </trkpt>
      <trkpt lat="47.42717" lon="-0.47028">
        <ele>-21.205318</ele>
        <time>2011-11-03T13:23:22.598Z</time>
      </trkpt>
      <trkpt lat="47.427" lon="-0.47016">
        <ele>-21.025532</ele>
        <time>2011-11-03T13:23:25.599Z</time>
      </trkpt>
      <trkpt lat="47.42683" lon="-0.47005">
        <ele>-21.215332</ele>
        <time>2011-11-03T13:23:28.594Z</time>
      </trkpt>
      <trkpt lat="47.42666" lon="-0.46993">
        <ele>-20.773785</ele>
        <time>2011-11-03T13:23:31.580Z</time>
      </trkpt>
      <trkpt lat="47.42648" lon="-0.46979">
        <ele>-18.630108</ele>
        <time>2011-11-03T13:23:34.596Z</time>
      </trkpt>
      <trkpt lat="47.4263" lon="-0.46965">
        <ele>-16.56654</ele>
        <time>2011-11-03T13:23:37.620Z</time>
      </trkpt>
      <trkpt lat="47.42613" lon="-0.46951">
        <ele>-15.173107</ele>
        <time>2011-11-03T13:23:40.580Z</time>
      </trkpt>
      <trkpt lat="47.42595" lon="-0.46937">
        <ele>-14.580914</ele>
        <time>2011-11-03T13:23:43.607Z</time>
      </trkpt>
      <trkpt lat="47.42578" lon="-0.46925">
        <ele>-14.902885</ele>
        <time>2011-11-03T13:23:46.568Z</time>
      </trkpt>
      <trkpt lat="47.42561" lon="-0.46913">
        <ele>-15.279461</ele>
        <time>2011-11-03T13:23:49.577Z</time>
      </trkpt>
      <trkpt lat="47.42544" lon="-0.46899">
        <ele>-15.281399</ele>
        <time>2011-11-03T13:23:52.574Z</time>
      </trkpt>
      <trkpt lat="47.42527" lon="-0.46886">
        <ele>-15.170666</ele>
        <time>2011-11-03T13:23:55.573Z</time>
      </trkpt>
      <trkpt lat="47.42508" lon="-0.46868">
        <ele>-16.044083</ele>
        <time>2011-11-03T13:23:59.575Z</time>
      </trkpt>
      <trkpt lat="47.4249" lon="-0.46844">
        <ele>-19.325665</ele>
        <time>2011-11-03T13:24:03.608Z</time>
      </trkpt>
      <trkpt lat="47.42476" lon="-0.46822">
        <ele>-23.785351</ele>
        <time>2011-11-03T13:24:06.594Z</time>
      </trkpt>
      <trkpt lat="47.42463" lon="-0.468">
        <ele>-27.132023</ele>
        <time>2011-11-03T13:24:09.616Z</time>
      </trkpt>
      <trkpt lat="47.42452" lon="-0.46777">
        <ele>-29.151928</ele>
        <time>2011-11-03T13:24:12.597Z</time>
      </trkpt>
      <trkpt lat="47.42442" lon="-0.46754">
        <ele>-30.250645</ele>
        <time>2011-11-03T13:24:15.609Z</time>
      </trkpt>
      <trkpt lat="47.42432" lon="-0.46725">
        <ele>-30.655499</ele>
        <time>2011-11-03T13:24:19.598Z</time>
      </trkpt>
      <trkpt lat="47.42424" lon="-0.46695">
        <ele>-30.331791</ele>
        <time>2011-11-03T13:24:23.597Z</time>
      </trkpt>
      <trkpt lat="47.42418" lon="-0.46663">
        <ele>-29.328598</ele>
        <time>2011-11-03T13:24:27.597Z</time>
      </trkpt>
      <trkpt lat="47.42412" lon="-0.46634">
        <ele>-27.973064</ele>
        <time>2011-11-03T13:24:31.595Z</time>
      </trkpt>
      <trkpt lat="47.42406" lon="-0.46608">
        <ele>-26.720432</ele>
        <time>2011-11-03T13:24:34.612Z</time>
      </trkpt>
      <trkpt lat="47.42399" lon="-0.46577">
        <ele>-24.621876</ele>
        <time>2011-11-03T13:24:37.577Z</time>
      </trkpt>
      <trkpt lat="47.42391" lon="-0.46546">
        <ele>-22.504829</ele>
        <time>2011-11-03T13:24:40.614Z</time>
      </trkpt>
      <trkpt lat="47.42383" lon="-0.46517">
        <ele>-21.430382</ele>
        <time>2011-11-03T13:24:43.596Z</time>
      </trkpt>
      <trkpt lat="47.42377" lon="-0.46491">
        <ele>-20.785778</ele>
        <time>2011-11-03T13:24:46.603Z</time>
      </trkpt>
      <trkpt lat="47.42372" lon="-0.46465">
        <ele>-20.306488</ele>
        <time>2011-11-03T13:24:49.593Z</time>
      </trkpt>
      <trkpt lat="47.42368" lon="-0.46439">
        <ele>-19.641941</ele>
        <time>2011-11-03T13:24:52.596Z</time>
      </trkpt>
      <trkpt lat="47.42362" lon="-0.4641">
        <ele>-18.775589</ele>
        <time>2011-11-03T13:24:55.597Z</time>
      </trkpt>
      <trkpt lat="47.42356" lon="-0.4638">
        <ele>-17.568836</ele>
        <time>2011-11-03T13:24:58.597Z</time>
      </trkpt>
      <trkpt lat="47.4235" lon="-0.46353">
        <ele>-16.607975</ele>
        <time>2011-11-03T13:25:01.593Z</time>
      </trkpt>
      <trkpt lat="47.42343" lon="-0.46319">
        <ele>-16.371105</ele>
        <time>2011-11-03T13:25:05.591Z</time>
      </trkpt>
      <trkpt lat="47.42337" lon="-0.46287">
        <ele>-16.271152</ele>
        <time>2011-11-03T13:25:09.595Z</time>
      </trkpt>
      <trkpt lat="47.42331" lon="-0.46255">
        <ele>-15.540054</ele>
        <time>2011-11-03T13:25:13.595Z</time>
      </trkpt>
      <trkpt lat="47.42324" lon="-0.46221">
        <ele>-14.748074</ele>
        <time>2011-11-03T13:25:17.599Z</time>
      </trkpt>
      <trkpt lat="47.42319" lon="-0.46186">
        <ele>-13.813999</ele>
        <time>2011-11-03T13:25:21.601Z</time>
      </trkpt>
      <trkpt lat="47.42314" lon="-0.46159">
        <ele>-13.09481</ele>
        <time>2011-11-03T13:25:24.597Z</time>
      </trkpt>
      <trkpt lat="47.42308" lon="-0.46127">
        <ele>-12.064739</ele>
        <time>2011-11-03T13:25:28.586Z</time>
      </trkpt>
      <trkpt lat="47.42303" lon="-0.461">
        <ele>-10.936749</ele>
        <time>2011-11-03T13:25:31.587Z</time>
      </trkpt>
      <trkpt lat="47.42297" lon="-0.46071">
        <ele>-9.900742</ele>
        <time>2011-11-03T13:25:34.605Z</time>
      </trkpt>
      <trkpt lat="47.42291" lon="-0.46043">
        <ele>-9.14436</ele>
        <time>2011-11-03T13:25:37.598Z</time>
      </trkpt>
      <trkpt lat="47.42284" lon="-0.46016">
        <ele>-8.491653</ele>
        <time>2011-11-03T13:25:40.592Z</time>
      </trkpt>
      <trkpt lat="47.42277" lon="-0.45988">
        <ele>-8.023674</ele>
        <time>2011-11-03T13:25:43.596Z</time>
      </trkpt>
      <trkpt lat="47.42269" lon="-0.45959">
        <ele>-7.618279</ele>
        <time>2011-11-03T13:25:46.610Z</time>
      </trkpt>
      <trkpt lat="47.42262" lon="-0.4593">
        <ele>-7.608772</ele>
        <time>2011-11-03T13:25:49.592Z</time>
      </trkpt>
      <trkpt lat="47.42257" lon="-0.45902">
        <ele>-7.825443</ele>
        <time>2011-11-03T13:25:52.603Z</time>
      </trkpt>
      <trkpt lat="47.42252" lon="-0.45874">
        <ele>-8.463104</ele>
        <time>2011-11-03T13:25:55.597Z</time>
      </trkpt>
      <trkpt lat="47.42247" lon="-0.45846">
        <ele>-9.041996</ele>
        <time>2011-11-03T13:25:58.595Z</time>
      </trkpt>
      <trkpt lat="47.42241" lon="-0.45815">
        <ele>-9.395222</ele>
        <time>2011-11-03T13:26:01.596Z</time>
      </trkpt>
      <trkpt lat="47.42236" lon="-0.45786">
        <ele>-9.705044</ele>
        <time>2011-11-03T13:26:04.597Z</time>
      </trkpt>
      <trkpt lat="47.42228" lon="-0.45753">
        <ele>-9.972389</ele>
        <time>2011-11-03T13:26:07.598Z</time>
      </trkpt>
      <trkpt lat="47.42219" lon="-0.45718">
        <ele>-10.510715</ele>
        <time>2011-11-03T13:26:10.596Z</time>
      </trkpt>
      <trkpt lat="47.42213" lon="-0.45688">
        <ele>-11.395203</ele>
        <time>2011-11-03T13:26:13.599Z</time>
      </trkpt>
      <trkpt lat="47.42208" lon="-0.4566">
        <ele>-12.217556</ele>
        <time>2011-11-03T13:26:16.593Z</time>
      </trkpt>
      <trkpt lat="47.42202" lon="-0.45626">
        <ele>-12.777382</ele>
        <time>2011-11-03T13:26:20.590Z</time>
      </trkpt>
      <trkpt lat="47.42197" lon="-0.45601">
        <ele>-12.868679</ele>
        <time>2011-11-03T13:26:23.604Z</time>
      </trkpt>
      <trkpt lat="47.42192" lon="-0.45574">
        <ele>-12.662678</ele>
        <time>2011-11-03T13:26:26.589Z</time>
      </trkpt>
      <trkpt lat="47.42188" lon="-0.45547">
        <ele>-12.392353</ele>
        <time>2011-11-03T13:26:29.586Z</time>
      </trkpt>
      <trkpt lat="47.42183" lon="-0.45521">
        <ele>-12.010899</ele>
        <time>2011-11-03T13:26:32.612Z</time>
      </trkpt>
      <trkpt lat="47.42178" lon="-0.45495">
        <ele>-11.717602</ele>
        <time>2011-11-03T13:26:35.591Z</time>
      </trkpt>
      <trkpt lat="47.42173" lon="-0.45469">
        <ele>-11.379711</ele>
        <time>2011-11-03T13:26:38.585Z</time>
      </trkpt>
      <trkpt lat="47.42168" lon="-0.4544">
        <ele>-11.324795</ele>
        <time>2011-11-03T13:26:41.585Z</time>
      </trkpt>
      <trkpt lat="47.42163" lon="-0.4541">
        <ele>-11.154835</ele>
        <time>2011-11-03T13:26:44.608Z</time>
      </trkpt>
      <trkpt lat="47.42157" lon="-0.45377">
        <ele>-10.617756</ele>
        <time>2011-11-03T13:26:47.591Z</time>
      </trkpt>
      <trkpt lat="47.42149" lon="-0.45341">
        <ele>-11.331554</ele>
        <time>2011-11-03T13:26:50.604Z</time>
      </trkpt>
      <trkpt lat="47.42141" lon="-0.45304">
        <ele>-14.14399</ele>
        <time>2011-11-03T13:26:53.603Z</time>
      </trkpt>
      <trkpt lat="47.42133" lon="-0.45271">
        <ele>-17.730946</ele>
        <time>2011-11-03T13:26:56.591Z</time>
      </trkpt>
      <trkpt lat="47.42123" lon="-0.45241">
        <ele>-19.834187</ele>
        <time>2011-11-03T13:26:59.597Z</time>
      </trkpt>
      <trkpt lat="47.42113" lon="-0.45213">
        <ele>-20.935429</ele>
        <time>2011-11-03T13:27:02.594Z</time>
      </trkpt>
      <trkpt lat="47.42103" lon="-0.45184">
        <ele>-21.558964</ele>
        <time>2011-11-03T13:27:05.588Z</time>
      </trkpt>
      <trkpt lat="47.42094" lon="-0.45157">
        <ele>-22.041965</ele>
        <time>2011-11-03T13:27:08.585Z</time>
      </trkpt>
      <trkpt lat="47.42085" lon="-0.4513">
        <ele>-22.291035</ele>
        <time>2011-11-03T13:27:11.575Z</time>
      </trkpt>
      <trkpt lat="47.42076" lon="-0.45102">
        <ele>-22.261833</ele>
        <time>2011-11-03T13:27:14.575Z</time>
      </trkpt>
      <trkpt lat="47.42067" lon="-0.45074">
        <ele>-22.447578</ele>
        <time>2011-11-03T13:27:17.598Z</time>
      </trkpt>
      <trkpt lat="47.42056" lon="-0.45047">
        <ele>-22.72464</ele>
        <time>2011-11-03T13:27:20.592Z</time>
      </trkpt>
      <trkpt lat="47.42045" lon="-0.4502">
        <ele>-22.917553</ele>
        <time>2011-11-03T13:27:23.620Z</time>
      </trkpt>
      <trkpt lat="47.42035" lon="-0.44995">
        <ele>-23.009937</ele>
        <time>2011-11-03T13:27:26.578Z</time>
      </trkpt>
      <trkpt lat="47.42025" lon="-0.44969">
        <ele>-23.01918</ele>
        <time>2011-11-03T13:27:29.587Z</time>
      </trkpt>
      <trkpt lat="47.42015" lon="-0.44942">
        <ele>-23.067673</ele>
        <time>2011-11-03T13:27:32.588Z</time>
      </trkpt>
      <trkpt lat="47.42003" lon="-0.44915">
        <ele>-23.313778</ele>
        <time>2011-11-03T13:27:35.594Z</time>
      </trkpt>
      <trkpt lat="47.41992" lon="-0.44892">
        <ele>-23.739475</ele>
        <time>2011-11-03T13:27:38.596Z</time>
      </trkpt>
      <trkpt lat="47.4198" lon="-0.44868">
        <ele>-24.211475</ele>
        <time>2011-11-03T13:27:41.591Z</time>
      </trkpt>
      <trkpt lat="47.41966" lon="-0.44847">
        <ele>-24.54258</ele>
        <time>2011-11-03T13:27:44.594Z</time>
      </trkpt>
      <trkpt lat="47.41954" lon="-0.4482">
        <ele>-24.832909</ele>
        <time>2011-11-03T13:27:47.590Z</time>
      </trkpt>
      <trkpt lat="47.41944" lon="-0.44792">
        <ele>-25.147884</ele>
        <time>2011-11-03T13:27:50.588Z</time>
      </trkpt>
      <trkpt lat="47.41933" lon="-0.44763">
        <ele>-25.6003</ele>
        <time>2011-11-03T13:27:53.590Z</time>
      </trkpt>
      <trkpt lat="47.41922" lon="-0.44732">
        <ele>-26.094784</ele>
        <time>2011-11-03T13:27:56.593Z</time>
      </trkpt>
      <trkpt lat="47.41912" lon="-0.44702">
        <ele>-26.477844</ele>
        <time>2011-11-03T13:27:59.594Z</time>
      </trkpt>
      <trkpt lat="47.41904" lon="-0.4467">
        <ele>-26.680645</ele>
        <time>2011-11-03T13:28:02.590Z</time>
      </trkpt>
      <trkpt lat="47.41895" lon="-0.44638">
        <ele>-26.961792</ele>
        <time>2011-11-03T13:28:05.576Z</time>
      </trkpt>
      <trkpt lat="47.41888" lon="-0.44604">
        <ele>-27.391594</ele>
        <time>2011-11-03T13:28:08.575Z</time>
      </trkpt>
      <trkpt lat="47.41881" lon="-0.44571">
        <ele>-27.768116</ele>
        <time>2011-11-03T13:28:11.575Z</time>
      </trkpt>
      <trkpt lat="47.41875" lon="-0.44538">
        <ele>-28.100452</ele>
        <time>2011-11-03T13:28:14.797Z</time>
      </trkpt>
      <trkpt lat="47.4187" lon="-0.44504">
        <ele>-27.347282</ele>
        <time>2011-11-03T13:28:17.577Z</time>
      </trkpt>
      <trkpt lat="47.41866" lon="-0.4447">
        <ele>-26.786537</ele>
        <time>2011-11-03T13:28:20.577Z</time>
      </trkpt>
      <trkpt lat="47.41861" lon="-0.44435">
        <ele>-26.508179</ele>
        <time>2011-11-03T13:28:23.573Z</time>
      </trkpt>
      <trkpt lat="47.41858" lon="-0.44399">
        <ele>-26.155399</ele>
        <time>2011-11-03T13:28:26.571Z</time>
      </trkpt>
      <trkpt lat="47.41856" lon="-0.44363">
        <ele>-25.802395</ele>
        <time>2011-11-03T13:28:29.577Z</time>
      </trkpt>
      <trkpt lat="47.41854" lon="-0.44326">
        <ele>-25.77232</ele>
        <time>2011-11-03T13:28:32.572Z</time>
      </trkpt>
      <trkpt lat="47.41853" lon="-0.44291">
        <ele>-26.581768</ele>
        <time>2011-11-03T13:28:35.571Z</time>
      </trkpt>
      <trkpt lat="47.41853" lon="-0.44255">
        <ele>-26.754528</ele>
        <time>2011-11-03T13:28:38.567Z</time>
      </trkpt>
      <trkpt lat="47.41853" lon="-0.44219">
        <ele>-28.316837</ele>
        <time>2011-11-03T13:28:41.567Z</time>
      </trkpt>
      <trkpt lat="47.41853" lon="-0.44184">
        <ele>-29.618851</ele>
        <time>2011-11-03T13:28:44.574Z</time>
      </trkpt>
      <trkpt lat="47.41853" lon="-0.44149">
        <ele>-30.288914</ele>
        <time>2011-11-03T13:28:47.589Z</time>
      </trkpt>
      <trkpt lat="47.41853" lon="-0.44113">
        <ele>-30.509155</ele>
        <time>2011-11-03T13:28:50.576Z</time>
      </trkpt>
      <trkpt lat="47.41853" lon="-0.44078">
        <ele>-30.545746</ele>
        <time>2011-11-03T13:28:53.583Z</time>
      </trkpt>
      <trkpt lat="47.41852" lon="-0.44043">
        <ele>-30.684498</ele>
        <time>2011-11-03T13:28:56.596Z</time>
      </trkpt>
      <trkpt lat="47.41853" lon="-0.44008">
        <ele>-30.733086</ele>
        <time>2011-11-03T13:28:59.593Z</time>
      </trkpt>
      <trkpt lat="47.41852" lon="-0.43973">
        <ele>-30.939274</ele>
        <time>2011-11-03T13:29:02.594Z</time>
      </trkpt>
      <trkpt lat="47.41852" lon="-0.43937">
        <ele>-30.747723</ele>
        <time>2011-11-03T13:29:05.587Z</time>
      </trkpt>
      <trkpt lat="47.41852" lon="-0.43902">
        <ele>-30.320625</ele>
        <time>2011-11-03T13:29:08.588Z</time>
      </trkpt>
      <trkpt lat="47.41851" lon="-0.43866">
        <ele>-29.875454</ele>
        <time>2011-11-03T13:29:11.583Z</time>
      </trkpt>
      <trkpt lat="47.4185" lon="-0.4383">
        <ele>-29.568615</ele>
        <time>2011-11-03T13:29:14.587Z</time>
      </trkpt>
      <trkpt lat="47.4185" lon="-0.43794">
        <ele>-29.43803</ele>
        <time>2011-11-03T13:29:17.576Z</time>
      </trkpt>
      <trkpt lat="47.4185" lon="-0.43758">
        <ele>-29.690727</ele>
        <time>2011-11-03T13:29:20.587Z</time>
      </trkpt>
      <trkpt lat="47.41849" lon="-0.43723">
        <ele>-29.408085</ele>
        <time>2011-11-03T13:29:23.581Z</time>
      </trkpt>
      <trkpt lat="47.41848" lon="-0.43688">
        <ele>-28.694035</ele>
        <time>2011-11-03T13:29:26.583Z</time>
      </trkpt>
      <trkpt lat="47.41848" lon="-0.43652">
        <ele>-28.211727</ele>
        <time>2011-11-03T13:29:29.581Z</time>
      </trkpt>
      <trkpt lat="47.41848" lon="-0.43618">
        <ele>-29.037411</ele>
        <time>2011-11-03T13:29:32.575Z</time>
      </trkpt>
      <trkpt lat="47.41847" lon="-0.43584">
        <ele>-29.526966</ele>
        <time>2011-11-03T13:29:35.570Z</time>
      </trkpt>
      <trkpt lat="47.41847" lon="-0.4355">
        <ele>-30.051785</ele>
        <time>2011-11-03T13:29:38.568Z</time>
      </trkpt>
      <trkpt lat="47.41846" lon="-0.43515">
        <ele>-29.868153</ele>
        <time>2011-11-03T13:29:41.567Z</time>
      </trkpt>
      <trkpt lat="47.41845" lon="-0.43482">
        <ele>-29.654903</ele>
        <time>2011-11-03T13:29:44.569Z</time>
      </trkpt>
      <trkpt lat="47.41845" lon="-0.4345">
        <ele>-29.17263</ele>
        <time>2011-11-03T13:29:47.575Z</time>
      </trkpt>
      <trkpt lat="47.41844" lon="-0.43415">
        <ele>-29.075611</ele>
        <time>2011-11-03T13:29:50.592Z</time>
      </trkpt>
      <trkpt lat="47.41843" lon="-0.4338">
        <ele>-29.149387</ele>
        <time>2011-11-03T13:29:53.597Z</time>
      </trkpt>
      <trkpt lat="47.41842" lon="-0.43346">
        <ele>-29.462376</ele>
        <time>2011-11-03T13:29:56.588Z</time>
      </trkpt>
      <trkpt lat="47.41842" lon="-0.43312">
        <ele>-29.823429</ele>
        <time>2011-11-03T13:29:59.586Z</time>
      </trkpt>
      <trkpt lat="47.41843" lon="-0.43278">
        <ele>-29.952549</ele>
        <time>2011-11-03T13:30:02.584Z</time>
      </trkpt>
      <trkpt lat="47.41845" lon="-0.43245">
        <ele>-29.797817</ele>
        <time>2011-11-03T13:30:05.585Z</time>
      </trkpt>
      <trkpt lat="47.41847" lon="-0.43211">
        <ele>-28.747288</ele>
        <time>2011-11-03T13:30:08.588Z</time>
      </trkpt>
      <trkpt lat="47.4185" lon="-0.43177">
        <ele>-28.626015</ele>
        <time>2011-11-03T13:30:11.579Z</time>
      </trkpt>
      <trkpt lat="47.41856" lon="-0.43146">
        <ele>-29.8125</ele>
        <time>2011-11-03T13:30:14.588Z</time>
      </trkpt>
      <trkpt lat="47.41866" lon="-0.43119">
        <ele>-29.92297</ele>
        <time>2011-11-03T13:30:17.582Z</time>
      </trkpt>
      <trkpt lat="47.41874" lon="-0.43088">
        <ele>-29.685257</ele>
        <time>2011-11-03T13:30:20.589Z</time>
      </trkpt>
      <trkpt lat="47.41881" lon="-0.43056">
        <ele>-29.46394</ele>
        <time>2011-11-03T13:30:23.572Z</time>
      </trkpt>
      <trkpt lat="47.41886" lon="-0.43022">
        <ele>-29.304001</ele>
        <time>2011-11-03T13:30:26.579Z</time>
      </trkpt>
      <trkpt lat="47.41892" lon="-0.42991">
        <ele>-29.115299</ele>
        <time>2011-11-03T13:30:29.612Z</time>
      </trkpt>
      <trkpt lat="47.419" lon="-0.4296">
        <ele>-28.997578</ele>
        <time>2011-11-03T13:30:32.578Z</time>
      </trkpt>
      <trkpt lat="47.41908" lon="-0.42929">
        <ele>-28.814167</ele>
        <time>2011-11-03T13:30:35.583Z</time>
      </trkpt>
      <trkpt lat="47.41915" lon="-0.42896">
        <ele>-28.666386</ele>
        <time>2011-11-03T13:30:38.580Z</time>
      </trkpt>
      <trkpt lat="47.41923" lon="-0.42863">
        <ele>-28.21373</ele>
        <time>2011-11-03T13:30:41.568Z</time>
      </trkpt>
      <trkpt lat="47.4193" lon="-0.4283">
        <ele>-27.888378</ele>
        <time>2011-11-03T13:30:44.599Z</time>
      </trkpt>
      <trkpt lat="47.41937" lon="-0.42798">
        <ele>-27.755024</ele>
        <time>2011-11-03T13:30:47.573Z</time>
      </trkpt>
      <trkpt lat="47.41944" lon="-0.42768">
        <ele>-27.364628</ele>
        <time>2011-11-03T13:30:50.583Z</time>
      </trkpt>
      <trkpt lat="47.41951" lon="-0.42735">
        <ele>-26.997444</ele>
        <time>2011-11-03T13:30:53.595Z</time>
      </trkpt>
      <trkpt lat="47.41959" lon="-0.42702">
        <ele>-26.707809</ele>
        <time>2011-11-03T13:30:56.602Z</time>
      </trkpt>
      <trkpt lat="47.41969" lon="-0.42669">
        <ele>-26.370056</ele>
        <time>2011-11-03T13:30:59.594Z</time>
      </trkpt>
      <trkpt lat="47.41978" lon="-0.42636">
        <ele>-26.167686</ele>
        <time>2011-11-03T13:31:02.601Z</time>
      </trkpt>
      <trkpt lat="47.41987" lon="-0.42606">
        <ele>-26.065327</ele>
        <time>2011-11-03T13:31:05.591Z</time>
      </trkpt>
      <trkpt lat="47.41994" lon="-0.42574">
        <ele>-25.895924</ele>
        <time>2011-11-03T13:31:08.597Z</time>
      </trkpt>
      <trkpt lat="47.41998" lon="-0.42539">
        <ele>-25.404884</ele>
        <time>2011-11-03T13:31:11.593Z</time>
      </trkpt>
      <trkpt lat="47.42" lon="-0.42503">
        <ele>-25.026871</ele>
        <time>2011-11-03T13:31:14.589Z</time>
      </trkpt>
      <trkpt lat="47.42" lon="-0.42467">
        <ele>-24.820122</ele>
        <time>2011-11-03T13:31:17.584Z</time>
      </trkpt>
      <trkpt lat="47.41999" lon="-0.42433">
        <ele>-24.438751</ele>
        <time>2011-11-03T13:31:20.591Z</time>
      </trkpt>
      <trkpt lat="47.41999" lon="-0.42398">
        <ele>-23.985275</ele>
        <time>2011-11-03T13:31:23.584Z</time>
      </trkpt>
      <trkpt lat="47.41999" lon="-0.42363">
        <ele>-23.843315</ele>
        <time>2011-11-03T13:31:26.587Z</time>
      </trkpt>
      <trkpt lat="47.41999" lon="-0.42328">
        <ele>-24.091663</ele>
        <time>2011-11-03T13:31:29.585Z</time>
      </trkpt>
      <trkpt lat="47.42001" lon="-0.42292">
        <ele>-24.599537</ele>
        <time>2011-11-03T13:31:32.585Z</time>
      </trkpt>
      <trkpt lat="47.42004" lon="-0.42256">
        <ele>-25.680618</ele>
        <time>2011-11-03T13:31:35.578Z</time>
      </trkpt>
      <trkpt lat="47.42007" lon="-0.4222">
        <ele>-27.748486</ele>
        <time>2011-11-03T13:31:38.587Z</time>
      </trkpt>
      <trkpt lat="47.42011" lon="-0.42183">
        <ele>-28.712086</ele>
        <time>2011-11-03T13:31:41.590Z</time>
      </trkpt>
      <trkpt lat="47.42013" lon="-0.42146">
        <ele>-29.133785</ele>
        <time>2011-11-03T13:31:44.579Z</time>
      </trkpt>
      <trkpt lat="47.42015" lon="-0.4211">
        <ele>-29.061123</ele>
        <time>2011-11-03T13:31:47.609Z</time>
      </trkpt>
      <trkpt lat="47.42015" lon="-0.42075">
        <ele>-28.494347</ele>
        <time>2011-11-03T13:31:50.577Z</time>
      </trkpt>
      <trkpt lat="47.42014" lon="-0.42039">
        <ele>-28.137318</ele>
        <time>2011-11-03T13:31:53.579Z</time>
      </trkpt>
      <trkpt lat="47.42013" lon="-0.42004">
        <ele>-27.98243</ele>
        <time>2011-11-03T13:31:56.576Z</time>
      </trkpt>
      <trkpt lat="47.42009" lon="-0.41968">
        <ele>-27.864876</ele>
        <time>2011-11-03T13:31:59.590Z</time>
      </trkpt>
      <trkpt lat="47.42004" lon="-0.41932">
        <ele>-27.702526</ele>
        <time>2011-11-03T13:32:02.592Z</time>
      </trkpt>
      <trkpt lat="47.41998" lon="-0.41898">
        <ele>-27.395138</ele>
        <time>2011-11-03T13:32:05.594Z</time>
      </trkpt>
      <trkpt lat="47.4199" lon="-0.41863">
        <ele>-27.00494</ele>
        <time>2011-11-03T13:32:08.663Z</time>
      </trkpt>
      <trkpt lat="47.41983" lon="-0.41829">
        <ele>-26.50032</ele>
        <time>2011-11-03T13:32:11.594Z</time>
      </trkpt>
      <trkpt lat="47.41977" lon="-0.41795">
        <ele>-26.359364</ele>
        <time>2011-11-03T13:32:14.593Z</time>
      </trkpt>
      <trkpt lat="47.41972" lon="-0.41759">
        <ele>-26.3946</ele>
        <time>2011-11-03T13:32:17.659Z</time>
      </trkpt>
      <trkpt lat="47.41968" lon="-0.41723">
        <ele>-26.835651</ele>
        <time>2011-11-03T13:32:20.582Z</time>
      </trkpt>
      <trkpt lat="47.41964" lon="-0.41688">
        <ele>-26.922596</ele>
        <time>2011-11-03T13:32:23.581Z</time>
      </trkpt>
      <trkpt lat="47.41961" lon="-0.41652">
        <ele>-27.629589</ele>
        <time>2011-11-03T13:32:26.580Z</time>
      </trkpt>
      <trkpt lat="47.41959" lon="-0.41617">
        <ele>-26.718464</ele>
        <time>2011-11-03T13:32:29.651Z</time>
      </trkpt>
      <trkpt lat="47.41957" lon="-0.41584">
        <ele>-26.761143</ele>
        <time>2011-11-03T13:32:32.578Z</time>
      </trkpt>
      <trkpt lat="47.41955" lon="-0.41551">
        <ele>-27.079594</ele>
        <time>2011-11-03T13:32:35.576Z</time>
      </trkpt>
      <trkpt lat="47.41952" lon="-0.41519">
        <ele>-27.291359</ele>
        <time>2011-11-03T13:32:38.574Z</time>
      </trkpt>
      <trkpt lat="47.41949" lon="-0.41488">
        <ele>-27.776157</ele>
        <time>2011-11-03T13:32:41.577Z</time>
      </trkpt>
      <trkpt lat="47.41946" lon="-0.41457">
        <ele>-28.096142</ele>
        <time>2011-11-03T13:32:44.577Z</time>
      </trkpt>
      <trkpt lat="47.41941" lon="-0.41424">
        <ele>-28.218765</ele>
        <time>2011-11-03T13:32:47.575Z</time>
      </trkpt>
      <trkpt lat="47.41932" lon="-0.41392">
        <ele>-29.627148</ele>
        <time>2011-11-03T13:32:50.574Z</time>
      </trkpt>
      <trkpt lat="47.41923" lon="-0.41358">
        <ele>-30.958008</ele>
        <time>2011-11-03T13:32:53.570Z</time>
      </trkpt>
      <trkpt lat="47.41914" lon="-0.41324">
        <ele>-31.705242</ele>
        <time>2011-11-03T13:32:56.580Z</time>
      </trkpt>
      <trkpt lat="47.41909" lon="-0.4129">
        <ele>-32.135769</ele>
        <time>2011-11-03T13:32:59.587Z</time>
      </trkpt>
      <trkpt lat="47.41908" lon="-0.41256">
        <ele>-32.407524</ele>
        <time>2011-11-03T13:33:02.596Z</time>
      </trkpt>
      <trkpt lat="47.41908" lon="-0.41221">
        <ele>-32.446709</ele>
        <time>2011-11-03T13:33:05.633Z</time>
      </trkpt>
      <trkpt lat="47.4191" lon="-0.41187">
        <ele>-32.273403</ele>
        <time>2011-11-03T13:33:08.594Z</time>
      </trkpt>
      <trkpt lat="47.41913" lon="-0.41152">
        <ele>-32.17334</ele>
        <time>2011-11-03T13:33:11.592Z</time>
      </trkpt>
      <trkpt lat="47.41918" lon="-0.41117">
        <ele>-31.927876</ele>
        <time>2011-11-03T13:33:14.599Z</time>
      </trkpt>
      <trkpt lat="47.41922" lon="-0.41083">
        <ele>-31.602093</ele>
        <time>2011-11-03T13:33:17.594Z</time>
      </trkpt>
      <trkpt lat="47.41927" lon="-0.41049">
        <ele>-31.247673</ele>
        <time>2011-11-03T13:33:20.594Z</time>
      </trkpt>
      <trkpt lat="47.41931" lon="-0.41016">
        <ele>-30.98457</ele>
        <time>2011-11-03T13:33:23.605Z</time>
      </trkpt>
      <trkpt lat="47.41934" lon="-0.40983">
        <ele>-30.883808</ele>
        <time>2011-11-03T13:33:26.605Z</time>
      </trkpt>
      <trkpt lat="47.41936" lon="-0.4095">
        <ele>-30.894451</ele>
        <time>2011-11-03T13:33:29.796Z</time>
      </trkpt>
      <trkpt lat="47.41937" lon="-0.40916">
        <ele>-30.968197</ele>
        <time>2011-11-03T13:33:32.604Z</time>
      </trkpt>
      <trkpt lat="47.41938" lon="-0.40882">
        <ele>-31.100391</ele>
        <time>2011-11-03T13:33:35.593Z</time>
      </trkpt>
      <trkpt lat="47.4194" lon="-0.40848">
        <ele>-31.01189</ele>
        <time>2011-11-03T13:33:38.609Z</time>
      </trkpt>
      <trkpt lat="47.41941" lon="-0.40815">
        <ele>-31.090405</ele>
        <time>2011-11-03T13:33:41.590Z</time>
      </trkpt>
      <trkpt lat="47.41942" lon="-0.40783">
        <ele>-31.316788</ele>
        <time>2011-11-03T13:33:44.586Z</time>
      </trkpt>
      <trkpt lat="47.41942" lon="-0.4075">
        <ele>-31.673611</ele>
        <time>2011-11-03T13:33:47.595Z</time>
      </trkpt>
      <trkpt lat="47.41943" lon="-0.40718">
        <ele>-31.79282</ele>
        <time>2011-11-03T13:33:50.580Z</time>
      </trkpt>
      <trkpt lat="47.41944" lon="-0.40684">
        <ele>-31.583912</ele>
        <time>2011-11-03T13:33:53.577Z</time>
      </trkpt>
      <trkpt lat="47.41946" lon="-0.4065">
        <ele>-31.144485</ele>
        <time>2011-11-03T13:33:56.597Z</time>
      </trkpt>
      <trkpt lat="47.41951" lon="-0.40617">
        <ele>-30.642735</ele>
        <time>2011-11-03T13:33:59.595Z</time>
      </trkpt>
      <trkpt lat="47.41956" lon="-0.40585">
        <ele>-30.257881</ele>
        <time>2011-11-03T13:34:02.605Z</time>
      </trkpt>
      <trkpt lat="47.4196" lon="-0.40553">
        <ele>-30.021782</ele>
        <time>2011-11-03T13:34:05.631Z</time>
      </trkpt>
      <trkpt lat="47.41964" lon="-0.40519">
        <ele>-29.808216</ele>
        <time>2011-11-03T13:34:08.591Z</time>
      </trkpt>
      <trkpt lat="47.41965" lon="-0.40485">
        <ele>-29.723083</ele>
        <time>2011-11-03T13:34:11.595Z</time>
      </trkpt>
      <trkpt lat="47.41966" lon="-0.40452">
        <ele>-29.61681</ele>
        <time>2011-11-03T13:34:14.606Z</time>
      </trkpt>
      <trkpt lat="47.41967" lon="-0.40418">
        <ele>-29.489376</ele>
        <time>2011-11-03T13:34:17.597Z</time>
      </trkpt>
      <trkpt lat="47.41969" lon="-0.40384">
        <ele>-29.39315</ele>
        <time>2011-11-03T13:34:20.599Z</time>
      </trkpt>
      <trkpt lat="47.41973" lon="-0.4035">
        <ele>-29.416409</ele>
        <time>2011-11-03T13:34:23.609Z</time>
      </trkpt>
      <trkpt lat="47.41976" lon="-0.40317">
        <ele>-29.379143</ele>
        <time>2011-11-03T13:34:26.591Z</time>
      </trkpt>
      <trkpt lat="47.41979" lon="-0.40282">
        <ele>-29.263073</ele>
        <time>2011-11-03T13:34:29.592Z</time>
      </trkpt>
      <trkpt lat="47.41982" lon="-0.40249">
        <ele>-29.378574</ele>
        <time>2011-11-03T13:34:32.596Z</time>
      </trkpt>
      <trkpt lat="47.41984" lon="-0.40215">
        <ele>-29.527836</ele>
        <time>2011-11-03T13:34:35.599Z</time>
      </trkpt>
      <trkpt lat="47.41984" lon="-0.40181">
        <ele>-29.627277</ele>
        <time>2011-11-03T13:34:38.596Z</time>
      </trkpt>
      <trkpt lat="47.41986" lon="-0.40148">
        <ele>-29.640785</ele>
        <time>2011-11-03T13:34:41.591Z</time>
      </trkpt>
      <trkpt lat="47.41987" lon="-0.40115">
        <ele>-29.403374</ele>
        <time>2011-11-03T13:34:44.589Z</time>
      </trkpt>
      <trkpt lat="47.41988" lon="-0.40082">
        <ele>-29.038273</ele>
        <time>2011-11-03T13:34:47.589Z</time>
      </trkpt>
      <trkpt lat="47.41988" lon="-0.40048">
        <ele>-28.839485</ele>
        <time>2011-11-03T13:34:50.594Z</time>
      </trkpt>
      <trkpt lat="47.41986" lon="-0.40017">
        <ele>-28.801075</ele>
        <time>2011-11-03T13:34:53.601Z</time>
      </trkpt>
      <trkpt lat="47.41986" lon="-0.39989">
        <ele>-28.849491</ele>
        <time>2011-11-03T13:34:56.599Z</time>
      </trkpt>
      <trkpt lat="47.41987" lon="-0.39959">
        <ele>-29.064449</ele>
        <time>2011-11-03T13:34:59.593Z</time>
      </trkpt>
      <trkpt lat="47.4199" lon="-0.39927">
        <ele>-29.290157</ele>
        <time>2011-11-03T13:35:02.590Z</time>
      </trkpt>
      <trkpt lat="47.41993" lon="-0.39894">
        <ele>-29.443916</ele>
        <time>2011-11-03T13:35:05.568Z</time>
      </trkpt>
      <trkpt lat="47.41996" lon="-0.3986">
        <ele>-29.910793</ele>
        <time>2011-11-03T13:35:08.569Z</time>
      </trkpt>
      <trkpt lat="47.42" lon="-0.39826">
        <ele>-30.118523</ele>
        <time>2011-11-03T13:35:11.593Z</time>
      </trkpt>
      <trkpt lat="47.42002" lon="-0.39793">
        <ele>-29.913261</ele>
        <time>2011-11-03T13:35:14.595Z</time>
      </trkpt>
      <trkpt lat="47.42005" lon="-0.3976">
        <ele>-29.648624</ele>
        <time>2011-11-03T13:35:17.593Z</time>
      </trkpt>
      <trkpt lat="47.42007" lon="-0.39725">
        <ele>-29.35458</ele>
        <time>2011-11-03T13:35:20.590Z</time>
      </trkpt>
      <trkpt lat="47.42009" lon="-0.39691">
        <ele>-29.147457</ele>
        <time>2011-11-03T13:35:23.585Z</time>
      </trkpt>
      <trkpt lat="47.42011" lon="-0.39656">
        <ele>-29.123749</ele>
        <time>2011-11-03T13:35:26.572Z</time>
      </trkpt>
      <trkpt lat="47.42013" lon="-0.39622">
        <ele>-28.866344</ele>
        <time>2011-11-03T13:35:29.589Z</time>
      </trkpt>
      <trkpt lat="47.42015" lon="-0.39588">
        <ele>-28.963055</ele>
        <time>2011-11-03T13:35:32.590Z</time>
      </trkpt>
      <trkpt lat="47.42017" lon="-0.39555">
        <ele>-29.047947</ele>
        <time>2011-11-03T13:35:35.593Z</time>
      </trkpt>
      <trkpt lat="47.42019" lon="-0.39518">
        <ele>-28.787449</ele>
        <time>2011-11-03T13:35:38.800Z</time>
      </trkpt>
      <trkpt lat="47.4202" lon="-0.39482">
        <ele>-28.09446</ele>
        <time>2011-11-03T13:35:41.579Z</time>
      </trkpt>
      <trkpt lat="47.4202" lon="-0.39447">
        <ele>-27.597897</ele>
        <time>2011-11-03T13:35:44.589Z</time>
      </trkpt>
      <trkpt lat="47.42022" lon="-0.39412">
        <ele>-26.262341</ele>
        <time>2011-11-03T13:35:47.587Z</time>
      </trkpt>
      <trkpt lat="47.42023" lon="-0.39375">
        <ele>-26.005024</ele>
        <time>2011-11-03T13:35:50.577Z</time>
      </trkpt>
      <trkpt lat="47.42024" lon="-0.39336">
        <ele>-26.107491</ele>
        <time>2011-11-03T13:35:53.578Z</time>
      </trkpt>
      <trkpt lat="47.42026" lon="-0.393">
        <ele>-26.582661</ele>
        <time>2011-11-03T13:35:56.571Z</time>
      </trkpt>
      <trkpt lat="47.42027" lon="-0.39264">
        <ele>-26.442142</ele>
        <time>2011-11-03T13:35:59.572Z</time>
      </trkpt>
      <trkpt lat="47.42028" lon="-0.39227">
        <ele>-26.548527</ele>
        <time>2011-11-03T13:36:02.575Z</time>
      </trkpt>
      <trkpt lat="47.42029" lon="-0.39191">
        <ele>-26.755871</ele>
        <time>2011-11-03T13:36:05.577Z</time>
      </trkpt>
      <trkpt lat="47.42031" lon="-0.39153">
        <ele>-25.78606</ele>
        <time>2011-11-03T13:36:08.580Z</time>
      </trkpt>
      <trkpt lat="47.42033" lon="-0.39117">
        <ele>-26.593277</ele>
        <time>2011-11-03T13:36:11.578Z</time>
      </trkpt>
      <trkpt lat="47.42036" lon="-0.39083">
        <ele>-28.276936</ele>
        <time>2011-11-03T13:36:14.576Z</time>
      </trkpt>
      <trkpt lat="47.42038" lon="-0.39048">
        <ele>-29.287853</ele>
        <time>2011-11-03T13:36:17.597Z</time>
      </trkpt>
      <trkpt lat="47.42038" lon="-0.39012">
        <ele>-29.90691</ele>
        <time>2011-11-03T13:36:20.589Z</time>
      </trkpt>
      <trkpt lat="47.42039" lon="-0.38976">
        <ele>-30.249142</ele>
        <time>2011-11-03T13:36:23.588Z</time>
      </trkpt>
      <trkpt lat="47.4204" lon="-0.38939">
        <ele>-30.305267</ele>
        <time>2011-11-03T13:36:26.576Z</time>
      </trkpt>
      <trkpt lat="47.42041" lon="-0.38901">
        <ele>-30.092369</ele>
        <time>2011-11-03T13:36:29.594Z</time>
      </trkpt>
      <trkpt lat="47.42042" lon="-0.38865">
        <ele>-29.876797</ele>
        <time>2011-11-03T13:36:32.592Z</time>
      </trkpt>
      <trkpt lat="47.42042" lon="-0.3883">
        <ele>-29.483448</ele>
        <time>2011-11-03T13:36:35.588Z</time>
      </trkpt>
      <trkpt lat="47.42043" lon="-0.38797">
        <ele>-29.101498</ele>
        <time>2011-11-03T13:36:38.582Z</time>
      </trkpt>
      <trkpt lat="47.42043" lon="-0.38764">
        <ele>-28.781006</ele>
        <time>2011-11-03T13:36:41.577Z</time>
      </trkpt>
      <trkpt lat="47.42042" lon="-0.38733">
        <ele>-28.666439</ele>
        <time>2011-11-03T13:36:44.592Z</time>
      </trkpt>
      <trkpt lat="47.4204" lon="-0.38701">
        <ele>-28.201611</ele>
        <time>2011-11-03T13:36:47.590Z</time>
      </trkpt>
      <trkpt lat="47.42037" lon="-0.38669">
        <ele>-28.08144</ele>
        <time>2011-11-03T13:36:50.626Z</time>
      </trkpt>
      <trkpt lat="47.42034" lon="-0.38637">
        <ele>-27.531467</ele>
        <time>2011-11-03T13:36:53.580Z</time>
      </trkpt>
      <trkpt lat="47.4203" lon="-0.38603">
        <ele>-27.950108</ele>
        <time>2011-11-03T13:36:56.575Z</time>
      </trkpt>
      <trkpt lat="47.42027" lon="-0.38569">
        <ele>-28.158745</ele>
        <time>2011-11-03T13:36:59.575Z</time>
      </trkpt>
      <trkpt lat="47.42022" lon="-0.38535">
        <ele>-28.291874</ele>
        <time>2011-11-03T13:37:02.579Z</time>
      </trkpt>
      <trkpt lat="47.42016" lon="-0.38502">
        <ele>-28.470547</ele>
        <time>2011-11-03T13:37:05.581Z</time>
      </trkpt>
      <trkpt lat="47.4201" lon="-0.38469">
        <ele>-28.492317</ele>
        <time>2011-11-03T13:37:08.581Z</time>
      </trkpt>
      <trkpt lat="47.42004" lon="-0.38436">
        <ele>-28.154377</ele>
        <time>2011-11-03T13:37:11.580Z</time>
      </trkpt>
      <trkpt lat="47.42" lon="-0.38402">
        <ele>-27.646435</ele>
        <time>2011-11-03T13:37:14.573Z</time>
      </trkpt>
      <trkpt lat="47.41996" lon="-0.38368">
        <ele>-26.72184</ele>
        <time>2011-11-03T13:37:17.570Z</time>
      </trkpt>
      <trkpt lat="47.41992" lon="-0.38333">
        <ele>-26.37698</ele>
        <time>2011-11-03T13:37:20.588Z</time>
      </trkpt>
      <trkpt lat="47.41989" lon="-0.38298">
        <ele>-26.642437</ele>
        <time>2011-11-03T13:37:23.598Z</time>
      </trkpt>
      <trkpt lat="47.41985" lon="-0.38262">
        <ele>-26.420635</ele>
        <time>2011-11-03T13:37:26.594Z</time>
      </trkpt>
      <trkpt lat="47.41982" lon="-0.38228">
        <ele>-26.554703</ele>
        <time>2011-11-03T13:37:29.594Z</time>
      </trkpt>
      <trkpt lat="47.41979" lon="-0.38193">
        <ele>-26.943909</ele>
        <time>2011-11-03T13:37:32.585Z</time>
      </trkpt>
      <trkpt lat="47.41976" lon="-0.3816">
        <ele>-27.198742</ele>
        <time>2011-11-03T13:37:35.584Z</time>
      </trkpt>
      <trkpt lat="47.41973" lon="-0.38127">
        <ele>-27.353172</ele>
        <time>2011-11-03T13:37:38.590Z</time>
      </trkpt>
      <trkpt lat="47.41968" lon="-0.38095">
        <ele>-27.54295</ele>
        <time>2011-11-03T13:37:41.587Z</time>
      </trkpt>
      <trkpt lat="47.41964" lon="-0.38062">
        <ele>-28.084763</ele>
        <time>2011-11-03T13:37:44.570Z</time>
      </trkpt>
      <trkpt lat="47.41958" lon="-0.38031">
        <ele>-29.381611</ele>
        <time>2011-11-03T13:37:47.645Z</time>
      </trkpt>
      <trkpt lat="47.41951" lon="-0.38">
        <ele>-30.155491</ele>
        <time>2011-11-03T13:37:50.591Z</time>
      </trkpt>
      <trkpt lat="47.41943" lon="-0.37971">
        <ele>-30.629017</ele>
        <time>2011-11-03T13:37:53.582Z</time>
      </trkpt>
      <trkpt lat="47.41935" lon="-0.37944">
        <ele>-30.732487</ele>
        <time>2011-11-03T13:37:56.591Z</time>
      </trkpt>
      <trkpt lat="47.41928" lon="-0.37917">
        <ele>-30.722282</ele>
        <time>2011-11-03T13:37:59.602Z</time>
      </trkpt>
      <trkpt lat="47.41921" lon="-0.37891">
        <ele>-30.714985</ele>
        <time>2011-11-03T13:38:02.687Z</time>
      </trkpt>
      <trkpt lat="47.41913" lon="-0.37865">
        <ele>-30.442268</ele>
        <time>2011-11-03T13:38:05.617Z</time>
      </trkpt>
      <trkpt lat="47.41906" lon="-0.37836">
        <ele>-29.912804</ele>
        <time>2011-11-03T13:38:08.607Z</time>
      </trkpt>
      <trkpt lat="47.41901" lon="-0.37806">
        <ele>-29.49881</ele>
        <time>2011-11-03T13:38:11.604Z</time>
      </trkpt>
      <trkpt lat="47.41897" lon="-0.37777">
        <ele>-29.163692</ele>
        <time>2011-11-03T13:38:14.582Z</time>
      </trkpt>
      <trkpt lat="47.41895" lon="-0.37748">
        <ele>-29.105347</ele>
        <time>2011-11-03T13:38:17.581Z</time>
      </trkpt>
      <trkpt lat="47.41893" lon="-0.37719">
        <ele>-29.077911</ele>
        <time>2011-11-03T13:38:20.585Z</time>
      </trkpt>
      <trkpt lat="47.41892" lon="-0.37688">
        <ele>-29.981541</ele>
        <time>2011-11-03T13:38:23.579Z</time>
      </trkpt>
      <trkpt lat="47.41891" lon="-0.37658">
        <ele>-30.548985</ele>
        <time>2011-11-03T13:38:26.587Z</time>
      </trkpt>
      <trkpt lat="47.4189" lon="-0.37629">
        <ele>-30.821857</ele>
        <time>2011-11-03T13:38:29.596Z</time>
      </trkpt>
      <trkpt lat="47.41888" lon="-0.376">
        <ele>-30.923809</ele>
        <time>2011-11-03T13:38:32.600Z</time>
      </trkpt>
      <trkpt lat="47.41886" lon="-0.37571">
        <ele>-30.806919</ele>
        <time>2011-11-03T13:38:35.749Z</time>
      </trkpt>
      <trkpt lat="47.41884" lon="-0.37542">
        <ele>-30.568977</ele>
        <time>2011-11-03T13:38:38.634Z</time>
      </trkpt>
      <trkpt lat="47.4188" lon="-0.37514">
        <ele>-30.28281</ele>
        <time>2011-11-03T13:38:41.598Z</time>
      </trkpt>
      <trkpt lat="47.41877" lon="-0.37485">
        <ele>-30.039165</ele>
        <time>2011-11-03T13:38:44.587Z</time>
      </trkpt>
      <trkpt lat="47.41872" lon="-0.37456">
        <ele>-29.754124</ele>
        <time>2011-11-03T13:38:47.589Z</time>
      </trkpt>
      <trkpt lat="47.41867" lon="-0.37427">
        <ele>-29.665016</ele>
        <time>2011-11-03T13:38:50.588Z</time>
      </trkpt>
      <trkpt lat="47.41862" lon="-0.37398">
        <ele>-29.585011</ele>
        <time>2011-11-03T13:38:53.583Z</time>
      </trkpt>
      <trkpt lat="47.41858" lon="-0.37369">
        <ele>-29.318413</ele>
        <time>2011-11-03T13:38:56.577Z</time>
      </trkpt>
      <trkpt lat="47.41854" lon="-0.3734">
        <ele>-29.060066</ele>
        <time>2011-11-03T13:38:59.577Z</time>
      </trkpt>
      <trkpt lat="47.41849" lon="-0.37313">
        <ele>-28.962582</ele>
        <time>2011-11-03T13:39:02.581Z</time>
      </trkpt>
      <trkpt lat="47.41844" lon="-0.37285">
        <ele>-28.990345</ele>
        <time>2011-11-03T13:39:05.582Z</time>
      </trkpt>
      <trkpt lat="47.41839" lon="-0.37256">
        <ele>-29.020855</ele>
        <time>2011-11-03T13:39:08.584Z</time>
      </trkpt>
      <trkpt lat="47.41834" lon="-0.37227">
        <ele>-28.953346</ele>
        <time>2011-11-03T13:39:11.584Z</time>
      </trkpt>
      <trkpt lat="47.41828" lon="-0.37198">
        <ele>-29.436699</ele>
        <time>2011-11-03T13:39:14.576Z</time>
      </trkpt>
      <trkpt lat="47.41821" lon="-0.3717">
        <ele>-30.421383</ele>
        <time>2011-11-03T13:39:17.573Z</time>
      </trkpt>
      <trkpt lat="47.41813" lon="-0.37143">
        <ele>-30.983986</ele>
        <time>2011-11-03T13:39:20.572Z</time>
      </trkpt>
      <trkpt lat="47.41805" lon="-0.37116">
        <ele>-31.358273</ele>
        <time>2011-11-03T13:39:23.584Z</time>
      </trkpt>
      <trkpt lat="47.41797" lon="-0.37088">
        <ele>-31.708027</ele>
        <time>2011-11-03T13:39:26.581Z</time>
      </trkpt>
      <trkpt lat="47.41789" lon="-0.3706">
        <ele>-31.865891</ele>
        <time>2011-11-03T13:39:29.597Z</time>
      </trkpt>
      <trkpt lat="47.41783" lon="-0.37033">
        <ele>-31.905857</ele>
        <time>2011-11-03T13:39:32.647Z</time>
      </trkpt>
      <trkpt lat="47.41777" lon="-0.37006">
        <ele>-31.858299</ele>
        <time>2011-11-03T13:39:35.598Z</time>
      </trkpt>
      <trkpt lat="47.41771" lon="-0.3698">
        <ele>-31.744934</ele>
        <time>2011-11-03T13:39:38.595Z</time>
      </trkpt>
      <trkpt lat="47.41764" lon="-0.36952">
        <ele>-31.807064</ele>
        <time>2011-11-03T13:39:41.599Z</time>
      </trkpt>
      <trkpt lat="47.41756" lon="-0.36923">
        <ele>-31.874367</ele>
        <time>2011-11-03T13:39:44.588Z</time>
      </trkpt>
      <trkpt lat="47.4175" lon="-0.36893">
        <ele>-31.920925</ele>
        <time>2011-11-03T13:39:47.584Z</time>
      </trkpt>
      <trkpt lat="47.41743" lon="-0.36863">
        <ele>-31.74435</ele>
        <time>2011-11-03T13:39:50.581Z</time>
      </trkpt>
      <trkpt lat="47.41737" lon="-0.36832">
        <ele>-31.321362</ele>
        <time>2011-11-03T13:39:53.579Z</time>
      </trkpt>
      <trkpt lat="47.41731" lon="-0.36803">
        <ele>-30.871815</ele>
        <time>2011-11-03T13:39:56.584Z</time>
      </trkpt>
      <trkpt lat="47.41725" lon="-0.36774">
        <ele>-30.611919</ele>
        <time>2011-11-03T13:39:59.579Z</time>
      </trkpt>
      <trkpt lat="47.41718" lon="-0.36745">
        <ele>-30.716114</ele>
        <time>2011-11-03T13:40:02.579Z</time>
      </trkpt>
      <trkpt lat="47.41713" lon="-0.36716">
        <ele>-30.851463</ele>
        <time>2011-11-03T13:40:05.582Z</time>
      </trkpt>
      <trkpt lat="47.41708" lon="-0.36686">
        <ele>-30.814068</ele>
        <time>2011-11-03T13:40:08.578Z</time>
      </trkpt>
      <trkpt lat="47.41704" lon="-0.36656">
        <ele>-30.626469</ele>
        <time>2011-11-03T13:40:11.585Z</time>
      </trkpt>
      <trkpt lat="47.41701" lon="-0.36626">
        <ele>-31.183331</ele>
        <time>2011-11-03T13:40:14.580Z</time>
      </trkpt>
      <trkpt lat="47.41695" lon="-0.36595">
        <ele>-32.34597</ele>
        <time>2011-11-03T13:40:17.577Z</time>
      </trkpt>
      <trkpt lat="47.41687" lon="-0.36566">
        <ele>-32.444046</ele>
        <time>2011-11-03T13:40:20.572Z</time>
      </trkpt>
      <trkpt lat="47.41679" lon="-0.36537">
        <ele>-32.159084</ele>
        <time>2011-11-03T13:40:23.671Z</time>
      </trkpt>
      <trkpt lat="47.41671" lon="-0.36508">
        <ele>-31.76125</ele>
        <time>2011-11-03T13:40:26.574Z</time>
      </trkpt>
      <trkpt lat="47.41663" lon="-0.3648">
        <ele>-31.435795</ele>
        <time>2011-11-03T13:40:29.646Z</time>
      </trkpt>
      <trkpt lat="47.41658" lon="-0.36453">
        <ele>-31.37859</ele>
        <time>2011-11-03T13:40:32.599Z</time>
      </trkpt>
      <trkpt lat="47.41653" lon="-0.36426">
        <ele>-31.210403</ele>
        <time>2011-11-03T13:40:35.601Z</time>
      </trkpt>
      <trkpt lat="47.41648" lon="-0.36396">
        <ele>-30.929138</ele>
        <time>2011-11-03T13:40:38.595Z</time>
      </trkpt>
      <trkpt lat="47.41644" lon="-0.36366">
        <ele>-30.941669</ele>
        <time>2011-11-03T13:40:41.593Z</time>
      </trkpt>
      <trkpt lat="47.41641" lon="-0.36336">
        <ele>-30.755726</ele>
        <time>2011-11-03T13:40:44.590Z</time>
      </trkpt>
      <trkpt lat="47.41639" lon="-0.36304">
        <ele>-30.807217</ele>
        <time>2011-11-03T13:40:47.593Z</time>
      </trkpt>
      <trkpt lat="47.41638" lon="-0.36274">
        <ele>-30.626911</ele>
        <time>2011-11-03T13:40:50.594Z</time>
      </trkpt>
      <trkpt lat="47.41638" lon="-0.36244">
        <ele>-30.367725</ele>
        <time>2011-11-03T13:40:53.593Z</time>
      </trkpt>
      <trkpt lat="47.41638" lon="-0.36214">
        <ele>-30.245052</ele>
        <time>2011-11-03T13:40:56.587Z</time>
      </trkpt>
      <trkpt lat="47.41638" lon="-0.36183">
        <ele>-30.037491</ele>
        <time>2011-11-03T13:40:59.586Z</time>
      </trkpt>
      <trkpt lat="47.41638" lon="-0.36151">
        <ele>-29.605103</ele>
        <time>2011-11-03T13:41:02.584Z</time>
      </trkpt>
      <trkpt lat="47.41637" lon="-0.36119">
        <ele>-29.331234</ele>
        <time>2011-11-03T13:41:05.591Z</time>
      </trkpt>
      <trkpt lat="47.41635" lon="-0.36088">
        <ele>-28.891994</ele>
        <time>2011-11-03T13:41:08.600Z</time>
      </trkpt>
      <trkpt lat="47.41632" lon="-0.36056">
        <ele>-28.339046</ele>
        <time>2011-11-03T13:41:11.584Z</time>
      </trkpt>
      <trkpt lat="47.41628" lon="-0.36023">
        <ele>-28.145798</ele>
        <time>2011-11-03T13:41:14.584Z</time>
      </trkpt>
      <trkpt lat="47.41624" lon="-0.35991">
        <ele>-28.189659</ele>
        <time>2011-11-03T13:41:17.578Z</time>
      </trkpt>
      <trkpt lat="47.41619" lon="-0.35959">
        <ele>-28.58633</ele>
        <time>2011-11-03T13:41:20.575Z</time>
      </trkpt>
      <trkpt lat="47.41615" lon="-0.35929">
        <ele>-29.089355</ele>
        <time>2011-11-03T13:41:23.586Z</time>
      </trkpt>
      <trkpt lat="47.41611" lon="-0.35898">
        <ele>-29.309856</ele>
        <time>2011-11-03T13:41:26.576Z</time>
      </trkpt>
      <trkpt lat="47.41607" lon="-0.35866">
        <ele>-29.131256</ele>
        <time>2011-11-03T13:41:29.599Z</time>
      </trkpt>
      <trkpt lat="47.41603" lon="-0.35836">
        <ele>-29.630566</ele>
        <time>2011-11-03T13:41:32.591Z</time>
      </trkpt>
      <trkpt lat="47.41599" lon="-0.35806">
        <ele>-30.696476</ele>
        <time>2011-11-03T13:41:35.591Z</time>
      </trkpt>
      <trkpt lat="47.41593" lon="-0.35777">
        <ele>-31.057644</ele>
        <time>2011-11-03T13:41:38.594Z</time>
      </trkpt>
      <trkpt lat="47.41586" lon="-0.35749">
        <ele>-31.177025</ele>
        <time>2011-11-03T13:41:41.584Z</time>
      </trkpt>
      <trkpt lat="47.4158" lon="-0.35721">
        <ele>-31.190342</ele>
        <time>2011-11-03T13:41:44.602Z</time>
      </trkpt>
      <trkpt lat="47.41574" lon="-0.35692">
        <ele>-31.057594</ele>
        <time>2011-11-03T13:41:47.587Z</time>
      </trkpt>
      <trkpt lat="47.41569" lon="-0.35662">
        <ele>-30.974163</ele>
        <time>2011-11-03T13:41:50.606Z</time>
      </trkpt>
      <trkpt lat="47.41564" lon="-0.35633">
        <ele>-30.956898</ele>
        <time>2011-11-03T13:41:53.611Z</time>
      </trkpt>
      <trkpt lat="47.4156" lon="-0.35603">
        <ele>-30.954849</ele>
        <time>2011-11-03T13:41:56.604Z</time>
      </trkpt>
      <trkpt lat="47.41555" lon="-0.35573">
        <ele>-30.921856</ele>
        <time>2011-11-03T13:41:59.602Z</time>
      </trkpt>
      <trkpt lat="47.4155" lon="-0.35543">
        <ele>-30.923981</ele>
        <time>2011-11-03T13:42:02.600Z</time>
      </trkpt>
      <trkpt lat="47.41545" lon="-0.35513">
        <ele>-30.999958</ele>
        <time>2011-11-03T13:42:05.598Z</time>
      </trkpt>
      <trkpt lat="47.4154" lon="-0.35482">
        <ele>-31.115646</ele>
        <time>2011-11-03T13:42:08.597Z</time>
      </trkpt>
      <trkpt lat="47.41534" lon="-0.35452">
        <ele>-32.085438</ele>
        <time>2011-11-03T13:42:11.601Z</time>
      </trkpt>
      <trkpt lat="47.41529" lon="-0.35423">
        <ele>-33.312847</ele>
        <time>2011-11-03T13:42:14.606Z</time>
      </trkpt>
      <trkpt lat="47.41523" lon="-0.35394">
        <ele>-34.312958</ele>
        <time>2011-11-03T13:42:17.603Z</time>
      </trkpt>
      <trkpt lat="47.41517" lon="-0.35364">
        <ele>-34.931942</ele>
        <time>2011-11-03T13:42:20.604Z</time>
      </trkpt>
      <trkpt lat="47.41511" lon="-0.35334">
        <ele>-35.163227</ele>
        <time>2011-11-03T13:42:23.601Z</time>
      </trkpt>
      <trkpt lat="47.41506" lon="-0.35303">
        <ele>-35.090656</ele>
        <time>2011-11-03T13:42:26.580Z</time>
      </trkpt>
      <trkpt lat="47.41501" lon="-0.35272">
        <ele>-35.283131</ele>
        <time>2011-11-03T13:42:29.765Z</time>
      </trkpt>
      <trkpt lat="47.41497" lon="-0.35243">
        <ele>-35.67424</ele>
        <time>2011-11-03T13:42:32.575Z</time>
      </trkpt>
      <trkpt lat="47.41494" lon="-0.35214">
        <ele>-36.002689</ele>
        <time>2011-11-03T13:42:35.575Z</time>
      </trkpt>
      <trkpt lat="47.41491" lon="-0.35185">
        <ele>-35.938847</ele>
        <time>2011-11-03T13:42:38.580Z</time>
      </trkpt>
      <trkpt lat="47.41487" lon="-0.35155">
        <ele>-34.952332</ele>
        <time>2011-11-03T13:42:41.587Z</time>
      </trkpt>
      <trkpt lat="47.41483" lon="-0.35125">
        <ele>-34.114998</ele>
        <time>2011-11-03T13:42:44.593Z</time>
      </trkpt>
      <trkpt lat="47.41478" lon="-0.35095">
        <ele>-33.58942</ele>
        <time>2011-11-03T13:42:47.601Z</time>
      </trkpt>
      <trkpt lat="47.41474" lon="-0.35065">
        <ele>-33.440788</ele>
        <time>2011-11-03T13:42:50.595Z</time>
      </trkpt>
      <trkpt lat="47.41469" lon="-0.35036">
        <ele>-33.365185</ele>
        <time>2011-11-03T13:42:53.594Z</time>
      </trkpt>
      <trkpt lat="47.41465" lon="-0.35006">
        <ele>-33.376545</ele>
        <time>2011-11-03T13:42:56.600Z</time>
      </trkpt>
      <trkpt lat="47.41461" lon="-0.34977">
        <ele>-33.273777</ele>
        <time>2011-11-03T13:42:59.603Z</time>
      </trkpt>
      <trkpt lat="47.41456" lon="-0.34948">
        <ele>-32.984623</ele>
        <time>2011-11-03T13:43:02.594Z</time>
      </trkpt>
      <trkpt lat="47.4145" lon="-0.34918">
        <ele>-32.441547</ele>
        <time>2011-11-03T13:43:05.600Z</time>
      </trkpt>
      <trkpt lat="47.41444" lon="-0.34889">
        <ele>-32.002129</ele>
        <time>2011-11-03T13:43:08.600Z</time>
      </trkpt>
      <trkpt lat="47.41438" lon="-0.3486">
        <ele>-31.693245</ele>
        <time>2011-11-03T13:43:11.686Z</time>
      </trkpt>
      <trkpt lat="47.41433" lon="-0.34829">
        <ele>-31.370773</ele>
        <time>2011-11-03T13:43:14.600Z</time>
      </trkpt>
      <trkpt lat="47.41426" lon="-0.34798">
        <ele>-31.074207</ele>
        <time>2011-11-03T13:43:17.604Z</time>
      </trkpt>
      <trkpt lat="47.41421" lon="-0.34768">
        <ele>-30.777668</ele>
        <time>2011-11-03T13:43:20.603Z</time>
      </trkpt>
      <trkpt lat="47.41417" lon="-0.34736">
        <ele>-30.36491</ele>
        <time>2011-11-03T13:43:23.601Z</time>
      </trkpt>
      <trkpt lat="47.41414" lon="-0.34704">
        <ele>-29.839916</ele>
        <time>2011-11-03T13:43:26.594Z</time>
      </trkpt>
      <trkpt lat="47.4141" lon="-0.34673">
        <ele>-29.334194</ele>
        <time>2011-11-03T13:43:29.596Z</time>
      </trkpt>
      <trkpt lat="47.41407" lon="-0.34641">
        <ele>-28.911568</ele>
        <time>2011-11-03T13:43:32.591Z</time>
      </trkpt>
      <trkpt lat="47.41404" lon="-0.34609">
        <ele>-28.727913</ele>
        <time>2011-11-03T13:43:35.603Z</time>
      </trkpt>
      <trkpt lat="47.41402" lon="-0.34576">
        <ele>-28.951092</ele>
        <time>2011-11-03T13:43:38.594Z</time>
      </trkpt>
      <trkpt lat="47.414" lon="-0.34545">
        <ele>-29.084808</ele>
        <time>2011-11-03T13:43:41.594Z</time>
      </trkpt>
      <trkpt lat="47.41399" lon="-0.34513">
        <ele>-29.062088</ele>
        <time>2011-11-03T13:43:44.599Z</time>
      </trkpt>
      <trkpt lat="47.41397" lon="-0.3448">
        <ele>-29.119568</ele>
        <time>2011-11-03T13:43:47.597Z</time>
      </trkpt>
      <trkpt lat="47.41394" lon="-0.34448">
        <ele>-29.225521</ele>
        <time>2011-11-03T13:43:50.604Z</time>
      </trkpt>
      <trkpt lat="47.41388" lon="-0.34417">
        <ele>-29.207176</ele>
        <time>2011-11-03T13:43:53.604Z</time>
      </trkpt>
      <trkpt lat="47.4138" lon="-0.34387">
        <ele>-29.20866</ele>
        <time>2011-11-03T13:43:56.595Z</time>
      </trkpt>
      <trkpt lat="47.41372" lon="-0.34357">
        <ele>-29.196316</ele>
        <time>2011-11-03T13:43:59.597Z</time>
      </trkpt>
      <trkpt lat="47.41362" lon="-0.34329">
        <ele>-29.025002</ele>
        <time>2011-11-03T13:44:02.622Z</time>
      </trkpt>
      <trkpt lat="47.41354" lon="-0.34301">
        <ele>-28.805374</ele>
        <time>2011-11-03T13:44:05.599Z</time>
      </trkpt>
      <trkpt lat="47.41345" lon="-0.34273">
        <ele>-28.499214</ele>
        <time>2011-11-03T13:44:08.595Z</time>
      </trkpt>
      <trkpt lat="47.41337" lon="-0.34245">
        <ele>-28.212788</ele>
        <time>2011-11-03T13:44:11.597Z</time>
      </trkpt>
      <trkpt lat="47.41328" lon="-0.34217">
        <ele>-27.854057</ele>
        <time>2011-11-03T13:44:14.594Z</time>
      </trkpt>
      <trkpt lat="47.4132" lon="-0.34189">
        <ele>-27.656368</ele>
        <time>2011-11-03T13:44:17.603Z</time>
      </trkpt>
      <trkpt lat="47.41312" lon="-0.3416">
        <ele>-27.411518</ele>
        <time>2011-11-03T13:44:20.609Z</time>
      </trkpt>
      <trkpt lat="47.41303" lon="-0.34132">
        <ele>-27.22784</ele>
        <time>2011-11-03T13:44:23.605Z</time>
      </trkpt>
      <trkpt lat="47.41294" lon="-0.34103">
        <ele>-27.003086</ele>
        <time>2011-11-03T13:44:26.601Z</time>
      </trkpt>
      <trkpt lat="47.41286" lon="-0.34074">
        <ele>-26.608185</ele>
        <time>2011-11-03T13:44:29.935Z</time>
      </trkpt>
      <trkpt lat="47.41276" lon="-0.34045">
        <ele>-26.217136</ele>
        <time>2011-11-03T13:44:32.595Z</time>
      </trkpt>
      <trkpt lat="47.41267" lon="-0.34015">
        <ele>-25.559841</ele>
        <time>2011-11-03T13:44:35.594Z</time>
      </trkpt>
      <trkpt lat="47.41258" lon="-0.33985">
        <ele>-25.035862</ele>
        <time>2011-11-03T13:44:38.596Z</time>
      </trkpt>
      <trkpt lat="47.41249" lon="-0.33955">
        <ele>-24.680576</ele>
        <time>2011-11-03T13:44:41.598Z</time>
      </trkpt>
      <trkpt lat="47.41239" lon="-0.33925">
        <ele>-24.636826</ele>
        <time>2011-11-03T13:44:44.694Z</time>
      </trkpt>
      <trkpt lat="47.41229" lon="-0.33895">
        <ele>-24.552448</ele>
        <time>2011-11-03T13:44:47.611Z</time>
      </trkpt>
      <trkpt lat="47.4122" lon="-0.33866">
        <ele>-24.609879</ele>
        <time>2011-11-03T13:44:50.598Z</time>
      </trkpt>
      <trkpt lat="47.41211" lon="-0.33838">
        <ele>-24.710712</ele>
        <time>2011-11-03T13:44:53.605Z</time>
      </trkpt>
      <trkpt lat="47.41202" lon="-0.3381">
        <ele>-24.658474</ele>
        <time>2011-11-03T13:44:56.606Z</time>
      </trkpt>
      <trkpt lat="47.41193" lon="-0.33781">
        <ele>-24.655827</ele>
        <time>2011-11-03T13:44:59.609Z</time>
      </trkpt>
      <trkpt lat="47.41184" lon="-0.33753">
        <ele>-24.618275</ele>
        <time>2011-11-03T13:45:02.605Z</time>
      </trkpt>
      <trkpt lat="47.41175" lon="-0.33725">
        <ele>-24.664898</ele>
        <time>2011-11-03T13:45:05.603Z</time>
      </trkpt>
      <trkpt lat="47.41167" lon="-0.33697">
        <ele>-24.618439</ele>
        <time>2011-11-03T13:45:08.596Z</time>
      </trkpt>
      <trkpt lat="47.41158" lon="-0.33669">
        <ele>-24.478432</ele>
        <time>2011-11-03T13:45:11.596Z</time>
      </trkpt>
      <trkpt lat="47.4115" lon="-0.33641">
        <ele>-24.603741</ele>
        <time>2011-11-03T13:45:14.948Z</time>
      </trkpt>
      <trkpt lat="47.41143" lon="-0.33613">
        <ele>-25.064568</ele>
        <time>2011-11-03T13:45:17.609Z</time>
      </trkpt>
      <trkpt lat="47.41136" lon="-0.33584">
        <ele>-25.431858</ele>
        <time>2011-11-03T13:45:20.623Z</time>
      </trkpt>
      <trkpt lat="47.4113" lon="-0.33554">
        <ele>-25.659603</ele>
        <time>2011-11-03T13:45:23.602Z</time>
      </trkpt>
      <trkpt lat="47.41125" lon="-0.33522">
        <ele>-25.796627</ele>
        <time>2011-11-03T13:45:26.597Z</time>
      </trkpt>
      <trkpt lat="47.4112" lon="-0.33492">
        <ele>-25.841419</ele>
        <time>2011-11-03T13:45:29.588Z</time>
      </trkpt>
      <trkpt lat="47.41117" lon="-0.33461">
        <ele>-25.994305</ele>
        <time>2011-11-03T13:45:32.597Z</time>
      </trkpt>
      <trkpt lat="47.41115" lon="-0.33431">
        <ele>-26.174423</ele>
        <time>2011-11-03T13:45:35.589Z</time>
      </trkpt>
      <trkpt lat="47.41114" lon="-0.33401">
        <ele>-26.290977</ele>
        <time>2011-11-03T13:45:38.601Z</time>
      </trkpt>
      <trkpt lat="47.41115" lon="-0.3337">
        <ele>-26.580978</ele>
        <time>2011-11-03T13:45:41.589Z</time>
      </trkpt>
      <trkpt lat="47.41113" lon="-0.33339">
        <ele>-26.798618</ele>
        <time>2011-11-03T13:45:44.592Z</time>
      </trkpt>
      <trkpt lat="47.41107" lon="-0.33309">
        <ele>-27.025524</ele>
        <time>2011-11-03T13:45:47.595Z</time>
      </trkpt>
      <trkpt lat="47.41098" lon="-0.3328">
        <ele>-27.045601</ele>
        <time>2011-11-03T13:45:50.600Z</time>
      </trkpt>
      <trkpt lat="47.41089" lon="-0.33252">
        <ele>-26.988647</ele>
        <time>2011-11-03T13:45:53.595Z</time>
      </trkpt>
      <trkpt lat="47.41081" lon="-0.33222">
        <ele>-26.981281</ele>
        <time>2011-11-03T13:45:56.594Z</time>
      </trkpt>
      <trkpt lat="47.41074" lon="-0.33192">
        <ele>-27.148651</ele>
        <time>2011-11-03T13:45:59.595Z</time>
      </trkpt>
      <trkpt lat="47.4107" lon="-0.33162">
        <ele>-27.548229</ele>
        <time>2011-11-03T13:46:02.597Z</time>
      </trkpt>
      <trkpt lat="47.41067" lon="-0.33132">
        <ele>-27.948387</ele>
        <time>2011-11-03T13:46:05.600Z</time>
      </trkpt>
      <trkpt lat="47.41063" lon="-0.33101">
        <ele>-28.302296</ele>
        <time>2011-11-03T13:46:08.916Z</time>
      </trkpt>
      <trkpt lat="47.41059" lon="-0.3307">
        <ele>-28.428333</ele>
        <time>2011-11-03T13:46:11.595Z</time>
      </trkpt>
      <trkpt lat="47.41055" lon="-0.33039">
        <ele>-28.244678</ele>
        <time>2011-11-03T13:46:14.595Z</time>
      </trkpt>
      <trkpt lat="47.41051" lon="-0.33009">
        <ele>-27.884014</ele>
        <time>2011-11-03T13:46:17.597Z</time>
      </trkpt>
      <trkpt lat="47.41046" lon="-0.32978">
        <ele>-27.490395</ele>
        <time>2011-11-03T13:46:20.573Z</time>
      </trkpt>
      <trkpt lat="47.41043" lon="-0.32947">
        <ele>-27.230679</ele>
        <time>2011-11-03T13:46:23.588Z</time>
      </trkpt>
      <trkpt lat="47.4104" lon="-0.32916">
        <ele>-27.009403</ele>
        <time>2011-11-03T13:46:26.605Z</time>
      </trkpt>
      <trkpt lat="47.41038" lon="-0.32885">
        <ele>-26.719715</ele>
        <time>2011-11-03T13:46:29.825Z</time>
      </trkpt>
      <trkpt lat="47.41036" lon="-0.32855">
        <ele>-26.519211</ele>
        <time>2011-11-03T13:46:32.599Z</time>
      </trkpt>
      <trkpt lat="47.41034" lon="-0.32825">
        <ele>-26.524891</ele>
        <time>2011-11-03T13:46:35.607Z</time>
      </trkpt>
      <trkpt lat="47.41032" lon="-0.32795">
        <ele>-26.607029</ele>
        <time>2011-11-03T13:46:38.603Z</time>
      </trkpt>
      <trkpt lat="47.41031" lon="-0.32764">
        <ele>-26.63171</ele>
        <time>2011-11-03T13:46:41.608Z</time>
      </trkpt>
      <trkpt lat="47.41029" lon="-0.32734">
        <ele>-26.669518</ele>
        <time>2011-11-03T13:46:44.592Z</time>
      </trkpt>
      <trkpt lat="47.41028" lon="-0.32703">
        <ele>-26.56834</ele>
        <time>2011-11-03T13:46:47.587Z</time>
      </trkpt>
      <trkpt lat="47.41026" lon="-0.32672">
        <ele>-26.423477</ele>
        <time>2011-11-03T13:46:50.589Z</time>
      </trkpt>
      <trkpt lat="47.41024" lon="-0.32642">
        <ele>-26.243805</ele>
        <time>2011-11-03T13:46:53.595Z</time>
      </trkpt>
      <trkpt lat="47.41021" lon="-0.32612">
        <ele>-26.214142</ele>
        <time>2011-11-03T13:46:56.606Z</time>
      </trkpt>
      <trkpt lat="47.41018" lon="-0.32581">
        <ele>-26.212238</ele>
        <time>2011-11-03T13:46:59.607Z</time>
      </trkpt>
      <trkpt lat="47.41015" lon="-0.32551">
        <ele>-26.21711</ele>
        <time>2011-11-03T13:47:02.598Z</time>
      </trkpt>
      <trkpt lat="47.41013" lon="-0.32521">
        <ele>-25.915432</ele>
        <time>2011-11-03T13:47:05.592Z</time>
      </trkpt>
      <trkpt lat="47.41011" lon="-0.3249">
        <ele>-25.511787</ele>
        <time>2011-11-03T13:47:08.603Z</time>
      </trkpt>
      <trkpt lat="47.41008" lon="-0.32459">
        <ele>-25.151405</ele>
        <time>2011-11-03T13:47:11.708Z</time>
      </trkpt>
      <trkpt lat="47.41005" lon="-0.32429">
        <ele>-25.003979</ele>
        <time>2011-11-03T13:47:14.602Z</time>
      </trkpt>
      <trkpt lat="47.41002" lon="-0.32399">
        <ele>-24.731464</ele>
        <time>2011-11-03T13:47:17.594Z</time>
      </trkpt>
      <trkpt lat="47.40998" lon="-0.32369">
        <ele>-24.608753</ele>
        <time>2011-11-03T13:47:20.602Z</time>
      </trkpt>
      <trkpt lat="47.40994" lon="-0.3234">
        <ele>-24.590763</ele>
        <time>2011-11-03T13:47:23.591Z</time>
      </trkpt>
      <trkpt lat="47.40988" lon="-0.32312">
        <ele>-24.551785</ele>
        <time>2011-11-03T13:47:26.582Z</time>
      </trkpt>
      <trkpt lat="47.4098" lon="-0.32285">
        <ele>-24.524666</ele>
        <time>2011-11-03T13:47:29.590Z</time>
      </trkpt>
      <trkpt lat="47.40968" lon="-0.32258">
        <ele>-24.171009</ele>
        <time>2011-11-03T13:47:32.590Z</time>
      </trkpt>
      <trkpt lat="47.40957" lon="-0.32232">
        <ele>-23.969913</ele>
        <time>2011-11-03T13:47:35.605Z</time>
      </trkpt>
      <trkpt lat="47.40946" lon="-0.32209">
        <ele>-23.786053</ele>
        <time>2011-11-03T13:47:38.608Z</time>
      </trkpt>
      <trkpt lat="47.40937" lon="-0.32185">
        <ele>-23.576633</ele>
        <time>2011-11-03T13:47:41.606Z</time>
      </trkpt>
      <trkpt lat="47.40927" lon="-0.32154">
        <ele>-23.568985</ele>
        <time>2011-11-03T13:47:45.602Z</time>
      </trkpt>
      <trkpt lat="47.40917" lon="-0.32123">
        <ele>-23.333591</ele>
        <time>2011-11-03T13:47:49.618Z</time>
      </trkpt>
      <trkpt lat="47.40909" lon="-0.32094">
        <ele>-22.813541</ele>
        <time>2011-11-03T13:47:53.605Z</time>
      </trkpt>
      <trkpt lat="47.40901" lon="-0.32066">
        <ele>-22.615116</ele>
        <time>2011-11-03T13:47:57.605Z</time>
      </trkpt>
      <trkpt lat="47.40896" lon="-0.32036">
        <ele>-22.439835</ele>
        <time>2011-11-03T13:48:01.611Z</time>
      </trkpt>
      <trkpt lat="47.40893" lon="-0.32006">
        <ele>-21.875488</ele>
        <time>2011-11-03T13:48:05.617Z</time>
      </trkpt>
      <trkpt lat="47.40892" lon="-0.31973">
        <ele>-21.358009</ele>
        <time>2011-11-03T13:48:09.608Z</time>
      </trkpt>
      <trkpt lat="47.4089" lon="-0.31945">
        <ele>-20.725861</ele>
        <time>2011-11-03T13:48:12.606Z</time>
      </trkpt>
      <trkpt lat="47.40884" lon="-0.31918">
        <ele>-19.935886</ele>
        <time>2011-11-03T13:48:15.607Z</time>
      </trkpt>
      <trkpt lat="47.40877" lon="-0.31891">
        <ele>-19.277786</ele>
        <time>2011-11-03T13:48:18.606Z</time>
      </trkpt>
      <trkpt lat="47.4087" lon="-0.31865">
        <ele>-18.57304</ele>
        <time>2011-11-03T13:48:21.611Z</time>
      </trkpt>
      <trkpt lat="47.40863" lon="-0.31833">
        <ele>-17.859097</ele>
        <time>2011-11-03T13:48:25.611Z</time>
      </trkpt>
      <trkpt lat="47.40861" lon="-0.31806">
        <ele>-17.532406</ele>
        <time>2011-11-03T13:48:28.584Z</time>
      </trkpt>
      <trkpt lat="47.40861" lon="-0.31774">
        <ele>-17.304688</ele>
        <time>2011-11-03T13:48:31.580Z</time>
      </trkpt>
      <trkpt lat="47.40861" lon="-0.31743">
        <ele>-17.300121</ele>
        <time>2011-11-03T13:48:34.577Z</time>
      </trkpt>
      <trkpt lat="47.40863" lon="-0.31712">
        <ele>-17.502445</ele>
        <time>2011-11-03T13:48:37.577Z</time>
      </trkpt>
      <trkpt lat="47.40864" lon="-0.3168">
        <ele>-17.529491</ele>
        <time>2011-11-03T13:48:40.579Z</time>
      </trkpt>
      <trkpt lat="47.40865" lon="-0.31645">
        <ele>-16.926517</ele>
        <time>2011-11-03T13:48:43.601Z</time>
      </trkpt>
      <trkpt lat="47.40866" lon="-0.31607">
        <ele>-16.195248</ele>
        <time>2011-11-03T13:48:46.603Z</time>
      </trkpt>
      <trkpt lat="47.40866" lon="-0.31568">
        <ele>-16.108448</ele>
        <time>2011-11-03T13:48:49.609Z</time>
      </trkpt>
      <trkpt lat="47.40868" lon="-0.31531">
        <ele>-16.449898</ele>
        <time>2011-11-03T13:48:52.600Z</time>
      </trkpt>
      <trkpt lat="47.40869" lon="-0.31493">
        <ele>-17.179707</ele>
        <time>2011-11-03T13:48:55.597Z</time>
      </trkpt>
      <trkpt lat="47.40871" lon="-0.31456">
        <ele>-17.609993</ele>
        <time>2011-11-03T13:48:58.604Z</time>
      </trkpt>
      <trkpt lat="47.40869" lon="-0.31419">
        <ele>-17.797897</ele>
        <time>2011-11-03T13:49:01.811Z</time>
      </trkpt>
      <trkpt lat="47.40865" lon="-0.31384">
        <ele>-17.579346</ele>
        <time>2011-11-03T13:49:04.593Z</time>
      </trkpt>
      <trkpt lat="47.4086" lon="-0.31348">
        <ele>-17.645954</ele>
        <time>2011-11-03T13:49:07.603Z</time>
      </trkpt>
      <trkpt lat="47.40854" lon="-0.31313">
        <ele>-17.673298</ele>
        <time>2011-11-03T13:49:10.679Z</time>
      </trkpt>
      <trkpt lat="47.40847" lon="-0.31278">
        <ele>-17.249386</ele>
        <time>2011-11-03T13:49:13.600Z</time>
      </trkpt>
      <trkpt lat="47.40841" lon="-0.31243">
        <ele>-17.014091</ele>
        <time>2011-11-03T13:49:16.596Z</time>
      </trkpt>
      <trkpt lat="47.40835" lon="-0.31208">
        <ele>-16.890141</ele>
        <time>2011-11-03T13:49:19.600Z</time>
      </trkpt>
      <trkpt lat="47.40828" lon="-0.31173">
        <ele>-17.036037</ele>
        <time>2011-11-03T13:49:22.591Z</time>
      </trkpt>
      <trkpt lat="47.40821" lon="-0.31138">
        <ele>-17.247929</ele>
        <time>2011-11-03T13:49:25.616Z</time>
      </trkpt>
      <trkpt lat="47.40815" lon="-0.31102">
        <ele>-17.398438</ele>
        <time>2011-11-03T13:49:28.589Z</time>
      </trkpt>
      <trkpt lat="47.40808" lon="-0.31066">
        <ele>-16.205009</ele>
        <time>2011-11-03T13:49:31.594Z</time>
      </trkpt>
      <trkpt lat="47.40801" lon="-0.31029">
        <ele>-15.293301</ele>
        <time>2011-11-03T13:49:34.588Z</time>
      </trkpt>
      <trkpt lat="47.40795" lon="-0.30992">
        <ele>-15.684837</ele>
        <time>2011-11-03T13:49:37.593Z</time>
      </trkpt>
      <trkpt lat="47.40789" lon="-0.30956">
        <ele>-16.304455</ele>
        <time>2011-11-03T13:49:40.585Z</time>
      </trkpt>
      <trkpt lat="47.40785" lon="-0.30919">
        <ele>-16.958118</ele>
        <time>2011-11-03T13:49:43.599Z</time>
      </trkpt>
      <trkpt lat="47.40781" lon="-0.30882">
        <ele>-17.422108</ele>
        <time>2011-11-03T13:49:46.608Z</time>
      </trkpt>
      <trkpt lat="47.40776" lon="-0.30844">
        <ele>-17.804855</ele>
        <time>2011-11-03T13:49:49.601Z</time>
      </trkpt>
      <trkpt lat="47.40771" lon="-0.30805">
        <ele>-17.867123</ele>
        <time>2011-11-03T13:49:52.633Z</time>
      </trkpt>
      <trkpt lat="47.40765" lon="-0.30767">
        <ele>-17.710552</ele>
        <time>2011-11-03T13:49:55.584Z</time>
      </trkpt>
      <trkpt lat="47.40759" lon="-0.30729">
        <ele>-18.780678</ele>
        <time>2011-11-03T13:49:58.581Z</time>
      </trkpt>
      <trkpt lat="47.40754" lon="-0.30692">
        <ele>-19.947601</ele>
        <time>2011-11-03T13:50:01.583Z</time>
      </trkpt>
      <trkpt lat="47.40753" lon="-0.30655">
        <ele>-20.910763</ele>
        <time>2011-11-03T13:50:04.615Z</time>
      </trkpt>
      <trkpt lat="47.40753" lon="-0.30617">
        <ele>-21.67252</ele>
        <time>2011-11-03T13:50:07.623Z</time>
      </trkpt>
      <trkpt lat="47.40756" lon="-0.30579">
        <ele>-22.020721</ele>
        <time>2011-11-03T13:50:10.767Z</time>
      </trkpt>
      <trkpt lat="47.40759" lon="-0.30542">
        <ele>-22.017475</ele>
        <time>2011-11-03T13:50:13.595Z</time>
      </trkpt>
      <trkpt lat="47.40762" lon="-0.30503">
        <ele>-22.020092</ele>
        <time>2011-11-03T13:50:16.590Z</time>
      </trkpt>
      <trkpt lat="47.40765" lon="-0.30464">
        <ele>-22.008968</ele>
        <time>2011-11-03T13:50:19.594Z</time>
      </trkpt>
      <trkpt lat="47.40767" lon="-0.30426">
        <ele>-21.99548</ele>
        <time>2011-11-03T13:50:22.594Z</time>
      </trkpt>
      <trkpt lat="47.40769" lon="-0.30388">
        <ele>-21.821148</ele>
        <time>2011-11-03T13:50:25.589Z</time>
      </trkpt>
      <trkpt lat="47.40772" lon="-0.3035">
        <ele>-21.681915</ele>
        <time>2011-11-03T13:50:28.587Z</time>
      </trkpt>
      <trkpt lat="47.40775" lon="-0.30312">
        <ele>-21.38805</ele>
        <time>2011-11-03T13:50:31.582Z</time>
      </trkpt>
      <trkpt lat="47.40778" lon="-0.30272">
        <ele>-21.116318</ele>
        <time>2011-11-03T13:50:34.606Z</time>
      </trkpt>
      <trkpt lat="47.4078" lon="-0.30234">
        <ele>-21.105644</ele>
        <time>2011-11-03T13:50:37.586Z</time>
      </trkpt>
      <trkpt lat="47.40783" lon="-0.30196">
        <ele>-21.147789</ele>
        <time>2011-11-03T13:50:40.581Z</time>
      </trkpt>
      <trkpt lat="47.40787" lon="-0.30158">
        <ele>-21.288174</ele>
        <time>2011-11-03T13:50:43.578Z</time>
      </trkpt>
      <trkpt lat="47.40794" lon="-0.3012">
        <ele>-21.069359</ele>
        <time>2011-11-03T13:50:46.821Z</time>
      </trkpt>
      <trkpt lat="47.40804" lon="-0.30086">
        <ele>-21.075363</ele>
        <time>2011-11-03T13:50:49.584Z</time>
      </trkpt>
      <trkpt lat="47.40818" lon="-0.30054">
        <ele>-21.218765</ele>
        <time>2011-11-03T13:50:52.601Z</time>
      </trkpt>
      <trkpt lat="47.40832" lon="-0.30025">
        <ele>-21.634979</ele>
        <time>2011-11-03T13:50:55.604Z</time>
      </trkpt>
      <trkpt lat="47.40846" lon="-0.29995">
        <ele>-22.007603</ele>
        <time>2011-11-03T13:50:58.607Z</time>
      </trkpt>
      <trkpt lat="47.40859" lon="-0.29965">
        <ele>-22.089596</ele>
        <time>2011-11-03T13:51:01.608Z</time>
      </trkpt>
      <trkpt lat="47.40871" lon="-0.29934">
        <ele>-21.849342</ele>
        <time>2011-11-03T13:51:04.602Z</time>
      </trkpt>
      <trkpt lat="47.4088" lon="-0.29901">
        <ele>-21.698181</ele>
        <time>2011-11-03T13:51:07.587Z</time>
      </trkpt>
      <trkpt lat="47.40883" lon="-0.29862">
        <ele>-22.492599</ele>
        <time>2011-11-03T13:51:10.585Z</time>
      </trkpt>
      <trkpt lat="47.40882" lon="-0.29823">
        <ele>-22.843819</ele>
        <time>2011-11-03T13:51:13.589Z</time>
      </trkpt>
      <trkpt lat="47.40877" lon="-0.29785">
        <ele>-23.066322</ele>
        <time>2011-11-03T13:51:16.587Z</time>
      </trkpt>
      <trkpt lat="47.40868" lon="-0.29748">
        <ele>-23.100758</ele>
        <time>2011-11-03T13:51:19.745Z</time>
      </trkpt>
      <trkpt lat="47.40861" lon="-0.29723">
        <ele>-23.006283</ele>
        <time>2011-11-03T13:51:21.597Z</time>
      </trkpt>
      <trkpt lat="47.40852" lon="-0.29699">
        <ele>-23.167526</ele>
        <time>2011-11-03T13:51:23.604Z</time>
      </trkpt>
      <trkpt lat="47.40837" lon="-0.29666">
        <ele>-23.875996</ele>
        <time>2011-11-03T13:51:26.597Z</time>
      </trkpt>
      <trkpt lat="47.40826" lon="-0.29645">
        <ele>-24.471889</ele>
        <time>2011-11-03T13:51:28.600Z</time>
      </trkpt>
      <trkpt lat="47.40814" lon="-0.29624">
        <ele>-25.044388</ele>
        <time>2011-11-03T13:51:30.608Z</time>
      </trkpt>
      <trkpt lat="47.40795" lon="-0.29594">
        <ele>-25.768036</ele>
        <time>2011-11-03T13:51:33.606Z</time>
      </trkpt>
      <trkpt lat="47.40779" lon="-0.29563">
        <ele>-26.25491</ele>
        <time>2011-11-03T13:51:36.600Z</time>
      </trkpt>
      <trkpt lat="47.40765" lon="-0.29533">
        <ele>-26.967274</ele>
        <time>2011-11-03T13:51:39.595Z</time>
      </trkpt>
      <trkpt lat="47.40751" lon="-0.295">
        <ele>-27.622574</ele>
        <time>2011-11-03T13:51:42.596Z</time>
      </trkpt>
      <trkpt lat="47.40738" lon="-0.29465">
        <ele>-27.785637</ele>
        <time>2011-11-03T13:51:45.600Z</time>
      </trkpt>
      <trkpt lat="47.40726" lon="-0.29429">
        <ele>-27.94553</ele>
        <time>2011-11-03T13:51:48.601Z</time>
      </trkpt>
      <trkpt lat="47.40714" lon="-0.29394">
        <ele>-28.002304</ele>
        <time>2011-11-03T13:51:51.605Z</time>
      </trkpt>
      <trkpt lat="47.40705" lon="-0.2937">
        <ele>-28.017368</ele>
        <time>2011-11-03T13:51:53.604Z</time>
      </trkpt>
      <trkpt lat="47.40692" lon="-0.29336">
        <ele>-27.89835</ele>
        <time>2011-11-03T13:51:56.602Z</time>
      </trkpt>
      <trkpt lat="47.4068" lon="-0.29301">
        <ele>-27.743488</ele>
        <time>2011-11-03T13:51:59.607Z</time>
      </trkpt>
      <trkpt lat="47.40669" lon="-0.29266">
        <ele>-27.743168</ele>
        <time>2011-11-03T13:52:02.603Z</time>
      </trkpt>
      <trkpt lat="47.40658" lon="-0.29232">
        <ele>-27.742962</ele>
        <time>2011-11-03T13:52:05.599Z</time>
      </trkpt>
      <trkpt lat="47.40646" lon="-0.292">
        <ele>-27.595619</ele>
        <time>2011-11-03T13:52:08.600Z</time>
      </trkpt>
      <trkpt lat="47.40634" lon="-0.29168">
        <ele>-27.488377</ele>
        <time>2011-11-03T13:52:11.595Z</time>
      </trkpt>
      <trkpt lat="47.40621" lon="-0.29137">
        <ele>-27.288181</ele>
        <time>2011-11-03T13:52:14.597Z</time>
      </trkpt>
      <trkpt lat="47.40606" lon="-0.29106">
        <ele>-27.067745</ele>
        <time>2011-11-03T13:52:17.600Z</time>
      </trkpt>
      <trkpt lat="47.4059" lon="-0.29078">
        <ele>-27.089603</ele>
        <time>2011-11-03T13:52:20.676Z</time>
      </trkpt>
      <trkpt lat="47.40574" lon="-0.29051">
        <ele>-27.141186</ele>
        <time>2011-11-03T13:52:23.613Z</time>
      </trkpt>
      <trkpt lat="47.40557" lon="-0.29025">
        <ele>-27.228306</ele>
        <time>2011-11-03T13:52:26.597Z</time>
      </trkpt>
      <trkpt lat="47.4054" lon="-0.28999">
        <ele>-27.434605</ele>
        <time>2011-11-03T13:52:29.597Z</time>
      </trkpt>
      <trkpt lat="47.40522" lon="-0.28973">
        <ele>-27.495922</ele>
        <time>2011-11-03T13:52:32.600Z</time>
      </trkpt>
      <trkpt lat="47.40506" lon="-0.28946">
        <ele>-27.68531</ele>
        <time>2011-11-03T13:52:35.606Z</time>
      </trkpt>
      <trkpt lat="47.40492" lon="-0.28915">
        <ele>-28.002964</ele>
        <time>2011-11-03T13:52:38.604Z</time>
      </trkpt>
      <trkpt lat="47.40479" lon="-0.28883">
        <ele>-28.317032</ele>
        <time>2011-11-03T13:52:41.605Z</time>
      </trkpt>
      <trkpt lat="47.40466" lon="-0.2885">
        <ele>-28.170116</ele>
        <time>2011-11-03T13:52:44.606Z</time>
      </trkpt>
      <trkpt lat="47.40452" lon="-0.28816">
        <ele>-28.105221</ele>
        <time>2011-11-03T13:52:47.600Z</time>
      </trkpt>
      <trkpt lat="47.40438" lon="-0.28782">
        <ele>-28.222164</ele>
        <time>2011-11-03T13:52:50.597Z</time>
      </trkpt>
      <trkpt lat="47.40424" lon="-0.28753">
        <ele>-28.31815</ele>
        <time>2011-11-03T13:52:53.598Z</time>
      </trkpt>
      <trkpt lat="47.40408" lon="-0.28724">
        <ele>-28.32774</ele>
        <time>2011-11-03T13:52:56.602Z</time>
      </trkpt>
      <trkpt lat="47.40389" lon="-0.28699">
        <ele>-28.186783</ele>
        <time>2011-11-03T13:52:59.612Z</time>
      </trkpt>
      <trkpt lat="47.4037" lon="-0.28675">
        <ele>-27.923458</ele>
        <time>2011-11-03T13:53:02.612Z</time>
      </trkpt>
      <trkpt lat="47.4035" lon="-0.28651">
        <ele>-27.730373</ele>
        <time>2011-11-03T13:53:05.701Z</time>
      </trkpt>
      <trkpt lat="47.40331" lon="-0.28625">
        <ele>-27.537216</ele>
        <time>2011-11-03T13:53:08.622Z</time>
      </trkpt>
      <trkpt lat="47.40313" lon="-0.28599">
        <ele>-27.416527</ele>
        <time>2011-11-03T13:53:11.608Z</time>
      </trkpt>
      <trkpt lat="47.40294" lon="-0.28574">
        <ele>-27.232136</ele>
        <time>2011-11-03T13:53:14.608Z</time>
      </trkpt>
      <trkpt lat="47.40275" lon="-0.28548">
        <ele>-27.080612</ele>
        <time>2011-11-03T13:53:17.610Z</time>
      </trkpt>
      <trkpt lat="47.40256" lon="-0.28522">
        <ele>-27.020393</ele>
        <time>2011-11-03T13:53:20.610Z</time>
      </trkpt>
      <trkpt lat="47.40238" lon="-0.28494">
        <ele>-27.116055</ele>
        <time>2011-11-03T13:53:23.608Z</time>
      </trkpt>
      <trkpt lat="47.40221" lon="-0.28466">
        <ele>-27.231472</ele>
        <time>2011-11-03T13:53:26.602Z</time>
      </trkpt>
      <trkpt lat="47.40203" lon="-0.28438">
        <ele>-27.240898</ele>
        <time>2011-11-03T13:53:29.607Z</time>
      </trkpt>
      <trkpt lat="47.40184" lon="-0.28411">
        <ele>-27.183327</ele>
        <time>2011-11-03T13:53:32.586Z</time>
      </trkpt>
      <trkpt lat="47.40163" lon="-0.28386">
        <ele>-27.032169</ele>
        <time>2011-11-03T13:53:35.588Z</time>
      </trkpt>
      <trkpt lat="47.40142" lon="-0.28361">
        <ele>-26.924343</ele>
        <time>2011-11-03T13:53:38.609Z</time>
      </trkpt>
      <trkpt lat="47.40123" lon="-0.28336">
        <ele>-26.910515</ele>
        <time>2011-11-03T13:53:41.602Z</time>
      </trkpt>
      <trkpt lat="47.40104" lon="-0.2831">
        <ele>-26.874683</ele>
        <time>2011-11-03T13:53:44.608Z</time>
      </trkpt>
      <trkpt lat="47.40085" lon="-0.28282">
        <ele>-26.71603</ele>
        <time>2011-11-03T13:53:47.616Z</time>
      </trkpt>
      <trkpt lat="47.40066" lon="-0.28255">
        <ele>-26.526024</ele>
        <time>2011-11-03T13:53:50.605Z</time>
      </trkpt>
      <trkpt lat="47.40048" lon="-0.2823">
        <ele>-26.525761</ele>
        <time>2011-11-03T13:53:53.598Z</time>
      </trkpt>
      <trkpt lat="47.4003" lon="-0.28206">
        <ele>-26.574093</ele>
        <time>2011-11-03T13:53:56.588Z</time>
      </trkpt>
      <trkpt lat="47.40012" lon="-0.28183">
        <ele>-26.426746</ele>
        <time>2011-11-03T13:53:59.607Z</time>
      </trkpt>
      <trkpt lat="47.39993" lon="-0.28158">
        <ele>-26.491127</ele>
        <time>2011-11-03T13:54:02.616Z</time>
      </trkpt>
      <trkpt lat="47.39975" lon="-0.28134">
        <ele>-26.461048</ele>
        <time>2011-11-03T13:54:05.608Z</time>
      </trkpt>
      <trkpt lat="47.39956" lon="-0.28109">
        <ele>-26.405476</ele>
        <time>2011-11-03T13:54:08.606Z</time>
      </trkpt>
      <trkpt lat="47.39937" lon="-0.28084">
        <ele>-26.429291</ele>
        <time>2011-11-03T13:54:11.604Z</time>
      </trkpt>
      <trkpt lat="47.39919" lon="-0.28059">
        <ele>-26.377125</ele>
        <time>2011-11-03T13:54:14.604Z</time>
      </trkpt>
      <trkpt lat="47.39902" lon="-0.28032">
        <ele>-26.2384</ele>
        <time>2011-11-03T13:54:17.619Z</time>
      </trkpt>
      <trkpt lat="47.39885" lon="-0.28005">
        <ele>-26.015366</ele>
        <time>2011-11-03T13:54:20.615Z</time>
      </trkpt>
      <trkpt lat="47.39867" lon="-0.27978">
        <ele>-25.820892</ele>
        <time>2011-11-03T13:54:23.615Z</time>
      </trkpt>
      <trkpt lat="47.39849" lon="-0.27951">
        <ele>-25.979149</ele>
        <time>2011-11-03T13:54:26.603Z</time>
      </trkpt>
      <trkpt lat="47.39831" lon="-0.27925">
        <ele>-26.392841</ele>
        <time>2011-11-03T13:54:29.605Z</time>
      </trkpt>
      <trkpt lat="47.39812" lon="-0.27898">
        <ele>-26.702213</ele>
        <time>2011-11-03T13:54:32.601Z</time>
      </trkpt>
      <trkpt lat="47.39792" lon="-0.27871">
        <ele>-26.92178</ele>
        <time>2011-11-03T13:54:35.615Z</time>
      </trkpt>
      <trkpt lat="47.39773" lon="-0.27843">
        <ele>-27.125515</ele>
        <time>2011-11-03T13:54:38.599Z</time>
      </trkpt>
      <trkpt lat="47.39755" lon="-0.27815">
        <ele>-27.323261</ele>
        <time>2011-11-03T13:54:41.594Z</time>
      </trkpt>
      <trkpt lat="47.39738" lon="-0.27787">
        <ele>-27.494694</ele>
        <time>2011-11-03T13:54:44.610Z</time>
      </trkpt>
      <trkpt lat="47.3972" lon="-0.27759">
        <ele>-27.550831</ele>
        <time>2011-11-03T13:54:47.614Z</time>
      </trkpt>
      <trkpt lat="47.39703" lon="-0.27732">
        <ele>-27.349323</ele>
        <time>2011-11-03T13:54:50.606Z</time>
      </trkpt>
      <trkpt lat="47.39684" lon="-0.27706">
        <ele>-27.033699</ele>
        <time>2011-11-03T13:54:53.589Z</time>
      </trkpt>
      <trkpt lat="47.39664" lon="-0.2768">
        <ele>-26.867538</ele>
        <time>2011-11-03T13:54:56.656Z</time>
      </trkpt>
      <trkpt lat="47.39645" lon="-0.27653">
        <ele>-26.738247</ele>
        <time>2011-11-03T13:54:59.601Z</time>
      </trkpt>
      <trkpt lat="47.39627" lon="-0.27625">
        <ele>-26.647488</ele>
        <time>2011-11-03T13:55:02.605Z</time>
      </trkpt>
      <trkpt lat="47.39607" lon="-0.27602">
        <ele>-26.545444</ele>
        <time>2011-11-03T13:55:05.610Z</time>
      </trkpt>
      <trkpt lat="47.39588" lon="-0.27574">
        <ele>-26.37772</ele>
        <time>2011-11-03T13:55:08.605Z</time>
      </trkpt>
      <trkpt lat="47.39577" lon="-0.27552">
        <ele>-26.282764</ele>
        <time>2011-11-03T13:55:10.636Z</time>
      </trkpt>
      <trkpt lat="47.39564" lon="-0.27518">
        <ele>-26.248394</ele>
        <time>2011-11-03T13:55:13.603Z</time>
      </trkpt>
      <trkpt lat="47.39551" lon="-0.27485">
        <ele>-26.27087</ele>
        <time>2011-11-03T13:55:16.597Z</time>
      </trkpt>
      <trkpt lat="47.39534" lon="-0.27456">
        <ele>-26.37344</ele>
        <time>2011-11-03T13:55:19.622Z</time>
      </trkpt>
      <trkpt lat="47.39511" lon="-0.27441">
        <ele>-26.554714</ele>
        <time>2011-11-03T13:55:22.604Z</time>
      </trkpt>
      <trkpt lat="47.39486" lon="-0.27431">
        <ele>-26.820927</ele>
        <time>2011-11-03T13:55:25.613Z</time>
      </trkpt>
      <trkpt lat="47.3946" lon="-0.27423">
        <ele>-27.119709</ele>
        <time>2011-11-03T13:55:28.610Z</time>
      </trkpt>
      <trkpt lat="47.39434" lon="-0.27413">
        <ele>-27.26096</ele>
        <time>2011-11-03T13:55:31.617Z</time>
      </trkpt>
      <trkpt lat="47.39409" lon="-0.27402">
        <ele>-27.19656</ele>
        <time>2011-11-03T13:55:34.605Z</time>
      </trkpt>
      <trkpt lat="47.39386" lon="-0.27388">
        <ele>-27.052422</ele>
        <time>2011-11-03T13:55:37.623Z</time>
      </trkpt>
      <trkpt lat="47.39364" lon="-0.27373">
        <ele>-26.944012</ele>
        <time>2011-11-03T13:55:40.594Z</time>
      </trkpt>
      <trkpt lat="47.39341" lon="-0.2736">
        <ele>-26.939411</ele>
        <time>2011-11-03T13:55:43.602Z</time>
      </trkpt>
      <trkpt lat="47.39318" lon="-0.27349">
        <ele>-26.951118</ele>
        <time>2011-11-03T13:55:46.598Z</time>
      </trkpt>
      <trkpt lat="47.39294" lon="-0.27344">
        <ele>-26.89259</ele>
        <time>2011-11-03T13:55:49.618Z</time>
      </trkpt>
      <trkpt lat="47.3927" lon="-0.27341">
        <ele>-26.764542</ele>
        <time>2011-11-03T13:55:52.616Z</time>
      </trkpt>
      <trkpt lat="47.39245" lon="-0.27339">
        <ele>-26.521976</ele>
        <time>2011-11-03T13:55:55.617Z</time>
      </trkpt>
      <trkpt lat="47.3922" lon="-0.27332">
        <ele>-26.195541</ele>
        <time>2011-11-03T13:55:58.608Z</time>
      </trkpt>
      <trkpt lat="47.39197" lon="-0.27317">
        <ele>-25.753685</ele>
        <time>2011-11-03T13:56:01.599Z</time>
      </trkpt>
      <trkpt lat="47.39176" lon="-0.27301">
        <ele>-25.577515</ele>
        <time>2011-11-03T13:56:04.616Z</time>
      </trkpt>
      <trkpt lat="47.39154" lon="-0.27287">
        <ele>-25.533775</ele>
        <time>2011-11-03T13:56:07.605Z</time>
      </trkpt>
      <trkpt lat="47.39131" lon="-0.27275">
        <ele>-25.477673</ele>
        <time>2011-11-03T13:56:10.624Z</time>
      </trkpt>
      <trkpt lat="47.39107" lon="-0.27261">
        <ele>-25.167522</ele>
        <time>2011-11-03T13:56:13.608Z</time>
      </trkpt>
      <trkpt lat="47.39082" lon="-0.27248">
        <ele>-24.891861</ele>
        <time>2011-11-03T13:56:16.600Z</time>
      </trkpt>
      <trkpt lat="47.39058" lon="-0.27234">
        <ele>-24.751896</ele>
        <time>2011-11-03T13:56:19.597Z</time>
      </trkpt>
      <trkpt lat="47.39033" lon="-0.27219">
        <ele>-24.690044</ele>
        <time>2011-11-03T13:56:22.604Z</time>
      </trkpt>
      <trkpt lat="47.39008" lon="-0.27206">
        <ele>-24.630768</ele>
        <time>2011-11-03T13:56:25.609Z</time>
      </trkpt>
      <trkpt lat="47.38984" lon="-0.27195">
        <ele>-24.537724</ele>
        <time>2011-11-03T13:56:28.613Z</time>
      </trkpt>
      <trkpt lat="47.38959" lon="-0.27186">
        <ele>-24.26115</ele>
        <time>2011-11-03T13:56:31.598Z</time>
      </trkpt>
      <trkpt lat="47.38934" lon="-0.27178">
        <ele>-24.050293</ele>
        <time>2011-11-03T13:56:34.615Z</time>
      </trkpt>
      <trkpt lat="47.38908" lon="-0.27168">
        <ele>-24.089535</ele>
        <time>2011-11-03T13:56:37.612Z</time>
      </trkpt>
      <trkpt lat="47.38884" lon="-0.27157">
        <ele>-24.168839</ele>
        <time>2011-11-03T13:56:40.610Z</time>
      </trkpt>
      <trkpt lat="47.38863" lon="-0.27141">
        <ele>-24.346363</ele>
        <time>2011-11-03T13:56:43.609Z</time>
      </trkpt>
      <trkpt lat="47.38842" lon="-0.27122">
        <ele>-24.543293</ele>
        <time>2011-11-03T13:56:46.609Z</time>
      </trkpt>
      <trkpt lat="47.38821" lon="-0.27103">
        <ele>-24.855885</ele>
        <time>2011-11-03T13:56:49.597Z</time>
      </trkpt>
      <trkpt lat="47.388" lon="-0.27083">
        <ele>-25.195305</ele>
        <time>2011-11-03T13:56:52.609Z</time>
      </trkpt>
      <trkpt lat="47.38779" lon="-0.27062">
        <ele>-25.390499</ele>
        <time>2011-11-03T13:56:55.610Z</time>
      </trkpt>
      <trkpt lat="47.38757" lon="-0.27041">
        <ele>-25.468609</ele>
        <time>2011-11-03T13:56:58.587Z</time>
      </trkpt>
      <trkpt lat="47.38735" lon="-0.27022">
        <ele>-25.326881</ele>
        <time>2011-11-03T13:57:01.595Z</time>
      </trkpt>
      <trkpt lat="47.38715" lon="-0.27003">
        <ele>-24.889656</ele>
        <time>2011-11-03T13:57:04.659Z</time>
      </trkpt>
      <trkpt lat="47.38694" lon="-0.26982">
        <ele>-24.260693</ele>
        <time>2011-11-03T13:57:07.592Z</time>
      </trkpt>
      <trkpt lat="47.38673" lon="-0.26961">
        <ele>-24.325054</ele>
        <time>2011-11-03T13:57:10.590Z</time>
      </trkpt>
      <trkpt lat="47.38652" lon="-0.26942">
        <ele>-24.103352</ele>
        <time>2011-11-03T13:57:13.586Z</time>
      </trkpt>
      <trkpt lat="47.38631" lon="-0.26923">
        <ele>-23.758667</ele>
        <time>2011-11-03T13:57:16.580Z</time>
      </trkpt>
      <trkpt lat="47.38608" lon="-0.26904">
        <ele>-23.596233</ele>
        <time>2011-11-03T13:57:19.598Z</time>
      </trkpt>
      <trkpt lat="47.38586" lon="-0.26886">
        <ele>-23.871853</ele>
        <time>2011-11-03T13:57:22.585Z</time>
      </trkpt>
      <trkpt lat="47.38563" lon="-0.26869">
        <ele>-24.038914</ele>
        <time>2011-11-03T13:57:25.586Z</time>
      </trkpt>
      <trkpt lat="47.38541" lon="-0.26852">
        <ele>-24.393269</ele>
        <time>2011-11-03T13:57:28.605Z</time>
      </trkpt>
      <trkpt lat="47.38519" lon="-0.26833">
        <ele>-24.912083</ele>
        <time>2011-11-03T13:57:31.586Z</time>
      </trkpt>
      <trkpt lat="47.38497" lon="-0.26812">
        <ele>-24.639736</ele>
        <time>2011-11-03T13:57:34.600Z</time>
      </trkpt>
      <trkpt lat="47.38476" lon="-0.26791">
        <ele>-24.782688</ele>
        <time>2011-11-03T13:57:37.600Z</time>
      </trkpt>
      <trkpt lat="47.38455" lon="-0.26768">
        <ele>-25.258656</ele>
        <time>2011-11-03T13:57:40.590Z</time>
      </trkpt>
      <trkpt lat="47.38435" lon="-0.26745">
        <ele>-25.320171</ele>
        <time>2011-11-03T13:57:43.611Z</time>
      </trkpt>
      <trkpt lat="47.38416" lon="-0.2672">
        <ele>-24.907967</ele>
        <time>2011-11-03T13:57:46.587Z</time>
      </trkpt>
      <trkpt lat="47.38397" lon="-0.26696">
        <ele>-24.117168</ele>
        <time>2011-11-03T13:57:49.599Z</time>
      </trkpt>
      <trkpt lat="47.38376" lon="-0.26671">
        <ele>-23.906765</ele>
        <time>2011-11-03T13:57:52.592Z</time>
      </trkpt>
      <trkpt lat="47.38362" lon="-0.26653">
        <ele>-23.821972</ele>
        <time>2011-11-03T13:57:54.592Z</time>
      </trkpt>
      <trkpt lat="47.38342" lon="-0.26629">
        <ele>-24.163074</ele>
        <time>2011-11-03T13:57:57.601Z</time>
      </trkpt>
      <trkpt lat="47.38323" lon="-0.26605">
        <ele>-25.526661</ele>
        <time>2011-11-03T13:58:00.596Z</time>
      </trkpt>
      <trkpt lat="47.38304" lon="-0.26581">
        <ele>-26.375881</ele>
        <time>2011-11-03T13:58:03.677Z</time>
      </trkpt>
      <trkpt lat="47.38284" lon="-0.2656">
        <ele>-26.805786</ele>
        <time>2011-11-03T13:58:06.599Z</time>
      </trkpt>
      <trkpt lat="47.38263" lon="-0.26543">
        <ele>-27.086483</ele>
        <time>2011-11-03T13:58:09.612Z</time>
      </trkpt>
      <trkpt lat="47.38241" lon="-0.26527">
        <ele>-27.571651</ele>
        <time>2011-11-03T13:58:12.603Z</time>
      </trkpt>
      <trkpt lat="47.38218" lon="-0.26512">
        <ele>-28.13401</ele>
        <time>2011-11-03T13:58:15.611Z</time>
      </trkpt>
      <trkpt lat="47.38195" lon="-0.26498">
        <ele>-28.347473</ele>
        <time>2011-11-03T13:58:18.588Z</time>
      </trkpt>
      <trkpt lat="47.38172" lon="-0.26485">
        <ele>-28.023396</ele>
        <time>2011-11-03T13:58:21.610Z</time>
      </trkpt>
      <trkpt lat="47.38149" lon="-0.26474">
        <ele>-27.59391</ele>
        <time>2011-11-03T13:58:24.597Z</time>
      </trkpt>
      <trkpt lat="47.38127" lon="-0.26462">
        <ele>-27.595295</ele>
        <time>2011-11-03T13:58:27.608Z</time>
      </trkpt>
      <trkpt lat="47.38104" lon="-0.26447">
        <ele>-27.720547</ele>
        <time>2011-11-03T13:58:30.596Z</time>
      </trkpt>
      <trkpt lat="47.38082" lon="-0.26431">
        <ele>-27.59692</ele>
        <time>2011-11-03T13:58:33.607Z</time>
      </trkpt>
      <trkpt lat="47.38061" lon="-0.26415">
        <ele>-27.016609</ele>
        <time>2011-11-03T13:58:36.603Z</time>
      </trkpt>
      <trkpt lat="47.38039" lon="-0.26397">
        <ele>-26.251522</ele>
        <time>2011-11-03T13:58:39.595Z</time>
      </trkpt>
      <trkpt lat="47.38017" lon="-0.26378">
        <ele>-25.783993</ele>
        <time>2011-11-03T13:58:42.685Z</time>
      </trkpt>
      <trkpt lat="47.37996" lon="-0.2636">
        <ele>-25.832272</ele>
        <time>2011-11-03T13:58:45.601Z</time>
      </trkpt>
      <trkpt lat="47.37975" lon="-0.2634">
        <ele>-25.67149</ele>
        <time>2011-11-03T13:58:48.592Z</time>
      </trkpt>
      <trkpt lat="47.37957" lon="-0.26323">
        <ele>-25.83659</ele>
        <time>2011-11-03T13:58:51.605Z</time>
      </trkpt>
      <trkpt lat="47.3794" lon="-0.26308">
        <ele>-25.839054</ele>
        <time>2011-11-03T13:58:54.591Z</time>
      </trkpt>
      <trkpt lat="47.37924" lon="-0.26294">
        <ele>-26.026047</ele>
        <time>2011-11-03T13:58:57.596Z</time>
      </trkpt>
      <trkpt lat="47.37905" lon="-0.26274">
        <ele>-27.11034</ele>
        <time>2011-11-03T13:59:01.610Z</time>
      </trkpt>
      <trkpt lat="47.37886" lon="-0.26255">
        <ele>-27.719059</ele>
        <time>2011-11-03T13:59:05.686Z</time>
      </trkpt>
      <trkpt lat="47.37867" lon="-0.26236">
        <ele>-28.66832</ele>
        <time>2011-11-03T13:59:09.616Z</time>
      </trkpt>
      <trkpt lat="47.37847" lon="-0.26218">
        <ele>-29.144817</ele>
        <time>2011-11-03T13:59:13.600Z</time>
      </trkpt>
      <trkpt lat="47.37827" lon="-0.262">
        <ele>-30.475178</ele>
        <time>2011-11-03T13:59:17.607Z</time>
      </trkpt>
      <trkpt lat="47.37807" lon="-0.26181">
        <ele>-31.441532</ele>
        <time>2011-11-03T13:59:21.613Z</time>
      </trkpt>
      <trkpt lat="47.37787" lon="-0.26163">
        <ele>-32.253235</ele>
        <time>2011-11-03T13:59:25.611Z</time>
      </trkpt>
      <trkpt lat="47.37768" lon="-0.26145">
        <ele>-32.71122</ele>
        <time>2011-11-03T13:59:29.612Z</time>
      </trkpt>
      <trkpt lat="47.37748" lon="-0.26125">
        <ele>-32.601902</ele>
        <time>2011-11-03T13:59:33.609Z</time>
      </trkpt>
      <trkpt lat="47.37732" lon="-0.26109">
        <ele>-32.405369</ele>
        <time>2011-11-03T13:59:36.610Z</time>
      </trkpt>
      <trkpt lat="47.37715" lon="-0.26092">
        <ele>-31.755856</ele>
        <time>2011-11-03T13:59:39.625Z</time>
      </trkpt>
      <trkpt lat="47.37698" lon="-0.26074">
        <ele>-31.063831</ele>
        <time>2011-11-03T13:59:42.612Z</time>
      </trkpt>
      <trkpt lat="47.3768" lon="-0.26055">
        <ele>-30.68795</ele>
        <time>2011-11-03T13:59:45.609Z</time>
      </trkpt>
      <trkpt lat="47.37662" lon="-0.26038">
        <ele>-30.509369</ele>
        <time>2011-11-03T13:59:48.601Z</time>
      </trkpt>
      <trkpt lat="47.37645" lon="-0.26021">
        <ele>-30.499443</ele>
        <time>2011-11-03T13:59:51.597Z</time>
      </trkpt>
      <trkpt lat="47.37627" lon="-0.26004">
        <ele>-30.4231</ele>
        <time>2011-11-03T13:59:54.648Z</time>
      </trkpt>
      <trkpt lat="47.37611" lon="-0.25987">
        <ele>-30.19788</ele>
        <time>2011-11-03T13:59:57.622Z</time>
      </trkpt>
      <trkpt lat="47.37595" lon="-0.2597">
        <ele>-29.443691</ele>
        <time>2011-11-03T14:00:00.611Z</time>
      </trkpt>
      <trkpt lat="47.37578" lon="-0.25951">
        <ele>-28.638077</ele>
        <time>2011-11-03T14:00:03.618Z</time>
      </trkpt>
      <trkpt lat="47.3756" lon="-0.25932">
        <ele>-28.070351</ele>
        <time>2011-11-03T14:00:06.671Z</time>
      </trkpt>
      <trkpt lat="47.37542" lon="-0.25913">
        <ele>-27.704304</ele>
        <time>2011-11-03T14:00:09.607Z</time>
      </trkpt>
      <trkpt lat="47.37524" lon="-0.25895">
        <ele>-27.426647</ele>
        <time>2011-11-03T14:00:12.615Z</time>
      </trkpt>
      <trkpt lat="47.37505" lon="-0.25879">
        <ele>-27.32198</ele>
        <time>2011-11-03T14:00:15.607Z</time>
      </trkpt>
      <trkpt lat="47.37487" lon="-0.25864">
        <ele>-27.252911</ele>
        <time>2011-11-03T14:00:18.616Z</time>
      </trkpt>
      <trkpt lat="47.37469" lon="-0.25847">
        <ele>-27.194214</ele>
        <time>2011-11-03T14:00:21.604Z</time>
      </trkpt>
      <trkpt lat="47.37451" lon="-0.25831">
        <ele>-27.055401</ele>
        <time>2011-11-03T14:00:24.618Z</time>
      </trkpt>
      <trkpt lat="47.37432" lon="-0.25815">
        <ele>-26.890354</ele>
        <time>2011-11-03T14:00:27.695Z</time>
      </trkpt>
      <trkpt lat="47.37414" lon="-0.25798">
        <ele>-26.744301</ele>
        <time>2011-11-03T14:00:30.613Z</time>
      </trkpt>
      <trkpt lat="47.37396" lon="-0.25781">
        <ele>-26.507435</ele>
        <time>2011-11-03T14:00:33.599Z</time>
      </trkpt>
      <trkpt lat="47.37378" lon="-0.25764">
        <ele>-26.263393</ele>
        <time>2011-11-03T14:00:36.613Z</time>
      </trkpt>
      <trkpt lat="47.3736" lon="-0.25747">
        <ele>-26.08725</ele>
        <time>2011-11-03T14:00:39.613Z</time>
      </trkpt>
      <trkpt lat="47.37343" lon="-0.2573">
        <ele>-26.077755</ele>
        <time>2011-11-03T14:00:42.613Z</time>
      </trkpt>
      <trkpt lat="47.37325" lon="-0.25715">
        <ele>-26.051937</ele>
        <time>2011-11-03T14:00:45.607Z</time>
      </trkpt>
      <trkpt lat="47.37307" lon="-0.25699">
        <ele>-25.878227</ele>
        <time>2011-11-03T14:00:48.608Z</time>
      </trkpt>
      <trkpt lat="47.37288" lon="-0.25683">
        <ele>-25.648434</ele>
        <time>2011-11-03T14:00:51.612Z</time>
      </trkpt>
      <trkpt lat="47.37269" lon="-0.25667">
        <ele>-25.533211</ele>
        <time>2011-11-03T14:00:54.601Z</time>
      </trkpt>
      <trkpt lat="47.3725" lon="-0.25652">
        <ele>-25.628159</ele>
        <time>2011-11-03T14:00:57.607Z</time>
      </trkpt>
      <trkpt lat="47.37231" lon="-0.25637">
        <ele>-25.607235</ele>
        <time>2011-11-03T14:01:00.612Z</time>
      </trkpt>
      <trkpt lat="47.37213" lon="-0.25622">
        <ele>-25.551167</ele>
        <time>2011-11-03T14:01:03.618Z</time>
      </trkpt>
      <trkpt lat="47.37194" lon="-0.25605">
        <ele>-25.576809</ele>
        <time>2011-11-03T14:01:06.608Z</time>
      </trkpt>
      <trkpt lat="47.37176" lon="-0.25588">
        <ele>-25.461716</ele>
        <time>2011-11-03T14:01:09.604Z</time>
      </trkpt>
      <trkpt lat="47.37158" lon="-0.2557">
        <ele>-25.303551</ele>
        <time>2011-11-03T14:01:12.618Z</time>
      </trkpt>
      <trkpt lat="47.37142" lon="-0.25552">
        <ele>-25.126369</ele>
        <time>2011-11-03T14:01:15.603Z</time>
      </trkpt>
      <trkpt lat="47.37124" lon="-0.25533">
        <ele>-24.988682</ele>
        <time>2011-11-03T14:01:18.621Z</time>
      </trkpt>
      <trkpt lat="47.37107" lon="-0.25517">
        <ele>-24.880737</ele>
        <time>2011-11-03T14:01:21.606Z</time>
      </trkpt>
      <trkpt lat="47.37088" lon="-0.25503">
        <ele>-24.849915</ele>
        <time>2011-11-03T14:01:24.610Z</time>
      </trkpt>
      <trkpt lat="47.37069" lon="-0.25489">
        <ele>-24.729053</ele>
        <time>2011-11-03T14:01:27.610Z</time>
      </trkpt>
      <trkpt lat="47.3705" lon="-0.25478">
        <ele>-24.631516</ele>
        <time>2011-11-03T14:01:30.617Z</time>
      </trkpt>
      <trkpt lat="47.37031" lon="-0.25467">
        <ele>-24.536911</ele>
        <time>2011-11-03T14:01:33.617Z</time>
      </trkpt>
      <trkpt lat="47.37011" lon="-0.25455">
        <ele>-24.422352</ele>
        <time>2011-11-03T14:01:36.621Z</time>
      </trkpt>
      <trkpt lat="47.36991" lon="-0.25443">
        <ele>-24.308506</ele>
        <time>2011-11-03T14:01:39.619Z</time>
      </trkpt>
      <trkpt lat="47.36971" lon="-0.25431">
        <ele>-24.225956</ele>
        <time>2011-11-03T14:01:42.599Z</time>
      </trkpt>
      <trkpt lat="47.36951" lon="-0.25419">
        <ele>-24.305954</ele>
        <time>2011-11-03T14:01:45.593Z</time>
      </trkpt>
      <trkpt lat="47.36932" lon="-0.25406">
        <ele>-24.404873</ele>
        <time>2011-11-03T14:01:48.609Z</time>
      </trkpt>
      <trkpt lat="47.36912" lon="-0.25394">
        <ele>-24.453564</ele>
        <time>2011-11-03T14:01:51.595Z</time>
      </trkpt>
      <trkpt lat="47.36893" lon="-0.25382">
        <ele>-24.380379</ele>
        <time>2011-11-03T14:01:54.825Z</time>
      </trkpt>
      <trkpt lat="47.36873" lon="-0.25369">
        <ele>-24.162991</ele>
        <time>2011-11-03T14:01:57.607Z</time>
      </trkpt>
      <trkpt lat="47.36854" lon="-0.25355">
        <ele>-23.731297</ele>
        <time>2011-11-03T14:02:00.605Z</time>
      </trkpt>
      <trkpt lat="47.36836" lon="-0.2534">
        <ele>-23.119236</ele>
        <time>2011-11-03T14:02:03.614Z</time>
      </trkpt>
      <trkpt lat="47.36817" lon="-0.25325">
        <ele>-22.480705</ele>
        <time>2011-11-03T14:02:06.614Z</time>
      </trkpt>
      <trkpt lat="47.368" lon="-0.25309">
        <ele>-21.979198</ele>
        <time>2011-11-03T14:02:09.624Z</time>
      </trkpt>
      <trkpt lat="47.36782" lon="-0.25297">
        <ele>-21.793846</ele>
        <time>2011-11-03T14:02:12.618Z</time>
      </trkpt>
      <trkpt lat="47.36763" lon="-0.25285">
        <ele>-21.79834</ele>
        <time>2011-11-03T14:02:15.612Z</time>
      </trkpt>
      <trkpt lat="47.36745" lon="-0.25274">
        <ele>-21.843098</ele>
        <time>2011-11-03T14:02:18.615Z</time>
      </trkpt>
      <trkpt lat="47.36725" lon="-0.25261">
        <ele>-21.768612</ele>
        <time>2011-11-03T14:02:21.613Z</time>
      </trkpt>
      <trkpt lat="47.36705" lon="-0.25248">
        <ele>-21.452969</ele>
        <time>2011-11-03T14:02:24.619Z</time>
      </trkpt>
      <trkpt lat="47.36683" lon="-0.25237">
        <ele>-21.043522</ele>
        <time>2011-11-03T14:02:27.619Z</time>
      </trkpt>
      <trkpt lat="47.36662" lon="-0.25228">
        <ele>-20.716339</ele>
        <time>2011-11-03T14:02:30.613Z</time>
      </trkpt>
      <trkpt lat="47.3664" lon="-0.25221">
        <ele>-20.391972</ele>
        <time>2011-11-03T14:02:33.620Z</time>
      </trkpt>
      <trkpt lat="47.36618" lon="-0.25215">
        <ele>-20.173126</ele>
        <time>2011-11-03T14:02:36.600Z</time>
      </trkpt>
      <trkpt lat="47.36597" lon="-0.25206">
        <ele>-20.198212</ele>
        <time>2011-11-03T14:02:39.619Z</time>
      </trkpt>
      <trkpt lat="47.36577" lon="-0.25191">
        <ele>-20.351303</ele>
        <time>2011-11-03T14:02:42.600Z</time>
      </trkpt>
      <trkpt lat="47.36559" lon="-0.25173">
        <ele>-20.373062</ele>
        <time>2011-11-03T14:02:45.614Z</time>
      </trkpt>
      <trkpt lat="47.36542" lon="-0.25154">
        <ele>-20.413692</ele>
        <time>2011-11-03T14:02:48.647Z</time>
      </trkpt>
      <trkpt lat="47.36525" lon="-0.25135">
        <ele>-20.271294</ele>
        <time>2011-11-03T14:02:51.609Z</time>
      </trkpt>
      <trkpt lat="47.36507" lon="-0.25118">
        <ele>-19.857044</ele>
        <time>2011-11-03T14:02:54.609Z</time>
      </trkpt>
      <trkpt lat="47.36489" lon="-0.251">
        <ele>-19.488743</ele>
        <time>2011-11-03T14:02:57.618Z</time>
      </trkpt>
      <trkpt lat="47.36471" lon="-0.25082">
        <ele>-19.286755</ele>
        <time>2011-11-03T14:03:00.618Z</time>
      </trkpt>
      <trkpt lat="47.36454" lon="-0.25062">
        <ele>-19.217384</ele>
        <time>2011-11-03T14:03:03.623Z</time>
      </trkpt>
      <trkpt lat="47.36437" lon="-0.25043">
        <ele>-19.21357</ele>
        <time>2011-11-03T14:03:06.604Z</time>
      </trkpt>
      <trkpt lat="47.36419" lon="-0.25025">
        <ele>-19.321156</ele>
        <time>2011-11-03T14:03:09.622Z</time>
      </trkpt>
      <trkpt lat="47.36401" lon="-0.25007">
        <ele>-19.159142</ele>
        <time>2011-11-03T14:03:12.595Z</time>
      </trkpt>
      <trkpt lat="47.36383" lon="-0.2499">
        <ele>-18.931454</ele>
        <time>2011-11-03T14:03:15.605Z</time>
      </trkpt>
      <trkpt lat="47.36366" lon="-0.24973">
        <ele>-18.710518</ele>
        <time>2011-11-03T14:03:18.607Z</time>
      </trkpt>
      <trkpt lat="47.36348" lon="-0.24956">
        <ele>-18.487583</ele>
        <time>2011-11-03T14:03:21.660Z</time>
      </trkpt>
      <trkpt lat="47.3633" lon="-0.24939">
        <ele>-18.347473</ele>
        <time>2011-11-03T14:03:24.603Z</time>
      </trkpt>
      <trkpt lat="47.36313" lon="-0.24921">
        <ele>-18.361206</ele>
        <time>2011-11-03T14:03:27.601Z</time>
      </trkpt>
      <trkpt lat="47.36295" lon="-0.24902">
        <ele>-18.698013</ele>
        <time>2011-11-03T14:03:30.595Z</time>
      </trkpt>
      <trkpt lat="47.36277" lon="-0.24882">
        <ele>-19.024948</ele>
        <time>2011-11-03T14:03:33.595Z</time>
      </trkpt>
      <trkpt lat="47.3626" lon="-0.24863">
        <ele>-19.453812</ele>
        <time>2011-11-03T14:03:36.595Z</time>
      </trkpt>
      <trkpt lat="47.36242" lon="-0.24844">
        <ele>-19.877689</ele>
        <time>2011-11-03T14:03:39.597Z</time>
      </trkpt>
      <trkpt lat="47.36225" lon="-0.24824">
        <ele>-20.166416</ele>
        <time>2011-11-03T14:03:42.601Z</time>
      </trkpt>
      <trkpt lat="47.36207" lon="-0.24805">
        <ele>-20.289112</ele>
        <time>2011-11-03T14:03:45.600Z</time>
      </trkpt>
      <trkpt lat="47.3619" lon="-0.24787">
        <ele>-20.278706</ele>
        <time>2011-11-03T14:03:48.606Z</time>
      </trkpt>
      <trkpt lat="47.36173" lon="-0.24769">
        <ele>-20.208973</ele>
        <time>2011-11-03T14:03:51.619Z</time>
      </trkpt>
      <trkpt lat="47.36155" lon="-0.24752">
        <ele>-20.10461</ele>
        <time>2011-11-03T14:03:54.608Z</time>
      </trkpt>
      <trkpt lat="47.36136" lon="-0.24734">
        <ele>-20.105839</ele>
        <time>2011-11-03T14:03:57.606Z</time>
      </trkpt>
      <trkpt lat="47.36118" lon="-0.24714">
        <ele>-20.097492</ele>
        <time>2011-11-03T14:04:00.689Z</time>
      </trkpt>
      <trkpt lat="47.361" lon="-0.24695">
        <ele>-20.035351</ele>
        <time>2011-11-03T14:04:03.617Z</time>
      </trkpt>
      <trkpt lat="47.36082" lon="-0.24676">
        <ele>-20.170948</ele>
        <time>2011-11-03T14:04:06.611Z</time>
      </trkpt>
      <trkpt lat="47.36065" lon="-0.24657">
        <ele>-20.216091</ele>
        <time>2011-11-03T14:04:09.617Z</time>
      </trkpt>
      <trkpt lat="47.36048" lon="-0.24638">
        <ele>-20.183624</ele>
        <time>2011-11-03T14:04:12.613Z</time>
      </trkpt>
      <trkpt lat="47.36031" lon="-0.2462">
        <ele>-20.108601</ele>
        <time>2011-11-03T14:04:15.611Z</time>
      </trkpt>
      <trkpt lat="47.36014" lon="-0.24603">
        <ele>-20.048592</ele>
        <time>2011-11-03T14:04:18.613Z</time>
      </trkpt>
      <trkpt lat="47.35997" lon="-0.24586">
        <ele>-20.005253</ele>
        <time>2011-11-03T14:04:21.605Z</time>
      </trkpt>
      <trkpt lat="47.3598" lon="-0.24567">
        <ele>-20.041039</ele>
        <time>2011-11-03T14:04:24.616Z</time>
      </trkpt>
      <trkpt lat="47.35963" lon="-0.24548">
        <ele>-20.175621</ele>
        <time>2011-11-03T14:04:27.619Z</time>
      </trkpt>
      <trkpt lat="47.35947" lon="-0.24529">
        <ele>-20.301872</ele>
        <time>2011-11-03T14:04:30.611Z</time>
      </trkpt>
      <trkpt lat="47.35931" lon="-0.24511">
        <ele>-20.071892</ele>
        <time>2011-11-03T14:04:33.610Z</time>
      </trkpt>
      <trkpt lat="47.35915" lon="-0.24492">
        <ele>-19.625843</ele>
        <time>2011-11-03T14:04:36.611Z</time>
      </trkpt>
      <trkpt lat="47.35899" lon="-0.24472">
        <ele>-19.161819</ele>
        <time>2011-11-03T14:04:39.614Z</time>
      </trkpt>
      <trkpt lat="47.35883" lon="-0.24452">
        <ele>-18.861908</ele>
        <time>2011-11-03T14:04:42.606Z</time>
      </trkpt>
      <trkpt lat="47.35869" lon="-0.24434">
        <ele>-18.659863</ele>
        <time>2011-11-03T14:04:45.616Z</time>
      </trkpt>
      <trkpt lat="47.35854" lon="-0.24417">
        <ele>-18.163082</ele>
        <time>2011-11-03T14:04:48.606Z</time>
      </trkpt>
      <trkpt lat="47.3584" lon="-0.24401">
        <ele>-17.698795</ele>
        <time>2011-11-03T14:04:51.614Z</time>
      </trkpt>
      <trkpt lat="47.35826" lon="-0.24385">
        <ele>-17.181835</ele>
        <time>2011-11-03T14:04:54.613Z</time>
      </trkpt>
      <trkpt lat="47.35811" lon="-0.24366">
        <ele>-16.924866</ele>
        <time>2011-11-03T14:04:57.613Z</time>
      </trkpt>
      <trkpt lat="47.35796" lon="-0.24345">
        <ele>-17.199223</ele>
        <time>2011-11-03T14:05:00.611Z</time>
      </trkpt>
      <trkpt lat="47.35779" lon="-0.24322">
        <ele>-17.710342</ele>
        <time>2011-11-03T14:05:03.614Z</time>
      </trkpt>
      <trkpt lat="47.35763" lon="-0.24299">
        <ele>-18.140068</ele>
        <time>2011-11-03T14:05:06.611Z</time>
      </trkpt>
      <trkpt lat="47.35747" lon="-0.24275">
        <ele>-18.484077</ele>
        <time>2011-11-03T14:05:09.614Z</time>
      </trkpt>
      <trkpt lat="47.35731" lon="-0.2425">
        <ele>-18.473923</ele>
        <time>2011-11-03T14:05:12.614Z</time>
      </trkpt>
      <trkpt lat="47.35715" lon="-0.24227">
        <ele>-18.119652</ele>
        <time>2011-11-03T14:05:15.613Z</time>
      </trkpt>
      <trkpt lat="47.35697" lon="-0.24207">
        <ele>-17.638374</ele>
        <time>2011-11-03T14:05:18.602Z</time>
      </trkpt>
      <trkpt lat="47.35679" lon="-0.24188">
        <ele>-17.391422</ele>
        <time>2011-11-03T14:05:21.607Z</time>
      </trkpt>
      <trkpt lat="47.35661" lon="-0.24168">
        <ele>-17.383308</ele>
        <time>2011-11-03T14:05:24.777Z</time>
      </trkpt>
      <trkpt lat="47.35644" lon="-0.24148">
        <ele>-17.483051</ele>
        <time>2011-11-03T14:05:27.614Z</time>
      </trkpt>
      <trkpt lat="47.35628" lon="-0.24128">
        <ele>-17.760551</ele>
        <time>2011-11-03T14:05:30.628Z</time>
      </trkpt>
      <trkpt lat="47.35611" lon="-0.24107">
        <ele>-18.102997</ele>
        <time>2011-11-03T14:05:33.613Z</time>
      </trkpt>
      <trkpt lat="47.35595" lon="-0.24085">
        <ele>-18.39637</ele>
        <time>2011-11-03T14:05:36.620Z</time>
      </trkpt>
      <trkpt lat="47.35579" lon="-0.24064">
        <ele>-18.61586</ele>
        <time>2011-11-03T14:05:39.607Z</time>
      </trkpt>
      <trkpt lat="47.35563" lon="-0.24043">
        <ele>-19.075394</ele>
        <time>2011-11-03T14:05:42.612Z</time>
      </trkpt>
      <trkpt lat="47.35546" lon="-0.24022">
        <ele>-19.618874</ele>
        <time>2011-11-03T14:05:45.619Z</time>
      </trkpt>
      <trkpt lat="47.35529" lon="-0.24">
        <ele>-20.166302</ele>
        <time>2011-11-03T14:05:48.607Z</time>
      </trkpt>
      <trkpt lat="47.35513" lon="-0.23979">
        <ele>-20.622749</ele>
        <time>2011-11-03T14:05:51.813Z</time>
      </trkpt>
      <trkpt lat="47.35497" lon="-0.23956">
        <ele>-20.899586</ele>
        <time>2011-11-03T14:05:54.613Z</time>
      </trkpt>
      <trkpt lat="47.35482" lon="-0.23933">
        <ele>-21.051182</ele>
        <time>2011-11-03T14:05:57.611Z</time>
      </trkpt>
      <trkpt lat="47.35468" lon="-0.23909">
        <ele>-21.281586</ele>
        <time>2011-11-03T14:06:00.616Z</time>
      </trkpt>
      <trkpt lat="47.35455" lon="-0.23883">
        <ele>-21.601463</ele>
        <time>2011-11-03T14:06:03.611Z</time>
      </trkpt>
      <trkpt lat="47.35443" lon="-0.23856">
        <ele>-21.912182</ele>
        <time>2011-11-03T14:06:06.622Z</time>
      </trkpt>
      <trkpt lat="47.35431" lon="-0.23829">
        <ele>-22.19389</ele>
        <time>2011-11-03T14:06:09.845Z</time>
      </trkpt>
      <trkpt lat="47.35418" lon="-0.23804">
        <ele>-22.43565</ele>
        <time>2011-11-03T14:06:12.617Z</time>
      </trkpt>
      <trkpt lat="47.35406" lon="-0.23778">
        <ele>-22.641651</ele>
        <time>2011-11-03T14:06:15.610Z</time>
      </trkpt>
      <trkpt lat="47.35393" lon="-0.23751">
        <ele>-22.861958</ele>
        <time>2011-11-03T14:06:18.618Z</time>
      </trkpt>
      <trkpt lat="47.35382" lon="-0.23722">
        <ele>-22.860485</ele>
        <time>2011-11-03T14:06:21.823Z</time>
      </trkpt>
      <trkpt lat="47.35371" lon="-0.23694">
        <ele>-22.941021</ele>
        <time>2011-11-03T14:06:24.639Z</time>
      </trkpt>
      <trkpt lat="47.3536" lon="-0.23666">
        <ele>-23.071514</ele>
        <time>2011-11-03T14:06:27.651Z</time>
      </trkpt>
      <trkpt lat="47.3535" lon="-0.23639">
        <ele>-23.080135</ele>
        <time>2011-11-03T14:06:30.622Z</time>
      </trkpt>
      <trkpt lat="47.3534" lon="-0.23612">
        <ele>-23.091927</ele>
        <time>2011-11-03T14:06:33.615Z</time>
      </trkpt>
      <trkpt lat="47.35331" lon="-0.23584">
        <ele>-23.125462</ele>
        <time>2011-11-03T14:06:36.620Z</time>
      </trkpt>
      <trkpt lat="47.35323" lon="-0.23557">
        <ele>-23.179195</ele>
        <time>2011-11-03T14:06:39.608Z</time>
      </trkpt>
      <trkpt lat="47.35315" lon="-0.2353">
        <ele>-23.270763</ele>
        <time>2011-11-03T14:06:42.647Z</time>
      </trkpt>
      <trkpt lat="47.35307" lon="-0.23503">
        <ele>-23.268116</ele>
        <time>2011-11-03T14:06:45.609Z</time>
      </trkpt>
      <trkpt lat="47.35299" lon="-0.23476">
        <ele>-23.166103</ele>
        <time>2011-11-03T14:06:48.617Z</time>
      </trkpt>
      <trkpt lat="47.3529" lon="-0.2345">
        <ele>-23.121307</ele>
        <time>2011-11-03T14:06:51.618Z</time>
      </trkpt>
      <trkpt lat="47.35281" lon="-0.23422">
        <ele>-23.120846</ele>
        <time>2011-11-03T14:06:54.618Z</time>
      </trkpt>
      <trkpt lat="47.35272" lon="-0.23396">
        <ele>-23.004604</ele>
        <time>2011-11-03T14:06:57.616Z</time>
      </trkpt>
      <trkpt lat="47.35262" lon="-0.23371">
        <ele>-22.905838</ele>
        <time>2011-11-03T14:07:00.619Z</time>
      </trkpt>
      <trkpt lat="47.35252" lon="-0.23345">
        <ele>-22.870136</ele>
        <time>2011-11-03T14:07:03.618Z</time>
      </trkpt>
      <trkpt lat="47.35242" lon="-0.23321">
        <ele>-22.851322</ele>
        <time>2011-11-03T14:07:06.605Z</time>
      </trkpt>
      <trkpt lat="47.35231" lon="-0.23297">
        <ele>-22.914501</ele>
        <time>2011-11-03T14:07:09.611Z</time>
      </trkpt>
      <trkpt lat="47.35219" lon="-0.23274">
        <ele>-23.012325</ele>
        <time>2011-11-03T14:07:12.603Z</time>
      </trkpt>
      <trkpt lat="47.35207" lon="-0.2325">
        <ele>-23.13493</ele>
        <time>2011-11-03T14:07:15.615Z</time>
      </trkpt>
      <trkpt lat="47.35194" lon="-0.23227">
        <ele>-23.130299</ele>
        <time>2011-11-03T14:07:18.661Z</time>
      </trkpt>
      <trkpt lat="47.3518" lon="-0.23202">
        <ele>-23.025345</ele>
        <time>2011-11-03T14:07:21.613Z</time>
      </trkpt>
      <trkpt lat="47.35169" lon="-0.23175">
        <ele>-22.965176</ele>
        <time>2011-11-03T14:07:24.612Z</time>
      </trkpt>
      <trkpt lat="47.35158" lon="-0.23148">
        <ele>-22.807903</ele>
        <time>2011-11-03T14:07:27.613Z</time>
      </trkpt>
      <trkpt lat="47.35149" lon="-0.23119">
        <ele>-22.665821</ele>
        <time>2011-11-03T14:07:30.611Z</time>
      </trkpt>
      <trkpt lat="47.35142" lon="-0.2309">
        <ele>-22.589115</ele>
        <time>2011-11-03T14:07:33.614Z</time>
      </trkpt>
      <trkpt lat="47.35135" lon="-0.23061">
        <ele>-22.54628</ele>
        <time>2011-11-03T14:07:36.611Z</time>
      </trkpt>
      <trkpt lat="47.35127" lon="-0.23032">
        <ele>-22.653561</ele>
        <time>2011-11-03T14:07:39.612Z</time>
      </trkpt>
      <trkpt lat="47.35119" lon="-0.23004">
        <ele>-22.911392</ele>
        <time>2011-11-03T14:07:42.612Z</time>
      </trkpt>
      <trkpt lat="47.35111" lon="-0.22975">
        <ele>-23.06852</ele>
        <time>2011-11-03T14:07:45.612Z</time>
      </trkpt>
      <trkpt lat="47.35105" lon="-0.22946">
        <ele>-23.057232</ele>
        <time>2011-11-03T14:07:48.615Z</time>
      </trkpt>
      <trkpt lat="47.35098" lon="-0.22917">
        <ele>-23.047035</ele>
        <time>2011-11-03T14:07:51.611Z</time>
      </trkpt>
      <trkpt lat="47.35089" lon="-0.22891">
        <ele>-23.057419</ele>
        <time>2011-11-03T14:07:54.627Z</time>
      </trkpt>
      <trkpt lat="47.35077" lon="-0.22867">
        <ele>-23.021278</ele>
        <time>2011-11-03T14:07:57.628Z</time>
      </trkpt>
      <trkpt lat="47.35066" lon="-0.22841">
        <ele>-23.007126</ele>
        <time>2011-11-03T14:08:00.617Z</time>
      </trkpt>
      <trkpt lat="47.35056" lon="-0.22818">
        <ele>-22.825134</ele>
        <time>2011-11-03T14:08:03.614Z</time>
      </trkpt>
      <trkpt lat="47.35044" lon="-0.22795">
        <ele>-22.688721</ele>
        <time>2011-11-03T14:08:06.622Z</time>
      </trkpt>
      <trkpt lat="47.35032" lon="-0.22772">
        <ele>-22.638504</ele>
        <time>2011-11-03T14:08:09.615Z</time>
      </trkpt>
      <trkpt lat="47.3502" lon="-0.22749">
        <ele>-22.510601</ele>
        <time>2011-11-03T14:08:12.612Z</time>
      </trkpt>
      <trkpt lat="47.35009" lon="-0.22727">
        <ele>-22.446045</ele>
        <time>2011-11-03T14:08:15.633Z</time>
      </trkpt>
      <trkpt lat="47.34997" lon="-0.22705">
        <ele>-22.362736</ele>
        <time>2011-11-03T14:08:18.608Z</time>
      </trkpt>
      <trkpt lat="47.34984" lon="-0.22682">
        <ele>-22.22303</ele>
        <time>2011-11-03T14:08:22.616Z</time>
      </trkpt>
      <trkpt lat="47.34963" lon="-0.22679">
        <ele>-22.092346</ele>
        <time>2011-11-03T14:08:27.621Z</time>
      </trkpt>
      <trkpt lat="47.34946" lon="-0.2269">
        <ele>-22.065395</ele>
        <time>2011-11-03T14:08:31.610Z</time>
      </trkpt>
      <trkpt lat="47.34925" lon="-0.22706">
        <ele>-21.96011</ele>
        <time>2011-11-03T14:08:35.608Z</time>
      </trkpt>
      <trkpt lat="47.34905" lon="-0.22723">
        <ele>-21.715958</ele>
        <time>2011-11-03T14:08:39.611Z</time>
      </trkpt>
      <trkpt lat="47.34888" lon="-0.22736">
        <ele>-21.23024</ele>
        <time>2011-11-03T14:08:42.622Z</time>
      </trkpt>
      <trkpt lat="47.34871" lon="-0.22748">
        <ele>-20.531704</ele>
        <time>2011-11-03T14:08:45.624Z</time>
      </trkpt>
      <trkpt lat="47.34853" lon="-0.22762">
        <ele>-19.817104</ele>
        <time>2011-11-03T14:08:48.624Z</time>
      </trkpt>
      <trkpt lat="47.34836" lon="-0.22777">
        <ele>-19.385658</ele>
        <time>2011-11-03T14:08:51.617Z</time>
      </trkpt>
      <trkpt lat="47.34819" lon="-0.22791">
        <ele>-19.204014</ele>
        <time>2011-11-03T14:08:54.596Z</time>
      </trkpt>
      <trkpt lat="47.34802" lon="-0.22805">
        <ele>-18.682415</ele>
        <time>2011-11-03T14:08:57.704Z</time>
      </trkpt>
      <trkpt lat="47.34783" lon="-0.2282">
        <ele>-17.94606</ele>
        <time>2011-11-03T14:09:00.621Z</time>
      </trkpt>
      <trkpt lat="47.34764" lon="-0.22837">
        <ele>-17.290852</ele>
        <time>2011-11-03T14:09:03.626Z</time>
      </trkpt>
      <trkpt lat="47.34745" lon="-0.22855">
        <ele>-16.77787</ele>
        <time>2011-11-03T14:09:06.649Z</time>
      </trkpt>
      <trkpt lat="47.34726" lon="-0.22873">
        <ele>-16.458496</ele>
        <time>2011-11-03T14:09:09.621Z</time>
      </trkpt>
      <trkpt lat="47.34708" lon="-0.2289">
        <ele>-16.512405</ele>
        <time>2011-11-03T14:09:12.626Z</time>
      </trkpt>
      <trkpt lat="47.3469" lon="-0.22907">
        <ele>-16.8615</ele>
        <time>2011-11-03T14:09:15.619Z</time>
      </trkpt>
      <trkpt lat="47.34672" lon="-0.22923">
        <ele>-17.410553</ele>
        <time>2011-11-03T14:09:18.630Z</time>
      </trkpt>
      <trkpt lat="47.34655" lon="-0.22939">
        <ele>-18.064678</ele>
        <time>2011-11-03T14:09:21.599Z</time>
      </trkpt>
      <trkpt lat="47.34637" lon="-0.22955">
        <ele>-18.21558</ele>
        <time>2011-11-03T14:09:24.632Z</time>
      </trkpt>
      <trkpt lat="47.3462" lon="-0.2297">
        <ele>-18.260048</ele>
        <time>2011-11-03T14:09:27.604Z</time>
      </trkpt>
      <trkpt lat="47.34604" lon="-0.22984">
        <ele>-18.188313</ele>
        <time>2011-11-03T14:09:30.630Z</time>
      </trkpt>
      <trkpt lat="47.34588" lon="-0.22998">
        <ele>-18.158512</ele>
        <time>2011-11-03T14:09:33.618Z</time>
      </trkpt>
      <trkpt lat="47.34572" lon="-0.23014">
        <ele>-18.046925</ele>
        <time>2011-11-03T14:09:36.628Z</time>
      </trkpt>
      <trkpt lat="47.34554" lon="-0.2303">
        <ele>-17.99242</ele>
        <time>2011-11-03T14:09:39.619Z</time>
      </trkpt>
      <trkpt lat="47.34536" lon="-0.23044">
        <ele>-18.069145</ele>
        <time>2011-11-03T14:09:42.631Z</time>
      </trkpt>
      <trkpt lat="47.34519" lon="-0.2306">
        <ele>-18.22089</ele>
        <time>2011-11-03T14:09:45.631Z</time>
      </trkpt>
      <trkpt lat="47.34501" lon="-0.23075">
        <ele>-18.390472</ele>
        <time>2011-11-03T14:09:48.971Z</time>
      </trkpt>
      <trkpt lat="47.34482" lon="-0.2309">
        <ele>-18.536125</ele>
        <time>2011-11-03T14:09:51.629Z</time>
      </trkpt>
      <trkpt lat="47.34464" lon="-0.23105">
        <ele>-18.667858</ele>
        <time>2011-11-03T14:09:54.620Z</time>
      </trkpt>
      <trkpt lat="47.34446" lon="-0.23122">
        <ele>-18.545265</ele>
        <time>2011-11-03T14:09:57.630Z</time>
      </trkpt>
      <trkpt lat="47.34428" lon="-0.23139">
        <ele>-18.552227</ele>
        <time>2011-11-03T14:10:00.649Z</time>
      </trkpt>
      <trkpt lat="47.34411" lon="-0.23155">
        <ele>-18.571911</ele>
        <time>2011-11-03T14:10:03.624Z</time>
      </trkpt>
      <trkpt lat="47.34394" lon="-0.23169">
        <ele>-18.630844</ele>
        <time>2011-11-03T14:10:06.630Z</time>
      </trkpt>
      <trkpt lat="47.34376" lon="-0.23187">
        <ele>-18.714054</ele>
        <time>2011-11-03T14:10:10.632Z</time>
      </trkpt>
      <trkpt lat="47.34367" lon="-0.23211">
        <ele>-19.000519</ele>
        <time>2011-11-03T14:10:14.627Z</time>
      </trkpt>
      <trkpt lat="47.34376" lon="-0.23243">
        <ele>-19.183479</ele>
        <time>2011-11-03T14:10:18.948Z</time>
      </trkpt>
      <trkpt lat="47.34384" lon="-0.23268">
        <ele>-19.097309</ele>
        <time>2011-11-03T14:10:21.628Z</time>
      </trkpt>
      <trkpt lat="47.34392" lon="-0.23298">
        <ele>-19.031456</ele>
        <time>2011-11-03T14:10:25.596Z</time>
      </trkpt>
      <trkpt lat="47.34401" lon="-0.23327">
        <ele>-18.959507</ele>
        <time>2011-11-03T14:10:29.622Z</time>
      </trkpt>
      <trkpt lat="47.34409" lon="-0.23355">
        <ele>-18.927479</ele>
        <time>2011-11-03T14:10:33.630Z</time>
      </trkpt>
      <trkpt lat="47.34418" lon="-0.23383">
        <ele>-18.881516</ele>
        <time>2011-11-03T14:10:37.607Z</time>
      </trkpt>
      <trkpt lat="47.34427" lon="-0.23412">
        <ele>-18.828983</ele>
        <time>2011-11-03T14:10:41.601Z</time>
      </trkpt>
      <trkpt lat="47.34436" lon="-0.23442">
        <ele>-18.704952</ele>
        <time>2011-11-03T14:10:45.594Z</time>
      </trkpt>
      <trkpt lat="47.34446" lon="-0.23471">
        <ele>-18.54752</ele>
        <time>2011-11-03T14:10:49.600Z</time>
      </trkpt>
      <trkpt lat="47.34455" lon="-0.23502">
        <ele>-18.283791</ele>
        <time>2011-11-03T14:10:53.593Z</time>
      </trkpt>
      <trkpt lat="47.34465" lon="-0.23533">
        <ele>-17.924526</ele>
        <time>2011-11-03T14:10:57.618Z</time>
      </trkpt>
      <trkpt lat="47.34475" lon="-0.23563">
        <ele>-17.364628</ele>
        <time>2011-11-03T14:11:01.593Z</time>
      </trkpt>
      <trkpt lat="47.34484" lon="-0.23594">
        <ele>-16.738911</ele>
        <time>2011-11-03T14:11:05.593Z</time>
      </trkpt>
      <trkpt lat="47.34493" lon="-0.23625">
        <ele>-16.053116</ele>
        <time>2011-11-03T14:11:09.594Z</time>
      </trkpt>
      <trkpt lat="47.34503" lon="-0.23655">
        <ele>-15.620625</ele>
        <time>2011-11-03T14:11:13.598Z</time>
      </trkpt>
      <trkpt lat="47.34512" lon="-0.23686">
        <ele>-15.437229</ele>
        <time>2011-11-03T14:11:17.600Z</time>
      </trkpt>
      <trkpt lat="47.34518" lon="-0.2372">
        <ele>-15.248528</ele>
        <time>2011-11-03T14:11:21.599Z</time>
      </trkpt>
      <trkpt lat="47.34516" lon="-0.23752">
        <ele>-15.168941</ele>
        <time>2011-11-03T14:11:25.616Z</time>
      </trkpt>
      <trkpt lat="47.34508" lon="-0.23783">
        <ele>-15.040928</ele>
        <time>2011-11-03T14:11:29.610Z</time>
      </trkpt>
      <trkpt lat="47.34495" lon="-0.23811">
        <ele>-14.87825</ele>
        <time>2011-11-03T14:11:33.595Z</time>
      </trkpt>
      <trkpt lat="47.3448" lon="-0.23837">
        <ele>-14.560596</ele>
        <time>2011-11-03T14:11:37.602Z</time>
      </trkpt>
      <trkpt lat="47.34465" lon="-0.23862">
        <ele>-14.117039</ele>
        <time>2011-11-03T14:11:41.600Z</time>
      </trkpt>
      <trkpt lat="47.3445" lon="-0.23887">
        <ele>-13.641476</ele>
        <time>2011-11-03T14:11:45.601Z</time>
      </trkpt>
      <trkpt lat="47.34435" lon="-0.23912">
        <ele>-13.163494</ele>
        <time>2011-11-03T14:11:49.595Z</time>
      </trkpt>
      <trkpt lat="47.3442" lon="-0.23939">
        <ele>-12.815708</ele>
        <time>2011-11-03T14:11:53.833Z</time>
      </trkpt>
      <trkpt lat="47.34405" lon="-0.23965">
        <ele>-12.468304</ele>
        <time>2011-11-03T14:11:57.600Z</time>
      </trkpt>
      <trkpt lat="47.34389" lon="-0.23992">
        <ele>-11.948303</ele>
        <time>2011-11-03T14:12:01.599Z</time>
      </trkpt>
      <trkpt lat="47.34375" lon="-0.24017">
        <ele>-11.219509</ele>
        <time>2011-11-03T14:12:05.598Z</time>
      </trkpt>
      <trkpt lat="47.34362" lon="-0.24044">
        <ele>-10.704121</ele>
        <time>2011-11-03T14:12:09.609Z</time>
      </trkpt>
      <trkpt lat="47.34351" lon="-0.24072">
        <ele>-9.998894</ele>
        <time>2011-11-03T14:12:13.623Z</time>
      </trkpt>
      <trkpt lat="47.34341" lon="-0.24099">
        <ele>-9.279259</ele>
        <time>2011-11-03T14:12:17.620Z</time>
      </trkpt>
      <trkpt lat="47.34332" lon="-0.24128">
        <ele>-8.529213</ele>
        <time>2011-11-03T14:12:21.618Z</time>
      </trkpt>
      <trkpt lat="47.34325" lon="-0.2416">
        <ele>-7.585117</ele>
        <time>2011-11-03T14:12:25.624Z</time>
      </trkpt>
      <trkpt lat="47.34321" lon="-0.24192">
        <ele>-6.602341</ele>
        <time>2011-11-03T14:12:29.623Z</time>
      </trkpt>
      <trkpt lat="47.34321" lon="-0.24225">
        <ele>-5.611633</ele>
        <time>2011-11-03T14:12:33.625Z</time>
      </trkpt>
      <trkpt lat="47.34325" lon="-0.24257">
        <ele>-4.821053</ele>
        <time>2011-11-03T14:12:37.623Z</time>
      </trkpt>
      <trkpt lat="47.34332" lon="-0.24288">
        <ele>-4.15353</ele>
        <time>2011-11-03T14:12:41.637Z</time>
      </trkpt>
      <trkpt lat="47.34341" lon="-0.24319">
        <ele>-3.549732</ele>
        <time>2011-11-03T14:12:45.722Z</time>
      </trkpt>
      <trkpt lat="47.34349" lon="-0.24351">
        <ele>-2.88834</ele>
        <time>2011-11-03T14:12:49.615Z</time>
      </trkpt>
      <trkpt lat="47.34356" lon="-0.24376">
        <ele>-2.398815</ele>
        <time>2011-11-03T14:12:52.608Z</time>
      </trkpt>
      <trkpt lat="47.34362" lon="-0.24402">
        <ele>-1.878769</ele>
        <time>2011-11-03T14:12:55.616Z</time>
      </trkpt>
      <trkpt lat="47.34367" lon="-0.24427">
        <ele>-1.407902</ele>
        <time>2011-11-03T14:12:58.603Z</time>
      </trkpt>
      <trkpt lat="47.34375" lon="-0.24459">
        <ele>-0.770802</ele>
        <time>2011-11-03T14:13:02.602Z</time>
      </trkpt>
      <trkpt lat="47.34385" lon="-0.24491">
        <ele>-0.141926</ele>
        <time>2011-11-03T14:13:06.610Z</time>
      </trkpt>
      <trkpt lat="47.34392" lon="-0.24521">
        <ele>0.209156</ele>
        <time>2011-11-03T14:13:10.615Z</time>
      </trkpt>
      <trkpt lat="47.34401" lon="-0.24553">
        <ele>0.70396</ele>
        <time>2011-11-03T14:13:14.609Z</time>
      </trkpt>
      <trkpt lat="47.34407" lon="-0.24578">
        <ele>1.18874</ele>
        <time>2011-11-03T14:13:17.612Z</time>
      </trkpt>
      <trkpt lat="47.34414" lon="-0.24603">
        <ele>1.700523</ele>
        <time>2011-11-03T14:13:20.621Z</time>
      </trkpt>
      <trkpt lat="47.34421" lon="-0.2463">
        <ele>2.307079</ele>
        <time>2011-11-03T14:13:23.618Z</time>
      </trkpt>
      <trkpt lat="47.34429" lon="-0.24656">
        <ele>2.959198</ele>
        <time>2011-11-03T14:13:26.611Z</time>
      </trkpt>
      <trkpt lat="47.34439" lon="-0.24681">
        <ele>3.484451</ele>
        <time>2011-11-03T14:13:29.616Z</time>
      </trkpt>
      <trkpt lat="47.34449" lon="-0.24706">
        <ele>4.125393</ele>
        <time>2011-11-03T14:13:32.615Z</time>
      </trkpt>
      <trkpt lat="47.34461" lon="-0.24732">
        <ele>5.059605</ele>
        <time>2011-11-03T14:13:35.616Z</time>
      </trkpt>
      <trkpt lat="47.34473" lon="-0.24757">
        <ele>6.02734</ele>
        <time>2011-11-03T14:13:38.616Z</time>
      </trkpt>
      <trkpt lat="47.34485" lon="-0.2478">
        <ele>6.842804</ele>
        <time>2011-11-03T14:13:41.612Z</time>
      </trkpt>
      <trkpt lat="47.34497" lon="-0.24803">
        <ele>7.451836</ele>
        <time>2011-11-03T14:13:44.615Z</time>
      </trkpt>
      <trkpt lat="47.34509" lon="-0.24826">
        <ele>7.762962</ele>
        <time>2011-11-03T14:13:47.611Z</time>
      </trkpt>
      <trkpt lat="47.3452" lon="-0.24849">
        <ele>7.952999</ele>
        <time>2011-11-03T14:13:50.610Z</time>
      </trkpt>
      <trkpt lat="47.34533" lon="-0.24876">
        <ele>8.125481</ele>
        <time>2011-11-03T14:13:54.619Z</time>
      </trkpt>
      <trkpt lat="47.34545" lon="-0.24902">
        <ele>8.231647</ele>
        <time>2011-11-03T14:13:58.614Z</time>
      </trkpt>
      <trkpt lat="47.34557" lon="-0.24928">
        <ele>8.524189</ele>
        <time>2011-11-03T14:14:02.615Z</time>
      </trkpt>
      <trkpt lat="47.34569" lon="-0.24952">
        <ele>8.993286</ele>
        <time>2011-11-03T14:14:06.612Z</time>
      </trkpt>
      <trkpt lat="47.3458" lon="-0.24975">
        <ele>9.472832</ele>
        <time>2011-11-03T14:14:10.615Z</time>
      </trkpt>
      <trkpt lat="47.34589" lon="-0.24998">
        <ele>9.985397</ele>
        <time>2011-11-03T14:14:14.613Z</time>
      </trkpt>
      <trkpt lat="47.346" lon="-0.2502">
        <ele>10.527447</ele>
        <time>2011-11-03T14:14:18.613Z</time>
      </trkpt>
      <trkpt lat="47.34612" lon="-0.25043">
        <ele>11.052402</ele>
        <time>2011-11-03T14:14:22.618Z</time>
      </trkpt>
      <trkpt lat="47.34623" lon="-0.25066">
        <ele>11.420273</ele>
        <time>2011-11-03T14:14:26.614Z</time>
      </trkpt>
      <trkpt lat="47.34635" lon="-0.25093">
        <ele>11.673515</ele>
        <time>2011-11-03T14:14:31.677Z</time>
      </trkpt>
      <trkpt lat="47.34645" lon="-0.25117">
        <ele>12.065327</ele>
        <time>2011-11-03T14:14:36.609Z</time>
      </trkpt>
      <trkpt lat="47.34656" lon="-0.25144">
        <ele>12.380295</ele>
        <time>2011-11-03T14:14:41.614Z</time>
      </trkpt>
      <trkpt lat="47.34666" lon="-0.25171">
        <ele>12.726704</ele>
        <time>2011-11-03T14:14:46.609Z</time>
      </trkpt>
      <trkpt lat="47.34675" lon="-0.25196">
        <ele>13.173096</ele>
        <time>2011-11-03T14:14:51.617Z</time>
      </trkpt>
      <trkpt lat="47.34685" lon="-0.25222">
        <ele>13.386692</ele>
        <time>2011-11-03T14:14:56.605Z</time>
      </trkpt>
      <trkpt lat="47.34695" lon="-0.2525">
        <ele>13.472954</ele>
        <time>2011-11-03T14:15:01.614Z</time>
      </trkpt>
      <trkpt lat="47.34703" lon="-0.25276">
        <ele>14.077385</ele>
        <time>2011-11-03T14:15:05.609Z</time>
      </trkpt>
      <trkpt lat="47.34712" lon="-0.253">
        <ele>14.834171</ele>
        <time>2011-11-03T14:15:09.608Z</time>
      </trkpt>
      <trkpt lat="47.3472" lon="-0.25324">
        <ele>15.009789</ele>
        <time>2011-11-03T14:15:13.601Z</time>
      </trkpt>
      <trkpt lat="47.3473" lon="-0.25349">
        <ele>14.935802</ele>
        <time>2011-11-03T14:15:17.621Z</time>
      </trkpt>
      <trkpt lat="47.3474" lon="-0.25375">
        <ele>15.10165</ele>
        <time>2011-11-03T14:15:21.601Z</time>
      </trkpt>
      <trkpt lat="47.3475" lon="-0.25399">
        <ele>15.120392</ele>
        <time>2011-11-03T14:15:25.610Z</time>
      </trkpt>
      <trkpt lat="47.3476" lon="-0.25429">
        <ele>15.261887</ele>
        <time>2011-11-03T14:15:30.601Z</time>
      </trkpt>
      <trkpt lat="47.34766" lon="-0.25455">
        <ele>15.281998</ele>
        <time>2011-11-03T14:15:34.605Z</time>
      </trkpt>
      <trkpt lat="47.34773" lon="-0.25482">
        <ele>15.068115</ele>
        <time>2011-11-03T14:15:38.621Z</time>
      </trkpt>
      <trkpt lat="47.34778" lon="-0.25507">
        <ele>14.91806</ele>
        <time>2011-11-03T14:15:42.596Z</time>
      </trkpt>
      <trkpt lat="47.34784" lon="-0.25534">
        <ele>14.875481</ele>
        <time>2011-11-03T14:15:46.600Z</time>
      </trkpt>
      <trkpt lat="47.3479" lon="-0.25563">
        <ele>14.932915</ele>
        <time>2011-11-03T14:15:50.604Z</time>
      </trkpt>
      <trkpt lat="47.34797" lon="-0.25591">
        <ele>15.37508</ele>
        <time>2011-11-03T14:15:54.608Z</time>
      </trkpt>
      <trkpt lat="47.34802" lon="-0.25621">
        <ele>15.825264</ele>
        <time>2011-11-03T14:15:58.610Z</time>
      </trkpt>
      <trkpt lat="47.34808" lon="-0.25653">
        <ele>16.256744</ele>
        <time>2011-11-03T14:16:02.613Z</time>
      </trkpt>
      <trkpt lat="47.34815" lon="-0.25685">
        <ele>16.758209</ele>
        <time>2011-11-03T14:16:06.596Z</time>
      </trkpt>
      <trkpt lat="47.34821" lon="-0.25712">
        <ele>17.132088</ele>
        <time>2011-11-03T14:16:09.613Z</time>
      </trkpt>
      <trkpt lat="47.34827" lon="-0.25739">
        <ele>17.388542</ele>
        <time>2011-11-03T14:16:12.610Z</time>
      </trkpt>
      <trkpt lat="47.34833" lon="-0.25764">
        <ele>17.56456</ele>
        <time>2011-11-03T14:16:15.619Z</time>
      </trkpt>
      <trkpt lat="47.3484" lon="-0.25792">
        <ele>17.676094</ele>
        <time>2011-11-03T14:16:18.609Z</time>
      </trkpt>
      <trkpt lat="47.34845" lon="-0.25821">
        <ele>17.732899</ele>
        <time>2011-11-03T14:16:21.617Z</time>
      </trkpt>
      <trkpt lat="47.3485" lon="-0.25849">
        <ele>17.894886</ele>
        <time>2011-11-03T14:16:24.656Z</time>
      </trkpt>
      <trkpt lat="47.34855" lon="-0.25875">
        <ele>18.201202</ele>
        <time>2011-11-03T14:16:27.619Z</time>
      </trkpt>
      <trkpt lat="47.34861" lon="-0.25908">
        <ele>18.865837</ele>
        <time>2011-11-03T14:16:31.625Z</time>
      </trkpt>
      <trkpt lat="47.34868" lon="-0.2594">
        <ele>19.289909</ele>
        <time>2011-11-03T14:16:35.603Z</time>
      </trkpt>
      <trkpt lat="47.34874" lon="-0.25971">
        <ele>19.485912</ele>
        <time>2011-11-03T14:16:39.610Z</time>
      </trkpt>
      <trkpt lat="47.34881" lon="-0.26004">
        <ele>19.459873</ele>
        <time>2011-11-03T14:16:43.598Z</time>
      </trkpt>
      <trkpt lat="47.34888" lon="-0.26038">
        <ele>17.887218</ele>
        <time>2011-11-03T14:16:47.601Z</time>
      </trkpt>
      <trkpt lat="47.34894" lon="-0.26066">
        <ele>17.045082</ele>
        <time>2011-11-03T14:16:50.615Z</time>
      </trkpt>
      <trkpt lat="47.349" lon="-0.26095">
        <ele>17.397594</ele>
        <time>2011-11-03T14:16:53.618Z</time>
      </trkpt>
      <trkpt lat="47.34907" lon="-0.26124">
        <ele>18.311115</ele>
        <time>2011-11-03T14:16:56.612Z</time>
      </trkpt>
      <trkpt lat="47.34913" lon="-0.26154">
        <ele>19.110981</ele>
        <time>2011-11-03T14:16:59.617Z</time>
      </trkpt>
      <trkpt lat="47.34919" lon="-0.26184">
        <ele>19.517422</ele>
        <time>2011-11-03T14:17:02.628Z</time>
      </trkpt>
      <trkpt lat="47.34925" lon="-0.26215">
        <ele>19.809273</ele>
        <time>2011-11-03T14:17:05.604Z</time>
      </trkpt>
      <trkpt lat="47.34932" lon="-0.26245">
        <ele>19.77581</ele>
        <time>2011-11-03T14:17:08.612Z</time>
      </trkpt>
      <trkpt lat="47.34939" lon="-0.26276">
        <ele>19.658939</ele>
        <time>2011-11-03T14:17:11.600Z</time>
      </trkpt>
      <trkpt lat="47.34948" lon="-0.26307">
        <ele>19.474255</ele>
        <time>2011-11-03T14:17:14.624Z</time>
      </trkpt>
      <trkpt lat="47.34959" lon="-0.26337">
        <ele>19.08078</ele>
        <time>2011-11-03T14:17:17.605Z</time>
      </trkpt>
      <trkpt lat="47.34971" lon="-0.26367">
        <ele>18.528095</ele>
        <time>2011-11-03T14:17:20.604Z</time>
      </trkpt>
      <trkpt lat="47.34985" lon="-0.26395">
        <ele>18.123901</ele>
        <time>2011-11-03T14:17:23.616Z</time>
      </trkpt>
      <trkpt lat="47.35" lon="-0.26424">
        <ele>17.927074</ele>
        <time>2011-11-03T14:17:26.603Z</time>
      </trkpt>
      <trkpt lat="47.35013" lon="-0.26453">
        <ele>17.903763</ele>
        <time>2011-11-03T14:17:29.606Z</time>
      </trkpt>
      <trkpt lat="47.35027" lon="-0.2648">
        <ele>17.820732</ele>
        <time>2011-11-03T14:17:32.607Z</time>
      </trkpt>
      <trkpt lat="47.35039" lon="-0.26507">
        <ele>17.789711</ele>
        <time>2011-11-03T14:17:35.679Z</time>
      </trkpt>
      <trkpt lat="47.35053" lon="-0.26533">
        <ele>17.820934</ele>
        <time>2011-11-03T14:17:38.694Z</time>
      </trkpt>
      <trkpt lat="47.35066" lon="-0.26559">
        <ele>17.790939</ele>
        <time>2011-11-03T14:17:41.601Z</time>
      </trkpt>
      <trkpt lat="47.35078" lon="-0.26585">
        <ele>17.815609</ele>
        <time>2011-11-03T14:17:44.610Z</time>
      </trkpt>
      <trkpt lat="47.3509" lon="-0.26611">
        <ele>18.462181</ele>
        <time>2011-11-03T14:17:47.599Z</time>
      </trkpt>
      <trkpt lat="47.35102" lon="-0.26637">
        <ele>19.849628</ele>
        <time>2011-11-03T14:17:50.611Z</time>
      </trkpt>
      <trkpt lat="47.35114" lon="-0.26664">
        <ele>20.466198</ele>
        <time>2011-11-03T14:17:53.600Z</time>
      </trkpt>
      <trkpt lat="47.35128" lon="-0.26689">
        <ele>20.70993</ele>
        <time>2011-11-03T14:17:56.629Z</time>
      </trkpt>
      <trkpt lat="47.3514" lon="-0.26711">
        <ele>20.929176</ele>
        <time>2011-11-03T14:17:59.618Z</time>
      </trkpt>
      <trkpt lat="47.35154" lon="-0.26736">
        <ele>21.376514</ele>
        <time>2011-11-03T14:18:02.627Z</time>
      </trkpt>
      <trkpt lat="47.3517" lon="-0.26761">
        <ele>21.800682</ele>
        <time>2011-11-03T14:18:05.600Z</time>
      </trkpt>
      <trkpt lat="47.35182" lon="-0.26781">
        <ele>21.67894</ele>
        <time>2011-11-03T14:18:07.608Z</time>
      </trkpt>
      <trkpt lat="47.35202" lon="-0.26812">
        <ele>21.667603</ele>
        <time>2011-11-03T14:18:10.619Z</time>
      </trkpt>
      <trkpt lat="47.35224" lon="-0.26845">
        <ele>21.683941</ele>
        <time>2011-11-03T14:18:13.595Z</time>
      </trkpt>
      <trkpt lat="47.35239" lon="-0.2687">
        <ele>21.825623</ele>
        <time>2011-11-03T14:18:15.597Z</time>
      </trkpt>
      <trkpt lat="47.35256" lon="-0.26896">
        <ele>21.991032</ele>
        <time>2011-11-03T14:18:17.608Z</time>
      </trkpt>
      <trkpt lat="47.3528" lon="-0.26939">
        <ele>21.52417</ele>
        <time>2011-11-03T14:18:20.607Z</time>
      </trkpt>
      <trkpt lat="47.35296" lon="-0.26969">
        <ele>21.387707</ele>
        <time>2011-11-03T14:18:22.615Z</time>
      </trkpt>
      <trkpt lat="47.35311" lon="-0.27002">
        <ele>21.175957</ele>
        <time>2011-11-03T14:18:24.623Z</time>
      </trkpt>
      <trkpt lat="47.35328" lon="-0.27053">
        <ele>21.695591</ele>
        <time>2011-11-03T14:18:27.614Z</time>
      </trkpt>
      <trkpt lat="47.35338" lon="-0.27109">
        <ele>21.429474</ele>
        <time>2011-11-03T14:18:30.625Z</time>
      </trkpt>
      <trkpt lat="47.3534" lon="-0.27163">
        <ele>20.921265</ele>
        <time>2011-11-03T14:18:33.611Z</time>
      </trkpt>
      <trkpt lat="47.3534" lon="-0.27215">
        <ele>20.465935</ele>
        <time>2011-11-03T14:18:36.686Z</time>
      </trkpt>
      <trkpt lat="47.35338" lon="-0.27247">
        <ele>18.754993</ele>
        <time>2011-11-03T14:18:38.609Z</time>
      </trkpt>
      <trkpt lat="47.35331" lon="-0.27292">
        <ele>16.643524</ele>
        <time>2011-11-03T14:18:41.612Z</time>
      </trkpt>
      <trkpt lat="47.35327" lon="-0.2732">
        <ele>15.736282</ele>
        <time>2011-11-03T14:18:43.618Z</time>
      </trkpt>
      <trkpt lat="47.35323" lon="-0.27347">
        <ele>15.08836</ele>
        <time>2011-11-03T14:18:45.623Z</time>
      </trkpt>
      <trkpt lat="47.35316" lon="-0.27384">
        <ele>14.551697</ele>
        <time>2011-11-03T14:18:48.620Z</time>
      </trkpt>
      <trkpt lat="47.3531" lon="-0.27421">
        <ele>14.542473</ele>
        <time>2011-11-03T14:18:51.625Z</time>
      </trkpt>
      <trkpt lat="47.35304" lon="-0.27455">
        <ele>14.175629</ele>
        <time>2011-11-03T14:18:54.625Z</time>
      </trkpt>
      <trkpt lat="47.35299" lon="-0.27488">
        <ele>13.185452</ele>
        <time>2011-11-03T14:18:57.634Z</time>
      </trkpt>
      <trkpt lat="47.35294" lon="-0.27519">
        <ele>11.80315</ele>
        <time>2011-11-03T14:19:00.619Z</time>
      </trkpt>
      <trkpt lat="47.35292" lon="-0.27549">
        <ele>10.375706</ele>
        <time>2011-11-03T14:19:03.627Z</time>
      </trkpt>
      <trkpt lat="47.35294" lon="-0.2758">
        <ele>8.947048</ele>
        <time>2011-11-03T14:19:06.622Z</time>
      </trkpt>
      <trkpt lat="47.35299" lon="-0.27609">
        <ele>8.011597</ele>
        <time>2011-11-03T14:19:09.613Z</time>
      </trkpt>
      <trkpt lat="47.35304" lon="-0.27635">
        <ele>6.83181</ele>
        <time>2011-11-03T14:19:12.605Z</time>
      </trkpt>
      <trkpt lat="47.35313" lon="-0.27667">
        <ele>5.096401</ele>
        <time>2011-11-03T14:19:16.611Z</time>
      </trkpt>
      <trkpt lat="47.35321" lon="-0.27692">
        <ele>3.953114</ele>
        <time>2011-11-03T14:19:19.651Z</time>
      </trkpt>
      <trkpt lat="47.3533" lon="-0.27722">
        <ele>3.02866</ele>
        <time>2011-11-03T14:19:23.627Z</time>
      </trkpt>
      <trkpt lat="47.35339" lon="-0.2775">
        <ele>2.405231</ele>
        <time>2011-11-03T14:19:27.606Z</time>
      </trkpt>
      <trkpt lat="47.35348" lon="-0.27775">
        <ele>1.951893</ele>
        <time>2011-11-03T14:19:31.604Z</time>
      </trkpt>
      <trkpt lat="47.35357" lon="-0.27805">
        <ele>1.944748</ele>
        <time>2011-11-03T14:19:35.612Z</time>
      </trkpt>
      <trkpt lat="47.35366" lon="-0.27836">
        <ele>2.128578</ele>
        <time>2011-11-03T14:19:39.615Z</time>
      </trkpt>
      <trkpt lat="47.35375" lon="-0.27868">
        <ele>2.336048</ele>
        <time>2011-11-03T14:19:43.613Z</time>
      </trkpt>
      <trkpt lat="47.35385" lon="-0.27899">
        <ele>2.754326</ele>
        <time>2011-11-03T14:19:47.622Z</time>
      </trkpt>
      <trkpt lat="47.35392" lon="-0.27924">
        <ele>3.117912</ele>
        <time>2011-11-03T14:19:50.627Z</time>
      </trkpt>
      <trkpt lat="47.354" lon="-0.2795">
        <ele>3.375111</ele>
        <time>2011-11-03T14:19:53.628Z</time>
      </trkpt>
      <trkpt lat="47.35408" lon="-0.27976">
        <ele>3.598225</ele>
        <time>2011-11-03T14:19:56.619Z</time>
      </trkpt>
      <trkpt lat="47.35417" lon="-0.28001">
        <ele>3.911861</ele>
        <time>2011-11-03T14:19:59.626Z</time>
      </trkpt>
      <trkpt lat="47.35425" lon="-0.28027">
        <ele>4.417568</ele>
        <time>2011-11-03T14:20:02.628Z</time>
      </trkpt>
      <trkpt lat="47.35433" lon="-0.28054">
        <ele>4.754402</ele>
        <time>2011-11-03T14:20:05.632Z</time>
      </trkpt>
      <trkpt lat="47.3544" lon="-0.28082">
        <ele>5.011631</ele>
        <time>2011-11-03T14:20:08.625Z</time>
      </trkpt>
      <trkpt lat="47.3545" lon="-0.28114">
        <ele>5.389404</ele>
        <time>2011-11-03T14:20:11.642Z</time>
      </trkpt>
      <trkpt lat="47.35459" lon="-0.28146">
        <ele>5.744286</ele>
        <time>2011-11-03T14:20:14.614Z</time>
      </trkpt>
      <trkpt lat="47.35468" lon="-0.28178">
        <ele>5.954079</ele>
        <time>2011-11-03T14:20:17.621Z</time>
      </trkpt>
      <trkpt lat="47.35477" lon="-0.2821">
        <ele>6.071335</ele>
        <time>2011-11-03T14:20:20.607Z</time>
      </trkpt>
      <trkpt lat="47.35487" lon="-0.28241">
        <ele>6.128468</ele>
        <time>2011-11-03T14:20:23.614Z</time>
      </trkpt>
      <trkpt lat="47.35495" lon="-0.28272">
        <ele>6.096096</ele>
        <time>2011-11-03T14:20:26.600Z</time>
      </trkpt>
      <trkpt lat="47.35503" lon="-0.28301">
        <ele>5.915066</ele>
        <time>2011-11-03T14:20:29.610Z</time>
      </trkpt>
      <trkpt lat="47.35512" lon="-0.28331">
        <ele>5.740555</ele>
        <time>2011-11-03T14:20:32.606Z</time>
      </trkpt>
      <trkpt lat="47.3552" lon="-0.28361">
        <ele>5.620052</ele>
        <time>2011-11-03T14:20:35.782Z</time>
      </trkpt>
      <trkpt lat="47.3553" lon="-0.28391">
        <ele>5.674873</ele>
        <time>2011-11-03T14:20:38.600Z</time>
      </trkpt>
      <trkpt lat="47.3554" lon="-0.28423">
        <ele>5.714725</ele>
        <time>2011-11-03T14:20:41.613Z</time>
      </trkpt>
      <trkpt lat="47.35549" lon="-0.28455">
        <ele>5.603188</ele>
        <time>2011-11-03T14:20:44.603Z</time>
      </trkpt>
      <trkpt lat="47.35558" lon="-0.28486">
        <ele>5.538788</ele>
        <time>2011-11-03T14:20:47.619Z</time>
      </trkpt>
      <trkpt lat="47.35568" lon="-0.28516">
        <ele>5.410225</ele>
        <time>2011-11-03T14:20:50.605Z</time>
      </trkpt>
      <trkpt lat="47.35577" lon="-0.28547">
        <ele>5.284451</ele>
        <time>2011-11-03T14:20:53.609Z</time>
      </trkpt>
      <trkpt lat="47.35586" lon="-0.28579">
        <ele>5.28249</ele>
        <time>2011-11-03T14:20:56.597Z</time>
      </trkpt>
      <trkpt lat="47.35595" lon="-0.2861">
        <ele>5.216713</ele>
        <time>2011-11-03T14:20:59.742Z</time>
      </trkpt>
      <trkpt lat="47.35604" lon="-0.28641">
        <ele>5.182247</ele>
        <time>2011-11-03T14:21:02.608Z</time>
      </trkpt>
      <trkpt lat="47.35614" lon="-0.28672">
        <ele>5.069515</ele>
        <time>2011-11-03T14:21:05.612Z</time>
      </trkpt>
      <trkpt lat="47.35624" lon="-0.28705">
        <ele>5.25655</ele>
        <time>2011-11-03T14:21:08.603Z</time>
      </trkpt>
      <trkpt lat="47.35634" lon="-0.28738">
        <ele>5.571167</ele>
        <time>2011-11-03T14:21:11.871Z</time>
      </trkpt>
      <trkpt lat="47.35642" lon="-0.2877">
        <ele>5.840137</ele>
        <time>2011-11-03T14:21:14.601Z</time>
      </trkpt>
      <trkpt lat="47.35649" lon="-0.28803">
        <ele>6.001526</ele>
        <time>2011-11-03T14:21:17.610Z</time>
      </trkpt>
      <trkpt lat="47.35652" lon="-0.28837">
        <ele>6.128162</ele>
        <time>2011-11-03T14:21:20.604Z</time>
      </trkpt>
      <trkpt lat="47.35652" lon="-0.28872">
        <ele>6.333248</ele>
        <time>2011-11-03T14:21:23.610Z</time>
      </trkpt>
      <trkpt lat="47.35651" lon="-0.28907">
        <ele>6.81686</ele>
        <time>2011-11-03T14:21:26.613Z</time>
      </trkpt>
      <trkpt lat="47.35649" lon="-0.28945">
        <ele>6.979984</ele>
        <time>2011-11-03T14:21:29.614Z</time>
      </trkpt>
      <trkpt lat="47.35647" lon="-0.28981">
        <ele>7.244133</ele>
        <time>2011-11-03T14:21:32.614Z</time>
      </trkpt>
      <trkpt lat="47.35646" lon="-0.29017">
        <ele>7.08168</ele>
        <time>2011-11-03T14:21:35.636Z</time>
      </trkpt>
      <trkpt lat="47.35645" lon="-0.29053">
        <ele>6.89201</ele>
        <time>2011-11-03T14:21:38.609Z</time>
      </trkpt>
      <trkpt lat="47.35643" lon="-0.29089">
        <ele>6.775928</ele>
        <time>2011-11-03T14:21:41.604Z</time>
      </trkpt>
      <trkpt lat="47.3564" lon="-0.29126">
        <ele>7.041904</ele>
        <time>2011-11-03T14:21:44.606Z</time>
      </trkpt>
      <trkpt lat="47.35634" lon="-0.29162">
        <ele>7.220612</ele>
        <time>2011-11-03T14:21:47.606Z</time>
      </trkpt>
      <trkpt lat="47.35625" lon="-0.29196">
        <ele>7.182072</ele>
        <time>2011-11-03T14:21:50.636Z</time>
      </trkpt>
      <trkpt lat="47.35614" lon="-0.2923">
        <ele>7.174534</ele>
        <time>2011-11-03T14:21:53.608Z</time>
      </trkpt>
      <trkpt lat="47.35604" lon="-0.29262">
        <ele>6.797535</ele>
        <time>2011-11-03T14:21:56.611Z</time>
      </trkpt>
      <trkpt lat="47.35593" lon="-0.29296">
        <ele>6.644081</ele>
        <time>2011-11-03T14:21:59.604Z</time>
      </trkpt>
      <trkpt lat="47.35583" lon="-0.29329">
        <ele>6.358406</ele>
        <time>2011-11-03T14:22:02.609Z</time>
      </trkpt>
      <trkpt lat="47.35573" lon="-0.29361">
        <ele>5.968315</ele>
        <time>2011-11-03T14:22:05.604Z</time>
      </trkpt>
      <trkpt lat="47.35562" lon="-0.29391">
        <ele>5.893337</ele>
        <time>2011-11-03T14:22:08.606Z</time>
      </trkpt>
      <trkpt lat="47.35552" lon="-0.29421">
        <ele>5.976406</ele>
        <time>2011-11-03T14:22:11.602Z</time>
      </trkpt>
      <trkpt lat="47.35543" lon="-0.29452">
        <ele>6.072166</ele>
        <time>2011-11-03T14:22:14.607Z</time>
      </trkpt>
      <trkpt lat="47.35534" lon="-0.29483">
        <ele>6.351093</ele>
        <time>2011-11-03T14:22:17.602Z</time>
      </trkpt>
      <trkpt lat="47.35524" lon="-0.29516">
        <ele>6.753048</ele>
        <time>2011-11-03T14:22:20.606Z</time>
      </trkpt>
      <trkpt lat="47.35514" lon="-0.29548">
        <ele>7.186478</ele>
        <time>2011-11-03T14:22:23.618Z</time>
      </trkpt>
      <trkpt lat="47.35505" lon="-0.29579">
        <ele>7.772625</ele>
        <time>2011-11-03T14:22:26.647Z</time>
      </trkpt>
      <trkpt lat="47.35496" lon="-0.29612">
        <ele>8.199642</ele>
        <time>2011-11-03T14:22:29.617Z</time>
      </trkpt>
      <trkpt lat="47.35487" lon="-0.29643">
        <ele>8.409027</ele>
        <time>2011-11-03T14:22:32.625Z</time>
      </trkpt>
      <trkpt lat="47.35477" lon="-0.29673">
        <ele>8.54023</ele>
        <time>2011-11-03T14:22:35.614Z</time>
      </trkpt>
      <trkpt lat="47.35468" lon="-0.29701">
        <ele>8.684811</ele>
        <time>2011-11-03T14:22:38.623Z</time>
      </trkpt>
      <trkpt lat="47.35461" lon="-0.29727">
        <ele>8.801304</ele>
        <time>2011-11-03T14:22:41.624Z</time>
      </trkpt>
      <trkpt lat="47.35455" lon="-0.29754">
        <ele>8.911694</ele>
        <time>2011-11-03T14:22:44.614Z</time>
      </trkpt>
      <trkpt lat="47.35449" lon="-0.2978">
        <ele>8.923515</ele>
        <time>2011-11-03T14:22:47.615Z</time>
      </trkpt>
      <trkpt lat="47.35443" lon="-0.29806">
        <ele>9.226418</ele>
        <time>2011-11-03T14:22:50.614Z</time>
      </trkpt>
      <trkpt lat="47.35438" lon="-0.29833">
        <ele>9.490814</ele>
        <time>2011-11-03T14:22:53.615Z</time>
      </trkpt>
      <trkpt lat="47.35433" lon="-0.2986">
        <ele>9.941189</ele>
        <time>2011-11-03T14:22:56.608Z</time>
      </trkpt>
      <trkpt lat="47.35428" lon="-0.29887">
        <ele>10.060619</ele>
        <time>2011-11-03T14:23:00.584Z</time>
      </trkpt>
      <trkpt lat="47.35422" lon="-0.29913">
        <ele>10.259098</ele>
        <time>2011-11-03T14:23:02.614Z</time>
      </trkpt>
      <trkpt lat="47.35417" lon="-0.29941">
        <ele>10.476177</ele>
        <time>2011-11-03T14:23:05.606Z</time>
      </trkpt>
      <trkpt lat="47.35412" lon="-0.29969">
        <ele>10.460239</ele>
        <time>2011-11-03T14:23:08.622Z</time>
      </trkpt>
      <trkpt lat="47.35407" lon="-0.29997">
        <ele>9.286175</ele>
        <time>2011-11-03T14:23:11.605Z</time>
      </trkpt>
      <trkpt lat="47.35403" lon="-0.30025">
        <ele>8.280083</ele>
        <time>2011-11-03T14:23:14.606Z</time>
      </trkpt>
      <trkpt lat="47.35399" lon="-0.30053">
        <ele>7.878391</ele>
        <time>2011-11-03T14:23:17.620Z</time>
      </trkpt>
      <trkpt lat="47.35394" lon="-0.30082">
        <ele>7.915348</ele>
        <time>2011-11-03T14:23:20.615Z</time>
      </trkpt>
      <trkpt lat="47.35389" lon="-0.3011">
        <ele>8.032463</ele>
        <time>2011-11-03T14:23:23.623Z</time>
      </trkpt>
      <trkpt lat="47.35385" lon="-0.30138">
        <ele>8.290382</ele>
        <time>2011-11-03T14:23:26.641Z</time>
      </trkpt>
      <trkpt lat="47.35379" lon="-0.30166">
        <ele>8.565582</ele>
        <time>2011-11-03T14:23:29.618Z</time>
      </trkpt>
      <trkpt lat="47.35374" lon="-0.30195">
        <ele>8.721863</ele>
        <time>2011-11-03T14:23:32.633Z</time>
      </trkpt>
      <trkpt lat="47.35369" lon="-0.30227">
        <ele>8.842258</ele>
        <time>2011-11-03T14:23:35.618Z</time>
      </trkpt>
      <trkpt lat="47.35363" lon="-0.30257">
        <ele>9.1395</ele>
        <time>2011-11-03T14:23:38.642Z</time>
      </trkpt>
      <trkpt lat="47.35358" lon="-0.30285">
        <ele>9.483562</ele>
        <time>2011-11-03T14:23:41.619Z</time>
      </trkpt>
      <trkpt lat="47.35354" lon="-0.30312">
        <ele>9.680225</ele>
        <time>2011-11-03T14:23:44.628Z</time>
      </trkpt>
      <trkpt lat="47.35352" lon="-0.30341">
        <ele>9.823185</ele>
        <time>2011-11-03T14:23:47.609Z</time>
      </trkpt>
      <trkpt lat="47.35351" lon="-0.3037">
        <ele>10.046242</ele>
        <time>2011-11-03T14:23:50.618Z</time>
      </trkpt>
      <trkpt lat="47.35352" lon="-0.30399">
        <ele>10.400486</ele>
        <time>2011-11-03T14:23:53.629Z</time>
      </trkpt>
      <trkpt lat="47.35354" lon="-0.30429">
        <ele>10.490261</ele>
        <time>2011-11-03T14:23:56.627Z</time>
      </trkpt>
      <trkpt lat="47.35358" lon="-0.30459">
        <ele>10.307236</ele>
        <time>2011-11-03T14:23:59.611Z</time>
      </trkpt>
      <trkpt lat="47.35364" lon="-0.3049">
        <ele>10.129612</ele>
        <time>2011-11-03T14:24:02.621Z</time>
      </trkpt>
      <trkpt lat="47.35372" lon="-0.30522">
        <ele>10.050293</ele>
        <time>2011-11-03T14:24:05.610Z</time>
      </trkpt>
      <trkpt lat="47.35382" lon="-0.30552">
        <ele>10.208576</ele>
        <time>2011-11-03T14:24:08.614Z</time>
      </trkpt>
      <trkpt lat="47.35394" lon="-0.30582">
        <ele>10.173279</ele>
        <time>2011-11-03T14:24:11.615Z</time>
      </trkpt>
      <trkpt lat="47.35406" lon="-0.30613">
        <ele>9.630459</ele>
        <time>2011-11-03T14:24:14.630Z</time>
      </trkpt>
      <trkpt lat="47.35421" lon="-0.30642">
        <ele>8.874874</ele>
        <time>2011-11-03T14:24:17.631Z</time>
      </trkpt>
      <trkpt lat="47.35438" lon="-0.30668">
        <ele>8.472771</ele>
        <time>2011-11-03T14:24:20.625Z</time>
      </trkpt>
      <trkpt lat="47.35455" lon="-0.30692">
        <ele>8.062923</ele>
        <time>2011-11-03T14:24:23.629Z</time>
      </trkpt>
      <trkpt lat="47.35472" lon="-0.30715">
        <ele>7.185024</ele>
        <time>2011-11-03T14:24:26.622Z</time>
      </trkpt>
      <trkpt lat="47.35491" lon="-0.30738">
        <ele>6.276619</ele>
        <time>2011-11-03T14:24:29.624Z</time>
      </trkpt>
      <trkpt lat="47.3551" lon="-0.3076">
        <ele>5.764301</ele>
        <time>2011-11-03T14:24:32.626Z</time>
      </trkpt>
      <trkpt lat="47.35528" lon="-0.30782">
        <ele>4.912167</ele>
        <time>2011-11-03T14:24:35.610Z</time>
      </trkpt>
      <trkpt lat="47.35547" lon="-0.30804">
        <ele>4.232452</ele>
        <time>2011-11-03T14:24:38.618Z</time>
      </trkpt>
      <trkpt lat="47.35566" lon="-0.30826">
        <ele>3.697395</ele>
        <time>2011-11-03T14:24:41.608Z</time>
      </trkpt>
      <trkpt lat="47.35584" lon="-0.30848">
        <ele>3.229504</ele>
        <time>2011-11-03T14:24:44.623Z</time>
      </trkpt>
      <trkpt lat="47.35602" lon="-0.3087">
        <ele>2.884628</ele>
        <time>2011-11-03T14:24:47.617Z</time>
      </trkpt>
      <trkpt lat="47.35619" lon="-0.30892">
        <ele>2.552563</ele>
        <time>2011-11-03T14:24:50.627Z</time>
      </trkpt>
      <trkpt lat="47.35636" lon="-0.30913">
        <ele>1.948708</ele>
        <time>2011-11-03T14:24:53.634Z</time>
      </trkpt>
      <trkpt lat="47.35653" lon="-0.30933">
        <ele>1.492634</ele>
        <time>2011-11-03T14:24:56.615Z</time>
      </trkpt>
      <trkpt lat="47.35669" lon="-0.30953">
        <ele>1.460167</ele>
        <time>2011-11-03T14:24:59.609Z</time>
      </trkpt>
      <trkpt lat="47.35689" lon="-0.30977">
        <ele>1.374111</ele>
        <time>2011-11-03T14:25:02.615Z</time>
      </trkpt>
      <trkpt lat="47.35704" lon="-0.30996">
        <ele>1.223061</ele>
        <time>2011-11-03T14:25:04.631Z</time>
      </trkpt>
      <trkpt lat="47.35729" lon="-0.31025">
        <ele>0.867348</ele>
        <time>2011-11-03T14:25:07.625Z</time>
      </trkpt>
      <trkpt lat="47.35751" lon="-0.31053">
        <ele>0.279842</ele>
        <time>2011-11-03T14:25:10.630Z</time>
      </trkpt>
      <trkpt lat="47.35773" lon="-0.31079">
        <ele>-0.282963</ele>
        <time>2011-11-03T14:25:13.608Z</time>
      </trkpt>
      <trkpt lat="47.35786" lon="-0.31098">
        <ele>-0.11158</ele>
        <time>2011-11-03T14:25:15.615Z</time>
      </trkpt>
      <trkpt lat="47.35804" lon="-0.31132">
        <ele>0.304916</ele>
        <time>2011-11-03T14:25:18.621Z</time>
      </trkpt>
      <trkpt lat="47.35814" lon="-0.31173">
        <ele>0.382679</ele>
        <time>2011-11-03T14:25:21.608Z</time>
      </trkpt>
      <trkpt lat="47.35822" lon="-0.31213">
        <ele>0.136452</ele>
        <time>2011-11-03T14:25:24.608Z</time>
      </trkpt>
      <trkpt lat="47.35827" lon="-0.3124">
        <ele>0.135075</ele>
        <time>2011-11-03T14:25:26.621Z</time>
      </trkpt>
      <trkpt lat="47.35834" lon="-0.31281">
        <ele>0.421005</ele>
        <time>2011-11-03T14:25:29.620Z</time>
      </trkpt>
      <trkpt lat="47.3584" lon="-0.31322">
        <ele>0.611401</ele>
        <time>2011-11-03T14:25:32.621Z</time>
      </trkpt>
      <trkpt lat="47.35847" lon="-0.31364">
        <ele>0.637653</ele>
        <time>2011-11-03T14:25:35.624Z</time>
      </trkpt>
      <trkpt lat="47.35854" lon="-0.31405">
        <ele>0.19595</ele>
        <time>2011-11-03T14:25:38.623Z</time>
      </trkpt>
      <trkpt lat="47.35861" lon="-0.31446">
        <ele>-0.056644</ele>
        <time>2011-11-03T14:25:41.620Z</time>
      </trkpt>
      <trkpt lat="47.35866" lon="-0.31487">
        <ele>0.011845</ele>
        <time>2011-11-03T14:25:44.606Z</time>
      </trkpt>
      <trkpt lat="47.35868" lon="-0.31514">
        <ele>0.046436</ele>
        <time>2011-11-03T14:25:46.614Z</time>
      </trkpt>
      <trkpt lat="47.3587" lon="-0.31542">
        <ele>0.095718</ele>
        <time>2011-11-03T14:25:48.625Z</time>
      </trkpt>
      <trkpt lat="47.35872" lon="-0.31582">
        <ele>0.213173</ele>
        <time>2011-11-03T14:25:51.604Z</time>
      </trkpt>
      <trkpt lat="47.35873" lon="-0.3161">
        <ele>0.058968</ele>
        <time>2011-11-03T14:25:53.614Z</time>
      </trkpt>
      <trkpt lat="47.35873" lon="-0.31652">
        <ele>-0.558636</ele>
        <time>2011-11-03T14:25:56.612Z</time>
      </trkpt>
      <trkpt lat="47.3587" lon="-0.31691">
        <ele>-0.770672</ele>
        <time>2011-11-03T14:25:59.602Z</time>
      </trkpt>
      <trkpt lat="47.35865" lon="-0.3173">
        <ele>-0.988007</ele>
        <time>2011-11-03T14:26:02.607Z</time>
      </trkpt>
      <trkpt lat="47.3586" lon="-0.3177">
        <ele>-1.395634</ele>
        <time>2011-11-03T14:26:05.606Z</time>
      </trkpt>
      <trkpt lat="47.35856" lon="-0.31807">
        <ele>-1.459415</ele>
        <time>2011-11-03T14:26:08.608Z</time>
      </trkpt>
      <trkpt lat="47.3585" lon="-0.31844">
        <ele>-2.952305</ele>
        <time>2011-11-03T14:26:11.603Z</time>
      </trkpt>
      <trkpt lat="47.35847" lon="-0.3188">
        <ele>-4.144894</ele>
        <time>2011-11-03T14:26:14.611Z</time>
      </trkpt>
      <trkpt lat="47.35842" lon="-0.31916">
        <ele>-4.347496</ele>
        <time>2011-11-03T14:26:17.607Z</time>
      </trkpt>
      <trkpt lat="47.35838" lon="-0.31953">
        <ele>-3.803326</ele>
        <time>2011-11-03T14:26:20.607Z</time>
      </trkpt>
      <trkpt lat="47.35833" lon="-0.31989">
        <ele>-2.979668</ele>
        <time>2011-11-03T14:26:23.621Z</time>
      </trkpt>
      <trkpt lat="47.35828" lon="-0.32026">
        <ele>-2.441589</ele>
        <time>2011-11-03T14:26:26.632Z</time>
      </trkpt>
      <trkpt lat="47.35824" lon="-0.32062">
        <ele>-2.179523</ele>
        <time>2011-11-03T14:26:29.626Z</time>
      </trkpt>
      <trkpt lat="47.35819" lon="-0.321">
        <ele>-2.184315</ele>
        <time>2011-11-03T14:26:32.630Z</time>
      </trkpt>
      <trkpt lat="47.35814" lon="-0.32137">
        <ele>-1.87038</ele>
        <time>2011-11-03T14:26:35.616Z</time>
      </trkpt>
      <trkpt lat="47.35809" lon="-0.32175">
        <ele>-1.627754</ele>
        <time>2011-11-03T14:26:38.616Z</time>
      </trkpt>
      <trkpt lat="47.35804" lon="-0.32213">
        <ele>-1.592552</ele>
        <time>2011-11-03T14:26:41.622Z</time>
      </trkpt>
      <trkpt lat="47.35799" lon="-0.3225">
        <ele>-1.76897</ele>
        <time>2011-11-03T14:26:44.615Z</time>
      </trkpt>
      <trkpt lat="47.35794" lon="-0.32287">
        <ele>-1.82795</ele>
        <time>2011-11-03T14:26:47.606Z</time>
      </trkpt>
      <trkpt lat="47.3579" lon="-0.32325">
        <ele>-1.959888</ele>
        <time>2011-11-03T14:26:50.613Z</time>
      </trkpt>
      <trkpt lat="47.35786" lon="-0.32362">
        <ele>-1.98592</ele>
        <time>2011-11-03T14:26:53.627Z</time>
      </trkpt>
      <trkpt lat="47.35783" lon="-0.32399">
        <ele>-1.926559</ele>
        <time>2011-11-03T14:26:56.617Z</time>
      </trkpt>
      <trkpt lat="47.3578" lon="-0.32435">
        <ele>-1.835037</ele>
        <time>2011-11-03T14:26:59.615Z</time>
      </trkpt>
      <trkpt lat="47.35777" lon="-0.32473">
        <ele>-2.21806</ele>
        <time>2011-11-03T14:27:02.618Z</time>
      </trkpt>
      <trkpt lat="47.35776" lon="-0.325">
        <ele>-3.033649</ele>
        <time>2011-11-03T14:27:04.618Z</time>
      </trkpt>
      <trkpt lat="47.35775" lon="-0.3254">
        <ele>-4.49625</ele>
        <time>2011-11-03T14:27:07.619Z</time>
      </trkpt>
      <trkpt lat="47.35775" lon="-0.32581">
        <ele>-5.587753</ele>
        <time>2011-11-03T14:27:10.596Z</time>
      </trkpt>
      <trkpt lat="47.35776" lon="-0.32608">
        <ele>-6.204128</ele>
        <time>2011-11-03T14:27:12.609Z</time>
      </trkpt>
      <trkpt lat="47.35777" lon="-0.32646">
        <ele>-6.868713</ele>
        <time>2011-11-03T14:27:15.609Z</time>
      </trkpt>
      <trkpt lat="47.35778" lon="-0.32684">
        <ele>-6.852623</ele>
        <time>2011-11-03T14:27:18.683Z</time>
      </trkpt>
      <trkpt lat="47.3578" lon="-0.32722">
        <ele>-6.667126</ele>
        <time>2011-11-03T14:27:21.608Z</time>
      </trkpt>
      <trkpt lat="47.35784" lon="-0.3276">
        <ele>-6.836533</ele>
        <time>2011-11-03T14:27:24.613Z</time>
      </trkpt>
      <trkpt lat="47.35787" lon="-0.32798">
        <ele>-6.961544</ele>
        <time>2011-11-03T14:27:27.613Z</time>
      </trkpt>
      <trkpt lat="47.35792" lon="-0.32835">
        <ele>-6.991192</ele>
        <time>2011-11-03T14:27:30.611Z</time>
      </trkpt>
      <trkpt lat="47.35798" lon="-0.32873">
        <ele>-7.110561</ele>
        <time>2011-11-03T14:27:33.607Z</time>
      </trkpt>
      <trkpt lat="47.35803" lon="-0.3291">
        <ele>-7.278988</ele>
        <time>2011-11-03T14:27:36.606Z</time>
      </trkpt>
      <trkpt lat="47.35809" lon="-0.32948">
        <ele>-7.212807</ele>
        <time>2011-11-03T14:27:39.599Z</time>
      </trkpt>
      <trkpt lat="47.35814" lon="-0.32984">
        <ele>-7.416111</ele>
        <time>2011-11-03T14:27:42.600Z</time>
      </trkpt>
      <trkpt lat="47.3582" lon="-0.33023">
        <ele>-7.170986</ele>
        <time>2011-11-03T14:27:45.599Z</time>
      </trkpt>
      <trkpt lat="47.35826" lon="-0.33061">
        <ele>-6.983166</ele>
        <time>2011-11-03T14:27:48.602Z</time>
      </trkpt>
      <trkpt lat="47.35831" lon="-0.33098">
        <ele>-7.193325</ele>
        <time>2011-11-03T14:27:51.605Z</time>
      </trkpt>
      <trkpt lat="47.35835" lon="-0.33133">
        <ele>-6.97588</ele>
        <time>2011-11-03T14:27:54.626Z</time>
      </trkpt>
      <trkpt lat="47.3584" lon="-0.33168">
        <ele>-6.619251</ele>
        <time>2011-11-03T14:27:57.623Z</time>
      </trkpt>
      <trkpt lat="47.35845" lon="-0.33201">
        <ele>-6.891621</ele>
        <time>2011-11-03T14:28:00.617Z</time>
      </trkpt>
      <trkpt lat="47.35851" lon="-0.33234">
        <ele>-7.056728</ele>
        <time>2011-11-03T14:28:03.613Z</time>
      </trkpt>
      <trkpt lat="47.35857" lon="-0.33269">
        <ele>-7.375313</ele>
        <time>2011-11-03T14:28:06.612Z</time>
      </trkpt>
      <trkpt lat="47.35862" lon="-0.33305">
        <ele>-7.685741</ele>
        <time>2011-11-03T14:28:09.614Z</time>
      </trkpt>
      <trkpt lat="47.35868" lon="-0.33342">
        <ele>-7.967598</ele>
        <time>2011-11-03T14:28:12.614Z</time>
      </trkpt>
      <trkpt lat="47.35874" lon="-0.3338">
        <ele>-8.345428</ele>
        <time>2011-11-03T14:28:15.616Z</time>
      </trkpt>
      <trkpt lat="47.35879" lon="-0.33417">
        <ele>-8.477608</ele>
        <time>2011-11-03T14:28:18.616Z</time>
      </trkpt>
      <trkpt lat="47.35885" lon="-0.33454">
        <ele>-8.493477</ele>
        <time>2011-11-03T14:28:21.617Z</time>
      </trkpt>
      <trkpt lat="47.3589" lon="-0.33491">
        <ele>-8.417809</ele>
        <time>2011-11-03T14:28:24.610Z</time>
      </trkpt>
      <trkpt lat="47.35895" lon="-0.33528">
        <ele>-8.240376</ele>
        <time>2011-11-03T14:28:27.613Z</time>
      </trkpt>
      <trkpt lat="47.35901" lon="-0.33564">
        <ele>-8.117558</ele>
        <time>2011-11-03T14:28:30.616Z</time>
      </trkpt>
      <trkpt lat="47.35907" lon="-0.33601">
        <ele>-8.07103</ele>
        <time>2011-11-03T14:28:33.610Z</time>
      </trkpt>
      <trkpt lat="47.35912" lon="-0.33637">
        <ele>-8.101311</ele>
        <time>2011-11-03T14:28:36.608Z</time>
      </trkpt>
      <trkpt lat="47.35917" lon="-0.33672">
        <ele>-7.903473</ele>
        <time>2011-11-03T14:28:39.603Z</time>
      </trkpt>
      <trkpt lat="47.35922" lon="-0.33707">
        <ele>-7.632317</ele>
        <time>2011-11-03T14:28:42.601Z</time>
      </trkpt>
      <trkpt lat="47.35927" lon="-0.33742">
        <ele>-7.479565</ele>
        <time>2011-11-03T14:28:45.602Z</time>
      </trkpt>
      <trkpt lat="47.35932" lon="-0.33777">
        <ele>-7.137623</ele>
        <time>2011-11-03T14:28:48.606Z</time>
      </trkpt>
      <trkpt lat="47.35938" lon="-0.33814">
        <ele>-7.274345</ele>
        <time>2011-11-03T14:28:51.607Z</time>
      </trkpt>
      <trkpt lat="47.35944" lon="-0.33851">
        <ele>-7.412601</ele>
        <time>2011-11-03T14:28:54.605Z</time>
      </trkpt>
      <trkpt lat="47.3595" lon="-0.33889">
        <ele>-7.446148</ele>
        <time>2011-11-03T14:28:57.759Z</time>
      </trkpt>
      <trkpt lat="47.35955" lon="-0.33927">
        <ele>-7.125881</ele>
        <time>2011-11-03T14:29:00.623Z</time>
      </trkpt>
      <trkpt lat="47.3596" lon="-0.33963">
        <ele>-7.095871</ele>
        <time>2011-11-03T14:29:03.617Z</time>
      </trkpt>
      <trkpt lat="47.35965" lon="-0.33998">
        <ele>-7.186417</ele>
        <time>2011-11-03T14:29:06.613Z</time>
      </trkpt>
      <trkpt lat="47.35971" lon="-0.34034">
        <ele>-7.134167</ele>
        <time>2011-11-03T14:29:09.612Z</time>
      </trkpt>
      <trkpt lat="47.35977" lon="-0.34071">
        <ele>-7.349529</ele>
        <time>2011-11-03T14:29:12.610Z</time>
      </trkpt>
      <trkpt lat="47.35982" lon="-0.34108">
        <ele>-7.274353</ele>
        <time>2011-11-03T14:29:15.608Z</time>
      </trkpt>
      <trkpt lat="47.35988" lon="-0.34144">
        <ele>-6.881756</ele>
        <time>2011-11-03T14:29:18.620Z</time>
      </trkpt>
      <trkpt lat="47.35993" lon="-0.3418">
        <ele>-6.630974</ele>
        <time>2011-11-03T14:29:21.620Z</time>
      </trkpt>
      <trkpt lat="47.35998" lon="-0.34217">
        <ele>-6.541973</ele>
        <time>2011-11-03T14:29:24.627Z</time>
      </trkpt>
      <trkpt lat="47.36003" lon="-0.34254">
        <ele>-6.629681</ele>
        <time>2011-11-03T14:29:27.617Z</time>
      </trkpt>
      <trkpt lat="47.36008" lon="-0.3429">
        <ele>-6.493664</ele>
        <time>2011-11-03T14:29:30.623Z</time>
      </trkpt>
      <trkpt lat="47.36014" lon="-0.34326">
        <ele>-6.52161</ele>
        <time>2011-11-03T14:29:33.830Z</time>
      </trkpt>
      <trkpt lat="47.36019" lon="-0.34362">
        <ele>-6.413879</ele>
        <time>2011-11-03T14:29:36.624Z</time>
      </trkpt>
      <trkpt lat="47.36025" lon="-0.34398">
        <ele>-6.291519</ele>
        <time>2011-11-03T14:29:39.612Z</time>
      </trkpt>
      <trkpt lat="47.3603" lon="-0.34434">
        <ele>-6.331673</ele>
        <time>2011-11-03T14:29:42.623Z</time>
      </trkpt>
      <trkpt lat="47.36036" lon="-0.3447">
        <ele>-6.253887</ele>
        <time>2011-11-03T14:29:45.611Z</time>
      </trkpt>
      <trkpt lat="47.36041" lon="-0.34506">
        <ele>-6.152977</ele>
        <time>2011-11-03T14:29:48.621Z</time>
      </trkpt>
      <trkpt lat="47.36047" lon="-0.34543">
        <ele>-5.980156</ele>
        <time>2011-11-03T14:29:51.607Z</time>
      </trkpt>
      <trkpt lat="47.36052" lon="-0.3458">
        <ele>-5.724113</ele>
        <time>2011-11-03T14:29:54.614Z</time>
      </trkpt>
      <trkpt lat="47.36058" lon="-0.34617">
        <ele>-5.483627</ele>
        <time>2011-11-03T14:29:57.650Z</time>
      </trkpt>
      <trkpt lat="47.36063" lon="-0.34653">
        <ele>-5.40263</ele>
        <time>2011-11-03T14:30:00.611Z</time>
      </trkpt>
      <trkpt lat="47.36068" lon="-0.34689">
        <ele>-5.605637</ele>
        <time>2011-11-03T14:30:03.633Z</time>
      </trkpt>
      <trkpt lat="47.36073" lon="-0.34725">
        <ele>-5.660927</ele>
        <time>2011-11-03T14:30:06.609Z</time>
      </trkpt>
      <trkpt lat="47.36078" lon="-0.34761">
        <ele>-5.494858</ele>
        <time>2011-11-03T14:30:09.632Z</time>
      </trkpt>
      <trkpt lat="47.36084" lon="-0.34799">
        <ele>-5.651478</ele>
        <time>2011-11-03T14:30:12.625Z</time>
      </trkpt>
      <trkpt lat="47.36089" lon="-0.34838">
        <ele>-5.598415</ele>
        <time>2011-11-03T14:30:15.628Z</time>
      </trkpt>
      <trkpt lat="47.36095" lon="-0.34877">
        <ele>-6.00024</ele>
        <time>2011-11-03T14:30:18.623Z</time>
      </trkpt>
      <trkpt lat="47.36101" lon="-0.34916">
        <ele>-6.445042</ele>
        <time>2011-11-03T14:30:21.614Z</time>
      </trkpt>
      <trkpt lat="47.36109" lon="-0.34952">
        <ele>-6.074177</ele>
        <time>2011-11-03T14:30:24.618Z</time>
      </trkpt>
      <trkpt lat="47.36117" lon="-0.34987">
        <ele>-5.829288</ele>
        <time>2011-11-03T14:30:27.616Z</time>
      </trkpt>
      <trkpt lat="47.36126" lon="-0.3502">
        <ele>-6.424671</ele>
        <time>2011-11-03T14:30:30.618Z</time>
      </trkpt>
      <trkpt lat="47.36135" lon="-0.35054">
        <ele>-6.608952</ele>
        <time>2011-11-03T14:30:33.615Z</time>
      </trkpt>
      <trkpt lat="47.36146" lon="-0.35087">
        <ele>-6.583031</ele>
        <time>2011-11-03T14:30:36.614Z</time>
      </trkpt>
      <trkpt lat="47.36156" lon="-0.3512">
        <ele>-6.291508</ele>
        <time>2011-11-03T14:30:39.611Z</time>
      </trkpt>
      <trkpt lat="47.36167" lon="-0.35153">
        <ele>-6.255066</ele>
        <time>2011-11-03T14:30:42.605Z</time>
      </trkpt>
      <trkpt lat="47.36177" lon="-0.35186">
        <ele>-5.923359</ele>
        <time>2011-11-03T14:30:45.602Z</time>
      </trkpt>
      <trkpt lat="47.36187" lon="-0.3522">
        <ele>-5.615791</ele>
        <time>2011-11-03T14:30:48.607Z</time>
      </trkpt>
      <trkpt lat="47.36198" lon="-0.35252">
        <ele>-5.640858</ele>
        <time>2011-11-03T14:30:51.607Z</time>
      </trkpt>
      <trkpt lat="47.36209" lon="-0.35285">
        <ele>-5.90205</ele>
        <time>2011-11-03T14:30:54.618Z</time>
      </trkpt>
      <trkpt lat="47.36219" lon="-0.35319">
        <ele>-5.940998</ele>
        <time>2011-11-03T14:30:57.741Z</time>
      </trkpt>
      <trkpt lat="47.36225" lon="-0.35354">
        <ele>-6.116138</ele>
        <time>2011-11-03T14:31:00.607Z</time>
      </trkpt>
      <trkpt lat="47.36231" lon="-0.3539">
        <ele>-5.976269</ele>
        <time>2011-11-03T14:31:03.614Z</time>
      </trkpt>
      <trkpt lat="47.36237" lon="-0.35427">
        <ele>-5.74395</ele>
        <time>2011-11-03T14:31:06.608Z</time>
      </trkpt>
      <trkpt lat="47.36243" lon="-0.35462">
        <ele>-5.538013</ele>
        <time>2011-11-03T14:31:09.630Z</time>
      </trkpt>
      <trkpt lat="47.36259" lon="-0.35486">
        <ele>-5.825996</ele>
        <time>2011-11-03T14:31:12.610Z</time>
      </trkpt>
      <trkpt lat="47.36277" lon="-0.35503">
        <ele>-6.88541</ele>
        <time>2011-11-03T14:31:15.608Z</time>
      </trkpt>
      <trkpt lat="47.363" lon="-0.35497">
        <ele>-7.125378</ele>
        <time>2011-11-03T14:31:19.625Z</time>
      </trkpt>
      <trkpt lat="47.36319" lon="-0.35483">
        <ele>-6.508133</ele>
        <time>2011-11-03T14:31:22.631Z</time>
      </trkpt>
      <trkpt lat="47.36343" lon="-0.35469">
        <ele>-5.517593</ele>
        <time>2011-11-03T14:31:25.616Z</time>
      </trkpt>
      <trkpt lat="47.36368" lon="-0.35455">
        <ele>-4.281551</ele>
        <time>2011-11-03T14:31:28.620Z</time>
      </trkpt>
      <trkpt lat="47.36392" lon="-0.35442">
        <ele>-3.414116</ele>
        <time>2011-11-03T14:31:31.623Z</time>
      </trkpt>
      <trkpt lat="47.36417" lon="-0.35433">
        <ele>-3.108383</ele>
        <time>2011-11-03T14:31:34.632Z</time>
      </trkpt>
      <trkpt lat="47.36442" lon="-0.35432">
        <ele>-3.05962</ele>
        <time>2011-11-03T14:31:37.625Z</time>
      </trkpt>
      <trkpt lat="47.36468" lon="-0.35436">
        <ele>-3.048916</ele>
        <time>2011-11-03T14:31:40.620Z</time>
      </trkpt>
      <trkpt lat="47.36493" lon="-0.35445">
        <ele>-2.958969</ele>
        <time>2011-11-03T14:31:43.626Z</time>
      </trkpt>
      <trkpt lat="47.36515" lon="-0.35463">
        <ele>-2.919151</ele>
        <time>2011-11-03T14:31:46.614Z</time>
      </trkpt>
      <trkpt lat="47.36532" lon="-0.3549">
        <ele>-2.892384</ele>
        <time>2011-11-03T14:31:49.606Z</time>
      </trkpt>
      <trkpt lat="47.36543" lon="-0.35522">
        <ele>-3.136185</ele>
        <time>2011-11-03T14:31:52.631Z</time>
      </trkpt>
      <trkpt lat="47.36552" lon="-0.35556">
        <ele>-3.055607</ele>
        <time>2011-11-03T14:31:55.614Z</time>
      </trkpt>
      <trkpt lat="47.3656" lon="-0.35592">
        <ele>-2.838135</ele>
        <time>2011-11-03T14:31:58.614Z</time>
      </trkpt>
      <trkpt lat="47.36568" lon="-0.35628">
        <ele>-2.429234</ele>
        <time>2011-11-03T14:32:01.613Z</time>
      </trkpt>
      <trkpt lat="47.36576" lon="-0.35664">
        <ele>-2.449665</ele>
        <time>2011-11-03T14:32:04.618Z</time>
      </trkpt>
      <trkpt lat="47.36584" lon="-0.357">
        <ele>-2.711708</ele>
        <time>2011-11-03T14:32:07.623Z</time>
      </trkpt>
      <trkpt lat="47.36592" lon="-0.35736">
        <ele>-2.715649</ele>
        <time>2011-11-03T14:32:10.609Z</time>
      </trkpt>
      <trkpt lat="47.366" lon="-0.35773">
        <ele>-2.587322</ele>
        <time>2011-11-03T14:32:13.620Z</time>
      </trkpt>
      <trkpt lat="47.36608" lon="-0.35808">
        <ele>-2.132717</ele>
        <time>2011-11-03T14:32:16.608Z</time>
      </trkpt>
      <trkpt lat="47.36615" lon="-0.35842">
        <ele>-2.026207</ele>
        <time>2011-11-03T14:32:19.618Z</time>
      </trkpt>
      <trkpt lat="47.36622" lon="-0.35875">
        <ele>-1.637283</ele>
        <time>2011-11-03T14:32:22.605Z</time>
      </trkpt>
      <trkpt lat="47.36629" lon="-0.35905">
        <ele>-1.581833</ele>
        <time>2011-11-03T14:32:25.615Z</time>
      </trkpt>
      <trkpt lat="47.36638" lon="-0.35933">
        <ele>-1.916332</ele>
        <time>2011-11-03T14:32:28.605Z</time>
      </trkpt>
      <trkpt lat="47.3665" lon="-0.35956">
        <ele>-1.791054</ele>
        <time>2011-11-03T14:32:31.614Z</time>
      </trkpt>
      <trkpt lat="47.36665" lon="-0.35975">
        <ele>-1.774155</ele>
        <time>2011-11-03T14:32:34.625Z</time>
      </trkpt>
      <trkpt lat="47.36682" lon="-0.35994">
        <ele>-1.69593</ele>
        <time>2011-11-03T14:32:37.613Z</time>
      </trkpt>
      <trkpt lat="47.36698" lon="-0.36013">
        <ele>-1.503963</ele>
        <time>2011-11-03T14:32:40.607Z</time>
      </trkpt>
      <trkpt lat="47.36714" lon="-0.36033">
        <ele>-0.843777</ele>
        <time>2011-11-03T14:32:43.629Z</time>
      </trkpt>
      <trkpt lat="47.36729" lon="-0.36052">
        <ele>-0.290936</ele>
        <time>2011-11-03T14:32:46.621Z</time>
      </trkpt>
      <trkpt lat="47.36742" lon="-0.36074">
        <ele>0.145157</ele>
        <time>2011-11-03T14:32:49.626Z</time>
      </trkpt>
      <trkpt lat="47.36755" lon="-0.36102">
        <ele>-0.101879</ele>
        <time>2011-11-03T14:32:53.607Z</time>
      </trkpt>
      <trkpt lat="47.36765" lon="-0.36127">
        <ele>-0.863159</ele>
        <time>2011-11-03T14:32:57.799Z</time>
      </trkpt>
      <trkpt lat="47.36775" lon="-0.36155">
        <ele>-1.232456</ele>
        <time>2011-11-03T14:33:01.623Z</time>
      </trkpt>
      <trkpt lat="47.36786" lon="-0.36185">
        <ele>-1.458241</ele>
        <time>2011-11-03T14:33:05.605Z</time>
      </trkpt>
      <trkpt lat="47.36796" lon="-0.36216">
        <ele>-1.728329</ele>
        <time>2011-11-03T14:33:09.609Z</time>
      </trkpt>
      <trkpt lat="47.36804" lon="-0.3624">
        <ele>-1.75378</ele>
        <time>2011-11-03T14:33:12.606Z</time>
      </trkpt>
      <trkpt lat="47.36813" lon="-0.36265">
        <ele>-1.589046</ele>
        <time>2011-11-03T14:33:15.608Z</time>
      </trkpt>
      <trkpt lat="47.36822" lon="-0.36291">
        <ele>-1.356289</ele>
        <time>2011-11-03T14:33:18.627Z</time>
      </trkpt>
      <trkpt lat="47.36831" lon="-0.36316">
        <ele>-1.315731</ele>
        <time>2011-11-03T14:33:21.623Z</time>
      </trkpt>
      <trkpt lat="47.36842" lon="-0.36347">
        <ele>-1.101463</ele>
        <time>2011-11-03T14:33:25.609Z</time>
      </trkpt>
      <trkpt lat="47.36853" lon="-0.36377">
        <ele>-1.049534</ele>
        <time>2011-11-03T14:33:29.612Z</time>
      </trkpt>
      <trkpt lat="47.36863" lon="-0.36402">
        <ele>-0.621407</ele>
        <time>2011-11-03T14:33:32.634Z</time>
      </trkpt>
      <trkpt lat="47.36872" lon="-0.36426">
        <ele>-0.344349</ele>
        <time>2011-11-03T14:33:35.605Z</time>
      </trkpt>
      <trkpt lat="47.36881" lon="-0.3645">
        <ele>0.054096</ele>
        <time>2011-11-03T14:33:38.628Z</time>
      </trkpt>
      <trkpt lat="47.36896" lon="-0.36477">
        <ele>0.751801</ele>
        <time>2011-11-03T14:33:42.608Z</time>
      </trkpt>
      <trkpt lat="47.36913" lon="-0.36496">
        <ele>0.388069</ele>
        <time>2011-11-03T14:33:46.601Z</time>
      </trkpt>
      <trkpt lat="47.36932" lon="-0.36507">
        <ele>0.653378</ele>
        <time>2011-11-03T14:33:50.620Z</time>
      </trkpt>
      <trkpt lat="47.3695" lon="-0.36513">
        <ele>1.302074</ele>
        <time>2011-11-03T14:33:54.723Z</time>
      </trkpt>
      <trkpt lat="47.36969" lon="-0.36517">
        <ele>2.176952</ele>
        <time>2011-11-03T14:33:58.621Z</time>
      </trkpt>
      <trkpt lat="47.36987" lon="-0.36521">
        <ele>2.981815</ele>
        <time>2011-11-03T14:34:02.630Z</time>
      </trkpt>
      <trkpt lat="47.37007" lon="-0.36525">
        <ele>3.670692</ele>
        <time>2011-11-03T14:34:06.615Z</time>
      </trkpt>
      <trkpt lat="47.37029" lon="-0.36531">
        <ele>4.476852</ele>
        <time>2011-11-03T14:34:11.610Z</time>
      </trkpt>
      <trkpt lat="47.37047" lon="-0.36536">
        <ele>4.964268</ele>
        <time>2011-11-03T14:34:15.621Z</time>
      </trkpt>
      <trkpt lat="47.37066" lon="-0.36543">
        <ele>5.384174</ele>
        <time>2011-11-03T14:34:19.612Z</time>
      </trkpt>
      <trkpt lat="47.37088" lon="-0.3655">
        <ele>5.680847</ele>
        <time>2011-11-03T14:34:23.659Z</time>
      </trkpt>
      <trkpt lat="47.37109" lon="-0.36556">
        <ele>6.218403</ele>
        <time>2011-11-03T14:34:27.621Z</time>
      </trkpt>
      <trkpt lat="47.37128" lon="-0.36561">
        <ele>7.518383</ele>
        <time>2011-11-03T14:34:31.652Z</time>
      </trkpt>
      <trkpt lat="47.37148" lon="-0.36568">
        <ele>8.948883</ele>
        <time>2011-11-03T14:34:35.613Z</time>
      </trkpt>
      <trkpt lat="47.37168" lon="-0.36579">
        <ele>10.881886</ele>
        <time>2011-11-03T14:34:40.607Z</time>
      </trkpt>
      <trkpt lat="47.37188" lon="-0.36591">
        <ele>12.2938</ele>
        <time>2011-11-03T14:34:45.623Z</time>
      </trkpt>
      <trkpt lat="47.37205" lon="-0.36604">
        <ele>13.70853</ele>
        <time>2011-11-03T14:34:49.606Z</time>
      </trkpt>
      <trkpt lat="47.37221" lon="-0.36621">
        <ele>15.416382</ele>
        <time>2011-11-03T14:34:53.606Z</time>
      </trkpt>
      <trkpt lat="47.37236" lon="-0.3664">
        <ele>17.134212</ele>
        <time>2011-11-03T14:34:57.616Z</time>
      </trkpt>
      <trkpt lat="47.37251" lon="-0.36662">
        <ele>18.45092</ele>
        <time>2011-11-03T14:35:01.619Z</time>
      </trkpt>
      <trkpt lat="47.37265" lon="-0.36686">
        <ele>19.677994</ele>
        <time>2011-11-03T14:35:05.612Z</time>
      </trkpt>
      <trkpt lat="47.37276" lon="-0.36711">
        <ele>21.011196</ele>
        <time>2011-11-03T14:35:09.612Z</time>
      </trkpt>
      <trkpt lat="47.37286" lon="-0.36737">
        <ele>22.254066</ele>
        <time>2011-11-03T14:35:13.601Z</time>
      </trkpt>
      <trkpt lat="47.37296" lon="-0.36762">
        <ele>23.360615</ele>
        <time>2011-11-03T14:35:17.616Z</time>
      </trkpt>
      <trkpt lat="47.37306" lon="-0.36789">
        <ele>24.370407</ele>
        <time>2011-11-03T14:35:21.618Z</time>
      </trkpt>
      <trkpt lat="47.37315" lon="-0.36815">
        <ele>25.10981</ele>
        <time>2011-11-03T14:35:25.605Z</time>
      </trkpt>
      <trkpt lat="47.37325" lon="-0.36843">
        <ele>25.650116</ele>
        <time>2011-11-03T14:35:30.618Z</time>
      </trkpt>
      <trkpt lat="47.37335" lon="-0.36869">
        <ele>26.213406</ele>
        <time>2011-11-03T14:35:34.621Z</time>
      </trkpt>
      <trkpt lat="47.37345" lon="-0.36897">
        <ele>26.620525</ele>
        <time>2011-11-03T14:35:38.623Z</time>
      </trkpt>
      <trkpt lat="47.37356" lon="-0.36926">
        <ele>26.861416</ele>
        <time>2011-11-03T14:35:42.615Z</time>
      </trkpt>
      <trkpt lat="47.37367" lon="-0.36955">
        <ele>27.13414</ele>
        <time>2011-11-03T14:35:46.602Z</time>
      </trkpt>
      <trkpt lat="47.37377" lon="-0.36979">
        <ele>27.456688</ele>
        <time>2011-11-03T14:35:49.616Z</time>
      </trkpt>
      <trkpt lat="47.37387" lon="-0.37004">
        <ele>27.82077</ele>
        <time>2011-11-03T14:35:52.625Z</time>
      </trkpt>
      <trkpt lat="47.37396" lon="-0.37029">
        <ele>28.264477</ele>
        <time>2011-11-03T14:35:55.630Z</time>
      </trkpt>
      <trkpt lat="47.37406" lon="-0.37055">
        <ele>28.779385</ele>
        <time>2011-11-03T14:35:58.630Z</time>
      </trkpt>
      <trkpt lat="47.37417" lon="-0.37083">
        <ele>29.017925</ele>
        <time>2011-11-03T14:36:01.628Z</time>
      </trkpt>
      <trkpt lat="47.37427" lon="-0.37112">
        <ele>29.144875</ele>
        <time>2011-11-03T14:36:04.631Z</time>
      </trkpt>
      <trkpt lat="47.37438" lon="-0.37139">
        <ele>29.291313</ele>
        <time>2011-11-03T14:36:07.633Z</time>
      </trkpt>
      <trkpt lat="47.37448" lon="-0.37166">
        <ele>29.522373</ele>
        <time>2011-11-03T14:36:10.621Z</time>
      </trkpt>
      <trkpt lat="47.37459" lon="-0.37194">
        <ele>29.957161</ele>
        <time>2011-11-03T14:36:13.620Z</time>
      </trkpt>
      <trkpt lat="47.3747" lon="-0.37223">
        <ele>30.478813</ele>
        <time>2011-11-03T14:36:16.634Z</time>
      </trkpt>
      <trkpt lat="47.3748" lon="-0.37251">
        <ele>31.021591</ele>
        <time>2011-11-03T14:36:19.627Z</time>
      </trkpt>
      <trkpt lat="47.3749" lon="-0.37279">
        <ele>31.539516</ele>
        <time>2011-11-03T14:36:22.630Z</time>
      </trkpt>
      <trkpt lat="47.37501" lon="-0.37307">
        <ele>32.077309</ele>
        <time>2011-11-03T14:36:25.634Z</time>
      </trkpt>
      <trkpt lat="47.37512" lon="-0.37336">
        <ele>32.587566</ele>
        <time>2011-11-03T14:36:28.622Z</time>
      </trkpt>
      <trkpt lat="47.37524" lon="-0.37366">
        <ele>33.070477</ele>
        <time>2011-11-03T14:36:31.624Z</time>
      </trkpt>
      <trkpt lat="47.37535" lon="-0.37397">
        <ele>33.384403</ele>
        <time>2011-11-03T14:36:34.822Z</time>
      </trkpt>
      <trkpt lat="47.37547" lon="-0.37428">
        <ele>33.583324</ele>
        <time>2011-11-03T14:36:37.613Z</time>
      </trkpt>
      <trkpt lat="47.37558" lon="-0.37458">
        <ele>33.679142</ele>
        <time>2011-11-03T14:36:40.615Z</time>
      </trkpt>
      <trkpt lat="47.37569" lon="-0.37489">
        <ele>33.606068</ele>
        <time>2011-11-03T14:36:43.615Z</time>
      </trkpt>
      <trkpt lat="47.37581" lon="-0.37519">
        <ele>33.766445</ele>
        <time>2011-11-03T14:36:46.613Z</time>
      </trkpt>
      <trkpt lat="47.37592" lon="-0.3755">
        <ele>33.89587</ele>
        <time>2011-11-03T14:36:49.613Z</time>
      </trkpt>
      <trkpt lat="47.37604" lon="-0.37581">
        <ele>34.018528</ele>
        <time>2011-11-03T14:36:52.619Z</time>
      </trkpt>
      <trkpt lat="47.37615" lon="-0.37612">
        <ele>34.256428</ele>
        <time>2011-11-03T14:36:55.604Z</time>
      </trkpt>
      <trkpt lat="47.37627" lon="-0.37645">
        <ele>34.619938</ele>
        <time>2011-11-03T14:36:58.602Z</time>
      </trkpt>
      <trkpt lat="47.3764" lon="-0.37678">
        <ele>34.940857</ele>
        <time>2011-11-03T14:37:01.603Z</time>
      </trkpt>
      <trkpt lat="47.37652" lon="-0.37711">
        <ele>35.09087</ele>
        <time>2011-11-03T14:37:04.724Z</time>
      </trkpt>
      <trkpt lat="47.37664" lon="-0.37743">
        <ele>35.121086</ele>
        <time>2011-11-03T14:37:07.641Z</time>
      </trkpt>
      <trkpt lat="47.37675" lon="-0.37776">
        <ele>35.058506</ele>
        <time>2011-11-03T14:37:10.620Z</time>
      </trkpt>
      <trkpt lat="47.37688" lon="-0.37809">
        <ele>34.886845</ele>
        <time>2011-11-03T14:37:13.625Z</time>
      </trkpt>
      <trkpt lat="47.377" lon="-0.37842">
        <ele>34.694008</ele>
        <time>2011-11-03T14:37:16.618Z</time>
      </trkpt>
      <trkpt lat="47.37711" lon="-0.37873">
        <ele>34.606171</ele>
        <time>2011-11-03T14:37:19.803Z</time>
      </trkpt>
      <trkpt lat="47.37723" lon="-0.37906">
        <ele>34.668495</ele>
        <time>2011-11-03T14:37:22.614Z</time>
      </trkpt>
      <trkpt lat="47.37734" lon="-0.37938">
        <ele>34.77739</ele>
        <time>2011-11-03T14:37:25.608Z</time>
      </trkpt>
      <trkpt lat="47.37746" lon="-0.37968">
        <ele>34.89386</ele>
        <time>2011-11-03T14:37:28.614Z</time>
      </trkpt>
      <trkpt lat="47.37758" lon="-0.37999">
        <ele>35.090275</ele>
        <time>2011-11-03T14:37:31.612Z</time>
      </trkpt>
      <trkpt lat="47.3777" lon="-0.3803">
        <ele>35.415325</ele>
        <time>2011-11-03T14:37:34.612Z</time>
      </trkpt>
      <trkpt lat="47.37783" lon="-0.38062">
        <ele>35.787186</ele>
        <time>2011-11-03T14:37:37.609Z</time>
      </trkpt>
      <trkpt lat="47.37795" lon="-0.38094">
        <ele>35.924782</ele>
        <time>2011-11-03T14:37:40.606Z</time>
      </trkpt>
      <trkpt lat="47.37806" lon="-0.38127">
        <ele>35.948166</ele>
        <time>2011-11-03T14:37:43.604Z</time>
      </trkpt>
      <trkpt lat="47.37817" lon="-0.3816">
        <ele>36.00256</ele>
        <time>2011-11-03T14:37:46.609Z</time>
      </trkpt>
      <trkpt lat="47.37827" lon="-0.38196">
        <ele>36.115036</ele>
        <time>2011-11-03T14:37:49.608Z</time>
      </trkpt>
      <trkpt lat="47.37838" lon="-0.38231">
        <ele>36.309616</ele>
        <time>2011-11-03T14:37:52.619Z</time>
      </trkpt>
      <trkpt lat="47.37849" lon="-0.38267">
        <ele>36.641651</ele>
        <time>2011-11-03T14:37:55.634Z</time>
      </trkpt>
      <trkpt lat="47.37861" lon="-0.38303">
        <ele>37.013466</ele>
        <time>2011-11-03T14:37:58.631Z</time>
      </trkpt>
      <trkpt lat="47.37874" lon="-0.38337">
        <ele>37.483021</ele>
        <time>2011-11-03T14:38:01.661Z</time>
      </trkpt>
      <trkpt lat="47.37883" lon="-0.38361">
        <ele>37.896095</ele>
        <time>2011-11-03T14:38:03.652Z</time>
      </trkpt>
      <trkpt lat="47.37897" lon="-0.38395">
        <ele>38.329777</ele>
        <time>2011-11-03T14:38:06.622Z</time>
      </trkpt>
      <trkpt lat="47.37911" lon="-0.38429">
        <ele>38.614189</ele>
        <time>2011-11-03T14:38:09.632Z</time>
      </trkpt>
      <trkpt lat="47.37924" lon="-0.38461">
        <ele>38.772507</ele>
        <time>2011-11-03T14:38:12.636Z</time>
      </trkpt>
      <trkpt lat="47.37939" lon="-0.38493">
        <ele>38.953442</ele>
        <time>2011-11-03T14:38:15.615Z</time>
      </trkpt>
      <trkpt lat="47.37954" lon="-0.38522">
        <ele>39.28157</ele>
        <time>2011-11-03T14:38:18.618Z</time>
      </trkpt>
      <trkpt lat="47.37971" lon="-0.3855">
        <ele>39.685509</ele>
        <time>2011-11-03T14:38:21.623Z</time>
      </trkpt>
      <trkpt lat="47.37987" lon="-0.38579">
        <ele>40.287643</ele>
        <time>2011-11-03T14:38:24.610Z</time>
      </trkpt>
      <trkpt lat="47.38003" lon="-0.38608">
        <ele>41.085037</ele>
        <time>2011-11-03T14:38:27.609Z</time>
      </trkpt>
      <trkpt lat="47.38018" lon="-0.38638">
        <ele>41.669876</ele>
        <time>2011-11-03T14:38:30.615Z</time>
      </trkpt>
      <trkpt lat="47.38034" lon="-0.38669">
        <ele>42.144051</ele>
        <time>2011-11-03T14:38:33.615Z</time>
      </trkpt>
      <trkpt lat="47.38049" lon="-0.387">
        <ele>42.755028</ele>
        <time>2011-11-03T14:38:36.612Z</time>
      </trkpt>
      <trkpt lat="47.38063" lon="-0.38732">
        <ele>43.420528</ele>
        <time>2011-11-03T14:38:39.612Z</time>
      </trkpt>
      <trkpt lat="47.38078" lon="-0.38765">
        <ele>44.005577</ele>
        <time>2011-11-03T14:38:42.604Z</time>
      </trkpt>
      <trkpt lat="47.38094" lon="-0.38795">
        <ele>44.490608</ele>
        <time>2011-11-03T14:38:45.607Z</time>
      </trkpt>
      <trkpt lat="47.38109" lon="-0.38825">
        <ele>44.714664</ele>
        <time>2011-11-03T14:38:48.682Z</time>
      </trkpt>
      <trkpt lat="47.38123" lon="-0.38856">
        <ele>44.982544</ele>
        <time>2011-11-03T14:38:51.604Z</time>
      </trkpt>
      <trkpt lat="47.3814" lon="-0.38885">
        <ele>45.355152</ele>
        <time>2011-11-03T14:38:54.620Z</time>
      </trkpt>
      <trkpt lat="47.38157" lon="-0.38913">
        <ele>45.707066</ele>
        <time>2011-11-03T14:38:57.627Z</time>
      </trkpt>
      <trkpt lat="47.38173" lon="-0.38943">
        <ele>46.008018</ele>
        <time>2011-11-03T14:39:00.683Z</time>
      </trkpt>
      <trkpt lat="47.38187" lon="-0.38973">
        <ele>46.430058</ele>
        <time>2011-11-03T14:39:03.615Z</time>
      </trkpt>
      <trkpt lat="47.38203" lon="-0.39003">
        <ele>46.84465</ele>
        <time>2011-11-03T14:39:06.616Z</time>
      </trkpt>
      <trkpt lat="47.38219" lon="-0.39033">
        <ele>47.515831</ele>
        <time>2011-11-03T14:39:09.620Z</time>
      </trkpt>
      <trkpt lat="47.38234" lon="-0.39065">
        <ele>48.47216</ele>
        <time>2011-11-03T14:39:12.609Z</time>
      </trkpt>
      <trkpt lat="47.3825" lon="-0.39094">
        <ele>49.30714</ele>
        <time>2011-11-03T14:39:15.626Z</time>
      </trkpt>
      <trkpt lat="47.38265" lon="-0.39124">
        <ele>49.806198</ele>
        <time>2011-11-03T14:39:18.627Z</time>
      </trkpt>
      <trkpt lat="47.3828" lon="-0.39154">
        <ele>49.8032</ele>
        <time>2011-11-03T14:39:21.619Z</time>
      </trkpt>
      <trkpt lat="47.38295" lon="-0.39183">
        <ele>49.616501</ele>
        <time>2011-11-03T14:39:24.617Z</time>
      </trkpt>
      <trkpt lat="47.38311" lon="-0.39213">
        <ele>49.870274</ele>
        <time>2011-11-03T14:39:27.616Z</time>
      </trkpt>
      <trkpt lat="47.38327" lon="-0.39246">
        <ele>50.531647</ele>
        <time>2011-11-03T14:39:30.627Z</time>
      </trkpt>
      <trkpt lat="47.38341" lon="-0.39277">
        <ele>51.124138</ele>
        <time>2011-11-03T14:39:33.626Z</time>
      </trkpt>
      <trkpt lat="47.38357" lon="-0.39307">
        <ele>51.34573</ele>
        <time>2011-11-03T14:39:36.618Z</time>
      </trkpt>
      <trkpt lat="47.38373" lon="-0.39336">
        <ele>51.131855</ele>
        <time>2011-11-03T14:39:39.617Z</time>
      </trkpt>
      <trkpt lat="47.38388" lon="-0.39365">
        <ele>50.803947</ele>
        <time>2011-11-03T14:39:42.616Z</time>
      </trkpt>
      <trkpt lat="47.38405" lon="-0.39396">
        <ele>50.73513</ele>
        <time>2011-11-03T14:39:45.627Z</time>
      </trkpt>
      <trkpt lat="47.38423" lon="-0.39424">
        <ele>50.400379</ele>
        <time>2011-11-03T14:39:48.622Z</time>
      </trkpt>
      <trkpt lat="47.38442" lon="-0.39453">
        <ele>49.422028</ele>
        <time>2011-11-03T14:39:51.608Z</time>
      </trkpt>
      <trkpt lat="47.38459" lon="-0.39483">
        <ele>48.059914</ele>
        <time>2011-11-03T14:39:54.618Z</time>
      </trkpt>
      <trkpt lat="47.38471" lon="-0.39503">
        <ele>47.158813</ele>
        <time>2011-11-03T14:39:56.620Z</time>
      </trkpt>
      <trkpt lat="47.38483" lon="-0.39523">
        <ele>46.182766</ele>
        <time>2011-11-03T14:39:58.618Z</time>
      </trkpt>
      <trkpt lat="47.385" lon="-0.39554">
        <ele>44.998844</ele>
        <time>2011-11-03T14:40:01.616Z</time>
      </trkpt>
      <trkpt lat="47.38516" lon="-0.39585">
        <ele>43.959618</ele>
        <time>2011-11-03T14:40:04.711Z</time>
      </trkpt>
      <trkpt lat="47.38532" lon="-0.39615">
        <ele>42.892693</ele>
        <time>2011-11-03T14:40:07.613Z</time>
      </trkpt>
      <trkpt lat="47.38548" lon="-0.39645">
        <ele>42.16111</ele>
        <time>2011-11-03T14:40:10.607Z</time>
      </trkpt>
      <trkpt lat="47.38564" lon="-0.39675">
        <ele>41.825783</ele>
        <time>2011-11-03T14:40:13.606Z</time>
      </trkpt>
      <trkpt lat="47.38579" lon="-0.39707">
        <ele>41.494286</ele>
        <time>2011-11-03T14:40:16.701Z</time>
      </trkpt>
      <trkpt lat="47.38595" lon="-0.39737">
        <ele>41.110321</ele>
        <time>2011-11-03T14:40:19.612Z</time>
      </trkpt>
      <trkpt lat="47.38611" lon="-0.39769">
        <ele>40.925106</ele>
        <time>2011-11-03T14:40:22.604Z</time>
      </trkpt>
      <trkpt lat="47.38625" lon="-0.398">
        <ele>40.768402</ele>
        <time>2011-11-03T14:40:25.606Z</time>
      </trkpt>
      <trkpt lat="47.3864" lon="-0.39831">
        <ele>40.786049</ele>
        <time>2011-11-03T14:40:28.613Z</time>
      </trkpt>
      <trkpt lat="47.38655" lon="-0.39863">
        <ele>40.901386</ele>
        <time>2011-11-03T14:40:31.624Z</time>
      </trkpt>
      <trkpt lat="47.3867" lon="-0.39895">
        <ele>41.134972</ele>
        <time>2011-11-03T14:40:34.626Z</time>
      </trkpt>
      <trkpt lat="47.38684" lon="-0.39928">
        <ele>41.518959</ele>
        <time>2011-11-03T14:40:37.614Z</time>
      </trkpt>
      <trkpt lat="47.38698" lon="-0.3996">
        <ele>41.829842</ele>
        <time>2011-11-03T14:40:40.608Z</time>
      </trkpt>
      <trkpt lat="47.38714" lon="-0.39992">
        <ele>42.082088</ele>
        <time>2011-11-03T14:40:43.613Z</time>
      </trkpt>
      <trkpt lat="47.38727" lon="-0.40025">
        <ele>42.620075</ele>
        <time>2011-11-03T14:40:46.608Z</time>
      </trkpt>
      <trkpt lat="47.38737" lon="-0.40059">
        <ele>43.094193</ele>
        <time>2011-11-03T14:40:49.614Z</time>
      </trkpt>
      <trkpt lat="47.38745" lon="-0.40091">
        <ele>43.252563</ele>
        <time>2011-11-03T14:40:52.618Z</time>
      </trkpt>
      <trkpt lat="47.38753" lon="-0.40122">
        <ele>43.650452</ele>
        <time>2011-11-03T14:40:55.612Z</time>
      </trkpt>
      <trkpt lat="47.38762" lon="-0.40156">
        <ele>44.188461</ele>
        <time>2011-11-03T14:40:58.607Z</time>
      </trkpt>
      <trkpt lat="47.38771" lon="-0.40191">
        <ele>44.648571</ele>
        <time>2011-11-03T14:41:01.617Z</time>
      </trkpt>
      <trkpt lat="47.38781" lon="-0.40224">
        <ele>44.96954</ele>
        <time>2011-11-03T14:41:04.628Z</time>
      </trkpt>
      <trkpt lat="47.3879" lon="-0.40257">
        <ele>45.127254</ele>
        <time>2011-11-03T14:41:07.628Z</time>
      </trkpt>
      <trkpt lat="47.38799" lon="-0.4029">
        <ele>45.127453</ele>
        <time>2011-11-03T14:41:10.611Z</time>
      </trkpt>
      <trkpt lat="47.38808" lon="-0.40326">
        <ele>45.170349</ele>
        <time>2011-11-03T14:41:13.622Z</time>
      </trkpt>
      <trkpt lat="47.38817" lon="-0.40359">
        <ele>45.258911</ele>
        <time>2011-11-03T14:41:16.624Z</time>
      </trkpt>
      <trkpt lat="47.38824" lon="-0.40392">
        <ele>45.281944</ele>
        <time>2011-11-03T14:41:19.625Z</time>
      </trkpt>
      <trkpt lat="47.38829" lon="-0.40422">
        <ele>45.295444</ele>
        <time>2011-11-03T14:41:22.629Z</time>
      </trkpt>
      <trkpt lat="47.38832" lon="-0.40452">
        <ele>45.360558</ele>
        <time>2011-11-03T14:41:25.626Z</time>
      </trkpt>
      <trkpt lat="47.38834" lon="-0.40481">
        <ele>45.391796</ele>
        <time>2011-11-03T14:41:28.626Z</time>
      </trkpt>
      <trkpt lat="47.38836" lon="-0.4051">
        <ele>45.550674</ele>
        <time>2011-11-03T14:41:31.616Z</time>
      </trkpt>
      <trkpt lat="47.38837" lon="-0.40538">
        <ele>45.754177</ele>
        <time>2011-11-03T14:41:34.613Z</time>
      </trkpt>
      <trkpt lat="47.38836" lon="-0.40567">
        <ele>45.852894</ele>
        <time>2011-11-03T14:41:37.661Z</time>
      </trkpt>
      <trkpt lat="47.38836" lon="-0.40595">
        <ele>46.004589</ele>
        <time>2011-11-03T14:41:40.607Z</time>
      </trkpt>
      <trkpt lat="47.38837" lon="-0.40625">
        <ele>46.211781</ele>
        <time>2011-11-03T14:41:43.616Z</time>
      </trkpt>
      <trkpt lat="47.38839" lon="-0.40655">
        <ele>46.400921</ele>
        <time>2011-11-03T14:41:46.620Z</time>
      </trkpt>
      <trkpt lat="47.3884" lon="-0.40687">
        <ele>46.165169</ele>
        <time>2011-11-03T14:41:49.605Z</time>
      </trkpt>
      <trkpt lat="47.38843" lon="-0.40717">
        <ele>45.686737</ele>
        <time>2011-11-03T14:41:52.610Z</time>
      </trkpt>
      <trkpt lat="47.38848" lon="-0.40747">
        <ele>45.289612</ele>
        <time>2011-11-03T14:41:55.622Z</time>
      </trkpt>
      <trkpt lat="47.38854" lon="-0.40776">
        <ele>44.937527</ele>
        <time>2011-11-03T14:41:58.614Z</time>
      </trkpt>
      <trkpt lat="47.3886" lon="-0.40806">
        <ele>44.417431</ele>
        <time>2011-11-03T14:42:01.617Z</time>
      </trkpt>
      <trkpt lat="47.38864" lon="-0.40837">
        <ele>43.878174</ele>
        <time>2011-11-03T14:42:04.625Z</time>
      </trkpt>
      <trkpt lat="47.38866" lon="-0.40867">
        <ele>43.435612</ele>
        <time>2011-11-03T14:42:07.609Z</time>
      </trkpt>
      <trkpt lat="47.38867" lon="-0.40898">
        <ele>42.975544</ele>
        <time>2011-11-03T14:42:10.609Z</time>
      </trkpt>
      <trkpt lat="47.38865" lon="-0.4093">
        <ele>42.535164</ele>
        <time>2011-11-03T14:42:13.629Z</time>
      </trkpt>
      <trkpt lat="47.3886" lon="-0.40961">
        <ele>42.070557</ele>
        <time>2011-11-03T14:42:16.626Z</time>
      </trkpt>
      <trkpt lat="47.38855" lon="-0.40992">
        <ele>41.581551</ele>
        <time>2011-11-03T14:42:19.626Z</time>
      </trkpt>
      <trkpt lat="47.38849" lon="-0.41022">
        <ele>41.218433</ele>
        <time>2011-11-03T14:42:22.628Z</time>
      </trkpt>
      <trkpt lat="47.38843" lon="-0.41052">
        <ele>40.90728</ele>
        <time>2011-11-03T14:42:25.624Z</time>
      </trkpt>
      <trkpt lat="47.38838" lon="-0.41081">
        <ele>40.713257</ele>
        <time>2011-11-03T14:42:28.725Z</time>
      </trkpt>
      <trkpt lat="47.38832" lon="-0.41111">
        <ele>40.625587</ele>
        <time>2011-11-03T14:42:31.690Z</time>
      </trkpt>
      <trkpt lat="47.38826" lon="-0.41142">
        <ele>40.401295</ele>
        <time>2011-11-03T14:42:34.628Z</time>
      </trkpt>
      <trkpt lat="47.3882" lon="-0.41173">
        <ele>40.196793</ele>
        <time>2011-11-03T14:42:37.625Z</time>
      </trkpt>
      <trkpt lat="47.38815" lon="-0.41204">
        <ele>40.042076</ele>
        <time>2011-11-03T14:42:40.630Z</time>
      </trkpt>
      <trkpt lat="47.38811" lon="-0.41237">
        <ele>39.790237</ele>
        <time>2011-11-03T14:42:43.615Z</time>
      </trkpt>
      <trkpt lat="47.38809" lon="-0.4127">
        <ele>39.482056</ele>
        <time>2011-11-03T14:42:46.617Z</time>
      </trkpt>
      <trkpt lat="47.38807" lon="-0.41304">
        <ele>39.21743</ele>
        <time>2011-11-03T14:42:49.616Z</time>
      </trkpt>
      <trkpt lat="47.38806" lon="-0.41338">
        <ele>39.123333</ele>
        <time>2011-11-03T14:42:52.619Z</time>
      </trkpt>
      <trkpt lat="47.38805" lon="-0.41373">
        <ele>39.259808</ele>
        <time>2011-11-03T14:42:55.630Z</time>
      </trkpt>
      <trkpt lat="47.38804" lon="-0.41407">
        <ele>39.438267</ele>
        <time>2011-11-03T14:42:58.626Z</time>
      </trkpt>
      <trkpt lat="47.38802" lon="-0.4144">
        <ele>39.142052</ele>
        <time>2011-11-03T14:43:01.627Z</time>
      </trkpt>
      <trkpt lat="47.38801" lon="-0.41472">
        <ele>38.706081</ele>
        <time>2011-11-03T14:43:04.622Z</time>
      </trkpt>
      <trkpt lat="47.388" lon="-0.41504">
        <ele>38.417927</ele>
        <time>2011-11-03T14:43:07.621Z</time>
      </trkpt>
      <trkpt lat="47.38798" lon="-0.41537">
        <ele>38.393776</ele>
        <time>2011-11-03T14:43:10.622Z</time>
      </trkpt>
      <trkpt lat="47.38796" lon="-0.41571">
        <ele>38.435516</ele>
        <time>2011-11-03T14:43:13.620Z</time>
      </trkpt>
      <trkpt lat="47.38795" lon="-0.41605">
        <ele>38.468376</ele>
        <time>2011-11-03T14:43:16.621Z</time>
      </trkpt>
      <trkpt lat="47.38794" lon="-0.41638">
        <ele>38.600201</ele>
        <time>2011-11-03T14:43:19.627Z</time>
      </trkpt>
      <trkpt lat="47.38795" lon="-0.41674">
        <ele>38.461933</ele>
        <time>2011-11-03T14:43:22.629Z</time>
      </trkpt>
      <trkpt lat="47.38796" lon="-0.41708">
        <ele>38.1898</ele>
        <time>2011-11-03T14:43:25.610Z</time>
      </trkpt>
      <trkpt lat="47.38798" lon="-0.41743">
        <ele>37.965134</ele>
        <time>2011-11-03T14:43:28.661Z</time>
      </trkpt>
      <trkpt lat="47.38799" lon="-0.41778">
        <ele>37.89275</ele>
        <time>2011-11-03T14:43:31.607Z</time>
      </trkpt>
      <trkpt lat="47.38801" lon="-0.41813">
        <ele>37.819633</ele>
        <time>2011-11-03T14:43:34.610Z</time>
      </trkpt>
      <trkpt lat="47.38802" lon="-0.41847">
        <ele>37.682766</ele>
        <time>2011-11-03T14:43:37.610Z</time>
      </trkpt>
      <trkpt lat="47.38803" lon="-0.4188">
        <ele>37.444332</ele>
        <time>2011-11-03T14:43:40.612Z</time>
      </trkpt>
      <trkpt lat="47.38804" lon="-0.41912">
        <ele>37.045349</ele>
        <time>2011-11-03T14:43:43.617Z</time>
      </trkpt>
      <trkpt lat="47.38805" lon="-0.41944">
        <ele>36.786552</ele>
        <time>2011-11-03T14:43:46.621Z</time>
      </trkpt>
      <trkpt lat="47.38806" lon="-0.41977">
        <ele>36.710796</ele>
        <time>2011-11-03T14:43:49.615Z</time>
      </trkpt>
      <trkpt lat="47.38808" lon="-0.4201">
        <ele>36.768257</ele>
        <time>2011-11-03T14:43:52.629Z</time>
      </trkpt>
      <trkpt lat="47.38813" lon="-0.42044">
        <ele>36.64106</ele>
        <time>2011-11-03T14:43:55.623Z</time>
      </trkpt>
      <trkpt lat="47.3882" lon="-0.42078">
        <ele>36.293419</ele>
        <time>2011-11-03T14:43:58.638Z</time>
      </trkpt>
      <trkpt lat="47.3883" lon="-0.42109">
        <ele>35.735016</ele>
        <time>2011-11-03T14:44:01.624Z</time>
      </trkpt>
      <trkpt lat="47.3884" lon="-0.4214">
        <ele>35.193016</ele>
        <time>2011-11-03T14:44:04.640Z</time>
      </trkpt>
      <trkpt lat="47.38851" lon="-0.42169">
        <ele>34.765499</ele>
        <time>2011-11-03T14:44:07.643Z</time>
      </trkpt>
      <trkpt lat="47.38862" lon="-0.42198">
        <ele>34.392052</ele>
        <time>2011-11-03T14:44:10.626Z</time>
      </trkpt>
      <trkpt lat="47.38871" lon="-0.42227">
        <ele>34.10693</ele>
        <time>2011-11-03T14:44:13.613Z</time>
      </trkpt>
      <trkpt lat="47.3888" lon="-0.42257">
        <ele>33.857742</ele>
        <time>2011-11-03T14:44:16.610Z</time>
      </trkpt>
      <trkpt lat="47.38889" lon="-0.42286">
        <ele>33.459557</ele>
        <time>2011-11-03T14:44:19.607Z</time>
      </trkpt>
      <trkpt lat="47.38899" lon="-0.42315">
        <ele>33.035305</ele>
        <time>2011-11-03T14:44:22.611Z</time>
      </trkpt>
      <trkpt lat="47.38909" lon="-0.42343">
        <ele>32.857887</ele>
        <time>2011-11-03T14:44:25.615Z</time>
      </trkpt>
      <trkpt lat="47.38918" lon="-0.4237">
        <ele>32.887863</ele>
        <time>2011-11-03T14:44:28.621Z</time>
      </trkpt>
      <trkpt lat="47.38928" lon="-0.42397">
        <ele>32.949627</ele>
        <time>2011-11-03T14:44:31.610Z</time>
      </trkpt>
      <trkpt lat="47.38938" lon="-0.42425">
        <ele>33.067318</ele>
        <time>2011-11-03T14:44:34.629Z</time>
      </trkpt>
      <trkpt lat="47.38947" lon="-0.42454">
        <ele>33.239838</ele>
        <time>2011-11-03T14:44:37.625Z</time>
      </trkpt>
      <trkpt lat="47.38957" lon="-0.42483">
        <ele>33.467506</ele>
        <time>2011-11-03T14:44:40.615Z</time>
      </trkpt>
      <trkpt lat="47.38966" lon="-0.42512">
        <ele>33.436958</ele>
        <time>2011-11-03T14:44:43.867Z</time>
      </trkpt>
      <trkpt lat="47.38974" lon="-0.42541">
        <ele>33.080242</ele>
        <time>2011-11-03T14:44:46.619Z</time>
      </trkpt>
      <trkpt lat="47.38983" lon="-0.4257">
        <ele>32.588749</ele>
        <time>2011-11-03T14:44:49.632Z</time>
      </trkpt>
      <trkpt lat="47.38992" lon="-0.42599">
        <ele>32.205986</ele>
        <time>2011-11-03T14:44:52.633Z</time>
      </trkpt>
      <trkpt lat="47.39002" lon="-0.42629">
        <ele>32.111038</ele>
        <time>2011-11-03T14:44:55.626Z</time>
      </trkpt>
      <trkpt lat="47.39012" lon="-0.42659">
        <ele>32.36998</ele>
        <time>2011-11-03T14:44:58.621Z</time>
      </trkpt>
      <trkpt lat="47.39023" lon="-0.42688">
        <ele>32.507263</ele>
        <time>2011-11-03T14:45:01.620Z</time>
      </trkpt>
      <trkpt lat="47.39034" lon="-0.42718">
        <ele>32.341434</ele>
        <time>2011-11-03T14:45:04.615Z</time>
      </trkpt>
      <trkpt lat="47.39044" lon="-0.42749">
        <ele>31.886578</ele>
        <time>2011-11-03T14:45:07.613Z</time>
      </trkpt>
      <trkpt lat="47.39055" lon="-0.42778">
        <ele>31.479591</ele>
        <time>2011-11-03T14:45:10.618Z</time>
      </trkpt>
      <trkpt lat="47.39066" lon="-0.42807">
        <ele>31.351788</ele>
        <time>2011-11-03T14:45:13.614Z</time>
      </trkpt>
      <trkpt lat="47.39076" lon="-0.42838">
        <ele>31.459404</ele>
        <time>2011-11-03T14:45:16.611Z</time>
      </trkpt>
      <trkpt lat="47.39086" lon="-0.42869">
        <ele>31.174618</ele>
        <time>2011-11-03T14:45:19.609Z</time>
      </trkpt>
      <trkpt lat="47.39097" lon="-0.42899">
        <ele>31.074993</ele>
        <time>2011-11-03T14:45:22.610Z</time>
      </trkpt>
      <trkpt lat="47.39108" lon="-0.42927">
        <ele>31.061241</ele>
        <time>2011-11-03T14:45:25.621Z</time>
      </trkpt>
      <trkpt lat="47.39121" lon="-0.42954">
        <ele>31.132797</ele>
        <time>2011-11-03T14:45:28.625Z</time>
      </trkpt>
      <trkpt lat="47.39134" lon="-0.42979">
        <ele>31.36293</ele>
        <time>2011-11-03T14:45:31.619Z</time>
      </trkpt>
      <trkpt lat="47.39145" lon="-0.43001">
        <ele>31.476715</ele>
        <time>2011-11-03T14:45:34.621Z</time>
      </trkpt>
      <trkpt lat="47.39152" lon="-0.43032">
        <ele>31.427128</ele>
        <time>2011-11-03T14:45:38.630Z</time>
      </trkpt>
      <trkpt lat="47.39158" lon="-0.43058">
        <ele>31.469975</ele>
        <time>2011-11-03T14:45:41.625Z</time>
      </trkpt>
      <trkpt lat="47.39168" lon="-0.43084">
        <ele>31.572571</ele>
        <time>2011-11-03T14:45:44.624Z</time>
      </trkpt>
      <trkpt lat="47.39177" lon="-0.4311">
        <ele>31.47171</ele>
        <time>2011-11-03T14:45:47.704Z</time>
      </trkpt>
      <trkpt lat="47.39186" lon="-0.43136">
        <ele>31.279133</ele>
        <time>2011-11-03T14:45:50.642Z</time>
      </trkpt>
      <trkpt lat="47.39195" lon="-0.43161">
        <ele>31.168747</ele>
        <time>2011-11-03T14:45:53.630Z</time>
      </trkpt>
      <trkpt lat="47.39203" lon="-0.43187">
        <ele>31.322567</ele>
        <time>2011-11-03T14:45:56.619Z</time>
      </trkpt>
      <trkpt lat="47.39212" lon="-0.43213">
        <ele>31.292526</ele>
        <time>2011-11-03T14:45:59.631Z</time>
      </trkpt>
      <trkpt lat="47.39224" lon="-0.43238">
        <ele>31.366913</ele>
        <time>2011-11-03T14:46:02.639Z</time>
      </trkpt>
      <trkpt lat="47.39235" lon="-0.43264">
        <ele>31.551991</ele>
        <time>2011-11-03T14:46:05.637Z</time>
      </trkpt>
      <trkpt lat="47.39244" lon="-0.43291">
        <ele>31.798424</ele>
        <time>2011-11-03T14:46:08.639Z</time>
      </trkpt>
      <trkpt lat="47.39255" lon="-0.43318">
        <ele>31.926376</ele>
        <time>2011-11-03T14:46:11.910Z</time>
      </trkpt>
      <trkpt lat="47.39266" lon="-0.43344">
        <ele>31.850117</ele>
        <time>2011-11-03T14:46:14.631Z</time>
      </trkpt>
      <trkpt lat="47.39274" lon="-0.43372">
        <ele>31.480392</ele>
        <time>2011-11-03T14:46:17.634Z</time>
      </trkpt>
      <trkpt lat="47.39283" lon="-0.434">
        <ele>31.24593</ele>
        <time>2011-11-03T14:46:20.676Z</time>
      </trkpt>
      <trkpt lat="47.39292" lon="-0.43427">
        <ele>31.253242</ele>
        <time>2011-11-03T14:46:23.622Z</time>
      </trkpt>
      <trkpt lat="47.39303" lon="-0.43453">
        <ele>31.391342</ele>
        <time>2011-11-03T14:46:26.617Z</time>
      </trkpt>
      <trkpt lat="47.39313" lon="-0.43479">
        <ele>31.443253</ele>
        <time>2011-11-03T14:46:29.626Z</time>
      </trkpt>
      <trkpt lat="47.39323" lon="-0.43506">
        <ele>31.243412</ele>
        <time>2011-11-03T14:46:32.614Z</time>
      </trkpt>
      <trkpt lat="47.39332" lon="-0.43533">
        <ele>31.156868</ele>
        <time>2011-11-03T14:46:35.620Z</time>
      </trkpt>
      <trkpt lat="47.3934" lon="-0.43562">
        <ele>31.212154</ele>
        <time>2011-11-03T14:46:38.622Z</time>
      </trkpt>
      <trkpt lat="47.3935" lon="-0.43589">
        <ele>31.507008</ele>
        <time>2011-11-03T14:46:41.622Z</time>
      </trkpt>
      <trkpt lat="47.39362" lon="-0.43615">
        <ele>31.824673</ele>
        <time>2011-11-03T14:46:44.621Z</time>
      </trkpt>
      <trkpt lat="47.39373" lon="-0.43643">
        <ele>31.99749</ele>
        <time>2011-11-03T14:46:47.621Z</time>
      </trkpt>
      <trkpt lat="47.39383" lon="-0.43673">
        <ele>32.044815</ele>
        <time>2011-11-03T14:46:51.628Z</time>
      </trkpt>
      <trkpt lat="47.39387" lon="-0.43708">
        <ele>32.276581</ele>
        <time>2011-11-03T14:46:55.627Z</time>
      </trkpt>
      <trkpt lat="47.3939" lon="-0.43742">
        <ele>32.366974</ele>
        <time>2011-11-03T14:46:58.623Z</time>
      </trkpt>
      <trkpt lat="47.39393" lon="-0.43781">
        <ele>31.927101</ele>
        <time>2011-11-03T14:47:01.735Z</time>
      </trkpt>
      <trkpt lat="47.39396" lon="-0.43822">
        <ele>31.550179</ele>
        <time>2011-11-03T14:47:04.623Z</time>
      </trkpt>
      <trkpt lat="47.39401" lon="-0.43863">
        <ele>31.246998</ele>
        <time>2011-11-03T14:47:07.621Z</time>
      </trkpt>
      <trkpt lat="47.39406" lon="-0.43905">
        <ele>30.337193</ele>
        <time>2011-11-03T14:47:10.627Z</time>
      </trkpt>
      <trkpt lat="47.39414" lon="-0.43948">
        <ele>29.947598</ele>
        <time>2011-11-03T14:47:13.613Z</time>
      </trkpt>
      <trkpt lat="47.39421" lon="-0.43978">
        <ele>29.830421</ele>
        <time>2011-11-03T14:47:15.620Z</time>
      </trkpt>
      <trkpt lat="47.39428" lon="-0.44009">
        <ele>29.240013</ele>
        <time>2011-11-03T14:47:17.735Z</time>
      </trkpt>
      <trkpt lat="47.39442" lon="-0.44056">
        <ele>28.380661</ele>
        <time>2011-11-03T14:47:20.620Z</time>
      </trkpt>
      <trkpt lat="47.39458" lon="-0.44106">
        <ele>27.742172</ele>
        <time>2011-11-03T14:47:23.620Z</time>
      </trkpt>
      <trkpt lat="47.39479" lon="-0.44157">
        <ele>24.425507</ele>
        <time>2011-11-03T14:47:26.618Z</time>
      </trkpt>
      <trkpt lat="47.39495" lon="-0.44188">
        <ele>20.684708</ele>
        <time>2011-11-03T14:47:28.624Z</time>
      </trkpt>
      <trkpt lat="47.39517" lon="-0.44238">
        <ele>15.112465</ele>
        <time>2011-11-03T14:47:31.618Z</time>
      </trkpt>
      <trkpt lat="47.39531" lon="-0.44271">
        <ele>12.257061</ele>
        <time>2011-11-03T14:47:33.625Z</time>
      </trkpt>
      <trkpt lat="47.39544" lon="-0.44303">
        <ele>10.013256</ele>
        <time>2011-11-03T14:47:35.622Z</time>
      </trkpt>
      <trkpt lat="47.3956" lon="-0.44333">
        <ele>7.96883</ele>
        <time>2011-11-03T14:47:37.624Z</time>
      </trkpt>
      <trkpt lat="47.39582" lon="-0.44377">
        <ele>5.036785</ele>
        <time>2011-11-03T14:47:40.621Z</time>
      </trkpt>
      <trkpt lat="47.39596" lon="-0.44406">
        <ele>3.266293</ele>
        <time>2011-11-03T14:47:42.630Z</time>
      </trkpt>
      <trkpt lat="47.39615" lon="-0.44448">
        <ele>1.095089</ele>
        <time>2011-11-03T14:47:45.624Z</time>
      </trkpt>
      <trkpt lat="47.39632" lon="-0.44489">
        <ele>-0.678181</ele>
        <time>2011-11-03T14:47:48.628Z</time>
      </trkpt>
      <trkpt lat="47.3964" lon="-0.44515">
        <ele>-1.914612</ele>
        <time>2011-11-03T14:47:50.622Z</time>
      </trkpt>
      <trkpt lat="47.3965" lon="-0.44553">
        <ele>-3.369587</ele>
        <time>2011-11-03T14:47:53.627Z</time>
      </trkpt>
      <trkpt lat="47.39665" lon="-0.44585">
        <ele>-4.559277</ele>
        <time>2011-11-03T14:47:56.621Z</time>
      </trkpt>
      <trkpt lat="47.39681" lon="-0.44615">
        <ele>-5.708794</ele>
        <time>2011-11-03T14:47:59.624Z</time>
      </trkpt>
      <trkpt lat="47.39693" lon="-0.44648">
        <ele>-6.845032</ele>
        <time>2011-11-03T14:48:02.630Z</time>
      </trkpt>
      <trkpt lat="47.39704" lon="-0.4468">
        <ele>-7.661697</ele>
        <time>2011-11-03T14:48:05.628Z</time>
      </trkpt>
      <trkpt lat="47.39715" lon="-0.44712">
        <ele>-8.382786</ele>
        <time>2011-11-03T14:48:08.624Z</time>
      </trkpt>
      <trkpt lat="47.39726" lon="-0.44742">
        <ele>-9.105911</ele>
        <time>2011-11-03T14:48:11.629Z</time>
      </trkpt>
      <trkpt lat="47.39738" lon="-0.4477">
        <ele>-9.698006</ele>
        <time>2011-11-03T14:48:14.630Z</time>
      </trkpt>
      <trkpt lat="47.39752" lon="-0.44798">
        <ele>-10.018108</ele>
        <time>2011-11-03T14:48:17.636Z</time>
      </trkpt>
      <trkpt lat="47.39764" lon="-0.44826">
        <ele>-10.623322</ele>
        <time>2011-11-03T14:48:20.639Z</time>
      </trkpt>
      <trkpt lat="47.39776" lon="-0.44853">
        <ele>-11.272781</ele>
        <time>2011-11-03T14:48:23.635Z</time>
      </trkpt>
      <trkpt lat="47.39788" lon="-0.4488">
        <ele>-11.66634</ele>
        <time>2011-11-03T14:48:26.626Z</time>
      </trkpt>
      <trkpt lat="47.398" lon="-0.44907">
        <ele>-11.780243</ele>
        <time>2011-11-03T14:48:29.617Z</time>
      </trkpt>
      <trkpt lat="47.39811" lon="-0.44936">
        <ele>-11.752373</ele>
        <time>2011-11-03T14:48:32.621Z</time>
      </trkpt>
      <trkpt lat="47.39823" lon="-0.44963">
        <ele>-11.622753</ele>
        <time>2011-11-03T14:48:35.629Z</time>
      </trkpt>
      <trkpt lat="47.39834" lon="-0.44992">
        <ele>-11.522327</ele>
        <time>2011-11-03T14:48:38.628Z</time>
      </trkpt>
      <trkpt lat="47.39846" lon="-0.45023">
        <ele>-11.530819</ele>
        <time>2011-11-03T14:48:41.620Z</time>
      </trkpt>
      <trkpt lat="47.39857" lon="-0.45054">
        <ele>-11.698635</ele>
        <time>2011-11-03T14:48:44.623Z</time>
      </trkpt>
      <trkpt lat="47.3987" lon="-0.45081">
        <ele>-11.92094</ele>
        <time>2011-11-03T14:48:47.620Z</time>
      </trkpt>
      <trkpt lat="47.39881" lon="-0.45109">
        <ele>-12.155216</ele>
        <time>2011-11-03T14:48:50.618Z</time>
      </trkpt>
      <trkpt lat="47.39892" lon="-0.45139">
        <ele>-12.429924</ele>
        <time>2011-11-03T14:48:53.623Z</time>
      </trkpt>
      <trkpt lat="47.39901" lon="-0.45169">
        <ele>-12.75452</ele>
        <time>2011-11-03T14:48:56.628Z</time>
      </trkpt>
      <trkpt lat="47.39908" lon="-0.45199">
        <ele>-12.969032</ele>
        <time>2011-11-03T14:48:59.619Z</time>
      </trkpt>
      <trkpt lat="47.39914" lon="-0.45231">
        <ele>-13.061844</ele>
        <time>2011-11-03T14:49:02.624Z</time>
      </trkpt>
      <trkpt lat="47.39921" lon="-0.45261">
        <ele>-12.916187</ele>
        <time>2011-11-03T14:49:05.685Z</time>
      </trkpt>
      <trkpt lat="47.39929" lon="-0.4529">
        <ele>-12.570023</ele>
        <time>2011-11-03T14:49:08.615Z</time>
      </trkpt>
      <trkpt lat="47.39934" lon="-0.45318">
        <ele>-12.580212</ele>
        <time>2011-11-03T14:49:11.615Z</time>
      </trkpt>
      <trkpt lat="47.39939" lon="-0.45345">
        <ele>-12.740902</ele>
        <time>2011-11-03T14:49:14.710Z</time>
      </trkpt>
      <trkpt lat="47.39944" lon="-0.4538">
        <ele>-12.849819</ele>
        <time>2011-11-03T14:49:18.615Z</time>
      </trkpt>
      <trkpt lat="47.39952" lon="-0.45413">
        <ele>-12.494976</ele>
        <time>2011-11-03T14:49:22.617Z</time>
      </trkpt>
      <trkpt lat="47.39962" lon="-0.45436">
        <ele>-12.13139</ele>
        <time>2011-11-03T14:49:25.622Z</time>
      </trkpt>
      <trkpt lat="47.39971" lon="-0.4546">
        <ele>-11.785553</ele>
        <time>2011-11-03T14:49:28.617Z</time>
      </trkpt>
      <trkpt lat="47.3998" lon="-0.45486">
        <ele>-11.641705</ele>
        <time>2011-11-03T14:49:31.621Z</time>
      </trkpt>
      <trkpt lat="47.3999" lon="-0.45511">
        <ele>-11.715679</ele>
        <time>2011-11-03T14:49:34.811Z</time>
      </trkpt>
      <trkpt lat="47.40002" lon="-0.45536">
        <ele>-12.06662</ele>
        <time>2011-11-03T14:49:37.616Z</time>
      </trkpt>
      <trkpt lat="47.40013" lon="-0.45562">
        <ele>-12.65773</ele>
        <time>2011-11-03T14:49:40.613Z</time>
      </trkpt>
      <trkpt lat="47.40025" lon="-0.45588">
        <ele>-12.930393</ele>
        <time>2011-11-03T14:49:43.619Z</time>
      </trkpt>
      <trkpt lat="47.40034" lon="-0.45616">
        <ele>-13.026173</ele>
        <time>2011-11-03T14:49:46.619Z</time>
      </trkpt>
      <trkpt lat="47.40042" lon="-0.45646">
        <ele>-13.109913</ele>
        <time>2011-11-03T14:49:49.616Z</time>
      </trkpt>
      <trkpt lat="47.4005" lon="-0.45677">
        <ele>-13.263088</ele>
        <time>2011-11-03T14:49:52.615Z</time>
      </trkpt>
      <trkpt lat="47.40057" lon="-0.45707">
        <ele>-13.46085</ele>
        <time>2011-11-03T14:49:55.620Z</time>
      </trkpt>
      <trkpt lat="47.40065" lon="-0.45738">
        <ele>-13.590168</ele>
        <time>2011-11-03T14:49:58.619Z</time>
      </trkpt>
      <trkpt lat="47.40073" lon="-0.45768">
        <ele>-13.55875</ele>
        <time>2011-11-03T14:50:01.627Z</time>
      </trkpt>
      <trkpt lat="47.40081" lon="-0.45799">
        <ele>-13.330845</ele>
        <time>2011-11-03T14:50:04.626Z</time>
      </trkpt>
      <trkpt lat="47.40089" lon="-0.45831">
        <ele>-13.350559</ele>
        <time>2011-11-03T14:50:07.641Z</time>
      </trkpt>
      <trkpt lat="47.40099" lon="-0.45859">
        <ele>-13.337692</ele>
        <time>2011-11-03T14:50:10.625Z</time>
      </trkpt>
      <trkpt lat="47.40109" lon="-0.45888">
        <ele>-13.276466</ele>
        <time>2011-11-03T14:50:13.635Z</time>
      </trkpt>
      <trkpt lat="47.40118" lon="-0.45918">
        <ele>-13.190037</ele>
        <time>2011-11-03T14:50:16.631Z</time>
      </trkpt>
      <trkpt lat="47.40126" lon="-0.45949">
        <ele>-13.379185</ele>
        <time>2011-11-03T14:50:19.626Z</time>
      </trkpt>
      <trkpt lat="47.40133" lon="-0.4598">
        <ele>-13.706074</ele>
        <time>2011-11-03T14:50:22.629Z</time>
      </trkpt>
      <trkpt lat="47.40142" lon="-0.46008">
        <ele>-13.893368</ele>
        <time>2011-11-03T14:50:25.613Z</time>
      </trkpt>
      <trkpt lat="47.40151" lon="-0.46038">
        <ele>-14.185528</ele>
        <time>2011-11-03T14:50:28.626Z</time>
      </trkpt>
      <trkpt lat="47.4016" lon="-0.46068">
        <ele>-14.566963</ele>
        <time>2011-11-03T14:50:31.622Z</time>
      </trkpt>
      <trkpt lat="47.40168" lon="-0.46098">
        <ele>-14.7323</ele>
        <time>2011-11-03T14:50:34.622Z</time>
      </trkpt>
      <trkpt lat="47.40174" lon="-0.46128">
        <ele>-14.758919</ele>
        <time>2011-11-03T14:50:37.618Z</time>
      </trkpt>
      <trkpt lat="47.40179" lon="-0.46159">
        <ele>-14.475269</ele>
        <time>2011-11-03T14:50:40.626Z</time>
      </trkpt>
      <trkpt lat="47.40183" lon="-0.46193">
        <ele>-14.146435</ele>
        <time>2011-11-03T14:50:43.625Z</time>
      </trkpt>
      <trkpt lat="47.40188" lon="-0.46226">
        <ele>-14.168262</ele>
        <time>2011-11-03T14:50:46.633Z</time>
      </trkpt>
      <trkpt lat="47.40197" lon="-0.4626">
        <ele>-14.484295</ele>
        <time>2011-11-03T14:50:49.623Z</time>
      </trkpt>
      <trkpt lat="47.40209" lon="-0.46294">
        <ele>-14.876484</ele>
        <time>2011-11-03T14:50:52.616Z</time>
      </trkpt>
      <trkpt lat="47.4022" lon="-0.46328">
        <ele>-15.323898</ele>
        <time>2011-11-03T14:50:55.607Z</time>
      </trkpt>
      <trkpt lat="47.40233" lon="-0.46363">
        <ele>-15.915272</ele>
        <time>2011-11-03T14:50:58.619Z</time>
      </trkpt>
      <trkpt lat="47.40245" lon="-0.46399">
        <ele>-16.446087</ele>
        <time>2011-11-03T14:51:01.618Z</time>
      </trkpt>
      <trkpt lat="47.40253" lon="-0.46423">
        <ele>-16.809292</ele>
        <time>2011-11-03T14:51:03.614Z</time>
      </trkpt>
      <trkpt lat="47.40265" lon="-0.46458">
        <ele>-17.064476</ele>
        <time>2011-11-03T14:51:06.630Z</time>
      </trkpt>
      <trkpt lat="47.40277" lon="-0.4649">
        <ele>-17.273003</ele>
        <time>2011-11-03T14:51:09.627Z</time>
      </trkpt>
      <trkpt lat="47.40289" lon="-0.46521">
        <ele>-17.167759</ele>
        <time>2011-11-03T14:51:12.631Z</time>
      </trkpt>
      <trkpt lat="47.40298" lon="-0.46554">
        <ele>-17.174164</ele>
        <time>2011-11-03T14:51:15.628Z</time>
      </trkpt>
      <trkpt lat="47.40305" lon="-0.46587">
        <ele>-16.829437</ele>
        <time>2011-11-03T14:51:18.620Z</time>
      </trkpt>
      <trkpt lat="47.40312" lon="-0.46619">
        <ele>-15.996525</ele>
        <time>2011-11-03T14:51:21.629Z</time>
      </trkpt>
      <trkpt lat="47.40318" lon="-0.4665">
        <ele>-15.97047</ele>
        <time>2011-11-03T14:51:24.631Z</time>
      </trkpt>
      <trkpt lat="47.40322" lon="-0.46679">
        <ele>-16.437801</ele>
        <time>2011-11-03T14:51:27.626Z</time>
      </trkpt>
      <trkpt lat="47.40325" lon="-0.46708">
        <ele>-16.774696</ele>
        <time>2011-11-03T14:51:30.635Z</time>
      </trkpt>
      <trkpt lat="47.40328" lon="-0.46737">
        <ele>-16.866917</ele>
        <time>2011-11-03T14:51:33.641Z</time>
      </trkpt>
      <trkpt lat="47.40331" lon="-0.46767">
        <ele>-16.722313</ele>
        <time>2011-11-03T14:51:36.630Z</time>
      </trkpt>
      <trkpt lat="47.40334" lon="-0.46797">
        <ele>-16.540524</ele>
        <time>2011-11-03T14:51:39.627Z</time>
      </trkpt>
      <trkpt lat="47.40339" lon="-0.46827">
        <ele>-16.416302</ele>
        <time>2011-11-03T14:51:42.629Z</time>
      </trkpt>
      <trkpt lat="47.40347" lon="-0.46856">
        <ele>-16.140675</ele>
        <time>2011-11-03T14:51:45.633Z</time>
      </trkpt>
      <trkpt lat="47.40361" lon="-0.46881">
        <ele>-15.952461</ele>
        <time>2011-11-03T14:51:48.632Z</time>
      </trkpt>
      <trkpt lat="47.40375" lon="-0.46905">
        <ele>-15.709732</ele>
        <time>2011-11-03T14:51:51.637Z</time>
      </trkpt>
      <trkpt lat="47.40389" lon="-0.46926">
        <ele>-15.432606</ele>
        <time>2011-11-03T14:51:54.636Z</time>
      </trkpt>
      <trkpt lat="47.40401" lon="-0.46951">
        <ele>-14.948708</ele>
        <time>2011-11-03T14:51:57.630Z</time>
      </trkpt>
      <trkpt lat="47.40414" lon="-0.46978">
        <ele>-14.51511</ele>
        <time>2011-11-03T14:52:00.632Z</time>
      </trkpt>
      <trkpt lat="47.40427" lon="-0.47006">
        <ele>-13.614567</ele>
        <time>2011-11-03T14:52:03.810Z</time>
      </trkpt>
      <trkpt lat="47.40441" lon="-0.47035">
        <ele>-12.55603</ele>
        <time>2011-11-03T14:52:06.635Z</time>
      </trkpt>
      <trkpt lat="47.40453" lon="-0.47064">
        <ele>-11.602982</ele>
        <time>2011-11-03T14:52:09.646Z</time>
      </trkpt>
      <trkpt lat="47.40466" lon="-0.47095">
        <ele>-10.911427</ele>
        <time>2011-11-03T14:52:12.630Z</time>
      </trkpt>
      <trkpt lat="47.40478" lon="-0.47124">
        <ele>-10.419762</ele>
        <time>2011-11-03T14:52:15.625Z</time>
      </trkpt>
      <trkpt lat="47.4049" lon="-0.47153">
        <ele>-9.848957</ele>
        <time>2011-11-03T14:52:18.632Z</time>
      </trkpt>
      <trkpt lat="47.40504" lon="-0.47181">
        <ele>-9.40213</ele>
        <time>2011-11-03T14:52:21.620Z</time>
      </trkpt>
      <trkpt lat="47.40517" lon="-0.47208">
        <ele>-9.398293</ele>
        <time>2011-11-03T14:52:24.640Z</time>
      </trkpt>
      <trkpt lat="47.40531" lon="-0.47236">
        <ele>-9.494099</ele>
        <time>2011-11-03T14:52:27.636Z</time>
      </trkpt>
      <trkpt lat="47.40544" lon="-0.47265">
        <ele>-9.540192</ele>
        <time>2011-11-03T14:52:30.637Z</time>
      </trkpt>
      <trkpt lat="47.40556" lon="-0.47294">
        <ele>-9.73576</ele>
        <time>2011-11-03T14:52:33.620Z</time>
      </trkpt>
      <trkpt lat="47.40569" lon="-0.47322">
        <ele>-9.890697</ele>
        <time>2011-11-03T14:52:36.614Z</time>
      </trkpt>
      <trkpt lat="47.40582" lon="-0.4735">
        <ele>-10.474934</ele>
        <time>2011-11-03T14:52:39.619Z</time>
      </trkpt>
      <trkpt lat="47.40601" lon="-0.47372">
        <ele>-11.046249</ele>
        <time>2011-11-03T14:52:42.621Z</time>
      </trkpt>
      <trkpt lat="47.4062" lon="-0.47389">
        <ele>-11.44062</ele>
        <time>2011-11-03T14:52:45.622Z</time>
      </trkpt>
      <trkpt lat="47.40639" lon="-0.47405">
        <ele>-11.80328</ele>
        <time>2011-11-03T14:52:48.631Z</time>
      </trkpt>
      <trkpt lat="47.40658" lon="-0.47422">
        <ele>-12.046169</ele>
        <time>2011-11-03T14:52:51.636Z</time>
      </trkpt>
      <trkpt lat="47.40675" lon="-0.47442">
        <ele>-12.868313</ele>
        <time>2011-11-03T14:52:54.635Z</time>
      </trkpt>
      <trkpt lat="47.40694" lon="-0.47461">
        <ele>-14.193527</ele>
        <time>2011-11-03T14:52:57.636Z</time>
      </trkpt>
      <trkpt lat="47.4071" lon="-0.47485">
        <ele>-15.500763</ele>
        <time>2011-11-03T14:53:00.635Z</time>
      </trkpt>
      <trkpt lat="47.40725" lon="-0.4751">
        <ele>-16.661942</ele>
        <time>2011-11-03T14:53:03.636Z</time>
      </trkpt>
      <trkpt lat="47.40738" lon="-0.47534">
        <ele>-17.728115</ele>
        <time>2011-11-03T14:53:06.627Z</time>
      </trkpt>
      <trkpt lat="47.40751" lon="-0.47556">
        <ele>-18.499725</ele>
        <time>2011-11-03T14:53:09.642Z</time>
      </trkpt>
      <trkpt lat="47.40762" lon="-0.47579">
        <ele>-18.973564</ele>
        <time>2011-11-03T14:53:12.636Z</time>
      </trkpt>
      <trkpt lat="47.40771" lon="-0.47612">
        <ele>-19.406231</ele>
        <time>2011-11-03T14:53:16.625Z</time>
      </trkpt>
      <trkpt lat="47.40772" lon="-0.47642">
        <ele>-19.445927</ele>
        <time>2011-11-03T14:53:19.634Z</time>
      </trkpt>
      <trkpt lat="47.40769" lon="-0.47673">
        <ele>-19.352551</ele>
        <time>2011-11-03T14:53:22.624Z</time>
      </trkpt>
      <trkpt lat="47.40767" lon="-0.47706">
        <ele>-19.52726</ele>
        <time>2011-11-03T14:53:25.631Z</time>
      </trkpt>
      <trkpt lat="47.40765" lon="-0.47738">
        <ele>-19.747608</ele>
        <time>2011-11-03T14:53:28.616Z</time>
      </trkpt>
      <trkpt lat="47.40764" lon="-0.47771">
        <ele>-20.086315</ele>
        <time>2011-11-03T14:53:31.615Z</time>
      </trkpt>
      <trkpt lat="47.40767" lon="-0.47803">
        <ele>-20.191425</ele>
        <time>2011-11-03T14:53:34.626Z</time>
      </trkpt>
      <trkpt lat="47.4077" lon="-0.47833">
        <ele>-20.156742</ele>
        <time>2011-11-03T14:53:37.616Z</time>
      </trkpt>
      <trkpt lat="47.40776" lon="-0.47862">
        <ele>-20.421738</ele>
        <time>2011-11-03T14:53:40.614Z</time>
      </trkpt>
      <trkpt lat="47.40786" lon="-0.47889">
        <ele>-20.777885</ele>
        <time>2011-11-03T14:53:43.641Z</time>
      </trkpt>
      <trkpt lat="47.40798" lon="-0.47916">
        <ele>-21.163528</ele>
        <time>2011-11-03T14:53:46.636Z</time>
      </trkpt>
      <trkpt lat="47.40809" lon="-0.47944">
        <ele>-21.447834</ele>
        <time>2011-11-03T14:53:49.635Z</time>
      </trkpt>
      <trkpt lat="47.40818" lon="-0.47972">
        <ele>-21.682724</ele>
        <time>2011-11-03T14:53:52.636Z</time>
      </trkpt>
      <trkpt lat="47.40826" lon="-0.48001">
        <ele>-21.746441</ele>
        <time>2011-11-03T14:53:55.638Z</time>
      </trkpt>
      <trkpt lat="47.40834" lon="-0.48032">
        <ele>-21.682163</ele>
        <time>2011-11-03T14:53:58.635Z</time>
      </trkpt>
      <trkpt lat="47.4084" lon="-0.48063">
        <ele>-21.507397</ele>
        <time>2011-11-03T14:54:01.629Z</time>
      </trkpt>
      <trkpt lat="47.40846" lon="-0.48094">
        <ele>-21.233467</ele>
        <time>2011-11-03T14:54:04.614Z</time>
      </trkpt>
      <trkpt lat="47.40852" lon="-0.48122">
        <ele>-20.941978</ele>
        <time>2011-11-03T14:54:07.612Z</time>
      </trkpt>
      <trkpt lat="47.40856" lon="-0.48151">
        <ele>-21.29866</ele>
        <time>2011-11-03T14:54:10.625Z</time>
      </trkpt>
      <trkpt lat="47.40859" lon="-0.48183">
        <ele>-21.804775</ele>
        <time>2011-11-03T14:54:13.635Z</time>
      </trkpt>
      <trkpt lat="47.40863" lon="-0.48215">
        <ele>-22.402115</ele>
        <time>2011-11-03T14:54:16.636Z</time>
      </trkpt>
      <trkpt lat="47.40868" lon="-0.48247">
        <ele>-23.047661</ele>
        <time>2011-11-03T14:54:19.630Z</time>
      </trkpt>
      <trkpt lat="47.40873" lon="-0.48278">
        <ele>-23.669033</ele>
        <time>2011-11-03T14:54:22.631Z</time>
      </trkpt>
      <trkpt lat="47.40879" lon="-0.4831">
        <ele>-24.126869</ele>
        <time>2011-11-03T14:54:25.618Z</time>
      </trkpt>
      <trkpt lat="47.40887" lon="-0.48339">
        <ele>-24.46542</ele>
        <time>2011-11-03T14:54:28.627Z</time>
      </trkpt>
      <trkpt lat="47.40897" lon="-0.48366">
        <ele>-24.722393</ele>
        <time>2011-11-03T14:54:31.626Z</time>
      </trkpt>
      <trkpt lat="47.40908" lon="-0.48393">
        <ele>-24.897671</ele>
        <time>2011-11-03T14:54:34.831Z</time>
      </trkpt>
      <trkpt lat="47.40922" lon="-0.4842">
        <ele>-24.921833</ele>
        <time>2011-11-03T14:54:37.629Z</time>
      </trkpt>
      <trkpt lat="47.40935" lon="-0.48445">
        <ele>-24.729782</ele>
        <time>2011-11-03T14:54:40.624Z</time>
      </trkpt>
      <trkpt lat="47.40947" lon="-0.4847">
        <ele>-24.629276</ele>
        <time>2011-11-03T14:54:43.630Z</time>
      </trkpt>
      <trkpt lat="47.40959" lon="-0.48497">
        <ele>-24.568974</ele>
        <time>2011-11-03T14:54:46.630Z</time>
      </trkpt>
      <trkpt lat="47.40969" lon="-0.48526">
        <ele>-24.621552</ele>
        <time>2011-11-03T14:54:49.621Z</time>
      </trkpt>
      <trkpt lat="47.4098" lon="-0.48553">
        <ele>-24.796886</ele>
        <time>2011-11-03T14:54:52.623Z</time>
      </trkpt>
      <trkpt lat="47.4099" lon="-0.48583">
        <ele>-25.108105</ele>
        <time>2011-11-03T14:54:55.623Z</time>
      </trkpt>
      <trkpt lat="47.41001" lon="-0.48612">
        <ele>-25.27486</ele>
        <time>2011-11-03T14:54:58.632Z</time>
      </trkpt>
      <trkpt lat="47.41011" lon="-0.48641">
        <ele>-25.455379</ele>
        <time>2011-11-03T14:55:01.620Z</time>
      </trkpt>
      <trkpt lat="47.41021" lon="-0.4867">
        <ele>-25.627171</ele>
        <time>2011-11-03T14:55:04.622Z</time>
      </trkpt>
      <trkpt lat="47.41031" lon="-0.487">
        <ele>-25.889267</ele>
        <time>2011-11-03T14:55:07.624Z</time>
      </trkpt>
      <trkpt lat="47.41041" lon="-0.48729">
        <ele>-26.301373</ele>
        <time>2011-11-03T14:55:10.614Z</time>
      </trkpt>
      <trkpt lat="47.41051" lon="-0.48758">
        <ele>-26.76218</ele>
        <time>2011-11-03T14:55:13.607Z</time>
      </trkpt>
      <trkpt lat="47.41061" lon="-0.48786">
        <ele>-27.117344</ele>
        <time>2011-11-03T14:55:16.610Z</time>
      </trkpt>
      <trkpt lat="47.4107" lon="-0.48815">
        <ele>-27.493595</ele>
        <time>2011-11-03T14:55:19.627Z</time>
      </trkpt>
      <trkpt lat="47.4108" lon="-0.48844">
        <ele>-27.869705</ele>
        <time>2011-11-03T14:55:22.612Z</time>
      </trkpt>
      <trkpt lat="47.41089" lon="-0.48872">
        <ele>-28.258862</ele>
        <time>2011-11-03T14:55:25.618Z</time>
      </trkpt>
      <trkpt lat="47.41099" lon="-0.48902">
        <ele>-28.591278</ele>
        <time>2011-11-03T14:55:28.631Z</time>
      </trkpt>
      <trkpt lat="47.41109" lon="-0.48931">
        <ele>-28.680603</ele>
        <time>2011-11-03T14:55:31.633Z</time>
      </trkpt>
      <trkpt lat="47.41119" lon="-0.4896">
        <ele>-28.906185</ele>
        <time>2011-11-03T14:55:34.637Z</time>
      </trkpt>
      <trkpt lat="47.41129" lon="-0.4899">
        <ele>-29.32682</ele>
        <time>2011-11-03T14:55:37.612Z</time>
      </trkpt>
      <trkpt lat="47.41138" lon="-0.49018">
        <ele>-29.847073</ele>
        <time>2011-11-03T14:55:40.615Z</time>
      </trkpt>
      <trkpt lat="47.41147" lon="-0.49046">
        <ele>-30.084839</ele>
        <time>2011-11-03T14:55:43.623Z</time>
      </trkpt>
      <trkpt lat="47.41156" lon="-0.49074">
        <ele>-30.250145</ele>
        <time>2011-11-03T14:55:46.624Z</time>
      </trkpt>
      <trkpt lat="47.41166" lon="-0.49102">
        <ele>-30.158298</ele>
        <time>2011-11-03T14:55:49.620Z</time>
      </trkpt>
      <trkpt lat="47.41173" lon="-0.49129">
        <ele>-29.965641</ele>
        <time>2011-11-03T14:55:52.668Z</time>
      </trkpt>
      <trkpt lat="47.41181" lon="-0.49159">
        <ele>-29.667183</ele>
        <time>2011-11-03T14:55:55.630Z</time>
      </trkpt>
      <trkpt lat="47.41188" lon="-0.49191">
        <ele>-29.200069</ele>
        <time>2011-11-03T14:55:58.628Z</time>
      </trkpt>
      <trkpt lat="47.41193" lon="-0.49224">
        <ele>-28.617577</ele>
        <time>2011-11-03T14:56:01.626Z</time>
      </trkpt>
      <trkpt lat="47.41198" lon="-0.49257">
        <ele>-28.090942</ele>
        <time>2011-11-03T14:56:04.633Z</time>
      </trkpt>
      <trkpt lat="47.41204" lon="-0.49287">
        <ele>-27.449459</ele>
        <time>2011-11-03T14:56:07.627Z</time>
      </trkpt>
      <trkpt lat="47.41211" lon="-0.49317">
        <ele>-26.693874</ele>
        <time>2011-11-03T14:56:10.632Z</time>
      </trkpt>
      <trkpt lat="47.41218" lon="-0.49347">
        <ele>-26.575001</ele>
        <time>2011-11-03T14:56:13.632Z</time>
      </trkpt>
      <trkpt lat="47.41224" lon="-0.49376">
        <ele>-26.604473</ele>
        <time>2011-11-03T14:56:16.814Z</time>
      </trkpt>
      <trkpt lat="47.41229" lon="-0.49406">
        <ele>-26.694798</ele>
        <time>2011-11-03T14:56:19.631Z</time>
      </trkpt>
      <trkpt lat="47.41235" lon="-0.49437">
        <ele>-26.490795</ele>
        <time>2011-11-03T14:56:22.633Z</time>
      </trkpt>
      <trkpt lat="47.4124" lon="-0.49471">
        <ele>-26.156796</ele>
        <time>2011-11-03T14:56:25.631Z</time>
      </trkpt>
      <trkpt lat="47.41246" lon="-0.49503">
        <ele>-25.78854</ele>
        <time>2011-11-03T14:56:28.632Z</time>
      </trkpt>
      <trkpt lat="47.41253" lon="-0.49534">
        <ele>-25.199963</ele>
        <time>2011-11-03T14:56:31.633Z</time>
      </trkpt>
      <trkpt lat="47.41259" lon="-0.49565">
        <ele>-24.463402</ele>
        <time>2011-11-03T14:56:34.725Z</time>
      </trkpt>
      <trkpt lat="47.41264" lon="-0.49597">
        <ele>-23.792114</ele>
        <time>2011-11-03T14:56:37.627Z</time>
      </trkpt>
      <trkpt lat="47.4127" lon="-0.49629">
        <ele>-23.090393</ele>
        <time>2011-11-03T14:56:40.639Z</time>
      </trkpt>
      <trkpt lat="47.41277" lon="-0.4966">
        <ele>-22.42728</ele>
        <time>2011-11-03T14:56:43.627Z</time>
      </trkpt>
      <trkpt lat="47.41283" lon="-0.49691">
        <ele>-22.156864</ele>
        <time>2011-11-03T14:56:46.622Z</time>
      </trkpt>
      <trkpt lat="47.41291" lon="-0.49722">
        <ele>-21.51804</ele>
        <time>2011-11-03T14:56:49.668Z</time>
      </trkpt>
      <trkpt lat="47.41298" lon="-0.49754">
        <ele>-20.869389</ele>
        <time>2011-11-03T14:56:52.631Z</time>
      </trkpt>
      <trkpt lat="47.41304" lon="-0.49787">
        <ele>-20.53883</ele>
        <time>2011-11-03T14:56:55.637Z</time>
      </trkpt>
      <trkpt lat="47.41307" lon="-0.4982">
        <ele>-20.974884</ele>
        <time>2011-11-03T14:56:58.618Z</time>
      </trkpt>
      <trkpt lat="47.41309" lon="-0.49852">
        <ele>-21.605446</ele>
        <time>2011-11-03T14:57:01.630Z</time>
      </trkpt>
      <trkpt lat="47.4131" lon="-0.49884">
        <ele>-21.906277</ele>
        <time>2011-11-03T14:57:04.631Z</time>
      </trkpt>
      <trkpt lat="47.4131" lon="-0.49915">
        <ele>-22.269165</ele>
        <time>2011-11-03T14:57:07.629Z</time>
      </trkpt>
      <trkpt lat="47.41311" lon="-0.49946">
        <ele>-22.697544</ele>
        <time>2011-11-03T14:57:10.625Z</time>
      </trkpt>
      <trkpt lat="47.41312" lon="-0.49978">
        <ele>-22.841484</ele>
        <time>2011-11-03T14:57:13.628Z</time>
      </trkpt>
      <trkpt lat="47.41314" lon="-0.50009">
        <ele>-22.79855</ele>
        <time>2011-11-03T14:57:16.633Z</time>
      </trkpt>
      <trkpt lat="47.41315" lon="-0.5004">
        <ele>-22.785652</ele>
        <time>2011-11-03T14:57:19.625Z</time>
      </trkpt>
      <trkpt lat="47.41317" lon="-0.50072">
        <ele>-22.750938</ele>
        <time>2011-11-03T14:57:22.626Z</time>
      </trkpt>
      <trkpt lat="47.41319" lon="-0.50104">
        <ele>-22.443066</ele>
        <time>2011-11-03T14:57:25.632Z</time>
      </trkpt>
      <trkpt lat="47.4132" lon="-0.50136">
        <ele>-21.891582</ele>
        <time>2011-11-03T14:57:28.625Z</time>
      </trkpt>
      <trkpt lat="47.41322" lon="-0.50169">
        <ele>-21.338043</ele>
        <time>2011-11-03T14:57:31.629Z</time>
      </trkpt>
      <trkpt lat="47.41325" lon="-0.50203">
        <ele>-20.835468</ele>
        <time>2011-11-03T14:57:34.634Z</time>
      </trkpt>
      <trkpt lat="47.4133" lon="-0.50235">
        <ele>-20.577244</ele>
        <time>2011-11-03T14:57:37.623Z</time>
      </trkpt>
      <trkpt lat="47.41337" lon="-0.50266">
        <ele>-20.250584</ele>
        <time>2011-11-03T14:57:40.625Z</time>
      </trkpt>
      <trkpt lat="47.41344" lon="-0.50296">
        <ele>-19.7775</ele>
        <time>2011-11-03T14:57:43.634Z</time>
      </trkpt>
      <trkpt lat="47.41349" lon="-0.50327">
        <ele>-19.352032</ele>
        <time>2011-11-03T14:57:46.691Z</time>
      </trkpt>
      <trkpt lat="47.41352" lon="-0.50358">
        <ele>-18.867237</ele>
        <time>2011-11-03T14:57:49.623Z</time>
      </trkpt>
      <trkpt lat="47.41354" lon="-0.50389">
        <ele>-18.334469</ele>
        <time>2011-11-03T14:57:52.635Z</time>
      </trkpt>
      <trkpt lat="47.41358" lon="-0.50421">
        <ele>-18.033085</ele>
        <time>2011-11-03T14:57:55.631Z</time>
      </trkpt>
      <trkpt lat="47.41362" lon="-0.50455">
        <ele>-18.013077</ele>
        <time>2011-11-03T14:57:58.622Z</time>
      </trkpt>
      <trkpt lat="47.41367" lon="-0.50487">
        <ele>-18.331203</ele>
        <time>2011-11-03T14:58:01.630Z</time>
      </trkpt>
      <trkpt lat="47.41372" lon="-0.5052">
        <ele>-18.700039</ele>
        <time>2011-11-03T14:58:04.635Z</time>
      </trkpt>
      <trkpt lat="47.41376" lon="-0.50554">
        <ele>-19.063099</ele>
        <time>2011-11-03T14:58:07.628Z</time>
      </trkpt>
      <trkpt lat="47.41381" lon="-0.50586">
        <ele>-19.19009</ele>
        <time>2011-11-03T14:58:10.633Z</time>
      </trkpt>
      <trkpt lat="47.41387" lon="-0.5062">
        <ele>-19.60902</ele>
        <time>2011-11-03T14:58:13.646Z</time>
      </trkpt>
      <trkpt lat="47.41393" lon="-0.50654">
        <ele>-19.765862</ele>
        <time>2011-11-03T14:58:16.631Z</time>
      </trkpt>
      <trkpt lat="47.41399" lon="-0.50688">
        <ele>-19.775536</ele>
        <time>2011-11-03T14:58:19.634Z</time>
      </trkpt>
      <trkpt lat="47.41405" lon="-0.50722">
        <ele>-19.641415</ele>
        <time>2011-11-03T14:58:22.623Z</time>
      </trkpt>
      <trkpt lat="47.4141" lon="-0.50755">
        <ele>-18.913414</ele>
        <time>2011-11-03T14:58:25.626Z</time>
      </trkpt>
      <trkpt lat="47.41412" lon="-0.50789">
        <ele>-18.276489</ele>
        <time>2011-11-03T14:58:28.634Z</time>
      </trkpt>
      <trkpt lat="47.4141" lon="-0.50822">
        <ele>-18.02116</ele>
        <time>2011-11-03T14:58:31.620Z</time>
      </trkpt>
      <trkpt lat="47.41406" lon="-0.50855">
        <ele>-18.206173</ele>
        <time>2011-11-03T14:58:34.619Z</time>
      </trkpt>
      <trkpt lat="47.41403" lon="-0.50887">
        <ele>-18.624905</ele>
        <time>2011-11-03T14:58:37.871Z</time>
      </trkpt>
      <trkpt lat="47.41399" lon="-0.50921">
        <ele>-19.139278</ele>
        <time>2011-11-03T14:58:40.618Z</time>
      </trkpt>
      <trkpt lat="47.41395" lon="-0.50953">
        <ele>-19.436329</ele>
        <time>2011-11-03T14:58:43.605Z</time>
      </trkpt>
      <trkpt lat="47.41391" lon="-0.50984">
        <ele>-19.579655</ele>
        <time>2011-11-03T14:58:46.631Z</time>
      </trkpt>
      <trkpt lat="47.41385" lon="-0.51016">
        <ele>-19.626663</ele>
        <time>2011-11-03T14:58:49.638Z</time>
      </trkpt>
      <trkpt lat="47.41373" lon="-0.51044">
        <ele>-19.567997</ele>
        <time>2011-11-03T14:58:52.632Z</time>
      </trkpt>
      <trkpt lat="47.41357" lon="-0.51069">
        <ele>-19.243095</ele>
        <time>2011-11-03T14:58:55.626Z</time>
      </trkpt>
      <trkpt lat="47.41343" lon="-0.51095">
        <ele>-18.672764</ele>
        <time>2011-11-03T14:58:58.619Z</time>
      </trkpt>
      <trkpt lat="47.4133" lon="-0.51122">
        <ele>-18.057648</ele>
        <time>2011-11-03T14:59:01.616Z</time>
      </trkpt>
      <trkpt lat="47.41316" lon="-0.51147">
        <ele>-17.59808</ele>
        <time>2011-11-03T14:59:04.620Z</time>
      </trkpt>
      <trkpt lat="47.41302" lon="-0.51172">
        <ele>-17.249058</ele>
        <time>2011-11-03T14:59:07.614Z</time>
      </trkpt>
      <trkpt lat="47.41287" lon="-0.512">
        <ele>-16.625134</ele>
        <time>2011-11-03T14:59:10.614Z</time>
      </trkpt>
      <trkpt lat="47.41271" lon="-0.51229">
        <ele>-16.37521</ele>
        <time>2011-11-03T14:59:13.622Z</time>
      </trkpt>
      <trkpt lat="47.41257" lon="-0.51258">
        <ele>-16.823177</ele>
        <time>2011-11-03T14:59:16.617Z</time>
      </trkpt>
      <trkpt lat="47.41243" lon="-0.51285">
        <ele>-17.329166</ele>
        <time>2011-11-03T14:59:19.617Z</time>
      </trkpt>
      <trkpt lat="47.41227" lon="-0.5131">
        <ele>-17.649124</ele>
        <time>2011-11-03T14:59:22.621Z</time>
      </trkpt>
      <trkpt lat="47.41212" lon="-0.51337">
        <ele>-18.061554</ele>
        <time>2011-11-03T14:59:25.619Z</time>
      </trkpt>
      <trkpt lat="47.41196" lon="-0.51362">
        <ele>-18.53064</ele>
        <time>2011-11-03T14:59:28.626Z</time>
      </trkpt>
      <trkpt lat="47.4118" lon="-0.51386">
        <ele>-19.1208</ele>
        <time>2011-11-03T14:59:31.621Z</time>
      </trkpt>
      <trkpt lat="47.41164" lon="-0.51408">
        <ele>-19.640324</ele>
        <time>2011-11-03T14:59:34.661Z</time>
      </trkpt>
      <trkpt lat="47.41148" lon="-0.5143">
        <ele>-19.684658</ele>
        <time>2011-11-03T14:59:37.630Z</time>
      </trkpt>
      <trkpt lat="47.41131" lon="-0.51452">
        <ele>-19.603313</ele>
        <time>2011-11-03T14:59:40.635Z</time>
      </trkpt>
      <trkpt lat="47.41115" lon="-0.51475">
        <ele>-19.63147</ele>
        <time>2011-11-03T14:59:43.625Z</time>
      </trkpt>
      <trkpt lat="47.41099" lon="-0.51498">
        <ele>-19.83889</ele>
        <time>2011-11-03T14:59:46.622Z</time>
      </trkpt>
      <trkpt lat="47.41085" lon="-0.51524">
        <ele>-20.281013</ele>
        <time>2011-11-03T14:59:49.619Z</time>
      </trkpt>
      <trkpt lat="47.41073" lon="-0.51552">
        <ele>-21.415951</ele>
        <time>2011-11-03T14:59:52.620Z</time>
      </trkpt>
      <trkpt lat="47.41066" lon="-0.51584">
        <ele>-22.574184</ele>
        <time>2011-11-03T14:59:55.610Z</time>
      </trkpt>
      <trkpt lat="47.4106" lon="-0.51617">
        <ele>-23.438999</ele>
        <time>2011-11-03T14:59:58.610Z</time>
      </trkpt>
      <trkpt lat="47.41057" lon="-0.51651">
        <ele>-23.996254</ele>
        <time>2011-11-03T15:00:01.639Z</time>
      </trkpt>
      <trkpt lat="47.41054" lon="-0.51685">
        <ele>-24.17857</ele>
        <time>2011-11-03T15:00:04.617Z</time>
      </trkpt>
      <trkpt lat="47.4105" lon="-0.51718">
        <ele>-24.189991</ele>
        <time>2011-11-03T15:00:07.624Z</time>
      </trkpt>
      <trkpt lat="47.41046" lon="-0.51751">
        <ele>-23.920403</ele>
        <time>2011-11-03T15:00:10.617Z</time>
      </trkpt>
      <trkpt lat="47.41042" lon="-0.51783">
        <ele>-23.547054</ele>
        <time>2011-11-03T15:00:13.619Z</time>
      </trkpt>
      <trkpt lat="47.41038" lon="-0.51815">
        <ele>-23.294445</ele>
        <time>2011-11-03T15:00:16.615Z</time>
      </trkpt>
      <trkpt lat="47.41033" lon="-0.51846">
        <ele>-23.005402</ele>
        <time>2011-11-03T15:00:19.616Z</time>
      </trkpt>
      <trkpt lat="47.41029" lon="-0.51877">
        <ele>-22.645477</ele>
        <time>2011-11-03T15:00:22.618Z</time>
      </trkpt>
      <trkpt lat="47.41024" lon="-0.51909">
        <ele>-22.297791</ele>
        <time>2011-11-03T15:00:25.613Z</time>
      </trkpt>
      <trkpt lat="47.41019" lon="-0.51941">
        <ele>-21.884808</ele>
        <time>2011-11-03T15:00:28.624Z</time>
      </trkpt>
      <trkpt lat="47.41012" lon="-0.51974">
        <ele>-21.66354</ele>
        <time>2011-11-03T15:00:31.622Z</time>
      </trkpt>
      <trkpt lat="47.41005" lon="-0.52005">
        <ele>-21.852829</ele>
        <time>2011-11-03T15:00:34.616Z</time>
      </trkpt>
      <trkpt lat="47.41001" lon="-0.52037">
        <ele>-21.821209</ele>
        <time>2011-11-03T15:00:37.626Z</time>
      </trkpt>
      <trkpt lat="47.40995" lon="-0.52071">
        <ele>-21.435432</ele>
        <time>2011-11-03T15:00:40.639Z</time>
      </trkpt>
      <trkpt lat="47.40991" lon="-0.52104">
        <ele>-20.581894</ele>
        <time>2011-11-03T15:00:43.628Z</time>
      </trkpt>
      <trkpt lat="47.40985" lon="-0.52134">
        <ele>-19.831165</ele>
        <time>2011-11-03T15:00:46.614Z</time>
      </trkpt>
      <trkpt lat="47.40979" lon="-0.52165">
        <ele>-19.228634</ele>
        <time>2011-11-03T15:00:49.616Z</time>
      </trkpt>
      <trkpt lat="47.40971" lon="-0.52194">
        <ele>-18.777462</ele>
        <time>2011-11-03T15:00:52.617Z</time>
      </trkpt>
      <trkpt lat="47.40963" lon="-0.52228">
        <ele>-18.247883</ele>
        <time>2011-11-03T15:00:55.630Z</time>
      </trkpt>
      <trkpt lat="47.40956" lon="-0.5226">
        <ele>-17.739964</ele>
        <time>2011-11-03T15:00:58.622Z</time>
      </trkpt>
      <trkpt lat="47.40948" lon="-0.5229">
        <ele>-17.575287</ele>
        <time>2011-11-03T15:01:01.621Z</time>
      </trkpt>
      <trkpt lat="47.4094" lon="-0.52322">
        <ele>-17.909901</ele>
        <time>2011-11-03T15:01:04.619Z</time>
      </trkpt>
      <trkpt lat="47.40936" lon="-0.52354">
        <ele>-18.410282</ele>
        <time>2011-11-03T15:01:07.621Z</time>
      </trkpt>
      <trkpt lat="47.40933" lon="-0.52384">
        <ele>-18.972713</ele>
        <time>2011-11-03T15:01:10.626Z</time>
      </trkpt>
      <trkpt lat="47.4093" lon="-0.52417">
        <ele>-19.410065</ele>
        <time>2011-11-03T15:01:14.628Z</time>
      </trkpt>
      <trkpt lat="47.40931" lon="-0.52445">
        <ele>-19.892384</ele>
        <time>2011-11-03T15:01:18.625Z</time>
      </trkpt>
      <trkpt lat="47.40942" lon="-0.52469">
        <ele>-20.086979</ele>
        <time>2011-11-03T15:01:24.665Z</time>
      </trkpt>
      <trkpt lat="47.40966" lon="-0.52469">
        <ele>-21.933628</ele>
        <time>2011-11-03T15:01:29.623Z</time>
      </trkpt>
      <trkpt lat="47.40989" lon="-0.52461">
        <ele>-22.32317</ele>
        <time>2011-11-03T15:01:33.621Z</time>
      </trkpt>
      <trkpt lat="47.41007" lon="-0.52454">
        <ele>-22.474236</ele>
        <time>2011-11-03T15:01:36.626Z</time>
      </trkpt>
      <trkpt lat="47.41026" lon="-0.52448">
        <ele>-22.633358</ele>
        <time>2011-11-03T15:01:39.618Z</time>
      </trkpt>
      <trkpt lat="47.41045" lon="-0.5244">
        <ele>-22.682777</ele>
        <time>2011-11-03T15:01:42.621Z</time>
      </trkpt>
      <trkpt lat="47.41065" lon="-0.52434">
        <ele>-22.641415</ele>
        <time>2011-11-03T15:01:45.622Z</time>
      </trkpt>
      <trkpt lat="47.41086" lon="-0.52427">
        <ele>-22.430099</ele>
        <time>2011-11-03T15:01:48.627Z</time>
      </trkpt>
      <trkpt lat="47.41107" lon="-0.5242">
        <ele>-22.230984</ele>
        <time>2011-11-03T15:01:51.631Z</time>
      </trkpt>
      <trkpt lat="47.41128" lon="-0.52414">
        <ele>-22.235317</ele>
        <time>2011-11-03T15:01:54.621Z</time>
      </trkpt>
      <trkpt lat="47.41149" lon="-0.52406">
        <ele>-22.336044</ele>
        <time>2011-11-03T15:01:57.624Z</time>
      </trkpt>
      <trkpt lat="47.41169" lon="-0.52398">
        <ele>-22.535904</ele>
        <time>2011-11-03T15:02:00.619Z</time>
      </trkpt>
      <trkpt lat="47.4119" lon="-0.52392">
        <ele>-22.669239</ele>
        <time>2011-11-03T15:02:03.626Z</time>
      </trkpt>
      <trkpt lat="47.41212" lon="-0.52385">
        <ele>-22.688469</ele>
        <time>2011-11-03T15:02:06.621Z</time>
      </trkpt>
      <trkpt lat="47.41233" lon="-0.52378">
        <ele>-22.653568</ele>
        <time>2011-11-03T15:02:09.615Z</time>
      </trkpt>
      <trkpt lat="47.41254" lon="-0.52371">
        <ele>-22.774864</ele>
        <time>2011-11-03T15:02:12.630Z</time>
      </trkpt>
      <trkpt lat="47.41276" lon="-0.52365">
        <ele>-23.013584</ele>
        <time>2011-11-03T15:02:15.624Z</time>
      </trkpt>
      <trkpt lat="47.41298" lon="-0.52359">
        <ele>-23.274761</ele>
        <time>2011-11-03T15:02:18.621Z</time>
      </trkpt>
      <trkpt lat="47.41319" lon="-0.52353">
        <ele>-23.309612</ele>
        <time>2011-11-03T15:02:21.678Z</time>
      </trkpt>
      <trkpt lat="47.41341" lon="-0.52346">
        <ele>-23.264149</ele>
        <time>2011-11-03T15:02:24.625Z</time>
      </trkpt>
      <trkpt lat="47.41362" lon="-0.52341">
        <ele>-23.258385</ele>
        <time>2011-11-03T15:02:27.629Z</time>
      </trkpt>
      <trkpt lat="47.41383" lon="-0.52336">
        <ele>-23.4874</ele>
        <time>2011-11-03T15:02:30.627Z</time>
      </trkpt>
      <trkpt lat="47.41404" lon="-0.5233">
        <ele>-23.750347</ele>
        <time>2011-11-03T15:02:33.625Z</time>
      </trkpt>
      <trkpt lat="47.41425" lon="-0.52326">
        <ele>-23.766575</ele>
        <time>2011-11-03T15:02:36.621Z</time>
      </trkpt>
      <trkpt lat="47.41447" lon="-0.5232">
        <ele>-23.64011</ele>
        <time>2011-11-03T15:02:39.626Z</time>
      </trkpt>
      <trkpt lat="47.41468" lon="-0.52315">
        <ele>-23.33934</ele>
        <time>2011-11-03T15:02:42.631Z</time>
      </trkpt>
      <trkpt lat="47.41489" lon="-0.52314">
        <ele>-23.020256</ele>
        <time>2011-11-03T15:02:45.630Z</time>
      </trkpt>
      <trkpt lat="47.4151" lon="-0.52318">
        <ele>-22.7897</ele>
        <time>2011-11-03T15:02:48.622Z</time>
      </trkpt>
      <trkpt lat="47.4153" lon="-0.5232">
        <ele>-22.611134</ele>
        <time>2011-11-03T15:02:51.620Z</time>
      </trkpt>
      <trkpt lat="47.41549" lon="-0.52321">
        <ele>-22.50864</ele>
        <time>2011-11-03T15:02:54.615Z</time>
      </trkpt>
      <trkpt lat="47.41572" lon="-0.52323">
        <ele>-22.381916</ele>
        <time>2011-11-03T15:02:58.635Z</time>
      </trkpt>
      <trkpt lat="47.4159" lon="-0.52325">
        <ele>-22.372852</ele>
        <time>2011-11-03T15:03:01.628Z</time>
      </trkpt>
      <trkpt lat="47.41608" lon="-0.52327">
        <ele>-22.254066</ele>
        <time>2011-11-03T15:03:04.632Z</time>
      </trkpt>
      <trkpt lat="47.41627" lon="-0.52328">
        <ele>-22.188038</ele>
        <time>2011-11-03T15:03:07.636Z</time>
      </trkpt>
      <trkpt lat="47.41647" lon="-0.52329">
        <ele>-22.098385</ele>
        <time>2011-11-03T15:03:10.633Z</time>
      </trkpt>
      <trkpt lat="47.41667" lon="-0.52331">
        <ele>-22.023617</ele>
        <time>2011-11-03T15:03:13.620Z</time>
      </trkpt>
      <trkpt lat="47.41688" lon="-0.52332">
        <ele>-21.990486</ele>
        <time>2011-11-03T15:03:16.685Z</time>
      </trkpt>
      <trkpt lat="47.41709" lon="-0.52332">
        <ele>-21.987331</ele>
        <time>2011-11-03T15:03:19.638Z</time>
      </trkpt>
      <trkpt lat="47.41729" lon="-0.52334">
        <ele>-22.172272</ele>
        <time>2011-11-03T15:03:22.635Z</time>
      </trkpt>
      <trkpt lat="47.4175" lon="-0.52335">
        <ele>-22.317589</ele>
        <time>2011-11-03T15:03:25.634Z</time>
      </trkpt>
      <trkpt lat="47.41771" lon="-0.52337">
        <ele>-22.35614</ele>
        <time>2011-11-03T15:03:28.628Z</time>
      </trkpt>
      <trkpt lat="47.41792" lon="-0.52338">
        <ele>-22.569412</ele>
        <time>2011-11-03T15:03:31.631Z</time>
      </trkpt>
      <trkpt lat="47.41812" lon="-0.52339">
        <ele>-22.8521</ele>
        <time>2011-11-03T15:03:34.637Z</time>
      </trkpt>
      <trkpt lat="47.41834" lon="-0.52327">
        <ele>-23.200577</ele>
        <time>2011-11-03T15:03:38.642Z</time>
      </trkpt>
      <trkpt lat="47.41852" lon="-0.52337">
        <ele>-23.257923</ele>
        <time>2011-11-03T15:03:42.635Z</time>
      </trkpt>
      <trkpt lat="47.41872" lon="-0.52344">
        <ele>-23.368286</ele>
        <time>2011-11-03T15:03:46.633Z</time>
      </trkpt>
      <trkpt lat="47.41893" lon="-0.52346">
        <ele>-22.898579</ele>
        <time>2011-11-03T15:03:50.632Z</time>
      </trkpt>
      <trkpt lat="47.41913" lon="-0.52347">
        <ele>-22.489204</ele>
        <time>2011-11-03T15:03:54.646Z</time>
      </trkpt>
      <trkpt lat="47.41934" lon="-0.52351">
        <ele>-22.640282</ele>
        <time>2011-11-03T15:03:58.633Z</time>
      </trkpt>
      <trkpt lat="47.41955" lon="-0.52353">
        <ele>-23.100204</ele>
        <time>2011-11-03T15:04:02.640Z</time>
      </trkpt>
      <trkpt lat="47.41979" lon="-0.52353">
        <ele>-23.308418</ele>
        <time>2011-11-03T15:04:06.631Z</time>
      </trkpt>
      <trkpt lat="47.41999" lon="-0.52353">
        <ele>-23.309143</ele>
        <time>2011-11-03T15:04:09.643Z</time>
      </trkpt>
      <trkpt lat="47.4202" lon="-0.52355">
        <ele>-23.313267</ele>
        <time>2011-11-03T15:04:12.637Z</time>
      </trkpt>
      <trkpt lat="47.42041" lon="-0.52356">
        <ele>-23.351742</ele>
        <time>2011-11-03T15:04:15.685Z</time>
      </trkpt>
      <trkpt lat="47.42062" lon="-0.52358">
        <ele>-23.435955</ele>
        <time>2011-11-03T15:04:18.650Z</time>
      </trkpt>
      <trkpt lat="47.42083" lon="-0.52359">
        <ele>-23.348301</ele>
        <time>2011-11-03T15:04:21.628Z</time>
      </trkpt>
      <trkpt lat="47.42104" lon="-0.52361">
        <ele>-23.364452</ele>
        <time>2011-11-03T15:04:24.630Z</time>
      </trkpt>
      <trkpt lat="47.42125" lon="-0.52362">
        <ele>-23.321728</ele>
        <time>2011-11-03T15:04:27.633Z</time>
      </trkpt>
      <trkpt lat="47.42147" lon="-0.52364">
        <ele>-23.259426</ele>
        <time>2011-11-03T15:04:30.634Z</time>
      </trkpt>
      <trkpt lat="47.42169" lon="-0.52365">
        <ele>-23.197124</ele>
        <time>2011-11-03T15:04:33.638Z</time>
      </trkpt>
      <trkpt lat="47.42191" lon="-0.52366">
        <ele>-23.34404</ele>
        <time>2011-11-03T15:04:36.632Z</time>
      </trkpt>
      <trkpt lat="47.42213" lon="-0.52368">
        <ele>-23.553791</ele>
        <time>2011-11-03T15:04:39.638Z</time>
      </trkpt>
      <trkpt lat="47.42236" lon="-0.52369">
        <ele>-23.875019</ele>
        <time>2011-11-03T15:04:42.642Z</time>
      </trkpt>
      <trkpt lat="47.42258" lon="-0.52372">
        <ele>-24.282665</ele>
        <time>2011-11-03T15:04:45.636Z</time>
      </trkpt>
      <trkpt lat="47.4228" lon="-0.52376">
        <ele>-24.66806</ele>
        <time>2011-11-03T15:04:48.649Z</time>
      </trkpt>
      <trkpt lat="47.42301" lon="-0.52387">
        <ele>-25.168926</ele>
        <time>2011-11-03T15:04:51.642Z</time>
      </trkpt>
      <trkpt lat="47.4232" lon="-0.52401">
        <ele>-25.712215</ele>
        <time>2011-11-03T15:04:54.640Z</time>
      </trkpt>
      <trkpt lat="47.42339" lon="-0.52415">
        <ele>-26.267063</ele>
        <time>2011-11-03T15:04:57.643Z</time>
      </trkpt>
      <trkpt lat="47.42358" lon="-0.52428">
        <ele>-26.741116</ele>
        <time>2011-11-03T15:05:00.638Z</time>
      </trkpt>
      <trkpt lat="47.42377" lon="-0.52443">
        <ele>-26.811138</ele>
        <time>2011-11-03T15:05:03.637Z</time>
      </trkpt>
      <trkpt lat="47.42396" lon="-0.52457">
        <ele>-26.843403</ele>
        <time>2011-11-03T15:05:06.646Z</time>
      </trkpt>
      <trkpt lat="47.42415" lon="-0.52471">
        <ele>-26.730114</ele>
        <time>2011-11-03T15:05:09.646Z</time>
      </trkpt>
      <trkpt lat="47.42433" lon="-0.52485">
        <ele>-26.522385</ele>
        <time>2011-11-03T15:05:12.647Z</time>
      </trkpt>
      <trkpt lat="47.42451" lon="-0.52498">
        <ele>-26.083725</ele>
        <time>2011-11-03T15:05:15.646Z</time>
      </trkpt>
      <trkpt lat="47.42469" lon="-0.52509">
        <ele>-25.645569</ele>
        <time>2011-11-03T15:05:18.638Z</time>
      </trkpt>
      <trkpt lat="47.42488" lon="-0.52519">
        <ele>-25.335117</ele>
        <time>2011-11-03T15:05:21.638Z</time>
      </trkpt>
      <trkpt lat="47.42506" lon="-0.52533">
        <ele>-25.103691</ele>
        <time>2011-11-03T15:05:24.646Z</time>
      </trkpt>
      <trkpt lat="47.42525" lon="-0.52546">
        <ele>-24.902351</ele>
        <time>2011-11-03T15:05:27.652Z</time>
      </trkpt>
      <trkpt lat="47.42544" lon="-0.52557">
        <ele>-24.806366</ele>
        <time>2011-11-03T15:05:30.645Z</time>
      </trkpt>
      <trkpt lat="47.42562" lon="-0.5257">
        <ele>-24.656647</ele>
        <time>2011-11-03T15:05:33.639Z</time>
      </trkpt>
      <trkpt lat="47.42581" lon="-0.52584">
        <ele>-24.396854</ele>
        <time>2011-11-03T15:05:36.635Z</time>
      </trkpt>
      <trkpt lat="47.426" lon="-0.52598">
        <ele>-24.279202</ele>
        <time>2011-11-03T15:05:39.644Z</time>
      </trkpt>
      <trkpt lat="47.42619" lon="-0.52612">
        <ele>-24.165215</ele>
        <time>2011-11-03T15:05:42.632Z</time>
      </trkpt>
      <trkpt lat="47.42638" lon="-0.52627">
        <ele>-24.40398</ele>
        <time>2011-11-03T15:05:45.624Z</time>
      </trkpt>
      <trkpt lat="47.42657" lon="-0.5264">
        <ele>-24.153854</ele>
        <time>2011-11-03T15:05:48.626Z</time>
      </trkpt>
      <trkpt lat="47.42676" lon="-0.52653">
        <ele>-23.557003</ele>
        <time>2011-11-03T15:05:51.628Z</time>
      </trkpt>
      <trkpt lat="47.42695" lon="-0.52666">
        <ele>-23.538532</ele>
        <time>2011-11-03T15:05:54.626Z</time>
      </trkpt>
      <trkpt lat="47.42713" lon="-0.52679">
        <ele>-23.006626</ele>
        <time>2011-11-03T15:05:57.631Z</time>
      </trkpt>
      <trkpt lat="47.42732" lon="-0.52694">
        <ele>-22.244392</ele>
        <time>2011-11-03T15:06:00.626Z</time>
      </trkpt>
      <trkpt lat="47.42752" lon="-0.5271">
        <ele>-21.65316</ele>
        <time>2011-11-03T15:06:03.617Z</time>
      </trkpt>
      <trkpt lat="47.42773" lon="-0.52725">
        <ele>-21.373413</ele>
        <time>2011-11-03T15:06:06.631Z</time>
      </trkpt>
      <trkpt lat="47.42795" lon="-0.52738">
        <ele>-22.231541</ele>
        <time>2011-11-03T15:06:09.682Z</time>
      </trkpt>
      <trkpt lat="47.42816" lon="-0.5275">
        <ele>-23.860924</ele>
        <time>2011-11-03T15:06:12.615Z</time>
      </trkpt>
      <trkpt lat="47.42838" lon="-0.5276">
        <ele>-25.112431</ele>
        <time>2011-11-03T15:06:15.635Z</time>
      </trkpt>
      <trkpt lat="47.42857" lon="-0.52769">
        <ele>-25.947792</ele>
        <time>2011-11-03T15:06:18.633Z</time>
      </trkpt>
      <trkpt lat="47.42878" lon="-0.52779">
        <ele>-26.661884</ele>
        <time>2011-11-03T15:06:22.624Z</time>
      </trkpt>
      <trkpt lat="47.42896" lon="-0.52788">
        <ele>-26.712727</ele>
        <time>2011-11-03T15:06:28.638Z</time>
      </trkpt>
      <trkpt lat="47.42914" lon="-0.52793">
        <ele>-26.731121</ele>
        <time>2011-11-03T15:06:34.622Z</time>
      </trkpt>
      <trkpt lat="47.42934" lon="-0.52798">
        <ele>-26.598068</ele>
        <time>2011-11-03T15:06:41.640Z</time>
      </trkpt>
      <trkpt lat="47.42954" lon="-0.52799">
        <ele>-26.262592</ele>
        <time>2011-11-03T15:06:45.635Z</time>
      </trkpt>
      <trkpt lat="47.42972" lon="-0.52797">
        <ele>-26.212421</ele>
        <time>2011-11-03T15:06:50.643Z</time>
      </trkpt>
      <trkpt lat="47.42991" lon="-0.52799">
        <ele>-26.400475</ele>
        <time>2011-11-03T15:06:59.634Z</time>
      </trkpt>
      <trkpt lat="47.43009" lon="-0.52806">
        <ele>-26.455025</ele>
        <time>2011-11-03T15:07:04.631Z</time>
      </trkpt>
      <trkpt lat="47.4303" lon="-0.52815">
        <ele>-25.635906</ele>
        <time>2011-11-03T15:07:09.633Z</time>
      </trkpt>
      <trkpt lat="47.43052" lon="-0.52821">
        <ele>-25.080379</ele>
        <time>2011-11-03T15:07:14.637Z</time>
      </trkpt>
      <trkpt lat="47.43071" lon="-0.52828">
        <ele>-25.026352</ele>
        <time>2011-11-03T15:07:18.639Z</time>
      </trkpt>
      <trkpt lat="47.43092" lon="-0.52839">
        <ele>-24.676044</ele>
        <time>2011-11-03T15:07:22.635Z</time>
      </trkpt>
      <trkpt lat="47.43113" lon="-0.52846">
        <ele>-24.226627</ele>
        <time>2011-11-03T15:07:26.637Z</time>
      </trkpt>
      <trkpt lat="47.43136" lon="-0.52856">
        <ele>-23.914455</ele>
        <time>2011-11-03T15:07:30.641Z</time>
      </trkpt>
      <trkpt lat="47.43157" lon="-0.52863">
        <ele>-23.805958</ele>
        <time>2011-11-03T15:07:33.644Z</time>
      </trkpt>
      <trkpt lat="47.43177" lon="-0.52872">
        <ele>-24.046062</ele>
        <time>2011-11-03T15:07:36.637Z</time>
      </trkpt>
      <trkpt lat="47.43196" lon="-0.52883">
        <ele>-24.217308</ele>
        <time>2011-11-03T15:07:39.634Z</time>
      </trkpt>
      <trkpt lat="47.43216" lon="-0.52893">
        <ele>-24.316074</ele>
        <time>2011-11-03T15:07:42.638Z</time>
      </trkpt>
      <trkpt lat="47.43236" lon="-0.52903">
        <ele>-24.280277</ele>
        <time>2011-11-03T15:07:45.642Z</time>
      </trkpt>
      <trkpt lat="47.43255" lon="-0.52914">
        <ele>-24.048321</ele>
        <time>2011-11-03T15:07:48.643Z</time>
      </trkpt>
      <trkpt lat="47.43275" lon="-0.52923">
        <ele>-23.932339</ele>
        <time>2011-11-03T15:07:51.649Z</time>
      </trkpt>
      <trkpt lat="47.43294" lon="-0.52929">
        <ele>-24.06163</ele>
        <time>2011-11-03T15:07:54.643Z</time>
      </trkpt>
      <trkpt lat="47.43316" lon="-0.52932">
        <ele>-24.870445</ele>
        <time>2011-11-03T15:07:58.629Z</time>
      </trkpt>
      <trkpt lat="47.43334" lon="-0.52924">
        <ele>-26.113552</ele>
        <time>2011-11-03T15:08:47.627Z</time>
      </trkpt>
      <trkpt lat="47.43353" lon="-0.52912">
        <ele>-31.133232</ele>
        <time>2011-11-03T15:08:53.648Z</time>
      </trkpt>
      <trkpt lat="47.43372" lon="-0.52911">
        <ele>-35.350765</ele>
        <time>2011-11-03T15:08:57.623Z</time>
      </trkpt>
      <trkpt lat="47.43388" lon="-0.52926">
        <ele>-36.840778</ele>
        <time>2011-11-03T15:09:01.621Z</time>
      </trkpt>
      <trkpt lat="47.43405" lon="-0.52949">
        <ele>-36.649445</ele>
        <time>2011-11-03T15:09:05.631Z</time>
      </trkpt>
      <trkpt lat="47.43419" lon="-0.52968">
        <ele>-35.778767</ele>
        <time>2011-11-03T15:09:08.636Z</time>
      </trkpt>
      <trkpt lat="47.43433" lon="-0.52987">
        <ele>-34.850868</ele>
        <time>2011-11-03T15:09:11.671Z</time>
      </trkpt>
      <trkpt lat="47.43448" lon="-0.53006">
        <ele>-33.8922</ele>
        <time>2011-11-03T15:09:14.683Z</time>
      </trkpt>
      <trkpt lat="47.43462" lon="-0.53022">
        <ele>-33.333385</ele>
        <time>2011-11-03T15:09:17.631Z</time>
      </trkpt>
      <trkpt lat="47.43484" lon="-0.53036">
        <ele>-33.52393</ele>
        <time>2011-11-03T15:09:21.632Z</time>
      </trkpt>
      <trkpt lat="47.43503" lon="-0.53046">
        <ele>-33.478565</ele>
        <time>2011-11-03T15:09:24.636Z</time>
      </trkpt>
      <trkpt lat="47.43522" lon="-0.53056">
        <ele>-33.266342</ele>
        <time>2011-11-03T15:09:27.623Z</time>
      </trkpt>
      <trkpt lat="47.43543" lon="-0.53068">
        <ele>-32.795734</ele>
        <time>2011-11-03T15:09:30.632Z</time>
      </trkpt>
      <trkpt lat="47.43563" lon="-0.53079">
        <ele>-32.176445</ele>
        <time>2011-11-03T15:09:33.615Z</time>
      </trkpt>
      <trkpt lat="47.43583" lon="-0.53087">
        <ele>-31.164619</ele>
        <time>2011-11-03T15:09:36.626Z</time>
      </trkpt>
      <trkpt lat="47.43605" lon="-0.53094">
        <ele>-30.599865</ele>
        <time>2011-11-03T15:09:39.634Z</time>
      </trkpt>
      <trkpt lat="47.43624" lon="-0.53101">
        <ele>-30.614983</ele>
        <time>2011-11-03T15:09:42.662Z</time>
      </trkpt>
      <trkpt lat="47.43643" lon="-0.53109">
        <ele>-29.985901</ele>
        <time>2011-11-03T15:09:45.634Z</time>
      </trkpt>
      <trkpt lat="47.43662" lon="-0.5311">
        <ele>-29.573494</ele>
        <time>2011-11-03T15:09:48.634Z</time>
      </trkpt>
      <trkpt lat="47.43679" lon="-0.531">
        <ele>-29.770897</ele>
        <time>2011-11-03T15:09:51.622Z</time>
      </trkpt>
      <trkpt lat="47.43697" lon="-0.53088">
        <ele>-29.676765</ele>
        <time>2011-11-03T15:09:54.638Z</time>
      </trkpt>
      <trkpt lat="47.43716" lon="-0.53078">
        <ele>-29.063164</ele>
        <time>2011-11-03T15:09:57.623Z</time>
      </trkpt>
      <trkpt lat="47.43735" lon="-0.5307">
        <ele>-28.481846</ele>
        <time>2011-11-03T15:10:00.632Z</time>
      </trkpt>
      <trkpt lat="47.43754" lon="-0.53063">
        <ele>-28.309982</ele>
        <time>2011-11-03T15:10:03.628Z</time>
      </trkpt>
      <trkpt lat="47.43777" lon="-0.53055">
        <ele>-28.461533</ele>
        <time>2011-11-03T15:10:07.633Z</time>
      </trkpt>
      <trkpt lat="47.43795" lon="-0.53045">
        <ele>-28.711422</ele>
        <time>2011-11-03T15:10:12.624Z</time>
      </trkpt>
      <trkpt lat="47.43816" lon="-0.53035">
        <ele>-29.059265</ele>
        <time>2011-11-03T15:10:21.623Z</time>
      </trkpt>
      <trkpt lat="47.43838" lon="-0.53028">
        <ele>-29.451027</ele>
        <time>2011-11-03T15:10:26.637Z</time>
      </trkpt>
      <trkpt lat="47.43856" lon="-0.53022">
        <ele>-29.340622</ele>
        <time>2011-11-03T15:10:30.626Z</time>
      </trkpt>
      <trkpt lat="47.43879" lon="-0.53012">
        <ele>-29.673286</ele>
        <time>2011-11-03T15:10:34.631Z</time>
      </trkpt>
      <trkpt lat="47.43895" lon="-0.53002">
        <ele>-29.787941</ele>
        <time>2011-11-03T15:10:37.630Z</time>
      </trkpt>
      <trkpt lat="47.43912" lon="-0.52991">
        <ele>-29.547749</ele>
        <time>2011-11-03T15:10:40.615Z</time>
      </trkpt>
      <trkpt lat="47.43929" lon="-0.5298">
        <ele>-29.349239</ele>
        <time>2011-11-03T15:10:43.626Z</time>
      </trkpt>
      <trkpt lat="47.43945" lon="-0.52969">
        <ele>-29.313782</ele>
        <time>2011-11-03T15:10:46.631Z</time>
      </trkpt>
      <trkpt lat="47.43962" lon="-0.52958">
        <ele>-28.987888</ele>
        <time>2011-11-03T15:10:49.631Z</time>
      </trkpt>
      <trkpt lat="47.43984" lon="-0.52943">
        <ele>-28.408821</ele>
        <time>2011-11-03T15:10:53.633Z</time>
      </trkpt>
      <trkpt lat="47.44001" lon="-0.52931">
        <ele>-28.04491</ele>
        <time>2011-11-03T15:10:56.686Z</time>
      </trkpt>
      <trkpt lat="47.44017" lon="-0.52919">
        <ele>-27.664215</ele>
        <time>2011-11-03T15:10:59.626Z</time>
      </trkpt>
      <trkpt lat="47.44035" lon="-0.52907">
        <ele>-27.006878</ele>
        <time>2011-11-03T15:11:02.621Z</time>
      </trkpt>
      <trkpt lat="47.44053" lon="-0.52894">
        <ele>-26.38036</ele>
        <time>2011-11-03T15:11:05.641Z</time>
      </trkpt>
      <trkpt lat="47.4407" lon="-0.52882">
        <ele>-25.812439</ele>
        <time>2011-11-03T15:11:08.623Z</time>
      </trkpt>
      <trkpt lat="47.44087" lon="-0.5287">
        <ele>-25.128128</ele>
        <time>2011-11-03T15:11:11.619Z</time>
      </trkpt>
      <trkpt lat="47.44104" lon="-0.52856">
        <ele>-24.450344</ele>
        <time>2011-11-03T15:11:14.620Z</time>
      </trkpt>
      <trkpt lat="47.44121" lon="-0.52842">
        <ele>-23.747238</ele>
        <time>2011-11-03T15:11:17.622Z</time>
      </trkpt>
      <trkpt lat="47.44139" lon="-0.5283">
        <ele>-23.021923</ele>
        <time>2011-11-03T15:11:20.619Z</time>
      </trkpt>
      <trkpt lat="47.44156" lon="-0.52819">
        <ele>-22.504612</ele>
        <time>2011-11-03T15:11:23.637Z</time>
      </trkpt>
      <trkpt lat="47.44173" lon="-0.52808">
        <ele>-21.579414</ele>
        <time>2011-11-03T15:11:26.633Z</time>
      </trkpt>
      <trkpt lat="47.44191" lon="-0.52798">
        <ele>-21.678177</ele>
        <time>2011-11-03T15:11:29.635Z</time>
      </trkpt>
      <trkpt lat="47.44207" lon="-0.52787">
        <ele>-21.800632</ele>
        <time>2011-11-03T15:11:32.639Z</time>
      </trkpt>
      <trkpt lat="47.44224" lon="-0.52776">
        <ele>-21.268772</ele>
        <time>2011-11-03T15:11:35.636Z</time>
      </trkpt>
      <trkpt lat="47.44241" lon="-0.52766">
        <ele>-20.96069</ele>
        <time>2011-11-03T15:11:38.635Z</time>
      </trkpt>
      <trkpt lat="47.44258" lon="-0.52756">
        <ele>-21.003529</ele>
        <time>2011-11-03T15:11:41.628Z</time>
      </trkpt>
      <trkpt lat="47.4428" lon="-0.52742">
        <ele>-20.80714</ele>
        <time>2011-11-03T15:11:45.634Z</time>
      </trkpt>
      <trkpt lat="47.44302" lon="-0.5273">
        <ele>-19.969616</ele>
        <time>2011-11-03T15:11:49.623Z</time>
      </trkpt>
      <trkpt lat="47.44319" lon="-0.52721">
        <ele>-19.875893</ele>
        <time>2011-11-03T15:11:52.624Z</time>
      </trkpt>
      <trkpt lat="47.44337" lon="-0.52712">
        <ele>-20.085514</ele>
        <time>2011-11-03T15:11:55.628Z</time>
      </trkpt>
      <trkpt lat="47.44357" lon="-0.52695">
        <ele>-20.343964</ele>
        <time>2011-11-03T15:11:59.628Z</time>
      </trkpt>
      <trkpt lat="47.44377" lon="-0.52703">
        <ele>-20.553333</ele>
        <time>2011-11-03T15:12:03.632Z</time>
      </trkpt>
      <trkpt lat="47.44396" lon="-0.52716">
        <ele>-20.750061</ele>
        <time>2011-11-03T15:12:07.631Z</time>
      </trkpt>
      <trkpt lat="47.44419" lon="-0.52725">
        <ele>-20.590397</ele>
        <time>2011-11-03T15:12:11.631Z</time>
      </trkpt>
      <trkpt lat="47.44437" lon="-0.52731">
        <ele>-20.386627</ele>
        <time>2011-11-03T15:12:14.618Z</time>
      </trkpt>
      <trkpt lat="47.44455" lon="-0.52731">
        <ele>-20.300282</ele>
        <time>2011-11-03T15:12:17.618Z</time>
      </trkpt>
      <trkpt lat="47.44476" lon="-0.52728">
        <ele>-19.872478</ele>
        <time>2011-11-03T15:12:20.624Z</time>
      </trkpt>
      <trkpt lat="47.44497" lon="-0.52721">
        <ele>-19.715618</ele>
        <time>2011-11-03T15:12:23.621Z</time>
      </trkpt>
      <trkpt lat="47.44518" lon="-0.52713">
        <ele>-19.598431</ele>
        <time>2011-11-03T15:12:26.618Z</time>
      </trkpt>
      <trkpt lat="47.44537" lon="-0.52701">
        <ele>-19.130962</ele>
        <time>2011-11-03T15:12:29.641Z</time>
      </trkpt>
      <trkpt lat="47.44557" lon="-0.52693">
        <ele>-18.320629</ele>
        <time>2011-11-03T15:12:33.626Z</time>
      </trkpt>
      <trkpt lat="47.44562" lon="-0.52725">
        <ele>-17.669006</ele>
        <time>2011-11-03T15:12:38.625Z</time>
      </trkpt>
      <trkpt lat="47.44575" lon="-0.52749">
        <ele>-17.911655</ele>
        <time>2011-11-03T15:12:42.628Z</time>
      </trkpt>
      <trkpt lat="47.44591" lon="-0.52775">
        <ele>-18.23637</ele>
        <time>2011-11-03T15:12:46.631Z</time>
      </trkpt>
      <trkpt lat="47.44603" lon="-0.52795">
        <ele>-18.354511</ele>
        <time>2011-11-03T15:12:49.638Z</time>
      </trkpt>
      <trkpt lat="47.44616" lon="-0.52815">
        <ele>-18.476902</ele>
        <time>2011-11-03T15:12:52.634Z</time>
      </trkpt>
      <trkpt lat="47.4463" lon="-0.52835">
        <ele>-18.540115</ele>
        <time>2011-11-03T15:12:55.637Z</time>
      </trkpt>
      <trkpt lat="47.44643" lon="-0.52856">
        <ele>-18.65947</ele>
        <time>2011-11-03T15:12:58.643Z</time>
      </trkpt>
      <trkpt lat="47.44656" lon="-0.52875">
        <ele>-18.969929</ele>
        <time>2011-11-03T15:13:01.628Z</time>
      </trkpt>
      <trkpt lat="47.44676" lon="-0.52895">
        <ele>-19.334965</ele>
        <time>2011-11-03T15:13:05.648Z</time>
      </trkpt>
      <trkpt lat="47.44693" lon="-0.52905">
        <ele>-19.53796</ele>
        <time>2011-11-03T15:13:08.629Z</time>
      </trkpt>
      <trkpt lat="47.44715" lon="-0.5291">
        <ele>-19.749245</ele>
        <time>2011-11-03T15:13:11.627Z</time>
      </trkpt>
      <trkpt lat="47.44735" lon="-0.52915">
        <ele>-20.172161</ele>
        <time>2011-11-03T15:13:14.626Z</time>
      </trkpt>
      <trkpt lat="47.44754" lon="-0.52925">
        <ele>-20.546875</ele>
        <time>2011-11-03T15:13:17.629Z</time>
      </trkpt>
      <trkpt lat="47.44773" lon="-0.52937">
        <ele>-20.701668</ele>
        <time>2011-11-03T15:13:20.629Z</time>
      </trkpt>
      <trkpt lat="47.44791" lon="-0.52948">
        <ele>-20.592201</ele>
        <time>2011-11-03T15:13:23.638Z</time>
      </trkpt>
      <trkpt lat="47.44809" lon="-0.52957">
        <ele>-20.355083</ele>
        <time>2011-11-03T15:13:26.630Z</time>
      </trkpt>
      <trkpt lat="47.44827" lon="-0.52967">
        <ele>-20.012798</ele>
        <time>2011-11-03T15:13:29.634Z</time>
      </trkpt>
      <trkpt lat="47.44845" lon="-0.52978">
        <ele>-19.81076</ele>
        <time>2011-11-03T15:13:32.639Z</time>
      </trkpt>
      <trkpt lat="47.44864" lon="-0.52989">
        <ele>-19.521889</ele>
        <time>2011-11-03T15:13:35.636Z</time>
      </trkpt>
      <trkpt lat="47.44882" lon="-0.52998">
        <ele>-19.288364</ele>
        <time>2011-11-03T15:13:38.631Z</time>
      </trkpt>
      <trkpt lat="47.44901" lon="-0.53007">
        <ele>-18.916248</ele>
        <time>2011-11-03T15:13:41.613Z</time>
      </trkpt>
      <trkpt lat="47.4492" lon="-0.53016">
        <ele>-18.535023</ele>
        <time>2011-11-03T15:13:44.632Z</time>
      </trkpt>
      <trkpt lat="47.44938" lon="-0.53026">
        <ele>-18.343784</ele>
        <time>2011-11-03T15:13:47.641Z</time>
      </trkpt>
      <trkpt lat="47.44959" lon="-0.53036">
        <ele>-18.31831</ele>
        <time>2011-11-03T15:13:51.696Z</time>
      </trkpt>
      <trkpt lat="47.4498" lon="-0.53044">
        <ele>-18.300056</ele>
        <time>2011-11-03T15:13:56.638Z</time>
      </trkpt>
      <trkpt lat="47.44992" lon="-0.53067">
        <ele>-18.044075</ele>
        <time>2011-11-03T15:14:00.632Z</time>
      </trkpt>
      <trkpt lat="47.45007" lon="-0.53094">
        <ele>-17.126328</ele>
        <time>2011-11-03T15:14:04.628Z</time>
      </trkpt>
      <trkpt lat="47.45021" lon="-0.53114">
        <ele>-16.354496</ele>
        <time>2011-11-03T15:14:07.651Z</time>
      </trkpt>
      <trkpt lat="47.45035" lon="-0.53136">
        <ele>-15.447777</ele>
        <time>2011-11-03T15:14:10.636Z</time>
      </trkpt>
      <trkpt lat="47.45048" lon="-0.5316">
        <ele>-14.574696</ele>
        <time>2011-11-03T15:14:13.654Z</time>
      </trkpt>
      <trkpt lat="47.45058" lon="-0.53186">
        <ele>-13.949615</ele>
        <time>2011-11-03T15:14:16.635Z</time>
      </trkpt>
      <trkpt lat="47.45065" lon="-0.53212">
        <ele>-13.50528</ele>
        <time>2011-11-03T15:14:19.631Z</time>
      </trkpt>
      <trkpt lat="47.45069" lon="-0.53239">
        <ele>-13.014458</ele>
        <time>2011-11-03T15:14:22.640Z</time>
      </trkpt>
      <trkpt lat="47.45073" lon="-0.53267">
        <ele>-12.728088</ele>
        <time>2011-11-03T15:14:25.640Z</time>
      </trkpt>
      <trkpt lat="47.45077" lon="-0.53294">
        <ele>-12.822159</ele>
        <time>2011-11-03T15:14:28.634Z</time>
      </trkpt>
      <trkpt lat="47.45085" lon="-0.53321">
        <ele>-13.045361</ele>
        <time>2011-11-03T15:14:31.637Z</time>
      </trkpt>
      <trkpt lat="47.45094" lon="-0.53346">
        <ele>-13.191418</ele>
        <time>2011-11-03T15:14:34.635Z</time>
      </trkpt>
      <trkpt lat="47.45105" lon="-0.53371">
        <ele>-12.725048</ele>
        <time>2011-11-03T15:14:37.632Z</time>
      </trkpt>
      <trkpt lat="47.45117" lon="-0.53395">
        <ele>-12.158833</ele>
        <time>2011-11-03T15:14:40.635Z</time>
      </trkpt>
      <trkpt lat="47.45128" lon="-0.53419">
        <ele>-11.823921</ele>
        <time>2011-11-03T15:14:43.632Z</time>
      </trkpt>
      <trkpt lat="47.45139" lon="-0.53442">
        <ele>-11.778862</ele>
        <time>2011-11-03T15:14:46.631Z</time>
      </trkpt>
      <trkpt lat="47.45152" lon="-0.53471">
        <ele>-12.254341</ele>
        <time>2011-11-03T15:14:50.619Z</time>
      </trkpt>
      <trkpt lat="47.45164" lon="-0.535">
        <ele>-12.579411</ele>
        <time>2011-11-03T15:14:54.618Z</time>
      </trkpt>
      <trkpt lat="47.4517" lon="-0.53525">
        <ele>-12.493542</ele>
        <time>2011-11-03T15:14:57.672Z</time>
      </trkpt>
      <trkpt lat="47.45173" lon="-0.53552">
        <ele>-12.178093</ele>
        <time>2011-11-03T15:15:00.653Z</time>
      </trkpt>
      <trkpt lat="47.45192" lon="-0.53565">
        <ele>-10.914555</ele>
        <time>2011-11-03T15:15:06.630Z</time>
      </trkpt>
      <trkpt lat="47.45213" lon="-0.53556">
        <ele>-9.782063</ele>
        <time>2011-11-03T15:15:10.639Z</time>
      </trkpt>
      <trkpt lat="47.45235" lon="-0.53547">
        <ele>-9.453629</ele>
        <time>2011-11-03T15:15:14.642Z</time>
      </trkpt>
      <trkpt lat="47.45257" lon="-0.53537">
        <ele>-9.279228</ele>
        <time>2011-11-03T15:15:18.646Z</time>
      </trkpt>
      <trkpt lat="47.45279" lon="-0.53524">
        <ele>-8.992752</ele>
        <time>2011-11-03T15:15:22.633Z</time>
      </trkpt>
      <trkpt lat="47.45301" lon="-0.53511">
        <ele>-8.966583</ele>
        <time>2011-11-03T15:15:26.632Z</time>
      </trkpt>
      <trkpt lat="47.45323" lon="-0.53499">
        <ele>-8.917645</ele>
        <time>2011-11-03T15:15:30.644Z</time>
      </trkpt>
      <trkpt lat="47.45345" lon="-0.53485">
        <ele>-8.366367</ele>
        <time>2011-11-03T15:15:34.644Z</time>
      </trkpt>
      <trkpt lat="47.45366" lon="-0.53469">
        <ele>-7.668606</ele>
        <time>2011-11-03T15:15:38.642Z</time>
      </trkpt>
      <trkpt lat="47.45382" lon="-0.53458">
        <ele>-7.073162</ele>
        <time>2011-11-03T15:15:41.641Z</time>
      </trkpt>
      <trkpt lat="47.45399" lon="-0.53448">
        <ele>-6.501907</ele>
        <time>2011-11-03T15:15:44.653Z</time>
      </trkpt>
      <trkpt lat="47.45416" lon="-0.53439">
        <ele>-5.913982</ele>
        <time>2011-11-03T15:15:47.635Z</time>
      </trkpt>
      <trkpt lat="47.45434" lon="-0.53432">
        <ele>-5.423084</ele>
        <time>2011-11-03T15:15:50.647Z</time>
      </trkpt>
      <trkpt lat="47.45452" lon="-0.53423">
        <ele>-5.073269</ele>
        <time>2011-11-03T15:15:53.628Z</time>
      </trkpt>
      <trkpt lat="47.4547" lon="-0.53413">
        <ele>-4.941349</ele>
        <time>2011-11-03T15:15:56.629Z</time>
      </trkpt>
      <trkpt lat="47.45489" lon="-0.53406">
        <ele>-4.935696</ele>
        <time>2011-11-03T15:15:59.642Z</time>
      </trkpt>
      <trkpt lat="47.45507" lon="-0.53402">
        <ele>-5.080463</ele>
        <time>2011-11-03T15:16:02.637Z</time>
      </trkpt>
      <trkpt lat="47.45527" lon="-0.53397">
        <ele>-5.120403</ele>
        <time>2011-11-03T15:16:05.742Z</time>
      </trkpt>
      <trkpt lat="47.45546" lon="-0.53393">
        <ele>-5.207279</ele>
        <time>2011-11-03T15:16:08.628Z</time>
      </trkpt>
      <trkpt lat="47.45566" lon="-0.5339">
        <ele>-5.409916</ele>
        <time>2011-11-03T15:16:11.647Z</time>
      </trkpt>
      <trkpt lat="47.45584" lon="-0.53384">
        <ele>-5.660404</ele>
        <time>2011-11-03T15:16:14.631Z</time>
      </trkpt>
      <trkpt lat="47.45603" lon="-0.53377">
        <ele>-5.71093</ele>
        <time>2011-11-03T15:16:17.630Z</time>
      </trkpt>
      <trkpt lat="47.4562" lon="-0.53369">
        <ele>-5.562027</ele>
        <time>2011-11-03T15:16:20.629Z</time>
      </trkpt>
      <trkpt lat="47.45639" lon="-0.53361">
        <ele>-5.505718</ele>
        <time>2011-11-03T15:16:23.638Z</time>
      </trkpt>
      <trkpt lat="47.45656" lon="-0.53353">
        <ele>-5.47823</ele>
        <time>2011-11-03T15:16:26.637Z</time>
      </trkpt>
      <trkpt lat="47.45679" lon="-0.53344">
        <ele>-4.686581</ele>
        <time>2011-11-03T15:16:30.637Z</time>
      </trkpt>
      <trkpt lat="47.457" lon="-0.53335">
        <ele>-4.040302</ele>
        <time>2011-11-03T15:16:34.635Z</time>
      </trkpt>
      <trkpt lat="47.45718" lon="-0.53324">
        <ele>-3.566696</ele>
        <time>2011-11-03T15:16:39.634Z</time>
      </trkpt>
      <trkpt lat="47.45741" lon="-0.53315">
        <ele>-3.504002</ele>
        <time>2011-11-03T15:16:56.632Z</time>
      </trkpt>
      <trkpt lat="47.4576" lon="-0.53311">
        <ele>-3.280277</ele>
        <time>2011-11-03T15:17:01.633Z</time>
      </trkpt>
      <trkpt lat="47.4578" lon="-0.53307">
        <ele>-3.02734</ele>
        <time>2011-11-03T15:17:05.636Z</time>
      </trkpt>
      <trkpt lat="47.45803" lon="-0.53303">
        <ele>-3.041759</ele>
        <time>2011-11-03T15:17:09.636Z</time>
      </trkpt>
      <trkpt lat="47.45823" lon="-0.53301">
        <ele>-3.243664</ele>
        <time>2011-11-03T15:17:13.638Z</time>
      </trkpt>
      <trkpt lat="47.45841" lon="-0.53293">
        <ele>-3.372082</ele>
        <time>2011-11-03T15:17:19.633Z</time>
      </trkpt>
      <trkpt lat="47.4584" lon="-0.53263">
        <ele>-3.515572</ele>
        <time>2011-11-03T15:17:29.637Z</time>
      </trkpt>
      <trkpt lat="47.45849" lon="-0.53236">
        <ele>-3.595428</ele>
        <time>2011-11-03T15:17:35.629Z</time>
      </trkpt>
      <trkpt lat="47.45863" lon="-0.53218">
        <ele>-3.690609</ele>
        <time>2011-11-03T15:17:42.708Z</time>
      </trkpt>
      <trkpt lat="47.45875" lon="-0.53194">
        <ele>-4.419422</ele>
        <time>2011-11-03T15:19:28.590Z</time>
      </trkpt>
    </trkseg>
  </trk>
</gpx>